<?xml version="1.0" encoding="UTF-8" standalone="no" ?><gpx xmlns="http://www.topografix.com/GPX/1/1" xmlns:gpxx="http://www.garmin.com/xmlschemas/GpxExtensions/v3" xmlns:gpxtrkx="http://www.garmin.com/xmlschemas/TrackStatsExtension/v1" xmlns:wptx1="http://www.garmin.com/xmlschemas/WaypointExtension/v1" xmlns:gpxtpx="http://www.garmin.com/xmlschemas/TrackPointExtension/v1" creator="GPSMAP 62s" version="1.1" xmlns:xsi="http://www.w3.org/2001/XMLSchema-instance" xsi:schemaLocation="http://www.topografix.com/GPX/1/1 http://www.topografix.com/GPX/1/1/gpx.xsd http://www.garmin.com/xmlschemas/GpxExtensions/v3 http://www8.garmin.com/xmlschemas/GpxExtensionsv3.xsd http://www.garmin.com/xmlschemas/TrackStatsExtension/v1 http://www8.garmin.com/xmlschemas/TrackStatsExtension.xsd http://www.garmin.com/xmlschemas/WaypointExtension/v1 http://www8.garmin.com/xmlschemas/WaypointExtensionv1.xsd http://www.garmin.com/xmlschemas/TrackPointExtension/v1 http://www.garmin.com/xmlschemas/TrackPointExtensionv1.xsd"><metadata><link href="http://www.garmin.com"><text>Garmin International</text></link><time>2026-04-25T14:42:48Z</time></metadata><trk><name>2026-04-25 17:42:42</name><extensions><gpxx:TrackExtension><gpxx:DisplayColor>Blue</gpxx:DisplayColor></gpxx:TrackExtension><gpxtrkx:TrackStatsExtension><gpxtrkx:Distance>184695</gpxtrkx:Distance><gpxtrkx:TotalElapsedTime>29055043</gpxtrkx:TotalElapsedTime><gpxtrkx:MovingTime>23930</gpxtrkx:MovingTime><gpxtrkx:StoppedTime>26894</gpxtrkx:StoppedTime><gpxtrkx:MovingSpeed>8</gpxtrkx:MovingSpeed><gpxtrkx:MaxSpeed>22</gpxtrkx:MaxSpeed><gpxtrkx:MaxElevation>245</gpxtrkx:MaxElevation><gpxtrkx:MinElevation>14</gpxtrkx:MinElevation><gpxtrkx:Ascent>130</gpxtrkx:Ascent><gpxtrkx:Descent>228</gpxtrkx:Descent><gpxtrkx:AvgAscentRate>0</gpxtrkx:AvgAscentRate><gpxtrkx:MaxAscentRate>0</gpxtrkx:MaxAscentRate><gpxtrkx:AvgDescentRate>0</gpxtrkx:AvgDescentRate><gpxtrkx:MaxDescentRate>-1</gpxtrkx:MaxDescentRate></gpxtrkx:TrackStatsExtension></extensions><trkseg><trkpt lat="59.2864328530" lon="30.4669306520"><ele>77.52</ele><time>2025-05-24T07:52:05Z</time></trkpt><trkpt lat="59.2864463478" lon="30.4668946099"><ele>78.97</ele><time>2025-05-24T07:52:10Z</time></trkpt><trkpt lat="59.2864658777" lon="30.4669308197"><ele>78.97</ele><time>2025-05-24T07:52:23Z</time></trkpt><trkpt lat="59.2863678932" lon="30.4668391217"><ele>79.45</ele><time>2025-05-24T07:52:35Z</time></trkpt><trkpt lat="59.2863590922" lon="30.4668847192"><ele>78.97</ele><time>2025-05-24T07:52:50Z</time></trkpt><trkpt lat="59.2863591760" lon="30.4668851383"><ele>78.48</ele><time>2025-05-24T07:53:09Z</time></trkpt><trkpt lat="59.2863486148" lon="30.4669101164"><ele>78.48</ele><time>2025-05-24T07:53:20Z</time></trkpt><trkpt lat="59.2863471899" lon="30.4669288918"><ele>78.48</ele><time>2025-05-24T07:53:42Z</time></trkpt><trkpt lat="59.2863540631" lon="30.4669211805"><ele>78.00</ele><time>2025-05-24T07:54:00Z</time></trkpt><trkpt lat="59.2863663007" lon="30.4669253714"><ele>78.00</ele><time>2025-05-24T07:54:18Z</time></trkpt><trkpt lat="59.2863789573" lon="30.4669260420"><ele>77.52</ele><time>2025-05-24T07:54:38Z</time></trkpt><trkpt lat="59.2863367964" lon="30.4669335019"><ele>77.52</ele><time>2025-05-24T07:54:58Z</time></trkpt><trkpt lat="59.2863423284" lon="30.4669274669"><ele>75.12</ele><time>2025-05-24T07:55:08Z</time></trkpt><trkpt lat="59.2863607686" lon="30.4669246171"><ele>76.56</ele><time>2025-05-24T07:55:27Z</time></trkpt><trkpt lat="59.2863538954" lon="30.4668799415"><ele>76.56</ele><time>2025-05-24T07:55:51Z</time></trkpt><trkpt lat="59.2863691505" lon="30.4668780137"><ele>76.56</ele><time>2025-05-24T07:56:08Z</time></trkpt><trkpt lat="59.2863566615" lon="30.4668867309"><ele>76.08</ele><time>2025-05-24T07:56:30Z</time></trkpt><trkpt lat="59.2863518000" lon="30.4669198394"><ele>76.08</ele><time>2025-05-24T07:56:52Z</time></trkpt><trkpt lat="59.2863500398" lon="30.4669702146"><ele>75.60</ele><time>2025-05-24T07:57:17Z</time></trkpt><trkpt lat="59.2863523867" lon="30.4669516906"><ele>75.12</ele><time>2025-05-24T07:57:29Z</time></trkpt><trkpt lat="59.2863385566" lon="30.4669579770"><ele>75.12</ele><time>2025-05-24T07:57:52Z</time></trkpt><trkpt lat="59.2863424122" lon="30.4669405427"><ele>75.12</ele><time>2025-05-24T07:58:15Z</time></trkpt><trkpt lat="59.2863367125" lon="30.4669573065"><ele>74.64</ele><time>2025-05-24T07:58:33Z</time></trkpt><trkpt lat="59.2863621097" lon="30.4669215158"><ele>74.64</ele><time>2025-05-24T07:58:55Z</time></trkpt><trkpt lat="59.2863693181" lon="30.4669090267"><ele>74.64</ele><time>2025-05-24T07:59:12Z</time></trkpt><trkpt lat="59.2863486148" lon="30.4669741541"><ele>73.68</ele><time>2025-05-24T07:59:35Z</time></trkpt><trkpt lat="59.2863373831" lon="30.4669437278"><ele>73.68</ele><time>2025-05-24T07:59:57Z</time></trkpt><trkpt lat="59.2863526382" lon="30.4668903351"><ele>73.68</ele><time>2025-05-24T08:00:16Z</time></trkpt><trkpt lat="59.2863683961" lon="30.4669521097"><ele>73.20</ele><time>2025-05-24T08:00:41Z</time></trkpt><trkpt lat="59.2863865849" lon="30.4669124633"><ele>73.20</ele><time>2025-05-24T08:01:00Z</time></trkpt><trkpt lat="59.2863657139" lon="30.4669313226"><ele>72.72</ele><time>2025-05-24T08:01:29Z</time></trkpt><trkpt lat="59.2863416579" lon="30.4669078533"><ele>72.72</ele><time>2025-05-24T08:01:48Z</time></trkpt><trkpt lat="59.2863512132" lon="30.4669263773"><ele>72.24</ele><time>2025-05-24T08:02:08Z</time></trkpt><trkpt lat="59.2863599304" lon="30.4669162352"><ele>71.76</ele><time>2025-05-24T08:02:38Z</time></trkpt><trkpt lat="59.2863424961" lon="30.4669213481"><ele>71.76</ele><time>2025-05-24T08:03:07Z</time></trkpt><trkpt lat="59.2863511294" lon="30.4669351783"><ele>71.76</ele><time>2025-05-24T08:03:30Z</time></trkpt><trkpt lat="59.2863648757" lon="30.4669425543"><ele>71.27</ele><time>2025-05-24T08:03:53Z</time></trkpt><trkpt lat="59.2863339465" lon="30.4669603240"><ele>71.76</ele><time>2025-05-24T08:04:09Z</time></trkpt><trkpt lat="59.2863335274" lon="30.4669568036"><ele>69.83</ele><time>2025-05-24T08:04:13Z</time></trkpt><trkpt lat="59.2863393109" lon="30.4669485055"><ele>71.27</ele><time>2025-05-24T08:04:17Z</time></trkpt><trkpt lat="59.2863461841" lon="30.4669341724"><ele>71.27</ele><time>2025-05-24T08:04:47Z</time></trkpt><trkpt lat="59.2863474414" lon="30.4669263773"><ele>71.27</ele><time>2025-05-24T08:05:10Z</time></trkpt><trkpt lat="59.2863494530" lon="30.4669398721"><ele>70.79</ele><time>2025-05-24T08:05:28Z</time></trkpt><trkpt lat="59.2863603495" lon="30.4669302329"><ele>70.79</ele><time>2025-05-24T08:05:50Z</time></trkpt><trkpt lat="59.2863551527" lon="30.4669389501"><ele>70.31</ele><time>2025-05-24T08:06:09Z</time></trkpt><trkpt lat="59.2863590084" lon="30.4669184145"><ele>70.31</ele><time>2025-05-24T08:06:27Z</time></trkpt><trkpt lat="59.2863360420" lon="30.4669411294"><ele>69.83</ele><time>2025-05-24T08:06:49Z</time></trkpt><trkpt lat="59.2863402329" lon="30.4669238627"><ele>70.31</ele><time>2025-05-24T08:07:12Z</time></trkpt><trkpt lat="59.2863360420" lon="30.4669169057"><ele>69.83</ele><time>2025-05-24T08:07:34Z</time></trkpt><trkpt lat="59.2863633670" lon="30.4669246171"><ele>70.79</ele><time>2025-05-24T08:08:02Z</time></trkpt><trkpt lat="59.2863813881" lon="30.4669243656"><ele>69.83</ele><time>2025-05-24T08:08:20Z</time></trkpt><trkpt lat="59.2863687314" lon="30.4669435602"><ele>69.83</ele><time>2025-05-24T08:08:37Z</time></trkpt><trkpt lat="59.2863487825" lon="30.4669286404"><ele>69.83</ele><time>2025-05-24T08:09:03Z</time></trkpt><trkpt lat="59.2863513809" lon="30.4669294786"><ele>69.35</ele><time>2025-05-24T08:09:28Z</time></trkpt><trkpt lat="59.2863457650" lon="30.4669049196"><ele>69.35</ele><time>2025-05-24T08:09:59Z</time></trkpt><trkpt lat="59.2863574158" lon="30.4669335857"><ele>68.87</ele><time>2025-05-24T08:10:22Z</time></trkpt><trkpt lat="59.2863343656" lon="30.4669187497"><ele>68.87</ele><time>2025-05-24T08:10:45Z</time></trkpt><trkpt lat="59.2863588408" lon="30.4668797739"><ele>68.39</ele><time>2025-05-24T08:11:07Z</time></trkpt><trkpt lat="59.2863591760" lon="30.4669047520"><ele>68.39</ele><time>2025-05-24T08:11:22Z</time></trkpt><trkpt lat="59.2863649596" lon="30.4669464100"><ele>67.91</ele><time>2025-05-24T08:11:43Z</time></trkpt><trkpt lat="59.2863168474" lon="30.4669046681"><ele>67.43</ele><time>2025-05-24T08:12:03Z</time></trkpt><trkpt lat="59.2863347847" lon="30.4669333342"><ele>67.43</ele><time>2025-05-24T08:12:22Z</time></trkpt><trkpt lat="59.2863390595" lon="30.4669516068"><ele>66.95</ele><time>2025-05-24T08:12:43Z</time></trkpt><trkpt lat="59.2863284983" lon="30.4669551272"><ele>66.95</ele><time>2025-05-24T08:13:05Z</time></trkpt><trkpt lat="59.2863236368" lon="30.4669519421"><ele>66.95</ele><time>2025-05-24T08:13:25Z</time></trkpt><trkpt lat="59.2863150872" lon="30.4669483379"><ele>66.47</ele><time>2025-05-24T08:13:50Z</time></trkpt><trkpt lat="59.2863187753" lon="30.4668962024"><ele>66.47</ele><time>2025-05-24T08:14:15Z</time></trkpt><trkpt lat="59.2863149196" lon="30.4669056740"><ele>65.51</ele><time>2025-05-24T08:14:34Z</time></trkpt><trkpt lat="59.2862968147" lon="30.4668745771"><ele>65.99</ele><time>2025-05-24T08:15:01Z</time></trkpt><trkpt lat="59.2863150034" lon="30.4669622518"><ele>65.51</ele><time>2025-05-24T08:15:22Z</time></trkpt><trkpt lat="59.2863385566" lon="30.4669633415"><ele>65.03</ele><time>2025-05-24T08:15:44Z</time></trkpt><trkpt lat="59.2863450944" lon="30.4670172371"><ele>65.51</ele><time>2025-05-24T08:16:04Z</time></trkpt><trkpt lat="59.2863237206" lon="30.4670036584"><ele>65.51</ele><time>2025-05-24T08:16:29Z</time></trkpt><trkpt lat="59.2863595951" lon="30.4669288918"><ele>65.03</ele><time>2025-05-24T08:16:52Z</time></trkpt><trkpt lat="59.2863514647" lon="30.4669613298"><ele>65.03</ele><time>2025-05-24T08:17:16Z</time></trkpt><trkpt lat="59.2863330245" lon="30.4669257067"><ele>65.03</ele><time>2025-05-24T08:17:33Z</time></trkpt><trkpt lat="59.2863463517" lon="30.4669201747"><ele>65.03</ele><time>2025-05-24T08:17:51Z</time></trkpt><trkpt lat="59.2863371316" lon="30.4669892415"><ele>65.03</ele><time>2025-05-24T08:18:09Z</time></trkpt><trkpt lat="59.2863470223" lon="30.4669506010"><ele>64.55</ele><time>2025-05-24T08:18:27Z</time></trkpt><trkpt lat="59.2863560747" lon="30.4669900797"><ele>64.55</ele><time>2025-05-24T08:18:44Z</time></trkpt><trkpt lat="59.2863627803" lon="30.4669378605"><ele>65.03</ele><time>2025-05-24T08:19:05Z</time></trkpt><trkpt lat="59.2863180209" lon="30.4669039976"><ele>64.55</ele><time>2025-05-24T08:19:31Z</time></trkpt><trkpt lat="59.2863435019" lon="30.4669290595"><ele>64.55</ele><time>2025-05-24T08:19:50Z</time></trkpt><trkpt lat="59.2862803023" lon="30.4669620004"><ele>64.55</ele><time>2025-05-24T08:20:13Z</time></trkpt><trkpt lat="59.2863449268" lon="30.4669069313"><ele>64.07</ele><time>2025-05-24T08:20:36Z</time></trkpt><trkpt lat="59.2863274924" lon="30.4669078533"><ele>64.55</ele><time>2025-05-24T08:20:55Z</time></trkpt><trkpt lat="59.2863274086" lon="30.4668817017"><ele>64.07</ele><time>2025-05-24T08:21:18Z</time></trkpt><trkpt lat="59.2863292526" lon="30.4668995552"><ele>64.07</ele><time>2025-05-24T08:21:42Z</time></trkpt><trkpt lat="59.2863143329" lon="30.4668959510"><ele>64.07</ele><time>2025-05-24T08:22:10Z</time></trkpt><trkpt lat="59.2863056995" lon="30.4669517744"><ele>64.07</ele><time>2025-05-24T08:22:41Z</time></trkpt><trkpt lat="59.2862963956" lon="30.4669252038"><ele>64.07</ele><time>2025-05-24T08:22:45Z</time></trkpt><trkpt lat="59.2860681564" lon="30.4669036623"><ele>63.10</ele><time>2025-05-24T08:47:52Z</time></trkpt><trkpt lat="59.2860550806" lon="30.4669417161"><ele>61.18</ele><time>2025-05-24T08:48:14Z</time></trkpt><trkpt lat="59.2860877700" lon="30.4669362679"><ele>58.30</ele><time>2025-05-24T08:48:28Z</time></trkpt><trkpt lat="59.2860687431" lon="30.4668857250"><ele>55.41</ele><time>2025-05-24T08:48:47Z</time></trkpt><trkpt lat="59.2860917933" lon="30.4668705538"><ele>52.05</ele><time>2025-05-24T08:49:08Z</time></trkpt><trkpt lat="59.2860997561" lon="30.4668780975"><ele>50.61</ele><time>2025-05-24T08:49:27Z</time></trkpt><trkpt lat="59.2861089762" lon="30.4669184983"><ele>52.05</ele><time>2025-05-24T08:49:38Z</time></trkpt><trkpt lat="59.2861296795" lon="30.4668732360"><ele>50.13</ele><time>2025-05-24T08:49:47Z</time></trkpt><trkpt lat="59.2861414980" lon="30.4668998066"><ele>50.13</ele><time>2025-05-24T08:50:21Z</time></trkpt><trkpt lat="59.2861161847" lon="30.4669193365"><ele>49.16</ele><time>2025-05-24T08:50:49Z</time></trkpt><trkpt lat="59.2861236446" lon="30.4669223540"><ele>49.16</ele><time>2025-05-24T08:51:23Z</time></trkpt><trkpt lat="59.2861434259" lon="30.4669353459"><ele>49.16</ele><time>2025-05-24T08:51:51Z</time></trkpt><trkpt lat="59.2861513048" lon="30.4669672810"><ele>49.16</ele><time>2025-05-24T08:52:26Z</time></trkpt><trkpt lat="59.2861500476" lon="30.4669329152"><ele>49.16</ele><time>2025-05-24T08:52:56Z</time></trkpt><trkpt lat="59.2861505505" lon="30.4669274669"><ele>49.16</ele><time>2025-05-24T08:53:34Z</time></trkpt><trkpt lat="59.2861506343" lon="30.4669620842"><ele>47.24</ele><time>2025-05-24T08:54:01Z</time></trkpt><trkpt lat="59.2861461919" lon="30.4669778422"><ele>49.16</ele><time>2025-05-24T08:54:12Z</time></trkpt><trkpt lat="59.2860860936" lon="30.4668756668"><ele>49.16</ele><time>2025-05-24T08:54:34Z</time></trkpt><trkpt lat="59.2860865127" lon="30.4669197556"><ele>49.65</ele><time>2025-05-24T08:54:53Z</time></trkpt><trkpt lat="59.2861142568" lon="30.4670147225"><ele>49.65</ele><time>2025-05-24T08:55:15Z</time></trkpt><trkpt lat="59.2861547414" lon="30.4670359287"><ele>49.65</ele><time>2025-05-24T08:55:35Z</time></trkpt><trkpt lat="59.2861476168" lon="30.4670628347"><ele>49.65</ele><time>2025-05-24T08:55:53Z</time></trkpt><trkpt lat="59.2861520592" lon="30.4671308957"><ele>50.13</ele><time>2025-05-24T08:56:23Z</time></trkpt><trkpt lat="59.2861109041" lon="30.4672275390"><ele>49.65</ele><time>2025-05-24T08:56:34Z</time></trkpt><trkpt lat="59.2860352155" lon="30.4674677644"><ele>50.13</ele><time>2025-05-24T08:56:51Z</time></trkpt><trkpt lat="59.2859881092" lon="30.4676397610"><ele>50.61</ele><time>2025-05-24T08:57:04Z</time></trkpt><trkpt lat="59.2859446071" lon="30.4678761307"><ele>50.13</ele><time>2025-05-24T08:57:19Z</time></trkpt><trkpt lat="59.2859391589" lon="30.4681796394"><ele>50.13</ele><time>2025-05-24T08:57:36Z</time></trkpt><trkpt lat="59.2859222274" lon="30.4684036039"><ele>50.61</ele><time>2025-05-24T08:57:49Z</time></trkpt><trkpt lat="59.2859106604" lon="30.4684414063"><ele>50.13</ele><time>2025-05-24T08:57:51Z</time></trkpt><trkpt lat="59.2859042063" lon="30.4684817232"><ele>50.61</ele><time>2025-05-24T08:57:53Z</time></trkpt><trkpt lat="59.2859135941" lon="30.4686622694"><ele>50.13</ele><time>2025-05-24T08:58:02Z</time></trkpt><trkpt lat="59.2859187070" lon="30.4689884931"><ele>50.61</ele><time>2025-05-24T08:58:19Z</time></trkpt><trkpt lat="59.2859083135" lon="30.4692268744"><ele>50.61</ele><time>2025-05-24T08:58:34Z</time></trkpt><trkpt lat="59.2859202996" lon="30.4692773335"><ele>51.09</ele><time>2025-05-24T08:58:48Z</time></trkpt><trkpt lat="59.2858739477" lon="30.4694837797"><ele>51.57</ele><time>2025-05-24T08:59:08Z</time></trkpt><trkpt lat="59.2858165316" lon="30.4696513340"><ele>52.53</ele><time>2025-05-24T08:59:22Z</time></trkpt><trkpt lat="59.2857735325" lon="30.4699052218"><ele>53.97</ele><time>2025-05-24T08:59:37Z</time></trkpt><trkpt lat="59.2857743707" lon="30.4703271668"><ele>54.93</ele><time>2025-05-24T08:59:55Z</time></trkpt><trkpt lat="59.2857850157" lon="30.4706312623"><ele>56.37</ele><time>2025-05-24T09:00:12Z</time></trkpt><trkpt lat="59.2858479638" lon="30.4708546400"><ele>56.86</ele><time>2025-05-24T09:00:28Z</time></trkpt><trkpt lat="59.2859016079" lon="30.4711142275"><ele>58.78</ele><time>2025-05-24T09:00:43Z</time></trkpt><trkpt lat="59.2859081458" lon="30.4710598290"><ele>58.78</ele><time>2025-05-24T09:00:57Z</time></trkpt><trkpt lat="59.2859120015" lon="30.4712329991"><ele>58.78</ele><time>2025-05-24T09:01:12Z</time></trkpt><trkpt lat="59.2858959921" lon="30.4712837934"><ele>58.30</ele><time>2025-05-24T09:01:27Z</time></trkpt><trkpt lat="59.2858769652" lon="30.4712469131"><ele>57.82</ele><time>2025-05-24T09:01:47Z</time></trkpt><trkpt lat="59.2859476246" lon="30.4713256191"><ele>58.30</ele><time>2025-05-24T09:02:20Z</time></trkpt><trkpt lat="59.2858957406" lon="30.4713547882"><ele>58.78</ele><time>2025-05-24T09:02:38Z</time></trkpt><trkpt lat="59.2859112471" lon="30.4711672850"><ele>59.26</ele><time>2025-05-24T09:02:50Z</time></trkpt><trkpt lat="59.2858321220" lon="30.4709986411"><ele>58.78</ele><time>2025-05-24T09:03:04Z</time></trkpt><trkpt lat="59.2857450340" lon="30.4709400516"><ele>58.78</ele><time>2025-05-24T09:03:11Z</time></trkpt><trkpt lat="59.2856250051" lon="30.4709395487"><ele>58.30</ele><time>2025-05-24T09:03:25Z</time></trkpt><trkpt lat="59.2856100015" lon="30.4709838051"><ele>58.30</ele><time>2025-05-24T09:03:27Z</time></trkpt><trkpt lat="59.2855400965" lon="30.4713352583"><ele>58.30</ele><time>2025-05-24T09:03:43Z</time></trkpt><trkpt lat="59.2855361570" lon="30.4714029003"><ele>58.30</ele><time>2025-05-24T09:03:46Z</time></trkpt><trkpt lat="59.2855216563" lon="30.4718344007"><ele>57.82</ele><time>2025-05-24T09:04:05Z</time></trkpt><trkpt lat="59.2854815070" lon="30.4722973332"><ele>57.34</ele><time>2025-05-24T09:04:22Z</time></trkpt><trkpt lat="59.2854354065" lon="30.4726880975"><ele>57.34</ele><time>2025-05-24T09:04:39Z</time></trkpt><trkpt lat="59.2854337301" lon="30.4727115668"><ele>57.82</ele><time>2025-05-24T09:04:40Z</time></trkpt><trkpt lat="59.2854167148" lon="30.4730466753"><ele>57.82</ele><time>2025-05-24T09:04:55Z</time></trkpt><trkpt lat="59.2854121048" lon="30.4734364338"><ele>57.82</ele><time>2025-05-24T09:05:11Z</time></trkpt><trkpt lat="59.2854253482" lon="30.4738468956"><ele>56.86</ele><time>2025-05-24T09:05:29Z</time></trkpt><trkpt lat="59.2854564451" lon="30.4743003566"><ele>56.86</ele><time>2025-05-24T09:05:46Z</time></trkpt><trkpt lat="59.2855100054" lon="30.4745912086"><ele>56.86</ele><time>2025-05-24T09:05:55Z</time></trkpt><trkpt lat="59.2856616341" lon="30.4749334417"><ele>56.86</ele><time>2025-05-24T09:06:11Z</time></trkpt><trkpt lat="59.2856652383" lon="30.4750632774"><ele>56.86</ele><time>2025-05-24T09:06:25Z</time></trkpt><trkpt lat="59.2856302019" lon="30.4750734195"><ele>56.86</ele><time>2025-05-24T09:06:40Z</time></trkpt><trkpt lat="59.2856395058" lon="30.4749787040"><ele>56.86</ele><time>2025-05-24T09:06:59Z</time></trkpt><trkpt lat="59.2856260948" lon="30.4750417359"><ele>56.86</ele><time>2025-05-24T09:07:22Z</time></trkpt><trkpt lat="59.2856418528" lon="30.4750525486"><ele>56.86</ele><time>2025-05-24T09:07:40Z</time></trkpt><trkpt lat="59.2856892943" lon="30.4750835616"><ele>56.86</ele><time>2025-05-24T09:08:01Z</time></trkpt><trkpt lat="59.2856733687" lon="30.4751093779"><ele>56.86</ele><time>2025-05-24T09:08:26Z</time></trkpt><trkpt lat="59.2856739555" lon="30.4750996549"><ele>56.86</ele><time>2025-05-24T09:08:51Z</time></trkpt><trkpt lat="59.2856676690" lon="30.4751177598"><ele>56.86</ele><time>2025-05-24T09:09:16Z</time></trkpt><trkpt lat="59.2856621370" lon="30.4750401434"><ele>56.86</ele><time>2025-05-24T09:09:49Z</time></trkpt><trkpt lat="59.2856668308" lon="30.4750372097"><ele>56.86</ele><time>2025-05-24T09:10:14Z</time></trkpt><trkpt lat="59.2856258433" lon="30.4750621878"><ele>56.86</ele><time>2025-05-24T09:10:51Z</time></trkpt><trkpt lat="59.2856116779" lon="30.4750923626"><ele>57.34</ele><time>2025-05-24T09:11:17Z</time></trkpt><trkpt lat="59.2856470495" lon="30.4751089588"><ele>57.34</ele><time>2025-05-24T09:11:43Z</time></trkpt><trkpt lat="59.2856364883" lon="30.4751113057"><ele>57.82</ele><time>2025-05-24T09:12:10Z</time></trkpt><trkpt lat="59.2856636457" lon="30.4751167540"><ele>57.82</ele><time>2025-05-24T09:12:39Z</time></trkpt><trkpt lat="59.2856422719" lon="30.4751329310"><ele>57.82</ele><time>2025-05-24T09:13:06Z</time></trkpt><trkpt lat="59.2856510729" lon="30.4750248883"><ele>57.82</ele><time>2025-05-24T09:13:26Z</time></trkpt><trkpt lat="59.2856480554" lon="30.4750014190"><ele>58.30</ele><time>2025-05-24T09:13:28Z</time></trkpt><trkpt lat="59.2855575308" lon="30.4746843316"><ele>57.82</ele><time>2025-05-24T09:13:45Z</time></trkpt><trkpt lat="59.2854868714" lon="30.4744207207"><ele>57.34</ele><time>2025-05-24T09:14:00Z</time></trkpt><trkpt lat="59.2854891345" lon="30.4740188085"><ele>57.34</ele><time>2025-05-24T09:14:16Z</time></trkpt><trkpt lat="59.2854507454" lon="30.4736270383"><ele>57.82</ele><time>2025-05-24T09:14:33Z</time></trkpt><trkpt lat="59.2854373343" lon="30.4734070972"><ele>57.82</ele><time>2025-05-24T09:14:41Z</time></trkpt><trkpt lat="59.2853906471" lon="30.4730188474"><ele>57.82</ele><time>2025-05-24T09:14:57Z</time></trkpt><trkpt lat="59.2853284534" lon="30.4727429990"><ele>57.82</ele><time>2025-05-24T09:15:11Z</time></trkpt><trkpt lat="59.2852845322" lon="30.4726970661"><ele>57.82</ele><time>2025-05-24T09:15:26Z</time></trkpt><trkpt lat="59.2852496635" lon="30.4725098144"><ele>58.30</ele><time>2025-05-24T09:15:40Z</time></trkpt><trkpt lat="59.2851929180" lon="30.4723404162"><ele>58.30</ele><time>2025-05-24T09:15:56Z</time></trkpt><trkpt lat="59.2851125356" lon="30.4723984189"><ele>57.82</ele><time>2025-05-24T09:16:11Z</time></trkpt><trkpt lat="59.2849578056" lon="30.4723780509"><ele>57.82</ele><time>2025-05-24T09:16:27Z</time></trkpt><trkpt lat="59.2849086877" lon="30.4723456129"><ele>57.82</ele><time>2025-05-24T09:16:32Z</time></trkpt><trkpt lat="59.2848635931" lon="30.4722990096"><ele>57.82</ele><time>2025-05-24T09:16:46Z</time></trkpt><trkpt lat="59.2849416286" lon="30.4723184556"><ele>57.82</ele><time>2025-05-24T09:17:08Z</time></trkpt><trkpt lat="59.2849901598" lon="30.4723527376"><ele>57.82</ele><time>2025-05-24T09:17:29Z</time></trkpt><trkpt lat="59.2850710452" lon="30.4724302702"><ele>57.82</ele><time>2025-05-24T09:17:49Z</time></trkpt><trkpt lat="59.2852189858" lon="30.4724734370"><ele>57.82</ele><time>2025-05-24T09:18:05Z</time></trkpt><trkpt lat="59.2853000388" lon="30.4725891910"><ele>57.82</ele><time>2025-05-24T09:18:18Z</time></trkpt><trkpt lat="59.2853842769" lon="30.4726662207"><ele>57.82</ele><time>2025-05-24T09:18:33Z</time></trkpt><trkpt lat="59.2853735480" lon="30.4726691544"><ele>57.82</ele><time>2025-05-24T09:18:59Z</time></trkpt><trkpt lat="59.2854025494" lon="30.4726699088"><ele>57.82</ele><time>2025-05-24T09:19:41Z</time></trkpt><trkpt lat="59.2854066566" lon="30.4727455974"><ele>58.30</ele><time>2025-05-24T09:20:18Z</time></trkpt><trkpt lat="59.2854179721" lon="30.4727279115"><ele>58.30</ele><time>2025-05-24T09:20:55Z</time></trkpt><trkpt lat="59.2854235042" lon="30.4727408197"><ele>58.30</ele><time>2025-05-24T09:21:26Z</time></trkpt><trkpt lat="59.2854312155" lon="30.4726685677"><ele>57.82</ele><time>2025-05-24T09:21:57Z</time></trkpt><trkpt lat="59.2855010368" lon="30.4726419970"><ele>57.82</ele><time>2025-05-24T09:22:09Z</time></trkpt><trkpt lat="59.2854899727" lon="30.4721333832"><ele>57.82</ele><time>2025-05-24T09:22:28Z</time></trkpt><trkpt lat="59.2854987737" lon="30.4719219077"><ele>57.82</ele><time>2025-05-24T09:22:37Z</time></trkpt><trkpt lat="59.2855334748" lon="30.4715065844"><ele>57.82</ele><time>2025-05-24T09:22:55Z</time></trkpt><trkpt lat="59.2855759710" lon="30.4710938595"><ele>58.30</ele><time>2025-05-24T09:23:12Z</time></trkpt><trkpt lat="59.2857084051" lon="30.4706688132"><ele>57.34</ele><time>2025-05-24T09:23:29Z</time></trkpt><trkpt lat="59.2857673299" lon="30.4704658035"><ele>55.89</ele><time>2025-05-24T09:23:39Z</time></trkpt><trkpt lat="59.2858793121" lon="30.4704109021"><ele>54.45</ele><time>2025-05-24T09:23:53Z</time></trkpt><trkpt lat="59.2860122491" lon="30.4707260616"><ele>54.45</ele><time>2025-05-24T09:24:09Z</time></trkpt><trkpt lat="59.2860841658" lon="30.4708085395"><ele>53.97</ele><time>2025-05-24T09:24:25Z</time></trkpt><trkpt lat="59.2860837467" lon="30.4708156642"><ele>53.49</ele><time>2025-05-24T09:24:49Z</time></trkpt><trkpt lat="59.2860471178" lon="30.4707326833"><ele>53.97</ele><time>2025-05-24T09:25:12Z</time></trkpt><trkpt lat="59.2859522346" lon="30.4705702420"><ele>53.97</ele><time>2025-05-24T09:25:27Z</time></trkpt><trkpt lat="59.2859166116" lon="30.4704688210"><ele>53.97</ele><time>2025-05-24T09:25:32Z</time></trkpt><trkpt lat="59.2858978361" lon="30.4704059567"><ele>53.97</ele><time>2025-05-24T09:25:35Z</time></trkpt><trkpt lat="59.2859125882" lon="30.4701593611"><ele>53.01</ele><time>2025-05-24T09:25:49Z</time></trkpt><trkpt lat="59.2859923001" lon="30.4700652324"><ele>51.57</ele><time>2025-05-24T09:26:00Z</time></trkpt><trkpt lat="59.2861622013" lon="30.4698838480"><ele>50.61</ele><time>2025-05-24T09:26:14Z</time></trkpt><trkpt lat="59.2862593476" lon="30.4699309543"><ele>50.61</ele><time>2025-05-24T09:26:21Z</time></trkpt><trkpt lat="59.2865455057" lon="30.4698521644"><ele>50.13</ele><time>2025-05-24T09:26:40Z</time></trkpt><trkpt lat="59.2867697217" lon="30.4695971869"><ele>49.65</ele><time>2025-05-24T09:26:58Z</time></trkpt><trkpt lat="59.2869843822" lon="30.4692179058"><ele>49.65</ele><time>2025-05-24T09:27:19Z</time></trkpt><trkpt lat="59.2871687841" lon="30.4688588250"><ele>50.13</ele><time>2025-05-24T09:27:37Z</time></trkpt><trkpt lat="59.2873305548" lon="30.4684321024"><ele>50.61</ele><time>2025-05-24T09:27:56Z</time></trkpt><trkpt lat="59.2873970233" lon="30.4679945670"><ele>50.61</ele><time>2025-05-24T09:28:12Z</time></trkpt><trkpt lat="59.2874002922" lon="30.4676775634"><ele>50.61</ele><time>2025-05-24T09:28:25Z</time></trkpt><trkpt lat="59.2874786630" lon="30.4675234202"><ele>49.16</ele><time>2025-05-24T09:28:37Z</time></trkpt><trkpt lat="59.2874683533" lon="30.4673882201"><ele>48.20</ele><time>2025-05-24T09:28:51Z</time></trkpt><trkpt lat="59.2875338998" lon="30.4674545210"><ele>48.20</ele><time>2025-05-24T09:29:06Z</time></trkpt><trkpt lat="59.2875439581" lon="30.4674737994"><ele>47.72</ele><time>2025-05-24T09:29:27Z</time></trkpt><trkpt lat="59.2875199858" lon="30.4673895612"><ele>48.20</ele><time>2025-05-24T09:29:49Z</time></trkpt><trkpt lat="59.2875293735" lon="30.4673718754"><ele>48.20</ele><time>2025-05-24T09:30:17Z</time></trkpt><trkpt lat="59.2875268590" lon="30.4673746414"><ele>48.20</ele><time>2025-05-24T09:30:47Z</time></trkpt><trkpt lat="59.2875211593" lon="30.4673706181"><ele>48.68</ele><time>2025-05-24T09:30:53Z</time></trkpt><trkpt lat="59.2874805909" lon="30.4673323967"><ele>48.20</ele><time>2025-05-24T09:30:56Z</time></trkpt><trkpt lat="59.2874650843" lon="30.4674005415"><ele>48.68</ele><time>2025-05-24T09:31:11Z</time></trkpt><trkpt lat="59.2874833569" lon="30.4674197361"><ele>48.20</ele><time>2025-05-24T09:31:35Z</time></trkpt><trkpt lat="59.2874665931" lon="30.4673370905"><ele>48.68</ele><time>2025-05-24T09:31:50Z</time></trkpt><trkpt lat="59.2874542717" lon="30.4673467297"><ele>48.68</ele><time>2025-05-24T09:32:20Z</time></trkpt><trkpt lat="59.2874375079" lon="30.4673339054"><ele>48.68</ele><time>2025-05-24T09:32:44Z</time></trkpt><trkpt lat="59.2874453869" lon="30.4673697799"><ele>48.68</ele><time>2025-05-24T09:33:10Z</time></trkpt><trkpt lat="59.2874352448" lon="30.4673621524"><ele>48.68</ele><time>2025-05-24T09:33:37Z</time></trkpt><trkpt lat="59.2874391843" lon="30.4673925787"><ele>48.68</ele><time>2025-05-24T09:33:56Z</time></trkpt><trkpt lat="59.2874355800" lon="30.4673779104"><ele>48.68</ele><time>2025-05-24T09:34:03Z</time></trkpt><trkpt lat="59.2873972747" lon="30.4674168862"><ele>49.65</ele><time>2025-05-24T09:34:07Z</time></trkpt><trkpt lat="59.2873608135" lon="30.4674296267"><ele>51.09</ele><time>2025-05-24T09:34:11Z</time></trkpt><trkpt lat="59.2872661818" lon="30.4674020503"><ele>51.09</ele><time>2025-05-24T09:34:19Z</time></trkpt><trkpt lat="59.2870781757" lon="30.4671761580"><ele>51.09</ele><time>2025-05-24T09:34:36Z</time></trkpt><trkpt lat="59.2868630122" lon="30.4670325760"><ele>51.09</ele><time>2025-05-24T09:34:53Z</time></trkpt><trkpt lat="59.2867829651" lon="30.4669878166"><ele>50.61</ele><time>2025-05-24T09:35:00Z</time></trkpt><trkpt lat="59.2865222041" lon="30.4668807797"><ele>50.61</ele><time>2025-05-24T09:35:20Z</time></trkpt><trkpt lat="59.2862668913" lon="30.4668122996"><ele>50.61</ele><time>2025-05-24T09:35:38Z</time></trkpt><trkpt lat="59.2860466149" lon="30.4667808674"><ele>50.61</ele><time>2025-05-24T09:35:54Z</time></trkpt><trkpt lat="59.2860167753" lon="30.4667781852"><ele>50.13</ele><time>2025-05-24T09:35:56Z</time></trkpt><trkpt lat="59.2859928031" lon="30.4667678755"><ele>50.13</ele><time>2025-05-24T09:35:58Z</time></trkpt><trkpt lat="59.2857263424" lon="30.4666364472"><ele>50.13</ele><time>2025-05-24T09:36:17Z</time></trkpt><trkpt lat="59.2854923196" lon="30.4665552266"><ele>50.13</ele><time>2025-05-24T09:36:32Z</time></trkpt><trkpt lat="59.2852526810" lon="30.4664492793"><ele>49.16</ele><time>2025-05-24T09:36:49Z</time></trkpt><trkpt lat="59.2850350030" lon="30.4662676435"><ele>49.65</ele><time>2025-05-24T09:37:07Z</time></trkpt><trkpt lat="59.2848494276" lon="30.4661212116"><ele>49.65</ele><time>2025-05-24T09:37:25Z</time></trkpt><trkpt lat="59.2848588992" lon="30.4660310224"><ele>48.20</ele><time>2025-05-24T09:37:36Z</time></trkpt><trkpt lat="59.2848308198" lon="30.4659611173"><ele>48.20</ele><time>2025-05-24T09:37:49Z</time></trkpt><trkpt lat="59.2848434765" lon="30.4659850895"><ele>47.72</ele><time>2025-05-24T09:38:12Z</time></trkpt><trkpt lat="59.2848060094" lon="30.4659900349"><ele>48.68</ele><time>2025-05-24T09:38:34Z</time></trkpt><trkpt lat="59.2848482542" lon="30.4660442658"><ele>48.68</ele><time>2025-05-24T09:38:56Z</time></trkpt><trkpt lat="59.2848053388" lon="30.4661239777"><ele>49.16</ele><time>2025-05-24T09:39:01Z</time></trkpt><trkpt lat="59.2845651973" lon="30.4659896996"><ele>49.16</ele><time>2025-05-24T09:39:20Z</time></trkpt><trkpt lat="59.2843630258" lon="30.4659153521"><ele>49.16</ele><time>2025-05-24T09:39:36Z</time></trkpt><trkpt lat="59.2843461782" lon="30.4658920504"><ele>49.65</ele><time>2025-05-24T09:39:38Z</time></trkpt><trkpt lat="59.2843435798" lon="30.4657531623"><ele>48.68</ele><time>2025-05-24T09:39:46Z</time></trkpt><trkpt lat="59.2842917796" lon="30.4658604506"><ele>49.16</ele><time>2025-05-24T09:40:02Z</time></trkpt><trkpt lat="59.2843538057" lon="30.4659663979"><ele>49.16</ele><time>2025-05-24T09:40:16Z</time></trkpt><trkpt lat="59.2843463458" lon="30.4660047870"><ele>49.16</ele><time>2025-05-24T09:40:42Z</time></trkpt><trkpt lat="59.2843792029" lon="30.4660255741"><ele>49.16</ele><time>2025-05-24T09:41:14Z</time></trkpt><trkpt lat="59.2843806278" lon="30.4659899510"><ele>48.68</ele><time>2025-05-24T09:41:41Z</time></trkpt><trkpt lat="59.2843776941" lon="30.4660347104"><ele>49.16</ele><time>2025-05-24T09:42:09Z</time></trkpt><trkpt lat="59.2843932007" lon="30.4660110734"><ele>49.16</ele><time>2025-05-24T09:42:37Z</time></trkpt><trkpt lat="59.2843957990" lon="30.4660149291"><ele>49.16</ele><time>2025-05-24T09:43:15Z</time></trkpt><trkpt lat="59.2843434121" lon="30.4660015181"><ele>49.16</ele><time>2025-05-24T09:43:45Z</time></trkpt><trkpt lat="59.2843278218" lon="30.4659642186"><ele>49.16</ele><time>2025-05-24T09:44:07Z</time></trkpt><trkpt lat="59.2842500377" lon="30.4658969957"><ele>48.68</ele><time>2025-05-24T09:44:19Z</time></trkpt><trkpt lat="59.2840704974" lon="30.4657572694"><ele>49.16</ele><time>2025-05-24T09:44:33Z</time></trkpt><trkpt lat="59.2838552501" lon="30.4656403419"><ele>49.16</ele><time>2025-05-24T09:44:50Z</time></trkpt><trkpt lat="59.2838436831" lon="30.4656430241"><ele>49.16</ele><time>2025-05-24T09:44:51Z</time></trkpt><trkpt lat="59.2837076448" lon="30.4656726960"><ele>48.68</ele><time>2025-05-24T09:45:07Z</time></trkpt><trkpt lat="59.2837029509" lon="30.4656803235"><ele>48.68</ele><time>2025-05-24T09:45:09Z</time></trkpt><trkpt lat="59.2836076487" lon="30.4658577684"><ele>48.68</ele><time>2025-05-24T09:45:25Z</time></trkpt><trkpt lat="59.2835337203" lon="30.4657424334"><ele>48.68</ele><time>2025-05-24T09:45:39Z</time></trkpt><trkpt lat="59.2835233267" lon="30.4656792339"><ele>48.68</ele><time>2025-05-24T09:45:41Z</time></trkpt><trkpt lat="59.2835035454" lon="30.4653648287"><ele>48.68</ele><time>2025-05-24T09:45:56Z</time></trkpt><trkpt lat="59.2834598757" lon="30.4652561992"><ele>49.16</ele><time>2025-05-24T09:46:02Z</time></trkpt><trkpt lat="59.2834815849" lon="30.4651967715"><ele>49.16</ele><time>2025-05-24T09:46:16Z</time></trkpt><trkpt lat="59.2835146934" lon="30.4651671834"><ele>49.16</ele><time>2025-05-24T09:46:19Z</time></trkpt><trkpt lat="59.2835683376" lon="30.4650476575"><ele>48.68</ele><time>2025-05-24T09:46:33Z</time></trkpt><trkpt lat="59.2835017014" lon="30.4651887249"><ele>49.16</ele><time>2025-05-24T09:46:48Z</time></trkpt><trkpt lat="59.2834372446" lon="30.4652265273"><ele>49.65</ele><time>2025-05-24T09:46:54Z</time></trkpt><trkpt lat="59.2835028749" lon="30.4656384978"><ele>49.16</ele><time>2025-05-24T09:47:12Z</time></trkpt><trkpt lat="59.2835053895" lon="30.4657856002"><ele>49.16</ele><time>2025-05-24T09:47:29Z</time></trkpt><trkpt lat="59.2834983487" lon="30.4658094049"><ele>49.16</ele><time>2025-05-24T09:47:48Z</time></trkpt><trkpt lat="59.2835700139" lon="30.4658512305"><ele>48.68</ele><time>2025-05-24T09:48:10Z</time></trkpt><trkpt lat="59.2835830059" lon="30.4658679105"><ele>48.68</ele><time>2025-05-24T09:48:39Z</time></trkpt><trkpt lat="59.2835457064" lon="30.4660049547"><ele>49.16</ele><time>2025-05-24T09:49:00Z</time></trkpt><trkpt lat="59.2835455388" lon="30.4660061281"><ele>49.65</ele><time>2025-05-24T09:49:18Z</time></trkpt><trkpt lat="59.2836036254" lon="30.4659474548"><ele>49.65</ele><time>2025-05-24T09:49:37Z</time></trkpt><trkpt lat="59.2835306190" lon="30.4659777973"><ele>50.13</ele><time>2025-05-24T09:49:59Z</time></trkpt><trkpt lat="59.2835768033" lon="30.4659705888"><ele>50.13</ele><time>2025-05-24T09:50:22Z</time></trkpt><trkpt lat="59.2835931480" lon="30.4659685772"><ele>50.61</ele><time>2025-05-24T09:50:40Z</time></trkpt><trkpt lat="59.2835610453" lon="30.4660435952"><ele>50.61</ele><time>2025-05-24T09:51:01Z</time></trkpt><trkpt lat="59.2835965846" lon="30.4660063796"><ele>50.61</ele><time>2025-05-24T09:51:21Z</time></trkpt><trkpt lat="59.2835735343" lon="30.4660034459"><ele>50.61</ele><time>2025-05-24T09:51:51Z</time></trkpt><trkpt lat="59.2835557647" lon="30.4660202097"><ele>51.09</ele><time>2025-05-24T09:52:13Z</time></trkpt><trkpt lat="59.2835722771" lon="30.4660130851"><ele>51.09</ele><time>2025-05-24T09:52:38Z</time></trkpt><trkpt lat="59.2835533340" lon="30.4659951478"><ele>51.09</ele><time>2025-05-24T09:52:58Z</time></trkpt><trkpt lat="59.2835620511" lon="30.4659986682"><ele>51.09</ele><time>2025-05-24T09:53:20Z</time></trkpt><trkpt lat="59.2835861910" lon="30.4659526516"><ele>51.57</ele><time>2025-05-24T09:53:44Z</time></trkpt><trkpt lat="59.2835817486" lon="30.4659300204"><ele>51.57</ele><time>2025-05-24T09:54:12Z</time></trkpt><trkpt lat="59.2835661583" lon="30.4659206327"><ele>52.53</ele><time>2025-05-24T09:54:35Z</time></trkpt><trkpt lat="59.2835918907" lon="30.4659783840"><ele>52.05</ele><time>2025-05-24T09:55:05Z</time></trkpt><trkpt lat="59.2835322954" lon="30.4660537373"><ele>52.05</ele><time>2025-05-24T09:55:32Z</time></trkpt><trkpt lat="59.2835095804" lon="30.4660608619"><ele>52.05</ele><time>2025-05-24T09:55:54Z</time></trkpt><trkpt lat="59.2834676709" lon="30.4660321958"><ele>52.05</ele><time>2025-05-24T09:56:17Z</time></trkpt><trkpt lat="59.2834622227" lon="30.4659991711"><ele>52.05</ele><time>2025-05-24T09:56:28Z</time></trkpt><trkpt lat="59.2834506556" lon="30.4659568425"><ele>52.53</ele><time>2025-05-24T09:56:48Z</time></trkpt><trkpt lat="59.2835482210" lon="30.4659887776"><ele>52.53</ele><time>2025-05-24T09:57:08Z</time></trkpt><trkpt lat="59.2835027073" lon="30.4660178628"><ele>53.01</ele><time>2025-05-24T09:57:29Z</time></trkpt><trkpt lat="59.2835067306" lon="30.4660016019"><ele>53.01</ele><time>2025-05-24T09:57:52Z</time></trkpt><trkpt lat="59.2835901305" lon="30.4660566710"><ele>53.01</ele><time>2025-05-24T09:58:17Z</time></trkpt><trkpt lat="59.2836032901" lon="30.4660205450"><ele>53.01</ele><time>2025-05-24T09:58:37Z</time></trkpt><trkpt lat="59.2834918108" lon="30.4660186172"><ele>53.01</ele><time>2025-05-24T09:58:59Z</time></trkpt><trkpt lat="59.2834747117" lon="30.4660637118"><ele>53.01</ele><time>2025-05-24T09:59:19Z</time></trkpt><trkpt lat="59.2835419346" lon="30.4659960698"><ele>53.01</ele><time>2025-05-24T09:59:37Z</time></trkpt><trkpt lat="59.2835267633" lon="30.4659689125"><ele>53.49</ele><time>2025-05-24T10:00:02Z</time></trkpt><trkpt lat="59.2835305352" lon="30.4660028592"><ele>53.01</ele><time>2025-05-24T10:00:22Z</time></trkpt><trkpt lat="59.2835046351" lon="30.4659725167"><ele>53.01</ele><time>2025-05-24T10:00:38Z</time></trkpt><trkpt lat="59.2835167050" lon="30.4660770390"><ele>53.97</ele><time>2025-05-24T10:00:54Z</time></trkpt><trkpt lat="59.2834777292" lon="30.4662993271"><ele>54.45</ele><time>2025-05-24T10:01:04Z</time></trkpt><trkpt lat="59.2834436148" lon="30.4666137323"><ele>55.89</ele><time>2025-05-24T10:01:19Z</time></trkpt><trkpt lat="59.2834572773" lon="30.4666878283"><ele>55.89</ele><time>2025-05-24T10:01:34Z</time></trkpt><trkpt lat="59.2835491430" lon="30.4666816257"><ele>55.89</ele><time>2025-05-24T10:01:55Z</time></trkpt><trkpt lat="59.2836145218" lon="30.4666091222"><ele>55.41</ele><time>2025-05-24T10:02:14Z</time></trkpt><trkpt lat="59.2835626379" lon="30.4667519499"><ele>55.89</ele><time>2025-05-24T10:02:35Z</time></trkpt><trkpt lat="59.2835132685" lon="30.4669277184"><ele>57.34</ele><time>2025-05-24T10:02:50Z</time></trkpt><trkpt lat="59.2834977619" lon="30.4670542013"><ele>58.30</ele><time>2025-05-24T10:03:02Z</time></trkpt><trkpt lat="59.2835585307" lon="30.4672547802"><ele>59.26</ele><time>2025-05-24T10:03:15Z</time></trkpt><trkpt lat="59.2837005202" lon="30.4674925748"><ele>60.22</ele><time>2025-05-24T10:03:31Z</time></trkpt><trkpt lat="59.2837685812" lon="30.4678021185"><ele>60.22</ele><time>2025-05-24T10:03:49Z</time></trkpt><trkpt lat="59.2838565074" lon="30.4681871831"><ele>59.74</ele><time>2025-05-24T10:04:08Z</time></trkpt><trkpt lat="59.2838781327" lon="30.4683679808"><ele>58.78</ele><time>2025-05-24T10:04:24Z</time></trkpt><trkpt lat="59.2839476187" lon="30.4685381334"><ele>58.78</ele><time>2025-05-24T10:04:40Z</time></trkpt><trkpt lat="59.2840090580" lon="30.4685925320"><ele>59.26</ele><time>2025-05-24T10:04:57Z</time></trkpt><trkpt lat="59.2841072939" lon="30.4688590765"><ele>60.70</ele><time>2025-05-24T10:05:14Z</time></trkpt><trkpt lat="59.2841140833" lon="30.4686822183"><ele>60.22</ele><time>2025-05-24T10:05:27Z</time></trkpt><trkpt lat="59.2841899395" lon="30.4685612675"><ele>60.22</ele><time>2025-05-24T10:05:42Z</time></trkpt><trkpt lat="59.2842035182" lon="30.4685058631"><ele>60.22</ele><time>2025-05-24T10:06:02Z</time></trkpt><trkpt lat="59.2841452640" lon="30.4685942922"><ele>60.22</ele><time>2025-05-24T10:06:19Z</time></trkpt><trkpt lat="59.2840778735" lon="30.4687921051"><ele>60.22</ele><time>2025-05-24T10:06:35Z</time></trkpt><trkpt lat="59.2841984052" lon="30.4691678658"><ele>60.22</ele><time>2025-05-24T10:06:52Z</time></trkpt><trkpt lat="59.2843881715" lon="30.4694579635"><ele>60.70</ele><time>2025-05-24T10:07:10Z</time></trkpt><trkpt lat="59.2844937835" lon="30.4697140306"><ele>60.70</ele><time>2025-05-24T10:07:24Z</time></trkpt><trkpt lat="59.2845986411" lon="30.4697323032"><ele>61.66</ele><time>2025-05-24T10:07:37Z</time></trkpt><trkpt lat="59.2847898323" lon="30.4695120268"><ele>61.18</ele><time>2025-05-24T10:07:55Z</time></trkpt><trkpt lat="59.2849769164" lon="30.4694416188"><ele>60.22</ele><time>2025-05-24T10:08:11Z</time></trkpt><trkpt lat="59.2849345040" lon="30.4695110209"><ele>60.22</ele><time>2025-05-24T10:08:25Z</time></trkpt><trkpt lat="59.2849022336" lon="30.4695249349"><ele>60.70</ele><time>2025-05-24T10:08:28Z</time></trkpt><trkpt lat="59.2847449891" lon="30.4696324747"><ele>60.70</ele><time>2025-05-24T10:08:46Z</time></trkpt><trkpt lat="59.2847150657" lon="30.4697806668"><ele>59.26</ele><time>2025-05-24T10:08:59Z</time></trkpt><trkpt lat="59.2847489286" lon="30.4705570824"><ele>59.26</ele><time>2025-05-24T10:09:21Z</time></trkpt><trkpt lat="59.2848044168" lon="30.4708871618"><ele>58.78</ele><time>2025-05-24T10:09:32Z</time></trkpt><trkpt lat="59.2849112023" lon="30.4712279700"><ele>58.30</ele><time>2025-05-24T10:09:48Z</time></trkpt><trkpt lat="59.2849552911" lon="30.4716648348"><ele>57.82</ele><time>2025-05-24T10:10:04Z</time></trkpt><trkpt lat="59.2850123718" lon="30.4719694331"><ele>57.82</ele><time>2025-05-24T10:10:17Z</time></trkpt><trkpt lat="59.2850852106" lon="30.4721538350"><ele>57.34</ele><time>2025-05-24T10:10:27Z</time></trkpt><trkpt lat="59.2851915769" lon="30.4726381414"><ele>56.86</ele><time>2025-05-24T10:10:43Z</time></trkpt><trkpt lat="59.2852866277" lon="30.4729325138"><ele>56.37</ele><time>2025-05-24T10:10:57Z</time></trkpt><trkpt lat="59.2854204029" lon="30.4728217889"><ele>56.86</ele><time>2025-05-24T10:11:12Z</time></trkpt><trkpt lat="59.2854566127" lon="30.4724130873"><ele>55.89</ele><time>2025-05-24T10:11:31Z</time></trkpt><trkpt lat="59.2854729574" lon="30.4718135297"><ele>56.37</ele><time>2025-05-24T10:11:49Z</time></trkpt><trkpt lat="59.2854732089" lon="30.4717410263"><ele>56.37</ele><time>2025-05-24T10:11:52Z</time></trkpt><trkpt lat="59.2855208181" lon="30.4713302292"><ele>56.86</ele><time>2025-05-24T10:12:08Z</time></trkpt><trkpt lat="59.2856297828" lon="30.4708068632"><ele>56.86</ele><time>2025-05-24T10:12:24Z</time></trkpt><trkpt lat="59.2857326288" lon="30.4703995865"><ele>53.97</ele><time>2025-05-24T10:12:40Z</time></trkpt><trkpt lat="59.2857845966" lon="30.4701871891"><ele>53.01</ele><time>2025-05-24T10:12:58Z</time></trkpt><trkpt lat="59.2857642286" lon="30.4700390808"><ele>52.53</ele><time>2025-05-24T10:13:07Z</time></trkpt><trkpt lat="59.2857334670" lon="30.4697116837"><ele>51.57</ele><time>2025-05-24T10:13:19Z</time></trkpt><trkpt lat="59.2858927231" lon="30.4693180695"><ele>49.65</ele><time>2025-05-24T10:13:35Z</time></trkpt><trkpt lat="59.2859634664" lon="30.4689889122"><ele>49.16</ele><time>2025-05-24T10:13:50Z</time></trkpt><trkpt lat="59.2860312760" lon="30.4686745908"><ele>49.65</ele><time>2025-05-24T10:14:06Z</time></trkpt><trkpt lat="59.2860522307" lon="30.4685906041"><ele>49.65</ele><time>2025-05-24T10:14:10Z</time></trkpt><trkpt lat="59.2861108202" lon="30.4682807252"><ele>49.65</ele><time>2025-05-24T10:14:25Z</time></trkpt><trkpt lat="59.2861351278" lon="30.4678864405"><ele>49.65</ele><time>2025-05-24T10:14:41Z</time></trkpt><trkpt lat="59.2861404084" lon="30.4675896373"><ele>49.65</ele><time>2025-05-24T10:14:53Z</time></trkpt><trkpt lat="59.2861166038" lon="30.4674655013"><ele>49.65</ele><time>2025-05-24T10:14:58Z</time></trkpt><trkpt lat="59.2861336190" lon="30.4671177361"><ele>48.68</ele><time>2025-05-24T10:15:14Z</time></trkpt><trkpt lat="59.2861341219" lon="30.4670216795"><ele>48.68</ele><time>2025-05-24T10:15:18Z</time></trkpt><trkpt lat="59.2860903684" lon="30.4669575579"><ele>49.16</ele><time>2025-05-24T10:15:29Z</time></trkpt><trkpt lat="59.2860879377" lon="30.4669614974"><ele>49.16</ele><time>2025-05-24T10:15:30Z</time></trkpt></trkseg><trkseg><trkpt lat="59.9084402248" lon="30.3114543110"><ele>16.00</ele><time>2025-05-29T09:35:39Z</time></trkpt><trkpt lat="59.9084714893" lon="30.3109483793"><ele>16.00</ele><time>2025-05-29T09:35:48Z</time></trkpt><trkpt lat="59.9084661249" lon="30.3109829966"><ele>15.04</ele><time>2025-05-29T09:36:04Z</time></trkpt><trkpt lat="59.9084717408" lon="30.3108431865"><ele>15.04</ele><time>2025-05-29T09:36:18Z</time></trkpt><trkpt lat="59.9084719922" lon="30.3107518237"><ele>15.04</ele><time>2025-05-29T09:36:36Z</time></trkpt><trkpt lat="59.9084507860" lon="30.3107281867"><ele>14.08</ele><time>2025-05-29T09:37:05Z</time></trkpt><trkpt lat="59.9084709864" lon="30.3106592875"><ele>14.56</ele><time>2025-05-29T09:37:28Z</time></trkpt><trkpt lat="59.9084668793" lon="30.3107751254"><ele>14.56</ele><time>2025-05-29T09:37:56Z</time></trkpt><trkpt lat="59.9084839784" lon="30.3106957488"><ele>14.56</ele><time>2025-05-29T09:38:22Z</time></trkpt><trkpt lat="59.9084877502" lon="30.3106860258"><ele>14.08</ele><time>2025-05-29T09:38:35Z</time></trkpt><trkpt lat="59.9084833916" lon="30.3106587008"><ele>15.52</ele><time>2025-05-29T09:38:36Z</time></trkpt><trkpt lat="59.9084806256" lon="30.3106175456"><ele>15.04</ele><time>2025-05-29T09:38:37Z</time></trkpt><trkpt lat="59.9084891751" lon="30.3103052359"><ele>15.04</ele><time>2025-05-29T09:38:46Z</time></trkpt><trkpt lat="59.9084862415" lon="30.3102636617"><ele>15.04</ele><time>2025-05-29T09:38:55Z</time></trkpt><trkpt lat="59.9084864091" lon="30.3102354985"><ele>15.04</ele><time>2025-05-29T09:38:56Z</time></trkpt><trkpt lat="59.9084993172" lon="30.3100155573"><ele>14.56</ele><time>2025-05-29T09:39:08Z</time></trkpt><trkpt lat="59.9085062742" lon="30.3100201674"><ele>13.60</ele><time>2025-05-29T09:39:38Z</time></trkpt><trkpt lat="59.9085714016" lon="30.3099719714"><ele>14.56</ele><time>2025-05-29T09:40:12Z</time></trkpt><trkpt lat="59.9085644446" lon="30.3099707142"><ele>15.04</ele><time>2025-05-29T09:40:36Z</time></trkpt><trkpt lat="59.9085597508" lon="30.3099892382"><ele>14.56</ele><time>2025-05-29T09:41:04Z</time></trkpt><trkpt lat="59.9085747544" lon="30.3099049162"><ele>14.08</ele><time>2025-05-29T09:41:23Z</time></trkpt></trkseg><trkseg><trkpt lat="60.4920153972" lon="30.3678910062"><ele>128.95</ele><time>2025-05-31T07:51:14Z</time></trkpt><trkpt lat="60.4923660960" lon="30.3674098011"><ele>127.99</ele><time>2025-05-31T07:51:32Z</time></trkpt><trkpt lat="60.4924283735" lon="30.3673497029"><ele>127.99</ele><time>2025-05-31T07:51:53Z</time></trkpt><trkpt lat="60.4924579617" lon="30.3672117367"><ele>131.36</ele><time>2025-05-31T07:52:08Z</time></trkpt><trkpt lat="60.4924044013" lon="30.3670081403"><ele>131.36</ele><time>2025-05-31T07:52:32Z</time></trkpt><trkpt lat="60.4924262781" lon="30.3670008481"><ele>131.36</ele><time>2025-05-31T07:52:54Z</time></trkpt><trkpt lat="60.4924136214" lon="30.3669920471"><ele>130.88</ele><time>2025-05-31T07:53:20Z</time></trkpt><trkpt lat="60.4924067482" lon="30.3670051228"><ele>130.40</ele><time>2025-05-31T07:53:39Z</time></trkpt><trkpt lat="60.4924196564" lon="30.3669726849"><ele>129.43</ele><time>2025-05-31T07:54:11Z</time></trkpt><trkpt lat="60.4924218357" lon="30.3669076413"><ele>128.95</ele><time>2025-05-31T07:54:41Z</time></trkpt><trkpt lat="60.4924403597" lon="30.3669259138"><ele>128.47</ele><time>2025-05-31T07:55:09Z</time></trkpt><trkpt lat="60.4924436286" lon="30.3669876885"><ele>127.99</ele><time>2025-05-31T07:55:32Z</time></trkpt><trkpt lat="60.4924311396" lon="30.3670057096"><ele>127.99</ele><time>2025-05-31T07:56:00Z</time></trkpt><trkpt lat="60.4924653377" lon="30.3669783846"><ele>127.03</ele><time>2025-05-31T07:56:23Z</time></trkpt><trkpt lat="60.4924832750" lon="30.3669675719"><ele>126.55</ele><time>2025-05-31T07:56:41Z</time></trkpt><trkpt lat="60.4924450535" lon="30.3668635525"><ele>126.55</ele><time>2025-05-31T07:56:55Z</time></trkpt><trkpt lat="60.4924442992" lon="30.3668451961"><ele>126.07</ele><time>2025-05-31T07:57:19Z</time></trkpt><trkpt lat="60.4923944268" lon="30.3668968286"><ele>125.59</ele><time>2025-05-31T07:57:42Z</time></trkpt><trkpt lat="60.4924163036" lon="30.3668722697"><ele>125.11</ele><time>2025-05-31T07:58:00Z</time></trkpt><trkpt lat="60.4924218357" lon="30.3668300249"><ele>124.63</ele><time>2025-05-31T07:58:16Z</time></trkpt><trkpt lat="60.4924556147" lon="30.3668037895"><ele>124.15</ele><time>2025-05-31T07:58:32Z</time></trkpt><trkpt lat="60.4924296308" lon="30.3668153565"><ele>124.15</ele><time>2025-05-31T07:58:50Z</time></trkpt><trkpt lat="60.4924046528" lon="30.3668824118"><ele>123.67</ele><time>2025-05-31T07:59:05Z</time></trkpt><trkpt lat="60.4924503341" lon="30.3668864351"><ele>123.19</ele><time>2025-05-31T07:59:30Z</time></trkpt><trkpt lat="60.4925170541" lon="30.3670073021"><ele>122.22</ele><time>2025-05-31T07:59:43Z</time></trkpt><trkpt lat="60.4925749730" lon="30.3670642152"><ele>122.71</ele><time>2025-05-31T07:59:56Z</time></trkpt><trkpt lat="60.4925617296" lon="30.3668691684"><ele>121.74</ele><time>2025-05-31T08:00:18Z</time></trkpt><trkpt lat="60.4925882164" lon="30.3666488081"><ele>121.74</ele><time>2025-05-31T08:00:31Z</time></trkpt><trkpt lat="60.4926180560" lon="30.3664261010"><ele>121.74</ele><time>2025-05-31T08:00:44Z</time></trkpt><trkpt lat="60.4926327243" lon="30.3663192317"><ele>121.26</ele><time>2025-05-31T08:00:58Z</time></trkpt><trkpt lat="60.4926329758" lon="30.3662480693"><ele>120.30</ele><time>2025-05-31T08:01:26Z</time></trkpt><trkpt lat="60.4926548526" lon="30.3660965245"><ele>119.82</ele><time>2025-05-31T08:01:47Z</time></trkpt><trkpt lat="60.4926741309" lon="30.3659424651"><ele>119.82</ele><time>2025-05-31T08:01:59Z</time></trkpt><trkpt lat="60.4927010369" lon="30.3657913394"><ele>119.82</ele><time>2025-05-31T08:02:13Z</time></trkpt><trkpt lat="60.4927638173" lon="30.3655682132"><ele>120.30</ele><time>2025-05-31T08:02:29Z</time></trkpt><trkpt lat="60.4927941598" lon="30.3654128965"><ele>121.26</ele><time>2025-05-31T08:02:42Z</time></trkpt><trkpt lat="60.4928034637" lon="30.3652097192"><ele>121.74</ele><time>2025-05-31T08:02:57Z</time></trkpt><trkpt lat="60.4927918967" lon="30.3650171030"><ele>121.74</ele><time>2025-05-31T08:03:10Z</time></trkpt><trkpt lat="60.4927527532" lon="30.3649568371"><ele>121.26</ele><time>2025-05-31T08:03:24Z</time></trkpt><trkpt lat="60.4926965106" lon="30.3648346290"><ele>120.30</ele><time>2025-05-31T08:03:40Z</time></trkpt><trkpt lat="60.4926521704" lon="30.3647468705"><ele>118.86</ele><time>2025-05-31T08:03:58Z</time></trkpt><trkpt lat="60.4925898928" lon="30.3647373151"><ele>116.94</ele><time>2025-05-31T08:04:18Z</time></trkpt><trkpt lat="60.4924853705" lon="30.3647327889"><ele>114.53</ele><time>2025-05-31T08:04:32Z</time></trkpt><trkpt lat="60.4924263619" lon="30.3645969182"><ele>113.57</ele><time>2025-05-31T08:04:48Z</time></trkpt><trkpt lat="60.4924245179" lon="30.3644049726"><ele>114.05</ele><time>2025-05-31T08:05:05Z</time></trkpt><trkpt lat="60.4923895653" lon="30.3642255161"><ele>114.53</ele><time>2025-05-31T08:05:23Z</time></trkpt><trkpt lat="60.4923478235" lon="30.3640992846"><ele>114.53</ele><time>2025-05-31T08:05:40Z</time></trkpt><trkpt lat="60.4923667666" lon="30.3639667667"><ele>114.53</ele><time>2025-05-31T08:05:51Z</time></trkpt><trkpt lat="60.4923598934" lon="30.3637776710"><ele>114.53</ele><time>2025-05-31T08:06:06Z</time></trkpt><trkpt lat="60.4923668504" lon="30.3637294751"><ele>114.05</ele><time>2025-05-31T08:06:32Z</time></trkpt><trkpt lat="60.4923559539" lon="30.3636426385"><ele>114.05</ele><time>2025-05-31T08:06:57Z</time></trkpt><trkpt lat="60.4923244379" lon="30.3634581529"><ele>114.05</ele><time>2025-05-31T08:07:25Z</time></trkpt><trkpt lat="60.4922660999" lon="30.3632414807"><ele>114.53</ele><time>2025-05-31T08:07:44Z</time></trkpt><trkpt lat="60.4922095221" lon="30.3630979825"><ele>112.61</ele><time>2025-05-31T08:08:01Z</time></trkpt><trkpt lat="60.4921920039" lon="30.3628132492"><ele>114.05</ele><time>2025-05-31T08:08:18Z</time></trkpt><trkpt lat="60.4921184946" lon="30.3626660630"><ele>113.57</ele><time>2025-05-31T08:08:33Z</time></trkpt><trkpt lat="60.4921914171" lon="30.3624227364"><ele>115.01</ele><time>2025-05-31T08:08:53Z</time></trkpt><trkpt lat="60.4922364280" lon="30.3622489795"><ele>115.01</ele><time>2025-05-31T08:09:08Z</time></trkpt><trkpt lat="60.4922253639" lon="30.3621691000"><ele>115.01</ele><time>2025-05-31T08:09:28Z</time></trkpt><trkpt lat="60.4922344163" lon="30.3621793259"><ele>114.53</ele><time>2025-05-31T08:09:50Z</time></trkpt><trkpt lat="60.4922265373" lon="30.3621376678"><ele>114.05</ele><time>2025-05-31T08:10:20Z</time></trkpt><trkpt lat="60.4922704585" lon="30.3622017056"><ele>113.57</ele><time>2025-05-31T08:10:40Z</time></trkpt><trkpt lat="60.4923558701" lon="30.3622391727"><ele>113.57</ele><time>2025-05-31T08:10:53Z</time></trkpt><trkpt lat="60.4924152140" lon="30.3621012066"><ele>113.57</ele><time>2025-05-31T08:11:05Z</time></trkpt><trkpt lat="60.4924898967" lon="30.3621061519"><ele>112.61</ele><time>2025-05-31T08:11:17Z</time></trkpt><trkpt lat="60.4925459716" lon="30.3620907292"><ele>113.57</ele><time>2025-05-31T08:11:29Z</time></trkpt><trkpt lat="60.4926187266" lon="30.3620145377"><ele>113.09</ele><time>2025-05-31T08:11:40Z</time></trkpt><trkpt lat="60.4926984385" lon="30.3619331494"><ele>113.57</ele><time>2025-05-31T08:11:54Z</time></trkpt><trkpt lat="60.4927529208" lon="30.3620079160"><ele>113.09</ele><time>2025-05-31T08:12:04Z</time></trkpt><trkpt lat="60.4928410985" lon="30.3619987797"><ele>112.61</ele><time>2025-05-31T08:12:18Z</time></trkpt><trkpt lat="60.4929433577" lon="30.3621175513"><ele>112.61</ele><time>2025-05-31T08:12:33Z</time></trkpt><trkpt lat="60.4930592794" lon="30.3621210717"><ele>113.09</ele><time>2025-05-31T08:12:47Z</time></trkpt><trkpt lat="60.4931082297" lon="30.3620877117"><ele>112.61</ele><time>2025-05-31T08:13:02Z</time></trkpt><trkpt lat="60.4931505583" lon="30.3620973509"><ele>113.09</ele><time>2025-05-31T08:13:16Z</time></trkpt><trkpt lat="60.4931952339" lon="30.3621314652"><ele>112.61</ele><time>2025-05-31T08:13:26Z</time></trkpt><trkpt lat="60.4932529014" lon="30.3621317167"><ele>112.61</ele><time>2025-05-31T08:13:40Z</time></trkpt><trkpt lat="60.4932914581" lon="30.3621799126"><ele>112.13</ele><time>2025-05-31T08:13:52Z</time></trkpt><trkpt lat="60.4933589324" lon="30.3622192238"><ele>112.13</ele><time>2025-05-31T08:14:06Z</time></trkpt><trkpt lat="60.4934300948" lon="30.3622453753"><ele>112.13</ele><time>2025-05-31T08:14:17Z</time></trkpt><trkpt lat="60.4935225472" lon="30.3621602152"><ele>111.65</ele><time>2025-05-31T08:14:31Z</time></trkpt><trkpt lat="60.4935716651" lon="30.3620353248"><ele>112.13</ele><time>2025-05-31T08:14:46Z</time></trkpt><trkpt lat="60.4936414864" lon="30.3619206604"><ele>112.13</ele><time>2025-05-31T08:15:00Z</time></trkpt><trkpt lat="60.4936521314" lon="30.3618927486"><ele>111.65</ele><time>2025-05-31T08:15:14Z</time></trkpt><trkpt lat="60.4936772771" lon="30.3618076723"><ele>112.13</ele><time>2025-05-31T08:15:25Z</time></trkpt><trkpt lat="60.4937151633" lon="30.3616868053"><ele>112.13</ele><time>2025-05-31T08:15:36Z</time></trkpt><trkpt lat="60.4937655386" lon="30.3616712149"><ele>111.65</ele><time>2025-05-31T08:15:47Z</time></trkpt><trkpt lat="60.4938156623" lon="30.3617469873"><ele>111.65</ele><time>2025-05-31T08:15:58Z</time></trkpt><trkpt lat="60.4938618466" lon="30.3617728874"><ele>112.13</ele><time>2025-05-31T08:16:09Z</time></trkpt><trkpt lat="60.4938675463" lon="30.3618104383"><ele>111.65</ele><time>2025-05-31T08:16:18Z</time></trkpt><trkpt lat="60.4939165805" lon="30.3618029784"><ele>110.69</ele><time>2025-05-31T08:16:31Z</time></trkpt><trkpt lat="60.4939434864" lon="30.3617962729"><ele>111.17</ele><time>2025-05-31T08:16:38Z</time></trkpt><trkpt lat="60.4939840548" lon="30.3617564589"><ele>110.69</ele><time>2025-05-31T08:16:50Z</time></trkpt><trkpt lat="60.4940181691" lon="30.3617853764"><ele>110.69</ele><time>2025-05-31T08:17:09Z</time></trkpt><trkpt lat="60.4940665327" lon="30.3618256934"><ele>110.21</ele><time>2025-05-31T08:17:19Z</time></trkpt><trkpt lat="60.4940983001" lon="30.3618190717"><ele>110.69</ele><time>2025-05-31T08:17:28Z</time></trkpt><trkpt lat="60.4940988868" lon="30.3617629968"><ele>110.21</ele><time>2025-05-31T08:17:53Z</time></trkpt><trkpt lat="60.4941476695" lon="30.3618292138"><ele>109.73</ele><time>2025-05-31T08:18:04Z</time></trkpt><trkpt lat="60.4941932671" lon="30.3618861269"><ele>109.73</ele><time>2025-05-31T08:18:16Z</time></trkpt><trkpt lat="60.4942465760" lon="30.3618691955"><ele>109.73</ele><time>2025-05-31T08:18:28Z</time></trkpt><trkpt lat="60.4942941014" lon="30.3619573731"><ele>109.73</ele><time>2025-05-31T08:18:40Z</time></trkpt><trkpt lat="60.4943203367" lon="30.3620805033"><ele>109.25</ele><time>2025-05-31T08:18:51Z</time></trkpt><trkpt lat="60.4943800159" lon="30.3620906454"><ele>109.25</ele><time>2025-05-31T08:19:02Z</time></trkpt><trkpt lat="60.4944548663" lon="30.3620466404"><ele>109.73</ele><time>2025-05-31T08:19:16Z</time></trkpt><trkpt lat="60.4945443850" lon="30.3620572854"><ele>109.73</ele><time>2025-05-31T08:19:31Z</time></trkpt><trkpt lat="60.4946386814" lon="30.3619909007"><ele>109.25</ele><time>2025-05-31T08:19:47Z</time></trkpt><trkpt lat="60.4946915712" lon="30.3619391005"><ele>109.25</ele><time>2025-05-31T08:19:59Z</time></trkpt><trkpt lat="60.4947763961" lon="30.3618643340"><ele>109.25</ele><time>2025-05-31T08:20:11Z</time></trkpt><trkpt lat="60.4948666692" lon="30.3616988752"><ele>108.77</ele><time>2025-05-31T08:20:28Z</time></trkpt><trkpt lat="60.4950064793" lon="30.3617659304"><ele>108.29</ele><time>2025-05-31T08:20:43Z</time></trkpt><trkpt lat="60.4950923100" lon="30.3617320675"><ele>107.81</ele><time>2025-05-31T08:20:55Z</time></trkpt><trkpt lat="60.4951442778" lon="30.3616463207"><ele>107.32</ele><time>2025-05-31T08:21:06Z</time></trkpt><trkpt lat="60.4952068068" lon="30.3616343345"><ele>107.32</ele><time>2025-05-31T08:21:16Z</time></trkpt><trkpt lat="60.4952555895" lon="30.3616261203"><ele>106.84</ele><time>2025-05-31T08:21:28Z</time></trkpt><trkpt lat="60.4953181185" lon="30.3616508469"><ele>106.84</ele><time>2025-05-31T08:21:39Z</time></trkpt><trkpt lat="60.4953705892" lon="30.3617510945"><ele>106.84</ele><time>2025-05-31T08:21:51Z</time></trkpt><trkpt lat="60.4953953158" lon="30.3617345821"><ele>105.88</ele><time>2025-05-31T08:22:14Z</time></trkpt><trkpt lat="60.4954580124" lon="30.3616930917"><ele>105.40</ele><time>2025-05-31T08:22:26Z</time></trkpt><trkpt lat="60.4954841640" lon="30.3616272099"><ele>105.88</ele><time>2025-05-31T08:22:39Z</time></trkpt><trkpt lat="60.4955375567" lon="30.3616217617"><ele>105.88</ele><time>2025-05-31T08:22:50Z</time></trkpt><trkpt lat="60.4955769517" lon="30.3615601547"><ele>106.36</ele><time>2025-05-31T08:23:03Z</time></trkpt><trkpt lat="60.4956184421" lon="30.3615955263"><ele>105.40</ele><time>2025-05-31T08:23:14Z</time></trkpt><trkpt lat="60.4956160113" lon="30.3616831172"><ele>105.40</ele><time>2025-05-31T08:23:24Z</time></trkpt><trkpt lat="60.4956455156" lon="30.3617577162"><ele>104.92</ele><time>2025-05-31T08:23:35Z</time></trkpt><trkpt lat="60.4956494551" lon="30.3618650883"><ele>104.92</ele><time>2025-05-31T08:23:44Z</time></trkpt><trkpt lat="60.4956625309" lon="30.3619107697"><ele>104.92</ele><time>2025-05-31T08:23:58Z</time></trkpt><trkpt lat="60.4956777859" lon="30.3619196545"><ele>104.92</ele><time>2025-05-31T08:24:01Z</time></trkpt><trkpt lat="60.4957728367" lon="30.3619758971"><ele>103.96</ele><time>2025-05-31T08:24:15Z</time></trkpt><trkpt lat="60.4958341923" lon="30.3620330617"><ele>104.44</ele><time>2025-05-31T08:24:27Z</time></trkpt><trkpt lat="60.4959183466" lon="30.3620539326"><ele>103.96</ele><time>2025-05-31T08:24:39Z</time></trkpt><trkpt lat="60.4959387984" lon="30.3621084988"><ele>103.96</ele><time>2025-05-31T08:24:49Z</time></trkpt><trkpt lat="60.4959747568" lon="30.3621804994"><ele>103.96</ele><time>2025-05-31T08:25:01Z</time></trkpt><trkpt lat="60.4960118048" lon="30.3621700220"><ele>103.00</ele><time>2025-05-31T08:25:14Z</time></trkpt><trkpt lat="60.4959846474" lon="30.3620882984"><ele>103.00</ele><time>2025-05-31T08:25:51Z</time></trkpt><trkpt lat="60.4960254673" lon="30.3620784078"><ele>102.52</ele><time>2025-05-31T08:26:27Z</time></trkpt><trkpt lat="60.4961014073" lon="30.3621097561"><ele>103.00</ele><time>2025-05-31T08:26:49Z</time></trkpt><trkpt lat="60.4961763415" lon="30.3620361630"><ele>103.00</ele><time>2025-05-31T08:27:02Z</time></trkpt><trkpt lat="60.4962086957" lon="30.3618727159"><ele>103.00</ele><time>2025-05-31T08:27:17Z</time></trkpt><trkpt lat="60.4962597415" lon="30.3617854603"><ele>103.48</ele><time>2025-05-31T08:27:29Z</time></trkpt><trkpt lat="60.4963144753" lon="30.3617118672"><ele>103.00</ele><time>2025-05-31T08:27:42Z</time></trkpt><trkpt lat="60.4963969532" lon="30.3618070856"><ele>103.00</ele><time>2025-05-31T08:27:58Z</time></trkpt><trkpt lat="60.4964378569" lon="30.3617702890"><ele>102.52</ele><time>2025-05-31T08:28:11Z</time></trkpt><trkpt lat="60.4964737315" lon="30.3617034853"><ele>103.00</ele><time>2025-05-31T08:28:22Z</time></trkpt><trkpt lat="60.4965040740" lon="30.3616798483"><ele>102.52</ele><time>2025-05-31T08:28:42Z</time></trkpt><trkpt lat="60.4965844564" lon="30.3615693748"><ele>103.00</ele><time>2025-05-31T08:28:55Z</time></trkpt><trkpt lat="60.4966263659" lon="30.3614945244"><ele>103.00</ele><time>2025-05-31T08:29:05Z</time></trkpt><trkpt lat="60.4966851231" lon="30.3614381980"><ele>102.52</ele><time>2025-05-31T08:29:17Z</time></trkpt><trkpt lat="60.4967353307" lon="30.3614555486"><ele>102.52</ele><time>2025-05-31T08:29:27Z</time></trkpt><trkpt lat="60.4967913218" lon="30.3614155669"><ele>102.04</ele><time>2025-05-31T08:29:38Z</time></trkpt><trkpt lat="60.4968466423" lon="30.3614204284"><ele>102.04</ele><time>2025-05-31T08:29:48Z</time></trkpt><trkpt lat="60.4968946707" lon="30.3614278883"><ele>101.56</ele><time>2025-05-31T08:30:00Z</time></trkpt><trkpt lat="60.4969185591" lon="30.3614210151"><ele>101.56</ele><time>2025-05-31T08:30:11Z</time></trkpt><trkpt lat="60.4969533440" lon="30.3614394553"><ele>101.56</ele><time>2025-05-31T08:30:20Z</time></trkpt><trkpt lat="60.4969861172" lon="30.3613773454"><ele>101.08</ele><time>2025-05-31T08:30:31Z</time></trkpt><trkpt lat="60.4970281105" lon="30.3613328375"><ele>101.08</ele><time>2025-05-31T08:30:41Z</time></trkpt><trkpt lat="60.4970947467" lon="30.3613624256"><ele>101.08</ele><time>2025-05-31T08:30:53Z</time></trkpt><trkpt lat="60.4971475527" lon="30.3614575602"><ele>101.08</ele><time>2025-05-31T08:31:05Z</time></trkpt><trkpt lat="60.4972056393" lon="30.3614727315"><ele>100.60</ele><time>2025-05-31T08:31:16Z</time></trkpt><trkpt lat="60.4972615466" lon="30.3614616673"><ele>100.60</ele><time>2025-05-31T08:31:26Z</time></trkpt><trkpt lat="60.4973318707" lon="30.3614691272"><ele>100.11</ele><time>2025-05-31T08:31:38Z</time></trkpt><trkpt lat="60.4974171985" lon="30.3614147287"><ele>100.11</ele><time>2025-05-31T08:31:52Z</time></trkpt><trkpt lat="60.4974380694" lon="30.3614982124"><ele>99.63</ele><time>2025-05-31T08:32:02Z</time></trkpt><trkpt lat="60.4974338785" lon="30.3614435624"><ele>99.63</ele><time>2025-05-31T08:32:18Z</time></trkpt><trkpt lat="60.4974912107" lon="30.3614197578"><ele>100.11</ele><time>2025-05-31T08:32:29Z</time></trkpt><trkpt lat="60.4975731857" lon="30.3614250384"><ele>99.63</ele><time>2025-05-31T08:32:42Z</time></trkpt><trkpt lat="60.4976456054" lon="30.3613946121"><ele>100.11</ele><time>2025-05-31T08:32:54Z</time></trkpt><trkpt lat="60.4977347888" lon="30.3613115475"><ele>99.63</ele><time>2025-05-31T08:33:10Z</time></trkpt><trkpt lat="60.4977916181" lon="30.3612407204"><ele>99.63</ele><time>2025-05-31T08:33:27Z</time></trkpt><trkpt lat="60.4978780355" lon="30.3613182530"><ele>99.15</ele><time>2025-05-31T08:33:40Z</time></trkpt><trkpt lat="60.4979563225" lon="30.3613486793"><ele>99.15</ele><time>2025-05-31T08:33:52Z</time></trkpt><trkpt lat="60.4980525468" lon="30.3613947798"><ele>99.63</ele><time>2025-05-31T08:34:06Z</time></trkpt><trkpt lat="60.4980593361" lon="30.3614047542"><ele>99.15</ele><time>2025-05-31T08:34:07Z</time></trkpt><trkpt lat="60.4981650319" lon="30.3614101186"><ele>99.15</ele><time>2025-05-31T08:34:19Z</time></trkpt><trkpt lat="60.4982823785" lon="30.3613754176"><ele>98.67</ele><time>2025-05-31T08:34:32Z</time></trkpt><trkpt lat="60.4984104540" lon="30.3613802791"><ele>99.15</ele><time>2025-05-31T08:34:46Z</time></trkpt><trkpt lat="60.4984874837" lon="30.3613496851"><ele>98.67</ele><time>2025-05-31T08:34:59Z</time></trkpt><trkpt lat="60.4985213466" lon="30.3612960409"><ele>99.15</ele><time>2025-05-31T08:35:18Z</time></trkpt><trkpt lat="60.4985544551" lon="30.3612846415"><ele>98.67</ele><time>2025-05-31T08:35:48Z</time></trkpt><trkpt lat="60.4985493422" lon="30.3612415586"><ele>97.71</ele><time>2025-05-31T08:36:18Z</time></trkpt><trkpt lat="60.4985089414" lon="30.3611259721"><ele>98.19</ele><time>2025-05-31T08:36:43Z</time></trkpt><trkpt lat="60.4983998090" lon="30.3609781992"><ele>98.19</ele><time>2025-05-31T08:36:58Z</time></trkpt><trkpt lat="60.4982790258" lon="30.3609009180"><ele>98.19</ele><time>2025-05-31T08:37:14Z</time></trkpt><trkpt lat="60.4982383735" lon="30.3606208786"><ele>97.71</ele><time>2025-05-31T08:37:32Z</time></trkpt><trkpt lat="60.4981097113" lon="30.3603489697"><ele>97.71</ele><time>2025-05-31T08:37:51Z</time></trkpt><trkpt lat="60.4980353639" lon="30.3601896297"><ele>97.71</ele><time>2025-05-31T08:38:09Z</time></trkpt><trkpt lat="60.4980055243" lon="30.3602179606"><ele>98.19</ele><time>2025-05-31T08:38:37Z</time></trkpt><trkpt lat="60.4979855753" lon="30.3602340538"><ele>97.71</ele><time>2025-05-31T08:39:09Z</time></trkpt><trkpt lat="60.4978921171" lon="30.3602094110"><ele>97.71</ele><time>2025-05-31T08:39:22Z</time></trkpt><trkpt lat="60.4978183564" lon="30.3602422681"><ele>97.71</ele><time>2025-05-31T08:39:37Z</time></trkpt><trkpt lat="60.4977570847" lon="30.3602503985"><ele>97.23</ele><time>2025-05-31T08:39:53Z</time></trkpt><trkpt lat="60.4977586772" lon="30.3603050485"><ele>97.23</ele><time>2025-05-31T08:40:16Z</time></trkpt><trkpt lat="60.4977295920" lon="30.3602711018"><ele>97.23</ele><time>2025-05-31T08:40:37Z</time></trkpt><trkpt lat="60.4976879340" lon="30.3602181282"><ele>96.75</ele><time>2025-05-31T08:40:51Z</time></trkpt><trkpt lat="60.4976589326" lon="30.3601200599"><ele>96.27</ele><time>2025-05-31T08:41:16Z</time></trkpt><trkpt lat="60.4976593517" lon="30.3601545095"><ele>96.75</ele><time>2025-05-31T08:41:42Z</time></trkpt><trkpt lat="60.4975999240" lon="30.3603102453"><ele>96.75</ele><time>2025-05-31T08:41:56Z</time></trkpt><trkpt lat="60.4975234810" lon="30.3603210580"><ele>96.75</ele><time>2025-05-31T08:42:10Z</time></trkpt><trkpt lat="60.4974300228" lon="30.3602755442"><ele>96.75</ele><time>2025-05-31T08:42:23Z</time></trkpt><trkpt lat="60.4973343853" lon="30.3603597824"><ele>96.75</ele><time>2025-05-31T08:42:36Z</time></trkpt><trkpt lat="60.4972874466" lon="30.3602732811"><ele>96.75</ele><time>2025-05-31T08:42:49Z</time></trkpt><trkpt lat="60.4972814117" lon="30.3602410108"><ele>96.75</ele><time>2025-05-31T08:42:52Z</time></trkpt><trkpt lat="60.4971868638" lon="30.3601573594"><ele>96.27</ele><time>2025-05-31T08:43:05Z</time></trkpt><trkpt lat="60.4971001111" lon="30.3601058107"><ele>96.75</ele><time>2025-05-31T08:43:18Z</time></trkpt><trkpt lat="60.4969943315" lon="30.3600901365"><ele>97.23</ele><time>2025-05-31T08:43:31Z</time></trkpt><trkpt lat="60.4969299585" lon="30.3601879533"><ele>97.71</ele><time>2025-05-31T08:43:43Z</time></trkpt><trkpt lat="60.4969371669" lon="30.3602708504"><ele>96.75</ele><time>2025-05-31T08:43:55Z</time></trkpt><trkpt lat="60.4969098419" lon="30.3602803219"><ele>97.23</ele><time>2025-05-31T08:44:06Z</time></trkpt><trkpt lat="60.4969007894" lon="30.3603104129"><ele>96.75</ele><time>2025-05-31T08:44:10Z</time></trkpt><trkpt lat="60.4968487378" lon="30.3602863569"><ele>96.75</ele><time>2025-05-31T08:44:19Z</time></trkpt><trkpt lat="60.4967977758" lon="30.3604202997"><ele>97.23</ele><time>2025-05-31T08:44:32Z</time></trkpt><trkpt lat="60.4968038946" lon="30.3604855947"><ele>96.75</ele><time>2025-05-31T08:44:39Z</time></trkpt><trkpt lat="60.4967519268" lon="30.3605425078"><ele>97.23</ele><time>2025-05-31T08:44:51Z</time></trkpt><trkpt lat="60.4967023898" lon="30.3605917096"><ele>97.23</ele><time>2025-05-31T08:45:03Z</time></trkpt><trkpt lat="60.4966850393" lon="30.3605780471"><ele>97.23</ele><time>2025-05-31T08:45:12Z</time></trkpt><trkpt lat="60.4966800101" lon="30.3605874348"><ele>96.75</ele><time>2025-05-31T08:45:22Z</time></trkpt><trkpt lat="60.4966649227" lon="30.3606601898"><ele>97.23</ele><time>2025-05-31T08:45:39Z</time></trkpt><trkpt lat="60.4966442194" lon="30.3606887721"><ele>95.31</ele><time>2025-05-31T08:45:46Z</time></trkpt><trkpt lat="60.4966405313" lon="30.3606665600"><ele>95.31</ele><time>2025-05-31T08:46:12Z</time></trkpt><trkpt lat="60.4966274556" lon="30.3607062902"><ele>96.27</ele><time>2025-05-31T08:46:29Z</time></trkpt><trkpt lat="60.4966111109" lon="30.3607405722"><ele>96.75</ele><time>2025-05-31T08:46:40Z</time></trkpt><trkpt lat="60.4965681117" lon="30.3607554920"><ele>96.27</ele><time>2025-05-31T08:46:52Z</time></trkpt><trkpt lat="60.4965331592" lon="30.3606853355"><ele>97.23</ele><time>2025-05-31T08:47:05Z</time></trkpt><trkpt lat="60.4964713845" lon="30.3606242314"><ele>97.23</ele><time>2025-05-31T08:47:17Z</time></trkpt><trkpt lat="60.4964369349" lon="30.3605729342"><ele>97.23</ele><time>2025-05-31T08:47:29Z</time></trkpt><trkpt lat="60.4963965341" lon="30.3604603652"><ele>97.23</ele><time>2025-05-31T08:47:42Z</time></trkpt><trkpt lat="60.4964162316" lon="30.3603867721"><ele>96.75</ele><time>2025-05-31T08:47:59Z</time></trkpt><trkpt lat="60.4964059219" lon="30.3603225667"><ele>98.19</ele><time>2025-05-31T08:48:06Z</time></trkpt><trkpt lat="60.4963395372" lon="30.3601757996"><ele>97.71</ele><time>2025-05-31T08:48:21Z</time></trkpt><trkpt lat="60.4962944426" lon="30.3600874543"><ele>97.23</ele><time>2025-05-31T08:48:33Z</time></trkpt><trkpt lat="60.4962760024" lon="30.3600050602"><ele>97.71</ele><time>2025-05-31T08:48:44Z</time></trkpt><trkpt lat="60.4962478392" lon="30.3599447105"><ele>97.23</ele><time>2025-05-31T08:49:03Z</time></trkpt><trkpt lat="60.4962330870" lon="30.3599443752"><ele>97.71</ele><time>2025-05-31T08:49:29Z</time></trkpt><trkpt lat="60.4962266330" lon="30.3599165473"><ele>97.71</ele><time>2025-05-31T08:49:58Z</time></trkpt><trkpt lat="60.4962204304" lon="30.3598928265"><ele>97.71</ele><time>2025-05-31T08:50:24Z</time></trkpt><trkpt lat="60.4962068517" lon="30.3598871268"><ele>96.27</ele><time>2025-05-31T08:50:46Z</time></trkpt><trkpt lat="60.4962398764" lon="30.3599309642"><ele>96.27</ele><time>2025-05-31T08:51:10Z</time></trkpt><trkpt lat="60.4962381162" lon="30.3599283658"><ele>97.23</ele><time>2025-05-31T08:51:34Z</time></trkpt><trkpt lat="60.4962526169" lon="30.3599169664"><ele>95.79</ele><time>2025-05-31T08:51:49Z</time></trkpt><trkpt lat="60.4962718952" lon="30.3599574510"><ele>95.31</ele><time>2025-05-31T08:52:15Z</time></trkpt><trkpt lat="60.4962716438" lon="30.3599698562"><ele>95.79</ele><time>2025-05-31T08:52:37Z</time></trkpt><trkpt lat="60.4962263815" lon="30.3599844407"><ele>95.31</ele><time>2025-05-31T08:53:01Z</time></trkpt><trkpt lat="60.4961753357" lon="30.3601737041"><ele>95.79</ele><time>2025-05-31T08:53:14Z</time></trkpt><trkpt lat="60.4960823804" lon="30.3602211457"><ele>95.79</ele><time>2025-05-31T08:53:28Z</time></trkpt><trkpt lat="60.4960587434" lon="30.3603714332"><ele>94.83</ele><time>2025-05-31T08:53:40Z</time></trkpt><trkpt lat="60.4960134812" lon="30.3603935614"><ele>95.79</ele><time>2025-05-31T08:53:51Z</time></trkpt><trkpt lat="60.4959356971" lon="30.3603840061"><ele>96.75</ele><time>2025-05-31T08:54:03Z</time></trkpt><trkpt lat="60.4959128983" lon="30.3603631351"><ele>96.75</ele><time>2025-05-31T08:54:06Z</time></trkpt><trkpt lat="60.4958338570" lon="30.3604482114"><ele>95.79</ele><time>2025-05-31T08:54:19Z</time></trkpt><trkpt lat="60.4957551509" lon="30.3604405001"><ele>96.27</ele><time>2025-05-31T08:54:31Z</time></trkpt><trkpt lat="60.4956621118" lon="30.3604342137"><ele>96.27</ele><time>2025-05-31T08:54:43Z</time></trkpt><trkpt lat="60.4956009239" lon="30.3604294360"><ele>96.75</ele><time>2025-05-31T08:54:51Z</time></trkpt><trkpt lat="60.4954992514" lon="30.3604379017"><ele>96.75</ele><time>2025-05-31T08:55:06Z</time></trkpt><trkpt lat="60.4954199586" lon="30.3604412545"><ele>96.27</ele><time>2025-05-31T08:55:20Z</time></trkpt><trkpt lat="60.4953347147" lon="30.3603788931"><ele>96.75</ele><time>2025-05-31T08:55:32Z</time></trkpt><trkpt lat="60.4952653125" lon="30.3603664041"><ele>97.23</ele><time>2025-05-31T08:55:39Z</time></trkpt><trkpt lat="60.4951243289" lon="30.3603991773"><ele>96.75</ele><time>2025-05-31T08:55:55Z</time></trkpt><trkpt lat="60.4950168729" lon="30.3603887837"><ele>96.27</ele><time>2025-05-31T08:56:08Z</time></trkpt><trkpt lat="60.4949121829" lon="30.3605138417"><ele>96.27</ele><time>2025-05-31T08:56:22Z</time></trkpt><trkpt lat="60.4948333092" lon="30.3604550846"><ele>96.75</ele><time>2025-05-31T08:56:37Z</time></trkpt><trkpt lat="60.4947708640" lon="30.3603979200"><ele>96.75</ele><time>2025-05-31T08:56:49Z</time></trkpt><trkpt lat="60.4947275296" lon="30.3603207227"><ele>96.27</ele><time>2025-05-31T08:57:02Z</time></trkpt><trkpt lat="60.4946660064" lon="30.3603202198"><ele>96.27</ele><time>2025-05-31T08:57:14Z</time></trkpt><trkpt lat="60.4946012981" lon="30.3603030369"><ele>96.27</ele><time>2025-05-31T08:57:23Z</time></trkpt><trkpt lat="60.4945567902" lon="30.3604335431"><ele>95.79</ele><time>2025-05-31T08:57:35Z</time></trkpt><trkpt lat="60.4944909085" lon="30.3605455253"><ele>95.31</ele><time>2025-05-31T08:57:47Z</time></trkpt><trkpt lat="60.4944507591" lon="30.3605836630"><ele>95.31</ele><time>2025-05-31T08:57:56Z</time></trkpt><trkpt lat="60.4943923373" lon="30.3606354631"><ele>94.83</ele><time>2025-05-31T08:58:08Z</time></trkpt><trkpt lat="60.4943210073" lon="30.3606758639"><ele>95.31</ele><time>2025-05-31T08:58:21Z</time></trkpt><trkpt lat="60.4942462407" lon="30.3607047815"><ele>95.31</ele><time>2025-05-31T08:58:33Z</time></trkpt><trkpt lat="60.4941894952" lon="30.3606630396"><ele>94.83</ele><time>2025-05-31T08:58:47Z</time></trkpt><trkpt lat="60.4941637628" lon="30.3606258240"><ele>95.31</ele><time>2025-05-31T08:59:01Z</time></trkpt><trkpt lat="60.4941430595" lon="30.3606454376"><ele>95.31</ele><time>2025-05-31T08:59:10Z</time></trkpt><trkpt lat="60.4941148963" lon="30.3606109042"><ele>95.79</ele><time>2025-05-31T08:59:23Z</time></trkpt><trkpt lat="60.4940622579" lon="30.3606094792"><ele>95.31</ele><time>2025-05-31T08:59:34Z</time></trkpt><trkpt lat="60.4940241203" lon="30.3605093155"><ele>95.79</ele><time>2025-05-31T08:59:48Z</time></trkpt><trkpt lat="60.4939681292" lon="30.3604275919"><ele>94.83</ele><time>2025-05-31T09:00:01Z</time></trkpt><trkpt lat="60.4938895907" lon="30.3603499755"><ele>94.83</ele><time>2025-05-31T09:00:15Z</time></trkpt><trkpt lat="60.4938037600" lon="30.3603518195"><ele>94.83</ele><time>2025-05-31T09:00:27Z</time></trkpt><trkpt lat="60.4937391356" lon="30.3603467066"><ele>94.35</ele><time>2025-05-31T09:00:38Z</time></trkpt><trkpt lat="60.4936543107" lon="30.3603259195"><ele>93.87</ele><time>2025-05-31T09:00:50Z</time></trkpt><trkpt lat="60.4936310090" lon="30.3603755403"><ele>93.87</ele><time>2025-05-31T09:00:55Z</time></trkpt><trkpt lat="60.4935539793" lon="30.3604468703"><ele>93.39</ele><time>2025-05-31T09:01:08Z</time></trkpt><trkpt lat="60.4934992455" lon="30.3604832478"><ele>93.39</ele><time>2025-05-31T09:01:21Z</time></trkpt><trkpt lat="60.4934529774" lon="30.3604699206"><ele>92.90</ele><time>2025-05-31T09:01:30Z</time></trkpt><trkpt lat="60.4934167676" lon="30.3604961559"><ele>93.39</ele><time>2025-05-31T09:01:43Z</time></trkpt><trkpt lat="60.4933844134" lon="30.3605272528"><ele>93.39</ele><time>2025-05-31T09:01:55Z</time></trkpt><trkpt lat="60.4933759477" lon="30.3605115786"><ele>92.90</ele><time>2025-05-31T09:02:01Z</time></trkpt><trkpt lat="60.4933667276" lon="30.3604804818"><ele>93.39</ele><time>2025-05-31T09:02:10Z</time></trkpt><trkpt lat="60.4933528136" lon="30.3604607005"><ele>93.39</ele><time>2025-05-31T09:02:23Z</time></trkpt><trkpt lat="60.4933088087" lon="30.3604322020"><ele>93.39</ele><time>2025-05-31T09:02:34Z</time></trkpt><trkpt lat="60.4932872672" lon="30.3604707588"><ele>92.90</ele><time>2025-05-31T09:02:47Z</time></trkpt><trkpt lat="60.4932549130" lon="30.3605006821"><ele>92.90</ele><time>2025-05-31T09:02:59Z</time></trkpt><trkpt lat="60.4932332039" lon="30.3605315275"><ele>93.39</ele><time>2025-05-31T09:03:11Z</time></trkpt><trkpt lat="60.4931967426" lon="30.3605206311"><ele>92.42</ele><time>2025-05-31T09:03:23Z</time></trkpt><trkpt lat="60.4931804817" lon="30.3605340421"><ele>93.39</ele><time>2025-05-31T09:03:37Z</time></trkpt><trkpt lat="60.4931795597" lon="30.3605153505"><ele>91.94</ele><time>2025-05-31T09:03:39Z</time></trkpt><trkpt lat="60.4931327887" lon="30.3604730219"><ele>92.42</ele><time>2025-05-31T09:03:51Z</time></trkpt><trkpt lat="60.4931007698" lon="30.3603928071"><ele>93.39</ele><time>2025-05-31T09:04:02Z</time></trkpt><trkpt lat="60.4930719361" lon="30.3603893705"><ele>92.90</ele><time>2025-05-31T09:04:15Z</time></trkpt><trkpt lat="60.4930241592" lon="30.3604777157"><ele>91.94</ele><time>2025-05-31T09:04:29Z</time></trkpt><trkpt lat="60.4929617140" lon="30.3604861815"><ele>92.42</ele><time>2025-05-31T09:04:41Z</time></trkpt><trkpt lat="60.4929307848" lon="30.3605329525"><ele>92.42</ele><time>2025-05-31T09:04:52Z</time></trkpt><trkpt lat="60.4928871989" lon="30.3605510574"><ele>91.94</ele><time>2025-05-31T09:05:02Z</time></trkpt><trkpt lat="60.4928396735" lon="30.3605721798"><ele>91.94</ele><time>2025-05-31T09:05:17Z</time></trkpt><trkpt lat="60.4927745461" lon="30.3605905361"><ele>91.46</ele><time>2025-05-31T09:05:29Z</time></trkpt><trkpt lat="60.4927465506" lon="30.3606811445"><ele>90.98</ele><time>2025-05-31T09:05:41Z</time></trkpt><trkpt lat="60.4927184712" lon="30.3606678173"><ele>90.50</ele><time>2025-05-31T09:05:53Z</time></trkpt><trkpt lat="60.4927271884" lon="30.3606383130"><ele>90.98</ele><time>2025-05-31T09:06:12Z</time></trkpt><trkpt lat="60.4926831834" lon="30.3607988264"><ele>90.98</ele><time>2025-05-31T09:06:24Z</time></trkpt><trkpt lat="60.4926622286" lon="30.3608471900"><ele>90.50</ele><time>2025-05-31T09:06:36Z</time></trkpt><trkpt lat="60.4925947543" lon="30.3608676419"><ele>90.02</ele><time>2025-05-31T09:06:47Z</time></trkpt><trkpt lat="60.4925440438" lon="30.3608848248"><ele>90.50</ele><time>2025-05-31T09:06:57Z</time></trkpt><trkpt lat="60.4924993683" lon="30.3608694859"><ele>90.02</ele><time>2025-05-31T09:07:08Z</time></trkpt><trkpt lat="60.4924449697" lon="30.3608508781"><ele>90.50</ele><time>2025-05-31T09:07:20Z</time></trkpt><trkpt lat="60.4924366716" lon="30.3607806377"><ele>90.02</ele><time>2025-05-31T09:07:31Z</time></trkpt><trkpt lat="60.4923857935" lon="30.3607167676"><ele>90.02</ele><time>2025-05-31T09:07:45Z</time></trkpt><trkpt lat="60.4923633300" lon="30.3607413266"><ele>90.02</ele><time>2025-05-31T09:08:14Z</time></trkpt><trkpt lat="60.4923288804" lon="30.3606532328"><ele>89.54</ele><time>2025-05-31T09:08:30Z</time></trkpt><trkpt lat="60.4922893178" lon="30.3605989181"><ele>89.54</ele><time>2025-05-31T09:08:40Z</time></trkpt><trkpt lat="60.4922358412" lon="30.3605513088"><ele>90.02</ele><time>2025-05-31T09:08:52Z</time></trkpt><trkpt lat="60.4921977036" lon="30.3605378140"><ele>89.54</ele><time>2025-05-31T09:09:03Z</time></trkpt><trkpt lat="60.4921315704" lon="30.3605103213"><ele>89.06</ele><time>2025-05-31T09:09:17Z</time></trkpt><trkpt lat="60.4921292234" lon="30.3603674099"><ele>89.54</ele><time>2025-05-31T09:09:30Z</time></trkpt><trkpt lat="60.4921135493" lon="30.3603335470"><ele>89.54</ele><time>2025-05-31T09:09:33Z</time></trkpt><trkpt lat="60.4920480866" lon="30.3603020310"><ele>89.54</ele><time>2025-05-31T09:09:45Z</time></trkpt><trkpt lat="60.4919687938" lon="30.3603155259"><ele>89.06</ele><time>2025-05-31T09:09:58Z</time></trkpt><trkpt lat="60.4919480067" lon="30.3604333755"><ele>89.06</ele><time>2025-05-31T09:10:10Z</time></trkpt><trkpt lat="60.4918585718" lon="30.3604057990"><ele>89.06</ele><time>2025-05-31T09:10:25Z</time></trkpt><trkpt lat="60.4917859007" lon="30.3603999317"><ele>88.58</ele><time>2025-05-31T09:10:37Z</time></trkpt><trkpt lat="60.4916901793" lon="30.3604300227"><ele>87.62</ele><time>2025-05-31T09:10:54Z</time></trkpt><trkpt lat="60.4916662909" lon="30.3604040388"><ele>87.62</ele><time>2025-05-31T09:11:09Z</time></trkpt><trkpt lat="60.4916139040" lon="30.3603082336"><ele>86.66</ele><time>2025-05-31T09:11:36Z</time></trkpt><trkpt lat="60.4916076176" lon="30.3603318706"><ele>86.18</ele><time>2025-05-31T09:12:01Z</time></trkpt><trkpt lat="60.4915627744" lon="30.3603722714"><ele>86.18</ele><time>2025-05-31T09:12:11Z</time></trkpt><trkpt lat="60.4915061127" lon="30.3601879533"><ele>85.69</ele><time>2025-05-31T09:12:32Z</time></trkpt><trkpt lat="60.4913955554" lon="30.3597887233"><ele>85.21</ele><time>2025-05-31T09:12:56Z</time></trkpt><trkpt lat="60.4912880994" lon="30.3593997192"><ele>85.69</ele><time>2025-05-31T09:13:20Z</time></trkpt><trkpt lat="60.4913143348" lon="30.3591021616"><ele>87.14</ele><time>2025-05-31T09:13:43Z</time></trkpt><trkpt lat="60.4913134128" lon="30.3591165785"><ele>86.66</ele><time>2025-05-31T09:14:13Z</time></trkpt><trkpt lat="60.4913133290" lon="30.3590993956"><ele>87.62</ele><time>2025-05-31T09:14:43Z</time></trkpt><trkpt lat="60.4913228005" lon="30.3590615932"><ele>86.66</ele><time>2025-05-31T09:15:05Z</time></trkpt><trkpt lat="60.4913248960" lon="30.3590761777"><ele>86.66</ele><time>2025-05-31T09:15:27Z</time></trkpt><trkpt lat="60.4913114849" lon="30.3590946179"><ele>86.66</ele><time>2025-05-31T09:15:52Z</time></trkpt><trkpt lat="60.4913031869" lon="30.3590036742"><ele>87.62</ele><time>2025-05-31T09:16:06Z</time></trkpt><trkpt lat="60.4912856687" lon="30.3587328549"><ele>88.10</ele><time>2025-05-31T09:16:21Z</time></trkpt><trkpt lat="60.4913613573" lon="30.3585979901"><ele>88.10</ele><time>2025-05-31T09:16:36Z</time></trkpt><trkpt lat="60.4914580006" lon="30.3584847506"><ele>88.58</ele><time>2025-05-31T09:16:52Z</time></trkpt><trkpt lat="60.4915287439" lon="30.3584261611"><ele>88.10</ele><time>2025-05-31T09:17:06Z</time></trkpt><trkpt lat="60.4915824719" lon="30.3583610337"><ele>87.62</ele><time>2025-05-31T09:17:21Z</time></trkpt><trkpt lat="60.4916383792" lon="30.3582534939"><ele>87.62</ele><time>2025-05-31T09:17:36Z</time></trkpt><trkpt lat="60.4916895926" lon="30.3583383188"><ele>88.10</ele><time>2025-05-31T09:17:50Z</time></trkpt><trkpt lat="60.4917318374" lon="30.3584777098"><ele>87.62</ele><time>2025-05-31T09:18:04Z</time></trkpt><trkpt lat="60.4917527921" lon="30.3586466890"><ele>88.10</ele><time>2025-05-31T09:18:14Z</time></trkpt><trkpt lat="60.4917986412" lon="30.3588455077"><ele>87.62</ele><time>2025-05-31T09:18:28Z</time></trkpt><trkpt lat="60.4917993955" lon="30.3588698991"><ele>87.62</ele><time>2025-05-31T09:18:30Z</time></trkpt><trkpt lat="60.4918471724" lon="30.3590070270"><ele>86.66</ele><time>2025-05-31T09:18:44Z</time></trkpt><trkpt lat="60.4918610863" lon="30.3590170853"><ele>86.66</ele><time>2025-05-31T09:19:07Z</time></trkpt><trkpt lat="60.4919091985" lon="30.3590287361"><ele>87.14</ele><time>2025-05-31T09:19:19Z</time></trkpt><trkpt lat="60.4919509403" lon="30.3590961266"><ele>86.66</ele><time>2025-05-31T09:19:31Z</time></trkpt><trkpt lat="60.4919718951" lon="30.3592793550"><ele>87.14</ele><time>2025-05-31T09:19:44Z</time></trkpt><trkpt lat="60.4920583963" lon="30.3593057580"><ele>87.62</ele><time>2025-05-31T09:19:59Z</time></trkpt><trkpt lat="60.4921127111" lon="30.3592225257"><ele>87.62</ele><time>2025-05-31T09:20:13Z</time></trkpt><trkpt lat="60.4921647627" lon="30.3591371141"><ele>88.10</ele><time>2025-05-31T09:20:28Z</time></trkpt><trkpt lat="60.4922293872" lon="30.3590618446"><ele>88.58</ele><time>2025-05-31T09:20:39Z</time></trkpt><trkpt lat="60.4923134577" lon="30.3588862438"><ele>88.58</ele><time>2025-05-31T09:20:55Z</time></trkpt><trkpt lat="60.4923841171" lon="30.3589262255"><ele>88.58</ele><time>2025-05-31T09:21:07Z</time></trkpt><trkpt lat="60.4924401082" lon="30.3588956315"><ele>89.06</ele><time>2025-05-31T09:21:19Z</time></trkpt><trkpt lat="60.4925015476" lon="30.3588435799"><ele>89.06</ele><time>2025-05-31T09:21:31Z</time></trkpt><trkpt lat="60.4925481509" lon="30.3588538058"><ele>88.58</ele><time>2025-05-31T09:21:51Z</time></trkpt><trkpt lat="60.4926348198" lon="30.3589965496"><ele>89.06</ele><time>2025-05-31T09:22:05Z</time></trkpt><trkpt lat="60.4927207343" lon="30.3589096293"><ele>89.06</ele><time>2025-05-31T09:22:17Z</time></trkpt><trkpt lat="60.4927768931" lon="30.3589837253"><ele>89.06</ele><time>2025-05-31T09:22:29Z</time></trkpt><trkpt lat="60.4928407632" lon="30.3590078652"><ele>89.06</ele><time>2025-05-31T09:22:39Z</time></trkpt><trkpt lat="60.4928968381" lon="30.3591439035"><ele>89.54</ele><time>2025-05-31T09:22:52Z</time></trkpt><trkpt lat="60.4929695930" lon="30.3590672929"><ele>89.54</ele><time>2025-05-31T09:23:05Z</time></trkpt><trkpt lat="60.4930120055" lon="30.3590901755"><ele>89.54</ele><time>2025-05-31T09:23:18Z</time></trkpt><trkpt lat="60.4930826649" lon="30.3590714000"><ele>89.54</ele><time>2025-05-31T09:23:31Z</time></trkpt><trkpt lat="60.4931522347" lon="30.3591190930"><ele>90.50</ele><time>2025-05-31T09:23:44Z</time></trkpt><trkpt lat="60.4932281747" lon="30.3591149859"><ele>90.02</ele><time>2025-05-31T09:23:56Z</time></trkpt><trkpt lat="60.4932350479" lon="30.3591217753"><ele>89.54</ele><time>2025-05-31T09:24:17Z</time></trkpt><trkpt lat="60.4932700843" lon="30.3591377847"><ele>90.02</ele><time>2025-05-31T09:24:43Z</time></trkpt><trkpt lat="60.4933500476" lon="30.3591727372"><ele>90.02</ele><time>2025-05-31T09:24:55Z</time></trkpt><trkpt lat="60.4933922924" lon="30.3591481782"><ele>90.02</ele><time>2025-05-31T09:25:06Z</time></trkpt><trkpt lat="60.4934330285" lon="30.3592210170"><ele>90.50</ele><time>2025-05-31T09:25:18Z</time></trkpt><trkpt lat="60.4934697412" lon="30.3592114616"><ele>89.54</ele><time>2025-05-31T09:25:32Z</time></trkpt><trkpt lat="60.4934670590" lon="30.3591768444"><ele>90.02</ele><time>2025-05-31T09:26:03Z</time></trkpt><trkpt lat="60.4934007581" lon="30.3591590747"><ele>90.02</ele><time>2025-05-31T09:26:17Z</time></trkpt><trkpt lat="60.4933922924" lon="30.3591327555"><ele>90.02</ele><time>2025-05-31T09:26:23Z</time></trkpt><trkpt lat="60.4934078828" lon="30.3590833861"><ele>90.02</ele><time>2025-05-31T09:26:33Z</time></trkpt><trkpt lat="60.4934202880" lon="30.3589675482"><ele>90.50</ele><time>2025-05-31T09:26:47Z</time></trkpt><trkpt lat="60.4933781270" lon="30.3588740900"><ele>90.50</ele><time>2025-05-31T09:26:58Z</time></trkpt><trkpt lat="60.4933445156" lon="30.3587494511"><ele>90.02</ele><time>2025-05-31T09:27:11Z</time></trkpt><trkpt lat="60.4933538195" lon="30.3587314300"><ele>89.54</ele><time>2025-05-31T09:27:25Z</time></trkpt><trkpt lat="60.4933596868" lon="30.3587439191"><ele>89.54</ele><time>2025-05-31T09:27:52Z</time></trkpt><trkpt lat="60.4933532327" lon="30.3587720823"><ele>89.06</ele><time>2025-05-31T09:28:18Z</time></trkpt><trkpt lat="60.4933556635" lon="30.3587715793"><ele>89.06</ele><time>2025-05-31T09:28:44Z</time></trkpt><trkpt lat="60.4933517240" lon="30.3587492835"><ele>90.02</ele><time>2025-05-31T09:29:06Z</time></trkpt><trkpt lat="60.4933195375" lon="30.3586954717"><ele>89.54</ele><time>2025-05-31T09:29:20Z</time></trkpt><trkpt lat="60.4932973254" lon="30.3586269077"><ele>89.06</ele><time>2025-05-31T09:29:31Z</time></trkpt><trkpt lat="60.4933220521" lon="30.3584396560"><ele>89.54</ele><time>2025-05-31T09:29:43Z</time></trkpt><trkpt lat="60.4932927992" lon="30.3582194634"><ele>89.54</ele><time>2025-05-31T09:29:57Z</time></trkpt><trkpt lat="60.4932924639" lon="30.3581882827"><ele>89.54</ele><time>2025-05-31T09:29:59Z</time></trkpt><trkpt lat="60.4932784662" lon="30.3581531625"><ele>90.50</ele><time>2025-05-31T09:30:11Z</time></trkpt><trkpt lat="60.4932888597" lon="30.3581446130"><ele>90.50</ele><time>2025-05-31T09:30:33Z</time></trkpt><trkpt lat="60.4932668153" lon="30.3581019491"><ele>90.50</ele><time>2025-05-31T09:30:39Z</time></trkpt><trkpt lat="60.4932542425" lon="30.3579538409"><ele>90.02</ele><time>2025-05-31T09:30:49Z</time></trkpt><trkpt lat="60.4932643846" lon="30.3578182217"><ele>89.54</ele><time>2025-05-31T09:31:01Z</time></trkpt><trkpt lat="60.4933188669" lon="30.3576857876"><ele>90.50</ele><time>2025-05-31T09:31:14Z</time></trkpt><trkpt lat="60.4933188669" lon="30.3576667607"><ele>90.50</ele><time>2025-05-31T09:31:16Z</time></trkpt><trkpt lat="60.4932601098" lon="30.3574980330"><ele>90.02</ele><time>2025-05-31T09:31:27Z</time></trkpt><trkpt lat="60.4932035320" lon="30.3573043272"><ele>90.02</ele><time>2025-05-31T09:31:42Z</time></trkpt><trkpt lat="60.4931874387" lon="30.3572002240"><ele>89.06</ele><time>2025-05-31T09:31:56Z</time></trkpt><trkpt lat="60.4932150152" lon="30.3573464043"><ele>90.02</ele><time>2025-05-31T09:32:10Z</time></trkpt><trkpt lat="60.4931419250" lon="30.3573410399"><ele>89.06</ele><time>2025-05-31T09:32:21Z</time></trkpt><trkpt lat="60.4930831678" lon="30.3573387768"><ele>89.06</ele><time>2025-05-31T09:32:34Z</time></trkpt><trkpt lat="60.4930239078" lon="30.3572748229"><ele>89.06</ele><time>2025-05-31T09:32:47Z</time></trkpt><trkpt lat="60.4930341337" lon="30.3571541235"><ele>89.06</ele><time>2025-05-31T09:32:55Z</time></trkpt><trkpt lat="60.4930030368" lon="30.3570951987"><ele>88.58</ele><time>2025-05-31T09:32:59Z</time></trkpt><trkpt lat="60.4929875303" lon="30.3569195140"><ele>88.58</ele><time>2025-05-31T09:33:12Z</time></trkpt><trkpt lat="60.4929674137" lon="30.3568069451"><ele>89.06</ele><time>2025-05-31T09:33:20Z</time></trkpt><trkpt lat="60.4929249175" lon="30.3566104732"><ele>89.06</ele><time>2025-05-31T09:33:31Z</time></trkpt><trkpt lat="60.4927997757" lon="30.3566207830"><ele>88.58</ele><time>2025-05-31T09:33:45Z</time></trkpt><trkpt lat="60.4926687665" lon="30.3566172626"><ele>90.02</ele><time>2025-05-31T09:34:00Z</time></trkpt><trkpt lat="60.4925360810" lon="30.3566459287"><ele>88.10</ele><time>2025-05-31T09:34:15Z</time></trkpt><trkpt lat="60.4923829436" lon="30.3566224594"><ele>88.58</ele><time>2025-05-31T09:34:30Z</time></trkpt><trkpt lat="60.4921313189" lon="30.3566124849"><ele>87.62</ele><time>2025-05-31T09:34:52Z</time></trkpt><trkpt lat="60.4920857213" lon="30.3565922007"><ele>87.62</ele><time>2025-05-31T09:34:56Z</time></trkpt><trkpt lat="60.4919015709" lon="30.3564906958"><ele>87.62</ele><time>2025-05-31T09:35:12Z</time></trkpt><trkpt lat="60.4917481821" lon="30.3563512210"><ele>87.14</ele><time>2025-05-31T09:35:26Z</time></trkpt><trkpt lat="60.4915553145" lon="30.3563052882"><ele>87.62</ele><time>2025-05-31T09:35:44Z</time></trkpt><trkpt lat="60.4915167578" lon="30.3562782984"><ele>87.14</ele><time>2025-05-31T09:35:48Z</time></trkpt><trkpt lat="60.4914389737" lon="30.3562477045"><ele>87.14</ele><time>2025-05-31T09:35:55Z</time></trkpt><trkpt lat="60.4912538175" lon="30.3562458605"><ele>86.66</ele><time>2025-05-31T09:36:13Z</time></trkpt><trkpt lat="60.4910952318" lon="30.3563249018"><ele>85.69</ele><time>2025-05-31T09:36:30Z</time></trkpt><trkpt lat="60.4909734428" lon="30.3563148435"><ele>86.18</ele><time>2025-05-31T09:36:43Z</time></trkpt><trkpt lat="60.4907806590" lon="30.3563892748"><ele>86.18</ele><time>2025-05-31T09:37:02Z</time></trkpt><trkpt lat="60.4906345624" lon="30.3563720081"><ele>85.69</ele><time>2025-05-31T09:37:17Z</time></trkpt><trkpt lat="60.4905450437" lon="30.3561327886"><ele>85.69</ele><time>2025-05-31T09:37:33Z</time></trkpt><trkpt lat="60.4904656671" lon="30.3558355663"><ele>85.69</ele><time>2025-05-31T09:37:52Z</time></trkpt><trkpt lat="60.4903256055" lon="30.3556668386"><ele>82.81</ele><time>2025-05-31T09:38:08Z</time></trkpt><trkpt lat="60.4903156310" lon="30.3556535114"><ele>82.81</ele><time>2025-05-31T09:38:09Z</time></trkpt><trkpt lat="60.4901593085" lon="30.3555492405"><ele>80.41</ele><time>2025-05-31T09:38:30Z</time></trkpt><trkpt lat="60.4901049100" lon="30.3552756552"><ele>77.04</ele><time>2025-05-31T09:38:43Z</time></trkpt><trkpt lat="60.4899827018" lon="30.3548454121"><ele>75.12</ele><time>2025-05-31T09:39:04Z</time></trkpt><trkpt lat="60.4898907524" lon="30.3546088748"><ele>75.12</ele><time>2025-05-31T09:39:21Z</time></trkpt><trkpt lat="60.4897749145" lon="30.3544067033"><ele>75.12</ele><time>2025-05-31T09:39:36Z</time></trkpt><trkpt lat="60.4896278959" lon="30.3541907854"><ele>75.12</ele><time>2025-05-31T09:39:52Z</time></trkpt><trkpt lat="60.4894210305" lon="30.3538524080"><ele>75.60</ele><time>2025-05-31T09:40:10Z</time></trkpt><trkpt lat="60.4893330205" lon="30.3536086623"><ele>75.60</ele><time>2025-05-31T09:40:27Z</time></trkpt><trkpt lat="60.4891694058" lon="30.3533432912"><ele>75.12</ele><time>2025-05-31T09:40:46Z</time></trkpt><trkpt lat="60.4891084693" lon="30.3531452268"><ele>75.60</ele><time>2025-05-31T09:41:00Z</time></trkpt><trkpt lat="60.4890006781" lon="30.3529138025"><ele>75.60</ele><time>2025-05-31T09:41:14Z</time></trkpt><trkpt lat="60.4889064655" lon="30.3529816121"><ele>75.60</ele><time>2025-05-31T09:41:23Z</time></trkpt><trkpt lat="60.4887809884" lon="30.3533596359"><ele>74.64</ele><time>2025-05-31T09:41:44Z</time></trkpt><trkpt lat="60.4886605404" lon="30.3537156992"><ele>74.16</ele><time>2025-05-31T09:42:02Z</time></trkpt><trkpt lat="60.4886258394" lon="30.3538077325"><ele>73.68</ele><time>2025-05-31T09:42:07Z</time></trkpt><trkpt lat="60.4885002784" lon="30.3541918751"><ele>73.68</ele><time>2025-05-31T09:42:23Z</time></trkpt><trkpt lat="60.4883851111" lon="30.3546141554"><ele>73.68</ele><time>2025-05-31T09:42:41Z</time></trkpt><trkpt lat="60.4882826004" lon="30.3551137168"><ele>72.24</ele><time>2025-05-31T09:42:58Z</time></trkpt><trkpt lat="60.4882598855" lon="30.3553240187"><ele>71.76</ele><time>2025-05-31T09:43:07Z</time></trkpt><trkpt lat="60.4882441275" lon="30.3558054753"><ele>71.76</ele><time>2025-05-31T09:43:25Z</time></trkpt><trkpt lat="60.4882535990" lon="30.3560482990"><ele>71.76</ele><time>2025-05-31T09:43:37Z</time></trkpt><trkpt lat="60.4882261064" lon="30.3562710062"><ele>72.24</ele><time>2025-05-31T09:43:46Z</time></trkpt><trkpt lat="60.4881748091" lon="30.3566475213"><ele>72.24</ele><time>2025-05-31T09:44:01Z</time></trkpt><trkpt lat="60.4881453048" lon="30.3569879103"><ele>71.27</ele><time>2025-05-31T09:44:14Z</time></trkpt><trkpt lat="60.4881354142" lon="30.3571055084"><ele>71.76</ele><time>2025-05-31T09:44:21Z</time></trkpt><trkpt lat="60.4881346598" lon="30.3573194984"><ele>71.76</ele><time>2025-05-31T09:44:30Z</time></trkpt><trkpt lat="60.4881541897" lon="30.3574914113"><ele>71.27</ele><time>2025-05-31T09:44:37Z</time></trkpt><trkpt lat="60.4881318938" lon="30.3578736261"><ele>71.76</ele><time>2025-05-31T09:44:54Z</time></trkpt><trkpt lat="60.4881676845" lon="30.3580096643"><ele>71.27</ele><time>2025-05-31T09:45:08Z</time></trkpt><trkpt lat="60.4881836101" lon="30.3583793063"><ele>71.76</ele><time>2025-05-31T09:45:22Z</time></trkpt><trkpt lat="60.4882116057" lon="30.3585678991"><ele>72.24</ele><time>2025-05-31T09:45:28Z</time></trkpt><trkpt lat="60.4883680120" lon="30.3588967212"><ele>73.20</ele><time>2025-05-31T09:45:45Z</time></trkpt><trkpt lat="60.4884861968" lon="30.3591224458"><ele>73.20</ele><time>2025-05-31T09:46:01Z</time></trkpt><trkpt lat="60.4886194691" lon="30.3593495116"><ele>74.16</ele><time>2025-05-31T09:46:15Z</time></trkpt><trkpt lat="60.4887552559" lon="30.3596857935"><ele>73.20</ele><time>2025-05-31T09:46:31Z</time></trkpt><trkpt lat="60.4888320342" lon="30.3600124363"><ele>73.68</ele><time>2025-05-31T09:46:48Z</time></trkpt><trkpt lat="60.4889528174" lon="30.3604720999"><ele>73.20</ele><time>2025-05-31T09:47:05Z</time></trkpt><trkpt lat="60.4890210461" lon="30.3607233893"><ele>73.68</ele><time>2025-05-31T09:47:18Z</time></trkpt><trkpt lat="60.4891513847" lon="30.3610059433"><ele>73.20</ele><time>2025-05-31T09:47:34Z</time></trkpt><trkpt lat="60.4892588407" lon="30.3612064384"><ele>71.76</ele><time>2025-05-31T09:47:55Z</time></trkpt><trkpt lat="60.4894007463" lon="30.3615072649"><ele>72.72</ele><time>2025-05-31T09:48:11Z</time></trkpt><trkpt lat="60.4894877505" lon="30.3617621586"><ele>72.24</ele><time>2025-05-31T09:48:26Z</time></trkpt><trkpt lat="60.4896258842" lon="30.3620217461"><ele>72.24</ele><time>2025-05-31T09:48:43Z</time></trkpt><trkpt lat="60.4898981284" lon="30.3622060642"><ele>71.76</ele><time>2025-05-31T09:49:00Z</time></trkpt><trkpt lat="60.4900197499" lon="30.3624607064"><ele>70.79</ele><time>2025-05-31T09:49:20Z</time></trkpt><trkpt lat="60.4901728034" lon="30.3625800647"><ele>70.31</ele><time>2025-05-31T09:49:39Z</time></trkpt><trkpt lat="60.4903320596" lon="30.3627990838"><ele>69.83</ele><time>2025-05-31T09:49:57Z</time></trkpt><trkpt lat="60.4903764836" lon="30.3629871737"><ele>69.35</ele><time>2025-05-31T09:50:12Z</time></trkpt><trkpt lat="60.4904803354" lon="30.3632258065"><ele>69.35</ele><time>2025-05-31T09:50:26Z</time></trkpt><trkpt lat="60.4907065630" lon="30.3636518586"><ele>69.83</ele><time>2025-05-31T09:50:43Z</time></trkpt><trkpt lat="60.4909570981" lon="30.3639999591"><ele>68.87</ele><time>2025-05-31T09:50:58Z</time></trkpt><trkpt lat="60.4910286795" lon="30.3641698603"><ele>68.39</ele><time>2025-05-31T09:51:11Z</time></trkpt><trkpt lat="60.4910869338" lon="30.3643475566"><ele>67.43</ele><time>2025-05-31T09:51:24Z</time></trkpt><trkpt lat="60.4910900351" lon="30.3645044658"><ele>67.43</ele><time>2025-05-31T09:51:30Z</time></trkpt><trkpt lat="60.4911633767" lon="30.3648066334"><ele>66.95</ele><time>2025-05-31T09:51:41Z</time></trkpt><trkpt lat="60.4912769515" lon="30.3650545701"><ele>65.99</ele><time>2025-05-31T09:51:56Z</time></trkpt><trkpt lat="60.4913469404" lon="30.3649920411"><ele>65.99</ele><time>2025-05-31T09:52:02Z</time></trkpt><trkpt lat="60.4915315937" lon="30.3650564142"><ele>66.95</ele><time>2025-05-31T09:52:20Z</time></trkpt><trkpt lat="60.4916122276" lon="30.3652295005"><ele>66.95</ele><time>2025-05-31T09:52:34Z</time></trkpt><trkpt lat="60.4916826356" lon="30.3653965518"><ele>66.47</ele><time>2025-05-31T09:52:48Z</time></trkpt><trkpt lat="60.4917016625" lon="30.3654195182"><ele>66.95</ele><time>2025-05-31T09:52:50Z</time></trkpt><trkpt lat="60.4918716475" lon="30.3657431435"><ele>66.95</ele><time>2025-05-31T09:53:07Z</time></trkpt><trkpt lat="60.4919744935" lon="30.3659892362"><ele>67.91</ele><time>2025-05-31T09:53:23Z</time></trkpt><trkpt lat="60.4920643475" lon="30.3662503324"><ele>68.87</ele><time>2025-05-31T09:53:39Z</time></trkpt><trkpt lat="60.4921326600" lon="30.3665513266"><ele>69.35</ele><time>2025-05-31T09:53:55Z</time></trkpt><trkpt lat="60.4923352506" lon="30.3669050429"><ele>69.35</ele><time>2025-05-31T09:54:12Z</time></trkpt><trkpt lat="60.4923782498" lon="30.3668454476"><ele>69.35</ele><time>2025-05-31T09:54:28Z</time></trkpt><trkpt lat="60.4924156331" lon="30.3668006044"><ele>68.87</ele><time>2025-05-31T09:54:49Z</time></trkpt><trkpt lat="60.4924303852" lon="30.3668482136"><ele>68.39</ele><time>2025-05-31T09:55:07Z</time></trkpt><trkpt lat="60.4924344923" lon="30.3668228164"><ele>68.87</ele><time>2025-05-31T09:55:23Z</time></trkpt><trkpt lat="60.4924492445" lon="30.3667961620"><ele>68.87</ele><time>2025-05-31T09:55:43Z</time></trkpt><trkpt lat="60.4924667627" lon="30.3668123391"><ele>69.83</ele><time>2025-05-31T09:56:04Z</time></trkpt><trkpt lat="60.4924213327" lon="30.3668418434"><ele>69.83</ele><time>2025-05-31T09:56:24Z</time></trkpt><trkpt lat="60.4924922436" lon="30.3670736868"><ele>69.35</ele><time>2025-05-31T09:56:38Z</time></trkpt><trkpt lat="60.4925278667" lon="30.3671278339"><ele>69.35</ele><time>2025-05-31T09:56:53Z</time></trkpt><trkpt lat="60.4925208259" lon="30.3670781292"><ele>68.39</ele><time>2025-05-31T09:57:11Z</time></trkpt><trkpt lat="60.4925282020" lon="30.3670667298"><ele>68.39</ele><time>2025-05-31T09:57:15Z</time></trkpt><trkpt lat="60.4925481509" lon="30.3670115769"><ele>68.87</ele><time>2025-05-31T09:57:47Z</time></trkpt><trkpt lat="60.4925280344" lon="30.3670359682"><ele>68.87</ele><time>2025-05-31T09:58:18Z</time></trkpt><trkpt lat="60.4925172217" lon="30.3670188691"><ele>69.35</ele><time>2025-05-31T09:58:50Z</time></trkpt><trkpt lat="60.4925243463" lon="30.3669898678"><ele>69.35</ele><time>2025-05-31T09:59:21Z</time></trkpt><trkpt lat="60.4925416969" lon="30.3670294303"><ele>69.35</ele><time>2025-05-31T09:59:52Z</time></trkpt><trkpt lat="60.4925162159" lon="30.3670300171"><ele>69.83</ele><time>2025-05-31T10:00:25Z</time></trkpt><trkpt lat="60.4925194848" lon="30.3669938073"><ele>70.31</ele><time>2025-05-31T10:00:49Z</time></trkpt><trkpt lat="60.4924899805" lon="30.3669945616"><ele>70.31</ele><time>2025-05-31T10:01:15Z</time></trkpt><trkpt lat="60.4924841970" lon="30.3669700865"><ele>70.79</ele><time>2025-05-31T10:01:41Z</time></trkpt><trkpt lat="60.4924777430" lon="30.3669420909"><ele>70.79</ele><time>2025-05-31T10:02:12Z</time></trkpt><trkpt lat="60.4924650863" lon="30.3668653127"><ele>71.27</ele><time>2025-05-31T10:02:41Z</time></trkpt><trkpt lat="60.4924520105" lon="30.3668116685"><ele>71.27</ele><time>2025-05-31T10:03:12Z</time></trkpt><trkpt lat="60.4924645834" lon="30.3668842558"><ele>72.24</ele><time>2025-05-31T10:03:40Z</time></trkpt><trkpt lat="60.4924891423" lon="30.3669287637"><ele>72.24</ele><time>2025-05-31T10:04:06Z</time></trkpt><trkpt lat="60.4925074987" lon="30.3669442702"><ele>72.72</ele><time>2025-05-31T10:04:35Z</time></trkpt><trkpt lat="60.4924797546" lon="30.3669059649"><ele>73.20</ele><time>2025-05-31T10:05:03Z</time></trkpt><trkpt lat="60.4924982786" lon="30.3669449408"><ele>73.20</ele><time>2025-05-31T10:05:34Z</time></trkpt><trkpt lat="60.4925052356" lon="30.3669441864"><ele>73.68</ele><time>2025-05-31T10:05:54Z</time></trkpt><trkpt lat="60.4924707860" lon="30.3669650573"><ele>74.16</ele><time>2025-05-31T10:06:17Z</time></trkpt><trkpt lat="60.4924257752" lon="30.3668694198"><ele>74.64</ele><time>2025-05-31T10:06:45Z</time></trkpt><trkpt lat="60.4924274515" lon="30.3668212239"><ele>74.64</ele><time>2025-05-31T10:07:09Z</time></trkpt><trkpt lat="60.4924385156" lon="30.3667710163"><ele>75.12</ele><time>2025-05-31T10:07:32Z</time></trkpt><trkpt lat="60.4924526811" lon="30.3667500615"><ele>75.60</ele><time>2025-05-31T10:07:55Z</time></trkpt><trkpt lat="60.4924562015" lon="30.3667799011"><ele>75.60</ele><time>2025-05-31T10:08:19Z</time></trkpt><trkpt lat="60.4924721271" lon="30.3668190446"><ele>76.08</ele><time>2025-05-31T10:08:43Z</time></trkpt><trkpt lat="60.4924603924" lon="30.3667901270"><ele>76.56</ele><time>2025-05-31T10:09:09Z</time></trkpt><trkpt lat="60.4925078340" lon="30.3668491356"><ele>77.04</ele><time>2025-05-31T10:09:33Z</time></trkpt><trkpt lat="60.4925050680" lon="30.3668954875"><ele>77.04</ele><time>2025-05-31T10:09:54Z</time></trkpt><trkpt lat="60.4925084207" lon="30.3668529913"><ele>77.52</ele><time>2025-05-31T10:10:17Z</time></trkpt><trkpt lat="60.4925276153" lon="30.3668679111"><ele>77.52</ele><time>2025-05-31T10:10:41Z</time></trkpt><trkpt lat="60.4925426189" lon="30.3669291828"><ele>77.52</ele><time>2025-05-31T10:11:02Z</time></trkpt><trkpt lat="60.4925580416" lon="30.3669423424"><ele>78.00</ele><time>2025-05-31T10:11:22Z</time></trkpt><trkpt lat="60.4925191496" lon="30.3668407537"><ele>78.97</ele><time>2025-05-31T10:11:47Z</time></trkpt><trkpt lat="60.4925004579" lon="30.3667625505"><ele>78.48</ele><time>2025-05-31T10:12:11Z</time></trkpt><trkpt lat="60.4925048165" lon="30.3668083996"><ele>78.97</ele><time>2025-05-31T10:12:35Z</time></trkpt><trkpt lat="60.4925482348" lon="30.3669427615"><ele>79.45</ele><time>2025-05-31T10:13:01Z</time></trkpt><trkpt lat="60.4925279506" lon="30.3668829147"><ele>79.45</ele><time>2025-05-31T10:13:23Z</time></trkpt><trkpt lat="60.4925163835" lon="30.3669015225"><ele>79.93</ele><time>2025-05-31T10:13:45Z</time></trkpt><trkpt lat="60.4924608115" lon="30.3668817412"><ele>79.93</ele><time>2025-05-31T10:14:11Z</time></trkpt><trkpt lat="60.4925045650" lon="30.3669237345"><ele>79.93</ele><time>2025-05-31T10:14:37Z</time></trkpt><trkpt lat="60.4925163835" lon="30.3668284323"><ele>79.93</ele><time>2025-05-31T10:15:04Z</time></trkpt><trkpt lat="60.4924872145" lon="30.3667522408"><ele>80.89</ele><time>2025-05-31T10:15:32Z</time></trkpt><trkpt lat="60.4925261065" lon="30.3667718545"><ele>80.89</ele><time>2025-05-31T10:15:58Z</time></trkpt><trkpt lat="60.4925259389" lon="30.3668122552"><ele>80.89</ele><time>2025-05-31T10:16:29Z</time></trkpt><trkpt lat="60.4925552756" lon="30.3669168614"><ele>81.37</ele><time>2025-05-31T10:16:57Z</time></trkpt><trkpt lat="60.4925893061" lon="30.3669830784"><ele>81.85</ele><time>2025-05-31T10:17:28Z</time></trkpt><trkpt lat="60.4925458878" lon="30.3669297695"><ele>82.33</ele><time>2025-05-31T10:18:03Z</time></trkpt><trkpt lat="60.4925251007" lon="30.3669125028"><ele>82.33</ele><time>2025-05-31T10:18:42Z</time></trkpt><trkpt lat="60.4925250169" lon="30.3669284284"><ele>82.33</ele><time>2025-05-31T10:19:16Z</time></trkpt><trkpt lat="60.4924826883" lon="30.3669022769"><ele>82.33</ele><time>2025-05-31T10:19:49Z</time></trkpt><trkpt lat="60.4925262742" lon="30.3669076413"><ele>82.81</ele><time>2025-05-31T10:20:25Z</time></trkpt><trkpt lat="60.4925382603" lon="30.3669347987"><ele>82.81</ele><time>2025-05-31T10:20:58Z</time></trkpt><trkpt lat="60.4925235081" lon="30.3669824917"><ele>82.81</ele><time>2025-05-31T10:21:30Z</time></trkpt><trkpt lat="60.4925043974" lon="30.3669029474"><ele>82.33</ele><time>2025-05-31T10:22:02Z</time></trkpt><trkpt lat="60.4925028048" lon="30.3669585194"><ele>82.33</ele><time>2025-05-31T10:22:31Z</time></trkpt><trkpt lat="60.4925062414" lon="30.3669865150"><ele>82.81</ele><time>2025-05-31T10:23:04Z</time></trkpt><trkpt lat="60.4925203230" lon="30.3669776302"><ele>82.81</ele><time>2025-05-31T10:23:30Z</time></trkpt><trkpt lat="60.4925315548" lon="30.3669320326"><ele>81.85</ele><time>2025-05-31T10:23:58Z</time></trkpt><trkpt lat="60.4925457202" lon="30.3669966571"><ele>82.33</ele><time>2025-05-31T10:24:24Z</time></trkpt><trkpt lat="60.4925216641" lon="30.3670320287"><ele>82.81</ele><time>2025-05-31T10:24:50Z</time></trkpt><trkpt lat="60.4925583769" lon="30.3670116607"><ele>83.29</ele><time>2025-05-31T10:25:18Z</time></trkpt><trkpt lat="60.4925305489" lon="30.3669231478"><ele>82.81</ele><time>2025-05-31T10:25:43Z</time></trkpt><trkpt lat="60.4925238434" lon="30.3668750357"><ele>83.29</ele><time>2025-05-31T10:26:06Z</time></trkpt><trkpt lat="60.4924685229" lon="30.3666910529"><ele>83.29</ele><time>2025-05-31T10:26:32Z</time></trkpt><trkpt lat="60.4924640805" lon="30.3667011950"><ele>83.29</ele><time>2025-05-31T10:27:00Z</time></trkpt><trkpt lat="60.4925059061" lon="30.3668405022"><ele>83.77</ele><time>2025-05-31T10:27:29Z</time></trkpt><trkpt lat="60.4925049841" lon="30.3668204695"><ele>83.29</ele><time>2025-05-31T10:27:57Z</time></trkpt><trkpt lat="60.4924999550" lon="30.3667844273"><ele>83.77</ele><time>2025-05-31T10:28:23Z</time></trkpt><trkpt lat="60.4925178923" lon="30.3668592777"><ele>84.25</ele><time>2025-05-31T10:28:50Z</time></trkpt><trkpt lat="60.4925306328" lon="30.3668739460"><ele>84.73</ele><time>2025-05-31T10:29:15Z</time></trkpt><trkpt lat="60.4925595503" lon="30.3669268358"><ele>84.73</ele><time>2025-05-31T10:29:40Z</time></trkpt><trkpt lat="60.4925245978" lon="30.3668726888"><ele>84.73</ele><time>2025-05-31T10:30:06Z</time></trkpt><trkpt lat="60.4925074149" lon="30.3668925539"><ele>85.21</ele><time>2025-05-31T10:30:32Z</time></trkpt><trkpt lat="60.4925327282" lon="30.3669804800"><ele>84.73</ele><time>2025-05-31T10:30:55Z</time></trkpt><trkpt lat="60.4925347399" lon="30.3669617884"><ele>84.73</ele><time>2025-05-31T10:31:20Z</time></trkpt><trkpt lat="60.4925035592" lon="30.3668627143"><ele>85.21</ele><time>2025-05-31T10:31:47Z</time></trkpt><trkpt lat="60.4925074149" lon="30.3669193760"><ele>85.69</ele><time>2025-05-31T10:32:08Z</time></trkpt><trkpt lat="60.4925152939" lon="30.3669554181"><ele>85.69</ele><time>2025-05-31T10:32:34Z</time></trkpt><trkpt lat="60.4925118573" lon="30.3668803163"><ele>85.69</ele><time>2025-05-31T10:32:57Z</time></trkpt><trkpt lat="60.4924948420" lon="30.3668984212"><ele>86.18</ele><time>2025-05-31T10:33:21Z</time></trkpt><trkpt lat="60.4925000388" lon="30.3669638839"><ele>86.18</ele><time>2025-05-31T10:33:44Z</time></trkpt><trkpt lat="60.4925326444" lon="30.3669635486"><ele>85.21</ele><time>2025-05-31T10:34:07Z</time></trkpt><trkpt lat="60.4925349914" lon="30.3669391572"><ele>85.69</ele><time>2025-05-31T10:34:29Z</time></trkpt><trkpt lat="60.4925168026" lon="30.3669192083"><ele>86.18</ele><time>2025-05-31T10:34:57Z</time></trkpt><trkpt lat="60.4925250169" lon="30.3669505566"><ele>86.18</ele><time>2025-05-31T10:35:26Z</time></trkpt><trkpt lat="60.4925240949" lon="30.3669554181"><ele>85.69</ele><time>2025-05-31T10:35:48Z</time></trkpt><trkpt lat="60.4925345723" lon="30.3669419233"><ele>86.18</ele><time>2025-05-31T10:36:10Z</time></trkpt><trkpt lat="60.4925051518" lon="30.3668923862"><ele>86.18</ele><time>2025-05-31T10:36:33Z</time></trkpt><trkpt lat="60.4924747255" lon="30.3667537495"><ele>86.66</ele><time>2025-05-31T10:36:58Z</time></trkpt><trkpt lat="60.4924872983" lon="30.3668270074"><ele>86.66</ele><time>2025-05-31T10:37:23Z</time></trkpt><trkpt lat="60.4925113544" lon="30.3668759577"><ele>87.14</ele><time>2025-05-31T10:37:44Z</time></trkpt><trkpt lat="60.4925090913" lon="30.3668850102"><ele>87.14</ele><time>2025-05-31T10:38:08Z</time></trkpt><trkpt lat="60.4925153777" lon="30.3668824118"><ele>86.66</ele><time>2025-05-31T10:38:36Z</time></trkpt><trkpt lat="60.4925275315" lon="30.3669031989"><ele>87.14</ele><time>2025-05-31T10:39:00Z</time></trkpt><trkpt lat="60.4925014637" lon="30.3669900354"><ele>87.14</ele><time>2025-05-31T10:39:25Z</time></trkpt><trkpt lat="60.4925527610" lon="30.3670654725"><ele>86.66</ele><time>2025-05-31T10:39:51Z</time></trkpt><trkpt lat="60.4925472289" lon="30.3670090623"><ele>86.66</ele><time>2025-05-31T10:40:15Z</time></trkpt><trkpt lat="60.4925349075" lon="30.3669155203"><ele>86.18</ele><time>2025-05-31T10:40:36Z</time></trkpt><trkpt lat="60.4925218318" lon="30.3669244051"><ele>86.18</ele><time>2025-05-31T10:41:02Z</time></trkpt><trkpt lat="60.4925157968" lon="30.3669025283"><ele>86.18</ele><time>2025-05-31T10:41:28Z</time></trkpt><trkpt lat="60.4925137013" lon="30.3669208847"><ele>86.18</ele><time>2025-05-31T10:41:52Z</time></trkpt><trkpt lat="60.4925110191" lon="30.3669332061"><ele>87.14</ele><time>2025-05-31T10:42:16Z</time></trkpt><trkpt lat="60.4925543536" lon="30.3670269158"><ele>85.69</ele><time>2025-05-31T10:42:42Z</time></trkpt><trkpt lat="60.4925306328" lon="30.3669335414"><ele>86.18</ele><time>2025-05-31T10:43:06Z</time></trkpt><trkpt lat="60.4925193172" lon="30.3669750318"><ele>85.69</ele><time>2025-05-31T10:43:31Z</time></trkpt><trkpt lat="60.4925126955" lon="30.3669210523"><ele>86.18</ele><time>2025-05-31T10:43:54Z</time></trkpt><trkpt lat="60.4925551917" lon="30.3670212161"><ele>86.18</ele><time>2025-05-31T10:44:16Z</time></trkpt><trkpt lat="60.4925186466" lon="30.3669565916"><ele>85.69</ele><time>2025-05-31T10:44:39Z</time></trkpt><trkpt lat="60.4925255198" lon="30.3669627942"><ele>86.18</ele><time>2025-05-31T10:45:04Z</time></trkpt><trkpt lat="60.4925296269" lon="30.3669720981"><ele>85.69</ele><time>2025-05-31T10:45:25Z</time></trkpt><trkpt lat="60.4925324768" lon="30.3669764567"><ele>86.66</ele><time>2025-05-31T10:45:45Z</time></trkpt><trkpt lat="60.4925256874" lon="30.3669625428"><ele>86.66</ele><time>2025-05-31T10:46:06Z</time></trkpt><trkpt lat="60.4925256874" lon="30.3669859283"><ele>86.18</ele><time>2025-05-31T10:46:39Z</time></trkpt><trkpt lat="60.4925385956" lon="30.3669762891"><ele>85.69</ele><time>2025-05-31T10:47:11Z</time></trkpt><trkpt lat="60.4925607238" lon="30.3670363873"><ele>86.66</ele><time>2025-05-31T10:47:37Z</time></trkpt><trkpt lat="60.4925483186" lon="30.3670256585"><ele>85.69</ele><time>2025-05-31T10:48:08Z</time></trkpt><trkpt lat="60.4925422836" lon="30.3669821564"><ele>86.18</ele><time>2025-05-31T10:48:39Z</time></trkpt><trkpt lat="60.4925142042" lon="30.3669916280"><ele>85.21</ele><time>2025-05-31T10:49:06Z</time></trkpt><trkpt lat="60.4925567005" lon="30.3670031950"><ele>85.69</ele><time>2025-05-31T10:49:33Z</time></trkpt><trkpt lat="60.4925491568" lon="30.3669817373"><ele>86.66</ele><time>2025-05-31T10:50:05Z</time></trkpt><trkpt lat="60.4925643280" lon="30.3669481259"><ele>87.14</ele><time>2025-05-31T10:50:35Z</time></trkpt><trkpt lat="60.4925863724" lon="30.3669432644"><ele>86.66</ele><time>2025-05-31T10:51:06Z</time></trkpt><trkpt lat="60.4925877135" lon="30.3669596929"><ele>86.18</ele><time>2025-05-31T10:51:30Z</time></trkpt><trkpt lat="60.4925877973" lon="30.3669491317"><ele>87.62</ele><time>2025-05-31T10:51:35Z</time></trkpt><trkpt lat="60.4925402720" lon="30.3669264168"><ele>85.69</ele><time>2025-05-31T10:52:03Z</time></trkpt><trkpt lat="60.4926029686" lon="30.3669278417"><ele>86.66</ele><time>2025-05-31T10:52:32Z</time></trkpt><trkpt lat="60.4926518351" lon="30.3669164423"><ele>87.14</ele><time>2025-05-31T10:52:58Z</time></trkpt><trkpt lat="60.4925921559" lon="30.3668985888"><ele>86.18</ele><time>2025-05-31T10:53:25Z</time></trkpt><trkpt lat="60.4924604762" lon="30.3668594453"><ele>86.66</ele><time>2025-05-31T10:53:52Z</time></trkpt><trkpt lat="60.4924663436" lon="30.3668458667"><ele>87.14</ele><time>2025-05-31T10:54:19Z</time></trkpt><trkpt lat="60.4924305528" lon="30.3668239061"><ele>87.14</ele><time>2025-05-31T10:54:45Z</time></trkpt><trkpt lat="60.4924170580" lon="30.3668115847"><ele>87.14</ele><time>2025-05-31T10:55:12Z</time></trkpt><trkpt lat="60.4924207460" lon="30.3668289352"><ele>86.66</ele><time>2025-05-31T10:55:40Z</time></trkpt><trkpt lat="60.4924275354" lon="30.3668657318"><ele>86.18</ele><time>2025-05-31T10:56:09Z</time></trkpt><trkpt lat="60.4924422875" lon="30.3668698389"><ele>86.66</ele><time>2025-05-31T10:56:40Z</time></trkpt><trkpt lat="60.4924147110" lon="30.3668045439"><ele>87.14</ele><time>2025-05-31T10:57:09Z</time></trkpt><trkpt lat="60.4923914094" lon="30.3667366505"><ele>86.66</ele><time>2025-05-31T10:57:43Z</time></trkpt><trkpt lat="60.4923864640" lon="30.3666975070"><ele>87.14</ele><time>2025-05-31T10:58:11Z</time></trkpt><trkpt lat="60.4924161360" lon="30.3666692600"><ele>86.66</ele><time>2025-05-31T10:58:41Z</time></trkpt><trkpt lat="60.4924297985" lon="30.3667718545"><ele>87.14</ele><time>2025-05-31T10:59:10Z</time></trkpt><trkpt lat="60.4924349952" lon="30.3668113332"><ele>86.66</ele><time>2025-05-31T10:59:35Z</time></trkpt><trkpt lat="60.4924360011" lon="30.3668068908"><ele>87.14</ele><time>2025-05-31T11:00:01Z</time></trkpt><trkpt lat="60.4924541898" lon="30.3668416757"><ele>86.66</ele><time>2025-05-31T11:00:26Z</time></trkpt><trkpt lat="60.4924396891" lon="30.3667931445"><ele>86.66</ele><time>2025-05-31T11:00:55Z</time></trkpt><trkpt lat="60.4924276192" lon="30.3668301925"><ele>86.66</ele><time>2025-05-31T11:01:21Z</time></trkpt><trkpt lat="60.4924478196" lon="30.3668152727"><ele>86.66</ele><time>2025-05-31T11:01:41Z</time></trkpt><trkpt lat="60.4924748093" lon="30.3669046238"><ele>86.66</ele><time>2025-05-31T11:02:08Z</time></trkpt><trkpt lat="60.4924685229" lon="30.3668727726"><ele>86.66</ele><time>2025-05-31T11:02:33Z</time></trkpt><trkpt lat="60.4924743064" lon="30.3668906260"><ele>86.66</ele><time>2025-05-31T11:02:59Z</time></trkpt><trkpt lat="60.4924411140" lon="30.3667661548"><ele>86.66</ele><time>2025-05-31T11:03:29Z</time></trkpt><trkpt lat="60.4924396053" lon="30.3667543363"><ele>85.69</ele><time>2025-05-31T11:03:55Z</time></trkpt><trkpt lat="60.4924500827" lon="30.3668075614"><ele>86.66</ele><time>2025-05-31T11:04:27Z</time></trkpt><trkpt lat="60.4924753960" lon="30.3668695036"><ele>86.18</ele><time>2025-05-31T11:04:48Z</time></trkpt><trkpt lat="60.4924752284" lon="30.3669337090"><ele>86.66</ele><time>2025-05-31T11:05:16Z</time></trkpt><trkpt lat="60.4924784135" lon="30.3669078089"><ele>86.18</ele><time>2025-05-31T11:05:41Z</time></trkpt><trkpt lat="60.4924674332" lon="30.3668724373"><ele>87.14</ele><time>2025-05-31T11:06:09Z</time></trkpt><trkpt lat="60.4924619850" lon="30.3668741975"><ele>86.66</ele><time>2025-05-31T11:06:35Z</time></trkpt><trkpt lat="60.4924600571" lon="30.3668747842"><ele>86.66</ele><time>2025-05-31T11:06:58Z</time></trkpt><trkpt lat="60.4924937524" lon="30.3668761253"><ele>86.18</ele><time>2025-05-31T11:07:24Z</time></trkpt><trkpt lat="60.4924501665" lon="30.3668115847"><ele>85.69</ele><time>2025-05-31T11:07:46Z</time></trkpt><trkpt lat="60.4924283735" lon="30.3667954914"><ele>86.18</ele><time>2025-05-31T11:08:13Z</time></trkpt><trkpt lat="60.4924449697" lon="30.3667950723"><ele>86.18</ele><time>2025-05-31T11:08:38Z</time></trkpt><trkpt lat="60.4924916569" lon="30.3668716829"><ele>86.66</ele><time>2025-05-31T11:09:03Z</time></trkpt><trkpt lat="60.4924934171" lon="30.3669108264"><ele>86.66</ele><time>2025-05-31T11:09:34Z</time></trkpt><trkpt lat="60.4925100133" lon="30.3669149335"><ele>86.66</ele><time>2025-05-31T11:10:03Z</time></trkpt><trkpt lat="60.4924864601" lon="30.3668866865"><ele>86.66</ele><time>2025-05-31T11:10:29Z</time></trkpt><trkpt lat="60.4924617335" lon="30.3668135963"><ele>87.14</ele><time>2025-05-31T11:10:56Z</time></trkpt><trkpt lat="60.4924293794" lon="30.3667728603"><ele>87.14</ele><time>2025-05-31T11:11:25Z</time></trkpt><trkpt lat="60.4924288765" lon="30.3668975830"><ele>87.14</ele><time>2025-05-31T11:11:53Z</time></trkpt><trkpt lat="60.4924083408" lon="30.3669446055"><ele>87.14</ele><time>2025-05-31T11:12:21Z</time></trkpt><trkpt lat="60.4923750646" lon="30.3668596968"><ele>87.62</ele><time>2025-05-31T11:12:50Z</time></trkpt><trkpt lat="60.4924393538" lon="30.3669891134"><ele>87.62</ele><time>2025-05-31T11:13:18Z</time></trkpt><trkpt lat="60.4924187344" lon="30.3670054581"><ele>88.10</ele><time>2025-05-31T11:13:46Z</time></trkpt><trkpt lat="60.4924209975" lon="30.3667556774"><ele>87.62</ele><time>2025-05-31T11:14:15Z</time></trkpt><trkpt lat="60.4924229253" lon="30.3668327071"><ele>88.58</ele><time>2025-05-31T11:14:44Z</time></trkpt><trkpt lat="60.4924139567" lon="30.3670091461"><ele>87.62</ele><time>2025-05-31T11:15:20Z</time></trkpt><trkpt lat="60.4923546128" lon="30.3669484612"><ele>88.10</ele><time>2025-05-31T11:15:58Z</time></trkpt><trkpt lat="60.4924534354" lon="30.3669165261"><ele>88.58</ele><time>2025-05-31T11:16:36Z</time></trkpt><trkpt lat="60.4924439639" lon="30.3668530751"><ele>88.10</ele><time>2025-05-31T11:17:07Z</time></trkpt><trkpt lat="60.4924764857" lon="30.3669269197"><ele>88.58</ele><time>2025-05-31T11:17:47Z</time></trkpt><trkpt lat="60.4924284574" lon="30.3668384068"><ele>88.58</ele><time>2025-05-31T11:18:24Z</time></trkpt><trkpt lat="60.4924279545" lon="30.3667624667"><ele>89.06</ele><time>2025-05-31T11:19:01Z</time></trkpt><trkpt lat="60.4924402758" lon="30.3668863513"><ele>88.58</ele><time>2025-05-31T11:19:37Z</time></trkpt><trkpt lat="60.4924442153" lon="30.3668979183"><ele>88.58</ele><time>2025-05-31T11:20:13Z</time></trkpt><trkpt lat="60.4924315587" lon="30.3669037018"><ele>89.06</ele><time>2025-05-31T11:20:47Z</time></trkpt><trkpt lat="60.4923849553" lon="30.3669132572"><ele>89.06</ele><time>2025-05-31T11:21:27Z</time></trkpt><trkpt lat="60.4925061576" lon="30.3670254909"><ele>88.58</ele><time>2025-05-31T11:21:59Z</time></trkpt><trkpt lat="60.4925642442" lon="30.3670548275"><ele>89.06</ele><time>2025-05-31T11:22:40Z</time></trkpt><trkpt lat="60.4925565328" lon="30.3670688253"><ele>89.54</ele><time>2025-05-31T11:23:17Z</time></trkpt><trkpt lat="60.4925504141" lon="30.3671062086"><ele>90.50</ele><time>2025-05-31T11:23:55Z</time></trkpt><trkpt lat="60.4925445467" lon="30.3670624550"><ele>90.50</ele><time>2025-05-31T11:24:35Z</time></trkpt><trkpt lat="60.4925713688" lon="30.3670290951"><ele>91.46</ele><time>2025-05-31T11:25:11Z</time></trkpt><trkpt lat="60.4925556947" lon="30.3670190368"><ele>91.94</ele><time>2025-05-31T11:25:44Z</time></trkpt><trkpt lat="60.4925511684" lon="30.3669734392"><ele>92.90</ele><time>2025-05-31T11:26:24Z</time></trkpt><trkpt lat="60.4925629869" lon="30.3670819849"><ele>92.90</ele><time>2025-05-31T11:26:54Z</time></trkpt><trkpt lat="60.4925613943" lon="30.3670533188"><ele>92.90</ele><time>2025-05-31T11:27:19Z</time></trkpt><trkpt lat="60.4925610591" lon="30.3670124151"><ele>92.90</ele><time>2025-05-31T11:27:50Z</time></trkpt><trkpt lat="60.4925627355" lon="30.3670815658"><ele>93.39</ele><time>2025-05-31T11:28:23Z</time></trkpt><trkpt lat="60.4925637413" lon="30.3670975752"><ele>92.90</ele><time>2025-05-31T11:28:55Z</time></trkpt><trkpt lat="60.4925990291" lon="30.3670874331"><ele>94.35</ele><time>2025-05-31T11:29:24Z</time></trkpt><trkpt lat="60.4926120210" lon="30.3670873493"><ele>94.35</ele><time>2025-05-31T11:29:58Z</time></trkpt><trkpt lat="60.4925790802" lon="30.3670106549"><ele>94.35</ele><time>2025-05-31T11:30:29Z</time></trkpt><trkpt lat="60.4925452173" lon="30.3669653088"><ele>94.83</ele><time>2025-05-31T11:30:58Z</time></trkpt><trkpt lat="60.4925000388" lon="30.3670694958"><ele>93.39</ele><time>2025-05-31T11:31:27Z</time></trkpt><trkpt lat="60.4925207421" lon="30.3670582641"><ele>94.83</ele><time>2025-05-31T11:31:53Z</time></trkpt><trkpt lat="60.4925224185" lon="30.3670127504"><ele>93.87</ele><time>2025-05-31T11:32:22Z</time></trkpt><trkpt lat="60.4925252683" lon="30.3670209646"><ele>94.35</ele><time>2025-05-31T11:32:53Z</time></trkpt><trkpt lat="60.4925202392" lon="30.3669794742"><ele>94.83</ele><time>2025-05-31T11:33:21Z</time></trkpt><trkpt lat="60.4924893938" lon="30.3669288475"><ele>94.35</ele><time>2025-05-31T11:33:49Z</time></trkpt><trkpt lat="60.4924890585" lon="30.3669365589"><ele>94.35</ele><time>2025-05-31T11:34:25Z</time></trkpt><trkpt lat="60.4925025534" lon="30.3669492155"><ele>93.87</ele><time>2025-05-31T11:34:53Z</time></trkpt><trkpt lat="60.4924813472" lon="30.3669115808"><ele>94.83</ele><time>2025-05-31T11:35:23Z</time></trkpt><trkpt lat="60.4924479872" lon="30.3667536657"><ele>93.87</ele><time>2025-05-31T11:35:54Z</time></trkpt><trkpt lat="60.4924486578" lon="30.3667476308"><ele>93.87</ele><time>2025-05-31T11:36:24Z</time></trkpt><trkpt lat="60.4924867116" lon="30.3668591101"><ele>92.90</ele><time>2025-05-31T11:36:57Z</time></trkpt><trkpt lat="60.4924318939" lon="30.3667660709"><ele>93.39</ele><time>2025-05-31T11:37:33Z</time></trkpt><trkpt lat="60.4924619012" lon="30.3668161109"><ele>92.90</ele><time>2025-05-31T11:38:08Z</time></trkpt><trkpt lat="60.4924915731" lon="30.3670264129"><ele>92.90</ele><time>2025-05-31T11:38:36Z</time></trkpt><trkpt lat="60.4924860410" lon="30.3669624589"><ele>92.90</ele><time>2025-05-31T11:39:13Z</time></trkpt><trkpt lat="60.4924684390" lon="30.3669442702"><ele>92.42</ele><time>2025-05-31T11:39:45Z</time></trkpt><trkpt lat="60.4924597219" lon="30.3669416718"><ele>92.42</ele><time>2025-05-31T11:40:14Z</time></trkpt><trkpt lat="60.4924829397" lon="30.3669715114"><ele>92.42</ele><time>2025-05-31T11:40:48Z</time></trkpt><trkpt lat="60.4924558662" lon="30.3669119161"><ele>91.94</ele><time>2025-05-31T11:41:20Z</time></trkpt><trkpt lat="60.4924759828" lon="30.3669528197"><ele>91.94</ele><time>2025-05-31T11:41:59Z</time></trkpt><trkpt lat="60.4924715403" lon="30.3669750318"><ele>91.94</ele><time>2025-05-31T11:42:33Z</time></trkpt><trkpt lat="60.4924738035" lon="30.3669720981"><ele>91.94</ele><time>2025-05-31T11:43:07Z</time></trkpt><trkpt lat="60.4925155453" lon="30.3670335375"><ele>91.94</ele><time>2025-05-31T11:43:44Z</time></trkpt><trkpt lat="60.4925140366" lon="30.3669729363"><ele>91.94</ele><time>2025-05-31T11:44:22Z</time></trkpt><trkpt lat="60.4925033078" lon="30.3669202141"><ele>92.90</ele><time>2025-05-31T11:45:01Z</time></trkpt><trkpt lat="60.4924678523" lon="30.3669155203"><ele>92.42</ele><time>2025-05-31T11:45:36Z</time></trkpt><trkpt lat="60.4924967699" lon="30.3669606149"><ele>92.42</ele><time>2025-05-31T11:46:16Z</time></trkpt><trkpt lat="60.4924964346" lon="30.3670069668"><ele>92.42</ele><time>2025-05-31T11:46:57Z</time></trkpt><trkpt lat="60.4924661759" lon="30.3669738583"><ele>93.39</ele><time>2025-05-31T11:47:35Z</time></trkpt><trkpt lat="60.4924786650" lon="30.3670340404"><ele>92.90</ele><time>2025-05-31T11:48:09Z</time></trkpt><trkpt lat="60.4924973566" lon="30.3669954836"><ele>93.87</ele><time>2025-05-31T11:48:48Z</time></trkpt><trkpt lat="60.4924928304" lon="30.3669892810"><ele>92.90</ele><time>2025-05-31T11:49:24Z</time></trkpt><trkpt lat="60.4925116897" lon="30.3670284245"><ele>93.39</ele><time>2025-05-31T11:49:58Z</time></trkpt><trkpt lat="60.4924966022" lon="30.3669963218"><ele>93.39</ele><time>2025-05-31T11:50:29Z</time></trkpt><trkpt lat="60.4925061576" lon="30.3670296818"><ele>92.90</ele><time>2025-05-31T11:51:01Z</time></trkpt><trkpt lat="60.4924997874" lon="30.3669254947"><ele>92.90</ele><time>2025-05-31T11:51:39Z</time></trkpt><trkpt lat="60.4924966022" lon="30.3669513110"><ele>92.90</ele><time>2025-05-31T11:52:14Z</time></trkpt><trkpt lat="60.4924873821" lon="30.3669851739"><ele>92.90</ele><time>2025-05-31T11:52:38Z</time></trkpt><trkpt lat="60.4924767371" lon="30.3669327032"><ele>93.39</ele><time>2025-05-31T11:53:13Z</time></trkpt><trkpt lat="60.4924629908" lon="30.3669338766"><ele>93.39</ele><time>2025-05-31T11:53:46Z</time></trkpt><trkpt lat="60.4924581293" lon="30.3669764567"><ele>93.39</ele><time>2025-05-31T11:54:16Z</time></trkpt><trkpt lat="60.4924757313" lon="30.3669240698"><ele>93.39</ele><time>2025-05-31T11:54:48Z</time></trkpt><trkpt lat="60.4924557824" lon="30.3668819927"><ele>93.39</ele><time>2025-05-31T11:55:22Z</time></trkpt><trkpt lat="60.4924614821" lon="30.3669206332"><ele>93.87</ele><time>2025-05-31T11:55:52Z</time></trkpt><trkpt lat="60.4924007971" lon="30.3668559249"><ele>93.87</ele><time>2025-05-31T11:56:18Z</time></trkpt><trkpt lat="60.4924223386" lon="30.3668170329"><ele>93.87</ele><time>2025-05-31T11:56:44Z</time></trkpt><trkpt lat="60.4924851190" lon="30.3670244850"><ele>94.35</ele><time>2025-05-31T11:57:16Z</time></trkpt><trkpt lat="60.4924437124" lon="30.3668611217"><ele>94.35</ele><time>2025-05-31T11:57:50Z</time></trkpt><trkpt lat="60.4924832750" lon="30.3669384029"><ele>94.35</ele><time>2025-05-31T11:58:23Z</time></trkpt><trkpt lat="60.4924479034" lon="30.3668856807"><ele>94.35</ele><time>2025-05-31T11:58:52Z</time></trkpt><trkpt lat="60.4924654216" lon="30.3669744451"><ele>94.35</ele><time>2025-05-31T11:59:29Z</time></trkpt><trkpt lat="60.4924779106" lon="30.3669896163"><ele>94.35</ele><time>2025-05-31T12:00:01Z</time></trkpt><trkpt lat="60.4924417846" lon="30.3670422547"><ele>94.35</ele><time>2025-05-31T12:00:36Z</time></trkpt><trkpt lat="60.4924548604" lon="30.3670034464"><ele>94.83</ele><time>2025-05-31T12:01:05Z</time></trkpt><trkpt lat="60.4924685229" lon="30.3669091500"><ele>94.83</ele><time>2025-05-31T12:01:35Z</time></trkpt><trkpt lat="60.4924433772" lon="30.3669330385"><ele>94.83</ele><time>2025-05-31T12:02:07Z</time></trkpt><trkpt lat="60.4924357496" lon="30.3669874370"><ele>95.31</ele><time>2025-05-31T12:02:42Z</time></trkpt><trkpt lat="60.4924620688" lon="30.3670335375"><ele>94.83</ele><time>2025-05-31T12:03:12Z</time></trkpt><trkpt lat="60.4924493283" lon="30.3669893648"><ele>95.31</ele><time>2025-05-31T12:03:41Z</time></trkpt><trkpt lat="60.4924954288" lon="30.3670369741"><ele>95.79</ele><time>2025-05-31T12:04:21Z</time></trkpt><trkpt lat="60.4924647510" lon="30.3669419233"><ele>95.31</ele><time>2025-05-31T12:05:01Z</time></trkpt><trkpt lat="60.4924731329" lon="30.3669228964"><ele>95.79</ele><time>2025-05-31T12:05:35Z</time></trkpt><trkpt lat="60.4924611468" lon="30.3669617884"><ele>95.31</ele><time>2025-05-31T12:06:04Z</time></trkpt><trkpt lat="60.4924883880" lon="30.3669862635"><ele>95.79</ele><time>2025-05-31T12:06:32Z</time></trkpt><trkpt lat="60.4925163835" lon="30.3669915441"><ele>95.79</ele><time>2025-05-31T12:07:00Z</time></trkpt><trkpt lat="60.4924981110" lon="30.3670001775"><ele>96.27</ele><time>2025-05-31T12:07:34Z</time></trkpt><trkpt lat="60.4924941715" lon="30.3670290112"><ele>95.31</ele><time>2025-05-31T12:08:07Z</time></trkpt><trkpt lat="60.4925064091" lon="30.3670583479"><ele>96.27</ele><time>2025-05-31T12:08:39Z</time></trkpt><trkpt lat="60.4924862925" lon="30.3670315258"><ele>97.71</ele><time>2025-05-31T12:09:15Z</time></trkpt><trkpt lat="60.4924939200" lon="30.3670575097"><ele>96.75</ele><time>2025-05-31T12:09:46Z</time></trkpt><trkpt lat="60.4925227538" lon="30.3670622874"><ele>97.23</ele><time>2025-05-31T12:10:22Z</time></trkpt><trkpt lat="60.4925288726" lon="30.3670572583"><ele>97.23</ele><time>2025-05-31T12:10:56Z</time></trkpt><trkpt lat="60.4925214965" lon="30.3670674004"><ele>97.71</ele><time>2025-05-31T12:11:28Z</time></trkpt><trkpt lat="60.4925189819" lon="30.3669675719"><ele>97.71</ele><time>2025-05-31T12:12:01Z</time></trkpt><trkpt lat="60.4925262742" lon="30.3670190368"><ele>97.71</ele><time>2025-05-31T12:12:40Z</time></trkpt><trkpt lat="60.4925178923" lon="30.3670011833"><ele>97.23</ele><time>2025-05-31T12:13:05Z</time></trkpt><trkpt lat="60.4925268609" lon="30.3669859283"><ele>98.67</ele><time>2025-05-31T12:13:38Z</time></trkpt><trkpt lat="60.4925144557" lon="30.3670469485"><ele>97.71</ele><time>2025-05-31T12:14:09Z</time></trkpt><trkpt lat="60.4925183952" lon="30.3669833299"><ele>97.71</ele><time>2025-05-31T12:14:40Z</time></trkpt><trkpt lat="60.4925147071" lon="30.3669987526"><ele>98.19</ele><time>2025-05-31T12:15:09Z</time></trkpt><trkpt lat="60.4925040621" lon="30.3669909574"><ele>98.19</ele><time>2025-05-31T12:15:34Z</time></trkpt><trkpt lat="60.4924860410" lon="30.3669879399"><ele>98.67</ele><time>2025-05-31T12:16:01Z</time></trkpt><trkpt lat="60.4924903996" lon="30.3670120798"><ele>98.19</ele><time>2025-05-31T12:16:31Z</time></trkpt><trkpt lat="60.4924666788" lon="30.3670221381"><ele>97.71</ele><time>2025-05-31T12:16:59Z</time></trkpt><trkpt lat="60.4924696125" lon="30.3670757823"><ele>98.67</ele><time>2025-05-31T12:17:25Z</time></trkpt><trkpt lat="60.4924878851" lon="30.3670602757"><ele>98.67</ele><time>2025-05-31T12:17:55Z</time></trkpt><trkpt lat="60.4925617296" lon="30.3670601081"><ele>98.67</ele><time>2025-05-31T12:18:25Z</time></trkpt><trkpt lat="60.4925396852" lon="30.3670181148"><ele>98.19</ele><time>2025-05-31T12:18:55Z</time></trkpt><trkpt lat="60.4924905673" lon="30.3669933043"><ele>98.19</ele><time>2025-05-31T12:19:28Z</time></trkpt><trkpt lat="60.4924839456" lon="30.3670433443"><ele>98.67</ele><time>2025-05-31T12:19:57Z</time></trkpt><trkpt lat="60.4924585484" lon="30.3670634609"><ele>98.67</ele><time>2025-05-31T12:20:29Z</time></trkpt><trkpt lat="60.4924499989" lon="30.3671106510"><ele>98.19</ele><time>2025-05-31T12:21:00Z</time></trkpt><trkpt lat="60.4924495798" lon="30.3670746088"><ele>98.19</ele><time>2025-05-31T12:21:34Z</time></trkpt><trkpt lat="60.4924733005" lon="30.3670961503"><ele>98.67</ele><time>2025-05-31T12:22:04Z</time></trkpt><trkpt lat="60.4924784973" lon="30.3670106549"><ele>99.63</ele><time>2025-05-31T12:22:40Z</time></trkpt><trkpt lat="60.4924657568" lon="30.3670699988"><ele>98.67</ele><time>2025-05-31T12:23:10Z</time></trkpt><trkpt lat="60.4924588837" lon="30.3670836613"><ele>98.67</ele><time>2025-05-31T12:23:18Z</time></trkpt></trkseg><trkseg><trkpt lat="59.2721495032" lon="29.9357137922"><ele>227.01</ele><time>2026-04-25T06:35:42Z</time></trkpt><trkpt lat="59.2696297355" lon="29.9354804400"><ele>226.53</ele><time>2026-04-25T06:35:56Z</time></trkpt><trkpt lat="59.2679801770" lon="29.9352625106"><ele>224.61</ele><time>2026-04-25T06:36:06Z</time></trkpt><trkpt lat="59.2662089970" lon="29.9349212833"><ele>222.68</ele><time>2026-04-25T06:36:18Z</time></trkpt><trkpt lat="59.2641779780" lon="29.9345311057"><ele>220.76</ele><time>2026-04-25T06:36:33Z</time></trkpt><trkpt lat="59.2621624656" lon="29.9341349769"><ele>218.36</ele><time>2026-04-25T06:36:46Z</time></trkpt><trkpt lat="59.2594740540" lon="29.9336198252"><ele>215.47</ele><time>2026-04-25T06:37:00Z</time></trkpt><trkpt lat="59.2588741612" lon="29.9335006345"><ele>214.03</ele><time>2026-04-25T06:37:03Z</time></trkpt><trkpt lat="59.2575206514" lon="29.9332468305"><ele>210.67</ele><time>2026-04-25T06:37:10Z</time></trkpt><trkpt lat="59.2569570523" lon="29.9331376143"><ele>208.74</ele><time>2026-04-25T06:37:13Z</time></trkpt><trkpt lat="59.2562197801" lon="29.9329947028"><ele>206.82</ele><time>2026-04-25T06:37:17Z</time></trkpt><trkpt lat="59.2526915856" lon="29.9322735239"><ele>205.86</ele><time>2026-04-25T06:37:36Z</time></trkpt><trkpt lat="59.2519113142" lon="29.9321233202"><ele>203.94</ele><time>2026-04-25T06:37:42Z</time></trkpt><trkpt lat="59.2501703929" lon="29.9319752119"><ele>204.42</ele><time>2026-04-25T06:38:01Z</time></trkpt><trkpt lat="59.2485985346" lon="29.9315477349"><ele>202.49</ele><time>2026-04-25T06:38:12Z</time></trkpt><trkpt lat="59.2467220780" lon="29.9311161507"><ele>202.98</ele><time>2026-04-25T06:38:27Z</time></trkpt><trkpt lat="59.2466019653" lon="29.9310959503"><ele>202.98</ele><time>2026-04-25T06:38:28Z</time></trkpt></trkseg><trkseg><trkpt lat="59.0634058323" lon="30.0312016904"><ele>177.98</ele><time>2026-04-25T07:15:10Z</time></trkpt><trkpt lat="59.0634024795" lon="30.0312004331"><ele>174.62</ele><time>2026-04-25T07:15:11Z</time></trkpt><trkpt lat="59.0633959416" lon="30.0311973318"><ele>171.25</ele><time>2026-04-25T07:15:12Z</time></trkpt><trkpt lat="59.0633928403" lon="30.0311959069"><ele>165.96</ele><time>2026-04-25T07:15:14Z</time></trkpt><trkpt lat="59.0633914992" lon="30.0311985891"><ele>162.12</ele><time>2026-04-25T07:15:15Z</time></trkpt><trkpt lat="59.0633938462" lon="30.0312048756"><ele>157.79</ele><time>2026-04-25T07:15:17Z</time></trkpt><trkpt lat="59.0633938462" lon="30.0311964937"><ele>152.51</ele><time>2026-04-25T07:15:19Z</time></trkpt><trkpt lat="59.0633909963" lon="30.0311915483"><ele>147.70</ele><time>2026-04-25T07:15:21Z</time></trkpt><trkpt lat="59.0633924212" lon="30.0311906263"><ele>143.37</ele><time>2026-04-25T07:15:23Z</time></trkpt><trkpt lat="59.0633939300" lon="30.0311884470"><ele>139.05</ele><time>2026-04-25T07:15:25Z</time></trkpt><trkpt lat="59.0633951034" lon="30.0311866868"><ele>135.68</ele><time>2026-04-25T07:15:27Z</time></trkpt><trkpt lat="59.0633982886" lon="30.0311793946"><ele>130.88</ele><time>2026-04-25T07:15:30Z</time></trkpt><trkpt lat="59.0633972827" lon="30.0311828312"><ele>127.99</ele><time>2026-04-25T07:15:32Z</time></trkpt><trkpt lat="59.0633952711" lon="30.0311903749"><ele>124.63</ele><time>2026-04-25T07:15:34Z</time></trkpt><trkpt lat="59.0633889008" lon="30.0311884470"><ele>120.30</ele><time>2026-04-25T07:15:37Z</time></trkpt><trkpt lat="59.0633751545" lon="30.0311667379"><ele>116.94</ele><time>2026-04-25T07:15:40Z</time></trkpt><trkpt lat="59.0633676946" lon="30.0311553385"><ele>115.50</ele><time>2026-04-25T07:15:41Z</time></trkpt><trkpt lat="59.0633282997" lon="30.0310903788"><ele>111.17</ele><time>2026-04-25T07:15:45Z</time></trkpt><trkpt lat="59.0632842109" lon="30.0310176238"><ele>107.32</ele><time>2026-04-25T07:15:49Z</time></trkpt><trkpt lat="59.0632344224" lon="30.0309500657"><ele>103.96</ele><time>2026-04-25T07:15:53Z</time></trkpt><trkpt lat="59.0631973743" lon="30.0309091620"><ele>100.60</ele><time>2026-04-25T07:15:57Z</time></trkpt><trkpt lat="59.0631637629" lon="30.0308871176"><ele>97.23</ele><time>2026-04-25T07:16:02Z</time></trkpt><trkpt lat="59.0631499328" lon="30.0308882911"><ele>93.87</ele><time>2026-04-25T07:16:08Z</time></trkpt><trkpt lat="59.0631691273" lon="30.0309397560"><ele>90.50</ele><time>2026-04-25T07:16:15Z</time></trkpt><trkpt lat="59.0631805267" lon="30.0309740379"><ele>90.02</ele><time>2026-04-25T07:16:17Z</time></trkpt><trkpt lat="59.0633126255" lon="30.0312545802"><ele>86.66</ele><time>2026-04-25T07:16:30Z</time></trkpt><trkpt lat="59.0633483324" lon="30.0311391614"><ele>83.29</ele><time>2026-04-25T07:16:49Z</time></trkpt><trkpt lat="59.0633014776" lon="30.0310811587"><ele>80.41</ele><time>2026-04-25T07:17:04Z</time></trkpt><trkpt lat="59.0633023996" lon="30.0310824998"><ele>79.45</ele><time>2026-04-25T07:17:36Z</time></trkpt><trkpt lat="59.0632838756" lon="30.0311386585"><ele>79.45</ele><time>2026-04-25T07:18:15Z</time></trkpt><trkpt lat="59.0633103624" lon="30.0311100762"><ele>78.97</ele><time>2026-04-25T07:18:54Z</time></trkpt><trkpt lat="59.0633386094" lon="30.0311392453"><ele>79.45</ele><time>2026-04-25T07:19:38Z</time></trkpt><trkpt lat="59.0632707160" lon="30.0311288517"><ele>79.93</ele><time>2026-04-25T07:20:15Z</time></trkpt><trkpt lat="59.0632585622" lon="30.0311622955"><ele>80.41</ele><time>2026-04-25T07:20:47Z</time></trkpt><trkpt lat="59.0632687043" lon="30.0311732758"><ele>80.89</ele><time>2026-04-25T07:21:31Z</time></trkpt><trkpt lat="59.0632726438" lon="30.0311576854"><ele>80.89</ele><time>2026-04-25T07:22:02Z</time></trkpt><trkpt lat="59.0632840432" lon="30.0310243294"><ele>80.89</ele><time>2026-04-25T07:22:39Z</time></trkpt><trkpt lat="59.0633047465" lon="30.0310908817"><ele>80.89</ele><time>2026-04-25T07:23:08Z</time></trkpt><trkpt lat="59.0632986277" lon="30.0311286841"><ele>80.41</ele><time>2026-04-25T07:23:28Z</time></trkpt><trkpt lat="59.0633009747" lon="30.0311508123"><ele>80.89</ele><time>2026-04-25T07:23:52Z</time></trkpt><trkpt lat="59.0632955264" lon="30.0311416760"><ele>80.89</ele><time>2026-04-25T07:24:12Z</time></trkpt><trkpt lat="59.0633060038" lon="30.0310788956"><ele>81.37</ele><time>2026-04-25T07:24:34Z</time></trkpt><trkpt lat="59.0632881504" lon="30.0312283449"><ele>81.85</ele><time>2026-04-25T07:24:56Z</time></trkpt><trkpt lat="59.0633068420" lon="30.0311322883"><ele>80.41</ele><time>2026-04-25T07:25:19Z</time></trkpt><trkpt lat="59.0633357596" lon="30.0310517382"><ele>81.37</ele><time>2026-04-25T07:25:37Z</time></trkpt><trkpt lat="59.0633308981" lon="30.0311195478"><ele>81.37</ele><time>2026-04-25T07:26:02Z</time></trkpt><trkpt lat="59.0632893238" lon="30.0310298614"><ele>80.89</ele><time>2026-04-25T07:26:25Z</time></trkpt><trkpt lat="59.0632804390" lon="30.0309980102"><ele>80.89</ele><time>2026-04-25T07:26:46Z</time></trkpt><trkpt lat="59.0632951073" lon="30.0309845991"><ele>80.89</ele><time>2026-04-25T07:27:09Z</time></trkpt><trkpt lat="59.0633467399" lon="30.0310876966"><ele>80.89</ele><time>2026-04-25T07:27:31Z</time></trkpt><trkpt lat="59.0633155592" lon="30.0311064720"><ele>80.41</ele><time>2026-04-25T07:27:55Z</time></trkpt><trkpt lat="59.0633495059" lon="30.0310441107"><ele>80.89</ele><time>2026-04-25T07:28:15Z</time></trkpt><trkpt lat="59.0633565467" lon="30.0309828389"><ele>79.93</ele><time>2026-04-25T07:28:40Z</time></trkpt><trkpt lat="59.0633780044" lon="30.0309829228"><ele>79.93</ele><time>2026-04-25T07:29:10Z</time></trkpt><trkpt lat="59.0633645095" lon="30.0309897121"><ele>79.93</ele><time>2026-04-25T07:29:33Z</time></trkpt><trkpt lat="59.0633131284" lon="30.0309907179"><ele>79.93</ele><time>2026-04-25T07:29:57Z</time></trkpt><trkpt lat="59.0633355919" lon="30.0310064759"><ele>80.89</ele><time>2026-04-25T07:30:18Z</time></trkpt><trkpt lat="59.0633360948" lon="30.0311014429"><ele>80.89</ele><time>2026-04-25T07:30:37Z</time></trkpt><trkpt lat="59.0633329935" lon="30.0311472081"><ele>79.93</ele><time>2026-04-25T07:31:01Z</time></trkpt><trkpt lat="59.0633278806" lon="30.0311579369"><ele>79.93</ele><time>2026-04-25T07:31:35Z</time></trkpt><trkpt lat="59.0633480810" lon="30.0311776344"><ele>80.89</ele><time>2026-04-25T07:32:10Z</time></trkpt><trkpt lat="59.0633051656" lon="30.0311977509"><ele>79.93</ele><time>2026-04-25T07:32:32Z</time></trkpt><trkpt lat="59.0633268747" lon="30.0311788078"><ele>80.41</ele><time>2026-04-25T07:32:52Z</time></trkpt><trkpt lat="59.0633473266" lon="30.0311420951"><ele>79.93</ele><time>2026-04-25T07:33:18Z</time></trkpt><trkpt lat="59.0633082669" lon="30.0311435200"><ele>79.93</ele><time>2026-04-25T07:33:47Z</time></trkpt><trkpt lat="59.0633080993" lon="30.0311500579"><ele>79.93</ele><time>2026-04-25T07:34:16Z</time></trkpt><trkpt lat="59.0632909164" lon="30.0310672447"><ele>81.37</ele><time>2026-04-25T07:34:34Z</time></trkpt><trkpt lat="59.0633630008" lon="30.0310511515"><ele>81.37</ele><time>2026-04-25T07:34:54Z</time></trkpt><trkpt lat="59.0633034054" lon="30.0310274307"><ele>81.37</ele><time>2026-04-25T07:35:13Z</time></trkpt><trkpt lat="59.0633284673" lon="30.0309786480"><ele>81.37</ele><time>2026-04-25T07:35:35Z</time></trkpt><trkpt lat="59.0633004718" lon="30.0311716832"><ele>80.89</ele><time>2026-04-25T07:35:51Z</time></trkpt><trkpt lat="59.0633118711" lon="30.0311588589"><ele>80.89</ele><time>2026-04-25T07:36:12Z</time></trkpt><trkpt lat="59.0633067582" lon="30.0311389938"><ele>80.89</ele><time>2026-04-25T07:36:31Z</time></trkpt><trkpt lat="59.0632818639" lon="30.0310244132"><ele>80.89</ele><time>2026-04-25T07:37:06Z</time></trkpt><trkpt lat="59.0632638428" lon="30.0310737826"><ele>80.89</ele><time>2026-04-25T07:37:28Z</time></trkpt><trkpt lat="59.0632544551" lon="30.0311231520"><ele>81.37</ele><time>2026-04-25T07:37:53Z</time></trkpt><trkpt lat="59.0632650163" lon="30.0309878681"><ele>80.89</ele><time>2026-04-25T07:38:16Z</time></trkpt><trkpt lat="59.0633029025" lon="30.0309881195"><ele>80.89</ele><time>2026-04-25T07:38:39Z</time></trkpt><trkpt lat="59.0633123741" lon="30.0310061406"><ele>80.89</ele><time>2026-04-25T07:39:02Z</time></trkpt><trkpt lat="59.0633939300" lon="30.0310441945"><ele>80.89</ele><time>2026-04-25T07:39:27Z</time></trkpt><trkpt lat="59.0634324867" lon="30.0310491398"><ele>80.89</ele><time>2026-04-25T07:39:54Z</time></trkpt><trkpt lat="59.0634040721" lon="30.0310203061"><ele>80.41</ele><time>2026-04-25T07:40:12Z</time></trkpt><trkpt lat="59.0633406211" lon="30.0311160274"><ele>80.89</ele><time>2026-04-25T07:40:40Z</time></trkpt><trkpt lat="59.0633180737" lon="30.0311427657"><ele>80.89</ele><time>2026-04-25T07:41:00Z</time></trkpt><trkpt lat="59.0633086860" lon="30.0310514029"><ele>80.89</ele><time>2026-04-25T07:41:18Z</time></trkpt><trkpt lat="59.0633143019" lon="30.0309820846"><ele>80.89</ele><time>2026-04-25T07:41:46Z</time></trkpt><trkpt lat="59.0633202530" lon="30.0309517421"><ele>81.37</ele><time>2026-04-25T07:42:11Z</time></trkpt><trkpt lat="59.0633552056" lon="30.0309343915"><ele>81.37</ele><time>2026-04-25T07:42:44Z</time></trkpt><trkpt lat="59.0633751545" lon="30.0310256705"><ele>81.37</ele><time>2026-04-25T07:43:06Z</time></trkpt><trkpt lat="59.0633580554" lon="30.0310444459"><ele>81.37</ele><time>2026-04-25T07:43:22Z</time></trkpt><trkpt lat="59.0633375198" lon="30.0309316255"><ele>81.37</ele><time>2026-04-25T07:43:49Z</time></trkpt><trkpt lat="59.0633729752" lon="30.0310038775"><ele>80.89</ele><time>2026-04-25T07:44:08Z</time></trkpt><trkpt lat="59.0633899905" lon="30.0310303643"><ele>81.37</ele><time>2026-04-25T07:44:28Z</time></trkpt><trkpt lat="59.0633653477" lon="30.0309980940"><ele>80.89</ele><time>2026-04-25T07:44:56Z</time></trkpt><trkpt lat="59.0633080155" lon="30.0309327152"><ele>81.37</ele><time>2026-04-25T07:45:22Z</time></trkpt><trkpt lat="59.0633144695" lon="30.0310183782"><ele>81.37</ele><time>2026-04-25T07:45:46Z</time></trkpt><trkpt lat="59.0633541998" lon="30.0309885386"><ele>81.85</ele><time>2026-04-25T07:46:09Z</time></trkpt><trkpt lat="59.0633715503" lon="30.0310089905"><ele>81.37</ele><time>2026-04-25T07:46:29Z</time></trkpt><trkpt lat="59.0633899067" lon="30.0309228245"><ele>80.89</ele><time>2026-04-25T07:46:48Z</time></trkpt><trkpt lat="59.0633588098" lon="30.0307984371"><ele>80.89</ele><time>2026-04-25T07:47:17Z</time></trkpt><trkpt lat="59.0633970313" lon="30.0309159514"><ele>80.89</ele><time>2026-04-25T07:47:42Z</time></trkpt><trkpt lat="59.0634304751" lon="30.0309970882"><ele>80.89</ele><time>2026-04-25T07:47:57Z</time></trkpt><trkpt lat="59.0634634160" lon="30.0310363155"><ele>80.89</ele><time>2026-04-25T07:48:23Z</time></trkpt><trkpt lat="59.0634516813" lon="30.0309870299"><ele>80.89</ele><time>2026-04-25T07:48:43Z</time></trkpt><trkpt lat="59.0634322353" lon="30.0308707729"><ele>81.37</ele><time>2026-04-25T07:49:10Z</time></trkpt><trkpt lat="59.0633541159" lon="30.0310377404"><ele>81.85</ele><time>2026-04-25T07:49:24Z</time></trkpt><trkpt lat="59.0633381065" lon="30.0311187096"><ele>81.37</ele><time>2026-04-25T07:49:49Z</time></trkpt><trkpt lat="59.0633614082" lon="30.0309960824"><ele>81.85</ele><time>2026-04-25T07:50:16Z</time></trkpt><trkpt lat="59.0634322353" lon="30.0309622195"><ele>81.85</ele><time>2026-04-25T07:50:45Z</time></trkpt><trkpt lat="59.0634581354" lon="30.0310549233"><ele>81.85</ele><time>2026-04-25T07:51:21Z</time></trkpt><trkpt lat="59.0634523518" lon="30.0310822483"><ele>81.85</ele><time>2026-04-25T07:51:58Z</time></trkpt><trkpt lat="59.0633588936" lon="30.0310336333"><ele>82.33</ele><time>2026-04-25T07:52:28Z</time></trkpt><trkpt lat="59.0632770024" lon="30.0309060607"><ele>82.81</ele><time>2026-04-25T07:53:02Z</time></trkpt><trkpt lat="59.0632868931" lon="30.0309395883"><ele>82.81</ele><time>2026-04-25T07:53:32Z</time></trkpt><trkpt lat="59.0633039922" lon="30.0309666619"><ele>82.81</ele><time>2026-04-25T07:53:49Z</time></trkpt><trkpt lat="59.0633091889" lon="30.0308370776"><ele>82.81</ele><time>2026-04-25T07:54:21Z</time></trkpt><trkpt lat="59.0632708836" lon="30.0309814978"><ele>82.81</ele><time>2026-04-25T07:54:49Z</time></trkpt><trkpt lat="59.0632770024" lon="30.0309430249"><ele>83.29</ele><time>2026-04-25T07:55:10Z</time></trkpt><trkpt lat="59.0632588975" lon="30.0309450366"><ele>83.29</ele><time>2026-04-25T07:55:38Z</time></trkpt><trkpt lat="59.0632759128" lon="30.0309361517"><ele>83.29</ele><time>2026-04-25T07:56:08Z</time></trkpt><trkpt lat="59.0632942691" lon="30.0309255067"><ele>83.77</ele><time>2026-04-25T07:56:37Z</time></trkpt><trkpt lat="59.0632585622" lon="30.0309414323"><ele>83.77</ele><time>2026-04-25T07:57:01Z</time></trkpt><trkpt lat="59.0632710513" lon="30.0309227407"><ele>83.77</ele><time>2026-04-25T07:57:28Z</time></trkpt><trkpt lat="59.0632781759" lon="30.0309069827"><ele>83.77</ele><time>2026-04-25T07:57:56Z</time></trkpt><trkpt lat="59.0632775053" lon="30.0310739502"><ele>83.29</ele><time>2026-04-25T07:58:23Z</time></trkpt><trkpt lat="59.0633064229" lon="30.0310264248"><ele>83.77</ele><time>2026-04-25T07:58:38Z</time></trkpt><trkpt lat="59.0633154754" lon="30.0309454557"><ele>83.77</ele><time>2026-04-25T07:59:02Z</time></trkpt><trkpt lat="59.0632923413" lon="30.0309889577"><ele>83.77</ele><time>2026-04-25T07:59:26Z</time></trkpt><trkpt lat="59.0632573050" lon="30.0309321284"><ele>83.29</ele><time>2026-04-25T07:59:50Z</time></trkpt><trkpt lat="59.0632861387" lon="30.0309665781"><ele>83.29</ele><time>2026-04-25T08:00:24Z</time></trkpt><trkpt lat="59.0632462408" lon="30.0308958348"><ele>83.29</ele><time>2026-04-25T08:00:47Z</time></trkpt><trkpt lat="59.0632554609" lon="30.0308989361"><ele>83.29</ele><time>2026-04-25T08:01:07Z</time></trkpt><trkpt lat="59.0633109491" lon="30.0311464537"><ele>82.81</ele><time>2026-04-25T08:01:22Z</time></trkpt><trkpt lat="59.0633137152" lon="30.0310332142"><ele>82.81</ele><time>2026-04-25T08:01:40Z</time></trkpt><trkpt lat="59.0632664412" lon="30.0309882872"><ele>83.29</ele><time>2026-04-25T08:02:01Z</time></trkpt><trkpt lat="59.0632682014" lon="30.0309715234"><ele>83.29</ele><time>2026-04-25T08:02:33Z</time></trkpt><trkpt lat="59.0633154754" lon="30.0311397482"><ele>83.29</ele><time>2026-04-25T08:02:57Z</time></trkpt><trkpt lat="59.0632839594" lon="30.0310773030"><ele>83.29</ele><time>2026-04-25T08:03:19Z</time></trkpt><trkpt lat="59.0632382780" lon="30.0311250798"><ele>83.29</ele><time>2026-04-25T08:03:46Z</time></trkpt><trkpt lat="59.0632540360" lon="30.0310623832"><ele>83.29</ele><time>2026-04-25T08:04:11Z</time></trkpt><trkpt lat="59.0632558800" lon="30.0310219824"><ele>82.81</ele><time>2026-04-25T08:04:41Z</time></trkpt><trkpt lat="59.0632777568" lon="30.0309763011"><ele>83.29</ele><time>2026-04-25T08:05:08Z</time></trkpt><trkpt lat="59.0632919222" lon="30.0309669133"><ele>83.29</ele><time>2026-04-25T08:05:40Z</time></trkpt><trkpt lat="59.0632865578" lon="30.0310017820"><ele>83.77</ele><time>2026-04-25T08:06:06Z</time></trkpt><trkpt lat="59.0632787626" lon="30.0309722777"><ele>83.77</ele><time>2026-04-25T08:06:37Z</time></trkpt><trkpt lat="59.0633064229" lon="30.0309350621"><ele>83.77</ele><time>2026-04-25T08:07:00Z</time></trkpt><trkpt lat="59.0632859711" lon="30.0309338886"><ele>83.77</ele><time>2026-04-25T08:07:25Z</time></trkpt><trkpt lat="59.0632978734" lon="30.0309303682"><ele>83.77</ele><time>2026-04-25T08:07:50Z</time></trkpt><trkpt lat="59.0632972028" lon="30.0309165381"><ele>83.77</ele><time>2026-04-25T08:08:09Z</time></trkpt><trkpt lat="59.0632998012" lon="30.0309067313"><ele>83.77</ele><time>2026-04-25T08:08:30Z</time></trkpt><trkpt lat="59.0632940177" lon="30.0309254229"><ele>83.77</ele><time>2026-04-25T08:08:46Z</time></trkpt><trkpt lat="59.0633018129" lon="30.0309119280"><ele>84.25</ele><time>2026-04-25T08:09:08Z</time></trkpt><trkpt lat="59.0632913355" lon="30.0309006963"><ele>84.25</ele><time>2026-04-25T08:09:27Z</time></trkpt><trkpt lat="59.0632911678" lon="30.0309103355"><ele>83.77</ele><time>2026-04-25T08:09:45Z</time></trkpt><trkpt lat="59.0633219294" lon="30.0309751276"><ele>84.25</ele><time>2026-04-25T08:10:13Z</time></trkpt><trkpt lat="59.0633133799" lon="30.0309619680"><ele>84.25</ele><time>2026-04-25T08:10:37Z</time></trkpt><trkpt lat="59.0632949397" lon="30.0309463777"><ele>84.25</ele><time>2026-04-25T08:10:56Z</time></trkpt><trkpt lat="59.0633066744" lon="30.0309347268"><ele>84.25</ele><time>2026-04-25T08:11:25Z</time></trkpt><trkpt lat="59.0633108653" lon="30.0309322961"><ele>84.73</ele><time>2026-04-25T08:11:52Z</time></trkpt><trkpt lat="59.0633082669" lon="30.0309633929"><ele>84.73</ele><time>2026-04-25T08:12:07Z</time></trkpt><trkpt lat="59.0633123741" lon="30.0309820008"><ele>84.73</ele><time>2026-04-25T08:12:24Z</time></trkpt><trkpt lat="59.0633213427" lon="30.0309650693"><ele>84.73</ele><time>2026-04-25T08:12:38Z</time></trkpt><trkpt lat="59.0633039922" lon="30.0309076533"><ele>84.73</ele><time>2026-04-25T08:13:08Z</time></trkpt><trkpt lat="59.0633113682" lon="30.0309373252"><ele>84.73</ele><time>2026-04-25T08:13:31Z</time></trkpt><trkpt lat="59.0633230191" lon="30.0309294462"><ele>85.21</ele><time>2026-04-25T08:13:52Z</time></trkpt><trkpt lat="59.0633366816" lon="30.0309186336"><ele>85.21</ele><time>2026-04-25T08:14:17Z</time></trkpt><trkpt lat="59.0633164812" lon="30.0309577771"><ele>85.21</ele><time>2026-04-25T08:14:34Z</time></trkpt><trkpt lat="59.0633050818" lon="30.0309091620"><ele>84.73</ele><time>2026-04-25T08:15:02Z</time></trkpt><trkpt lat="59.0633074287" lon="30.0309105031"><ele>85.21</ele><time>2026-04-25T08:15:28Z</time></trkpt><trkpt lat="59.0633117035" lon="30.0309520774"><ele>85.21</ele><time>2026-04-25T08:15:51Z</time></trkpt><trkpt lat="59.0633110330" lon="30.0309230760"><ele>85.21</ele><time>2026-04-25T08:16:17Z</time></trkpt><trkpt lat="59.0633321553" lon="30.0309169572"><ele>85.21</ele><time>2026-04-25T08:16:40Z</time></trkpt><trkpt lat="59.0633751545" lon="30.0309617165"><ele>86.18</ele><time>2026-04-25T08:16:58Z</time></trkpt><trkpt lat="59.0633741487" lon="30.0309628062"><ele>85.69</ele><time>2026-04-25T08:17:21Z</time></trkpt><trkpt lat="59.0633865539" lon="30.0308918953"><ele>85.69</ele><time>2026-04-25T08:17:47Z</time></trkpt><trkpt lat="59.0633598156" lon="30.0310133491"><ele>85.69</ele><time>2026-04-25T08:18:03Z</time></trkpt><trkpt lat="59.0633780044" lon="30.0310533307"><ele>85.69</ele><time>2026-04-25T08:18:19Z</time></trkpt><trkpt lat="59.0633955225" lon="30.0310383271"><ele>85.69</ele><time>2026-04-25T08:18:37Z</time></trkpt><trkpt lat="59.0633780882" lon="30.0309561845"><ele>85.69</ele><time>2026-04-25T08:18:57Z</time></trkpt><trkpt lat="59.0634099394" lon="30.0310058892"><ele>85.69</ele><time>2026-04-25T08:19:18Z</time></trkpt><trkpt lat="59.0634019766" lon="30.0310566835"><ele>85.21</ele><time>2026-04-25T08:19:36Z</time></trkpt><trkpt lat="59.0633956902" lon="30.0310993474"><ele>85.21</ele><time>2026-04-25T08:19:59Z</time></trkpt><trkpt lat="59.0634200815" lon="30.0310623832"><ele>85.21</ele><time>2026-04-25T08:20:15Z</time></trkpt><trkpt lat="59.0633184090" lon="30.0310216472"><ele>85.21</ele><time>2026-04-25T08:20:34Z</time></trkpt><trkpt lat="59.0633760765" lon="30.0310484692"><ele>85.21</ele><time>2026-04-25T08:20:47Z</time></trkpt><trkpt lat="59.0633184090" lon="30.0310245808"><ele>84.73</ele><time>2026-04-25T08:21:06Z</time></trkpt><trkpt lat="59.0633034892" lon="30.0310509000"><ele>85.21</ele><time>2026-04-25T08:21:29Z</time></trkpt><trkpt lat="59.0633855481" lon="30.0310220663"><ele>85.21</ele><time>2026-04-25T08:21:48Z</time></trkpt><trkpt lat="59.0633867215" lon="30.0309965014"><ele>85.21</ele><time>2026-04-25T08:22:04Z</time></trkpt><trkpt lat="59.0634000488" lon="30.0310505647"><ele>85.21</ele><time>2026-04-25T08:22:22Z</time></trkpt><trkpt lat="59.0633946005" lon="30.0310312025"><ele>85.21</ele><time>2026-04-25T08:22:35Z</time></trkpt><trkpt lat="59.0633553732" lon="30.0310135167"><ele>85.21</ele><time>2026-04-25T08:22:52Z</time></trkpt><trkpt lat="59.0633106977" lon="30.0309885386"><ele>84.73</ele><time>2026-04-25T08:23:11Z</time></trkpt><trkpt lat="59.0633368492" lon="30.0309957471"><ele>84.73</ele><time>2026-04-25T08:23:38Z</time></trkpt><trkpt lat="59.0633342508" lon="30.0310092419"><ele>84.73</ele><time>2026-04-25T08:23:56Z</time></trkpt><trkpt lat="59.0633245278" lon="30.0310628861"><ele>84.73</ele><time>2026-04-25T08:24:07Z</time></trkpt><trkpt lat="59.0634081792" lon="30.0310281012"><ele>84.73</ele><time>2026-04-25T08:24:22Z</time></trkpt><trkpt lat="59.0634042397" lon="30.0310248323"><ele>84.25</ele><time>2026-04-25T08:24:38Z</time></trkpt><trkpt lat="59.0633833688" lon="30.0309515744"><ele>84.73</ele><time>2026-04-25T08:24:55Z</time></trkpt><trkpt lat="59.0633223485" lon="30.0310790632"><ele>84.25</ele><time>2026-04-25T08:25:15Z</time></trkpt><trkpt lat="59.0633005556" lon="30.0311144348"><ele>84.25</ele><time>2026-04-25T08:25:31Z</time></trkpt><trkpt lat="59.0633765794" lon="30.0310171209"><ele>85.21</ele><time>2026-04-25T08:25:44Z</time></trkpt><trkpt lat="59.0633609891" lon="30.0309944898"><ele>84.73</ele><time>2026-04-25T08:26:04Z</time></trkpt><trkpt lat="59.0633374359" lon="30.0309281889"><ele>84.73</ele><time>2026-04-25T08:26:32Z</time></trkpt><trkpt lat="59.0633245278" lon="30.0310031231"><ele>85.21</ele><time>2026-04-25T08:27:03Z</time></trkpt><trkpt lat="59.0633368492" lon="30.0308811665"><ele>84.25</ele><time>2026-04-25T08:27:27Z</time></trkpt><trkpt lat="59.0633470751" lon="30.0309227407"><ele>84.25</ele><time>2026-04-25T08:27:56Z</time></trkpt><trkpt lat="59.0633288864" lon="30.0309029594"><ele>84.25</ele><time>2026-04-25T08:28:27Z</time></trkpt><trkpt lat="59.0633622464" lon="30.0309566036"><ele>84.25</ele><time>2026-04-25T08:28:54Z</time></trkpt><trkpt lat="59.0633510146" lon="30.0309288595"><ele>84.25</ele><time>2026-04-25T08:29:16Z</time></trkpt><trkpt lat="59.0633795969" lon="30.0309299491"><ele>83.77</ele><time>2026-04-25T08:29:35Z</time></trkpt><trkpt lat="59.0634491667" lon="30.0309946574"><ele>84.25</ele><time>2026-04-25T08:29:39Z</time></trkpt><trkpt lat="59.0635854565" lon="30.0309282728"><ele>83.29</ele><time>2026-04-25T08:29:55Z</time></trkpt><trkpt lat="59.0636322275" lon="30.0308980141"><ele>83.29</ele><time>2026-04-25T08:30:11Z</time></trkpt><trkpt lat="59.0637373365" lon="30.0308811665"><ele>83.29</ele><time>2026-04-25T08:30:27Z</time></trkpt><trkpt lat="59.0637484845" lon="30.0306525920"><ele>82.81</ele><time>2026-04-25T08:30:48Z</time></trkpt><trkpt lat="59.0637729596" lon="30.0304818526"><ele>82.81</ele><time>2026-04-25T08:31:06Z</time></trkpt><trkpt lat="59.0638516657" lon="30.0304487441"><ele>82.81</ele><time>2026-04-25T08:31:20Z</time></trkpt><trkpt lat="59.0638745483" lon="30.0303417072"><ele>82.81</ele><time>2026-04-25T08:31:49Z</time></trkpt><trkpt lat="59.0638286155" lon="30.0304128695"><ele>82.81</ele><time>2026-04-25T08:32:19Z</time></trkpt><trkpt lat="59.0639519133" lon="30.0303713791"><ele>82.81</ele><time>2026-04-25T08:32:43Z</time></trkpt><trkpt lat="59.0640393365" lon="30.0303940102"><ele>82.33</ele><time>2026-04-25T08:33:00Z</time></trkpt><trkpt lat="59.0641826671" lon="30.0304233469"><ele>82.33</ele><time>2026-04-25T08:33:16Z</time></trkpt><trkpt lat="59.0642151888" lon="30.0302826148"><ele>82.33</ele><time>2026-04-25T08:33:35Z</time></trkpt><trkpt lat="59.0643094014" lon="30.0302686170"><ele>83.29</ele><time>2026-04-25T08:33:49Z</time></trkpt><trkpt lat="59.0643890295" lon="30.0302952714"><ele>82.81</ele><time>2026-04-25T08:34:08Z</time></trkpt><trkpt lat="59.0644762013" lon="30.0304049905"><ele>82.81</ele><time>2026-04-25T08:34:23Z</time></trkpt><trkpt lat="59.0645694081" lon="30.0305137876"><ele>82.81</ele><time>2026-04-25T08:34:38Z</time></trkpt><trkpt lat="59.0646420792" lon="30.0305541046"><ele>82.81</ele><time>2026-04-25T08:34:51Z</time></trkpt><trkpt lat="59.0648255590" lon="30.0304339081"><ele>82.81</ele><time>2026-04-25T08:35:07Z</time></trkpt><trkpt lat="59.0650031716" lon="30.0303762406"><ele>83.77</ele><time>2026-04-25T08:35:26Z</time></trkpt><trkpt lat="59.0651864838" lon="30.0303281285"><ele>82.81</ele><time>2026-04-25T08:35:45Z</time></trkpt><trkpt lat="59.0653749090" lon="30.0302870572"><ele>82.81</ele><time>2026-04-25T08:36:06Z</time></trkpt><trkpt lat="59.0656090155" lon="30.0301954430"><ele>82.81</ele><time>2026-04-25T08:36:25Z</time></trkpt><trkpt lat="59.0655961912" lon="30.0302803516"><ele>82.81</ele><time>2026-04-25T08:36:40Z</time></trkpt><trkpt lat="59.0657063294" lon="30.0303173997"><ele>82.81</ele><time>2026-04-25T08:36:53Z</time></trkpt><trkpt lat="59.0657497477" lon="30.0302554574"><ele>82.33</ele><time>2026-04-25T08:37:08Z</time></trkpt><trkpt lat="59.0658528451" lon="30.0302996300"><ele>82.81</ele><time>2026-04-25T08:37:24Z</time></trkpt><trkpt lat="59.0659767296" lon="30.0301818643"><ele>82.81</ele><time>2026-04-25T08:37:41Z</time></trkpt><trkpt lat="59.0660047252" lon="30.0300792698"><ele>82.81</ele><time>2026-04-25T08:37:55Z</time></trkpt><trkpt lat="59.0661120135" lon="30.0300049223"><ele>82.33</ele><time>2026-04-25T08:38:10Z</time></trkpt><trkpt lat="59.0661818348" lon="30.0299767591"><ele>82.33</ele><time>2026-04-25T08:38:24Z</time></trkpt><trkpt lat="59.0662935656" lon="30.0300147291"><ele>82.33</ele><time>2026-04-25T08:38:37Z</time></trkpt><trkpt lat="59.0664155222" lon="30.0299255457"><ele>82.33</ele><time>2026-04-25T08:38:52Z</time></trkpt><trkpt lat="59.0665504709" lon="30.0298926886"><ele>82.33</ele><time>2026-04-25T08:39:08Z</time></trkpt><trkpt lat="59.0667097270" lon="30.0298661180"><ele>82.81</ele><time>2026-04-25T08:39:21Z</time></trkpt><trkpt lat="59.0667891037" lon="30.0298231188"><ele>82.33</ele><time>2026-04-25T08:39:38Z</time></trkpt><trkpt lat="59.0669242200" lon="30.0298409723"><ele>82.33</ele><time>2026-04-25T08:39:51Z</time></trkpt><trkpt lat="59.0670285746" lon="30.0297438260"><ele>82.33</ele><time>2026-04-25T08:40:06Z</time></trkpt><trkpt lat="59.0671527945" lon="30.0297104660"><ele>82.33</ele><time>2026-04-25T08:40:22Z</time></trkpt><trkpt lat="59.0672889166" lon="30.0296277367"><ele>82.33</ele><time>2026-04-25T08:40:37Z</time></trkpt><trkpt lat="59.0675319918" lon="30.0295517966"><ele>82.81</ele><time>2026-04-25T08:40:59Z</time></trkpt><trkpt lat="59.0676049143" lon="30.0295323506"><ele>82.81</ele><time>2026-04-25T08:41:23Z</time></trkpt><trkpt lat="59.0677987039" lon="30.0294647086"><ele>82.81</ele><time>2026-04-25T08:41:42Z</time></trkpt><trkpt lat="59.0678677708" lon="30.0294098072"><ele>82.33</ele><time>2026-04-25T08:41:56Z</time></trkpt><trkpt lat="59.0680321399" lon="30.0293834042"><ele>82.33</ele><time>2026-04-25T08:42:12Z</time></trkpt><trkpt lat="59.0681740455" lon="30.0293257367"><ele>82.33</ele><time>2026-04-25T08:42:29Z</time></trkpt><trkpt lat="59.0681889653" lon="30.0293373037"><ele>81.85</ele><time>2026-04-25T08:42:56Z</time></trkpt><trkpt lat="59.0683329664" lon="30.0292839948"><ele>82.33</ele><time>2026-04-25T08:43:10Z</time></trkpt><trkpt lat="59.0685171168" lon="30.0292078033"><ele>82.81</ele><time>2026-04-25T08:43:27Z</time></trkpt><trkpt lat="59.0685277618" lon="30.0291047897"><ele>82.33</ele><time>2026-04-25T08:43:47Z</time></trkpt><trkpt lat="59.0687327832" lon="30.0291064661"><ele>82.33</ele><time>2026-04-25T08:44:03Z</time></trkpt><trkpt lat="59.0689632855" lon="30.0289843418"><ele>82.81</ele><time>2026-04-25T08:44:21Z</time></trkpt><trkpt lat="59.0691040177" lon="30.0289971661"><ele>82.81</ele><time>2026-04-25T08:44:35Z</time></trkpt><trkpt lat="59.0692110546" lon="30.0289460365"><ele>83.29</ele><time>2026-04-25T08:44:50Z</time></trkpt><trkpt lat="59.0693097934" lon="30.0289088208"><ele>83.29</ele><time>2026-04-25T08:45:05Z</time></trkpt><trkpt lat="59.0694634337" lon="30.0288541708"><ele>82.33</ele><time>2026-04-25T08:45:21Z</time></trkpt><trkpt lat="59.0697047487" lon="30.0287519954"><ele>81.85</ele><time>2026-04-25T08:45:41Z</time></trkpt><trkpt lat="59.0699447226" lon="30.0287252571"><ele>82.33</ele><time>2026-04-25T08:46:00Z</time></trkpt><trkpt lat="59.0701045655" lon="30.0287106726"><ele>82.33</ele><time>2026-04-25T08:46:18Z</time></trkpt><trkpt lat="59.0703595430" lon="30.0286304578"><ele>81.85</ele><time>2026-04-25T08:46:39Z</time></trkpt><trkpt lat="59.0705830883" lon="30.0285320543"><ele>81.85</ele><time>2026-04-25T08:47:00Z</time></trkpt><trkpt lat="59.0707853436" lon="30.0284134503"><ele>81.85</ele><time>2026-04-25T08:47:20Z</time></trkpt><trkpt lat="59.0709472820" lon="30.0283582974"><ele>81.37</ele><time>2026-04-25T08:47:38Z</time></trkpt><trkpt lat="59.0711095557" lon="30.0283119455"><ele>81.37</ele><time>2026-04-25T08:47:55Z</time></trkpt><trkpt lat="59.0712743439" lon="30.0282489974"><ele>81.37</ele><time>2026-04-25T08:48:11Z</time></trkpt><trkpt lat="59.0714599192" lon="30.0281788409"><ele>80.89</ele><time>2026-04-25T08:48:29Z</time></trkpt><trkpt lat="59.0716407169" lon="30.0281526055"><ele>80.89</ele><time>2026-04-25T08:48:45Z</time></trkpt><trkpt lat="59.0718386136" lon="30.0280992966"><ele>80.89</ele><time>2026-04-25T08:49:06Z</time></trkpt><trkpt lat="59.0720382705" lon="30.0280278828"><ele>81.37</ele><time>2026-04-25T08:49:25Z</time></trkpt><trkpt lat="59.0721613169" lon="30.0280211773"><ele>81.37</ele><time>2026-04-25T08:49:40Z</time></trkpt><trkpt lat="59.0722186491" lon="30.0280055031"><ele>80.89</ele><time>2026-04-25T08:49:50Z</time></trkpt><trkpt lat="59.0723107662" lon="30.0279823691"><ele>80.89</ele><time>2026-04-25T08:50:07Z</time></trkpt><trkpt lat="59.0724436194" lon="30.0278987177"><ele>81.37</ele><time>2026-04-25T08:50:24Z</time></trkpt><trkpt lat="59.0725792386" lon="30.0278470013"><ele>81.37</ele><time>2026-04-25T08:50:40Z</time></trkpt><trkpt lat="59.0727795660" lon="30.0277667027"><ele>81.85</ele><time>2026-04-25T08:50:56Z</time></trkpt><trkpt lat="59.0729924664" lon="30.0276433211"><ele>81.85</ele><time>2026-04-25T08:51:12Z</time></trkpt><trkpt lat="59.0730863437" lon="30.0273381360"><ele>81.85</ele><time>2026-04-25T08:51:29Z</time></trkpt><trkpt lat="59.0730741061" lon="30.0271065440"><ele>81.37</ele><time>2026-04-25T08:51:46Z</time></trkpt><trkpt lat="59.0730350465" lon="30.0268596131"><ele>81.85</ele><time>2026-04-25T08:52:02Z</time></trkpt><trkpt lat="59.0729820728" lon="30.0265196431"><ele>82.33</ele><time>2026-04-25T08:52:21Z</time></trkpt><trkpt lat="59.0729361400" lon="30.0261009671"><ele>80.89</ele><time>2026-04-25T08:52:41Z</time></trkpt><trkpt lat="59.0728988405" lon="30.0257551298"><ele>80.89</ele><time>2026-04-25T08:52:57Z</time></trkpt><trkpt lat="59.0728068911" lon="30.0254253019"><ele>80.89</ele><time>2026-04-25T08:53:11Z</time></trkpt><trkpt lat="59.0727814101" lon="30.0251392275"><ele>80.89</ele><time>2026-04-25T08:53:26Z</time></trkpt><trkpt lat="59.0727539174" lon="30.0248784665"><ele>80.89</ele><time>2026-04-25T08:53:39Z</time></trkpt><trkpt lat="59.0727343876" lon="30.0247940607"><ele>80.41</ele><time>2026-04-25T08:53:43Z</time></trkpt><trkpt lat="59.0726581123" lon="30.0243964233"><ele>80.89</ele><time>2026-04-25T08:53:58Z</time></trkpt><trkpt lat="59.0726185497" lon="30.0240860414"><ele>81.37</ele><time>2026-04-25T08:54:12Z</time></trkpt><trkpt lat="59.0726060607" lon="30.0238360930"><ele>80.41</ele><time>2026-04-25T08:54:24Z</time></trkpt><trkpt lat="59.0726060607" lon="30.0236257073"><ele>80.41</ele><time>2026-04-25T08:54:37Z</time></trkpt><trkpt lat="59.0726101678" lon="30.0235724822"><ele>80.41</ele><time>2026-04-25T08:54:40Z</time></trkpt><trkpt lat="59.0725651570" lon="30.0233244617"><ele>80.41</ele><time>2026-04-25T08:54:54Z</time></trkpt><trkpt lat="59.0725719463" lon="30.0228959788"><ele>80.41</ele><time>2026-04-25T08:55:12Z</time></trkpt><trkpt lat="59.0725468006" lon="30.0226540770"><ele>80.89</ele><time>2026-04-25T08:55:26Z</time></trkpt><trkpt lat="59.0725518297" lon="30.0223525800"><ele>80.89</ele><time>2026-04-25T08:55:45Z</time></trkpt><trkpt lat="59.0725657437" lon="30.0220319722"><ele>80.89</ele><time>2026-04-25T08:56:02Z</time></trkpt><trkpt lat="59.0725726169" lon="30.0218997896"><ele>80.41</ele><time>2026-04-25T08:56:09Z</time></trkpt><trkpt lat="59.0725947451" lon="30.0216285512"><ele>80.89</ele><time>2026-04-25T08:56:23Z</time></trkpt><trkpt lat="59.0725918114" lon="30.0214476697"><ele>80.41</ele><time>2026-04-25T08:56:47Z</time></trkpt><trkpt lat="59.0725958347" lon="30.0212963764"><ele>80.89</ele><time>2026-04-25T08:56:56Z</time></trkpt><trkpt lat="59.0726203937" lon="30.0209219567"><ele>80.41</ele><time>2026-04-25T08:57:13Z</time></trkpt><trkpt lat="59.0725912247" lon="30.0205792207"><ele>80.41</ele><time>2026-04-25T08:57:31Z</time></trkpt><trkpt lat="59.0725522488" lon="30.0203425996"><ele>79.93</ele><time>2026-04-25T08:57:46Z</time></trkpt><trkpt lat="59.0725074057" lon="30.0200201478"><ele>80.41</ele><time>2026-04-25T08:58:02Z</time></trkpt><trkpt lat="59.0724557731" lon="30.0197696127"><ele>80.89</ele><time>2026-04-25T08:58:16Z</time></trkpt><trkpt lat="59.0724295378" lon="30.0197060779"><ele>81.37</ele><time>2026-04-25T08:58:21Z</time></trkpt><trkpt lat="59.0724055655" lon="30.0195443910"><ele>81.37</ele><time>2026-04-25T08:58:30Z</time></trkpt><trkpt lat="59.0723469760" lon="30.0193489250"><ele>80.89</ele><time>2026-04-25T08:58:44Z</time></trkpt><trkpt lat="59.0722651687" lon="30.0191219430"><ele>80.89</ele><time>2026-04-25T08:58:57Z</time></trkpt><trkpt lat="59.0722473990" lon="30.0190732442"><ele>81.37</ele><time>2026-04-25T08:59:00Z</time></trkpt><trkpt lat="59.0722056571" lon="30.0187688135"><ele>81.37</ele><time>2026-04-25T08:59:15Z</time></trkpt><trkpt lat="59.0721836127" lon="30.0184633769"><ele>81.37</ele><time>2026-04-25T08:59:29Z</time></trkpt><trkpt lat="59.0721617360" lon="30.0181249157"><ele>81.37</ele><time>2026-04-25T08:59:46Z</time></trkpt><trkpt lat="59.0721523482" lon="30.0177095924"><ele>81.37</ele><time>2026-04-25T09:00:04Z</time></trkpt><trkpt lat="59.0721360035" lon="30.0174062513"><ele>82.33</ele><time>2026-04-25T09:00:18Z</time></trkpt><trkpt lat="59.0721424576" lon="30.0171089452"><ele>81.37</ele><time>2026-04-25T09:00:32Z</time></trkpt><trkpt lat="59.0721593052" lon="30.0169444084"><ele>80.89</ele><time>2026-04-25T09:00:50Z</time></trkpt><trkpt lat="59.0721068345" lon="30.0166419894"><ele>80.41</ele><time>2026-04-25T09:01:02Z</time></trkpt><trkpt lat="59.0720601473" lon="30.0163263269"><ele>80.41</ele><time>2026-04-25T09:01:16Z</time></trkpt><trkpt lat="59.0720347501" lon="30.0159696769"><ele>80.41</ele><time>2026-04-25T09:01:33Z</time></trkpt><trkpt lat="59.0719878115" lon="30.0157073233"><ele>80.89</ele><time>2026-04-25T09:01:46Z</time></trkpt><trkpt lat="59.0719402861" lon="30.0154088438"><ele>81.37</ele><time>2026-04-25T09:02:02Z</time></trkpt><trkpt lat="59.0719119553" lon="30.0150861405"><ele>81.37</ele><time>2026-04-25T09:02:18Z</time></trkpt><trkpt lat="59.0718996339" lon="30.0147474278"><ele>81.37</ele><time>2026-04-25T09:02:34Z</time></trkpt><trkpt lat="59.0718865581" lon="30.0144422427"><ele>80.89</ele><time>2026-04-25T09:02:48Z</time></trkpt><trkpt lat="59.0718708839" lon="30.0141418353"><ele>81.37</ele><time>2026-04-25T09:03:02Z</time></trkpt><trkpt lat="59.0718468279" lon="30.0137336366"><ele>80.41</ele><time>2026-04-25T09:03:21Z</time></trkpt><trkpt lat="59.0717896633" lon="30.0133580435"><ele>81.37</ele><time>2026-04-25T09:03:39Z</time></trkpt><trkpt lat="59.0717144776" lon="30.0130286347"><ele>80.41</ele><time>2026-04-25T09:03:55Z</time></trkpt><trkpt lat="59.0717138071" lon="30.0126417261"><ele>81.37</ele><time>2026-04-25T09:04:14Z</time></trkpt><trkpt lat="59.0716290660" lon="30.0123202801"><ele>81.37</ele><time>2026-04-25T09:04:32Z</time></trkpt><trkpt lat="59.0716167446" lon="30.0120684877"><ele>81.37</ele><time>2026-04-25T09:04:47Z</time></trkpt><trkpt lat="59.0715772659" lon="30.0117198844"><ele>81.85</ele><time>2026-04-25T09:05:05Z</time></trkpt><trkpt lat="59.0715154074" lon="30.0113765616"><ele>81.37</ele><time>2026-04-25T09:05:24Z</time></trkpt><trkpt lat="59.0714550577" lon="30.0109430496"><ele>80.89</ele><time>2026-04-25T09:05:44Z</time></trkpt><trkpt lat="59.0714739170" lon="30.0105914287"><ele>81.37</ele><time>2026-04-25T09:06:02Z</time></trkpt><trkpt lat="59.0714215301" lon="30.0101085473"><ele>81.37</ele><time>2026-04-25T09:06:23Z</time></trkpt><trkpt lat="59.0713634435" lon="30.0097314455"><ele>80.41</ele><time>2026-04-25T09:06:44Z</time></trkpt><trkpt lat="59.0713223722" lon="30.0093565229"><ele>80.89</ele><time>2026-04-25T09:07:00Z</time></trkpt><trkpt lat="59.0712995734" lon="30.0089877192"><ele>80.41</ele><time>2026-04-25T09:07:18Z</time></trkpt><trkpt lat="59.0712497011" lon="30.0087606534"><ele>80.89</ele><time>2026-04-25T09:07:32Z</time></trkpt><trkpt lat="59.0711922850" lon="30.0084150676"><ele>80.41</ele><time>2026-04-25T09:07:49Z</time></trkpt><trkpt lat="59.0711631160" lon="30.0080167595"><ele>80.89</ele><time>2026-04-25T09:08:10Z</time></trkpt><trkpt lat="59.0711648762" lon="30.0079776160"><ele>80.89</ele><time>2026-04-25T09:08:12Z</time></trkpt><trkpt lat="59.0711559076" lon="30.0077148434"><ele>80.41</ele><time>2026-04-25T09:08:25Z</time></trkpt><trkpt lat="59.0711294208" lon="30.0076844171"><ele>79.45</ele><time>2026-04-25T09:08:29Z</time></trkpt><trkpt lat="59.0709888563" lon="30.0075595267"><ele>78.48</ele><time>2026-04-25T09:08:43Z</time></trkpt><trkpt lat="59.0709342901" lon="30.0074564293"><ele>78.48</ele><time>2026-04-25T09:08:57Z</time></trkpt><trkpt lat="59.0708244033" lon="30.0072819181"><ele>79.45</ele><time>2026-04-25T09:09:13Z</time></trkpt><trkpt lat="59.0707159415" lon="30.0071400125"><ele>79.93</ele><time>2026-04-25T09:09:26Z</time></trkpt><trkpt lat="59.0705975890" lon="30.0070089195"><ele>80.41</ele><time>2026-04-25T09:09:41Z</time></trkpt><trkpt lat="59.0705899615" lon="30.0068023894"><ele>79.93</ele><time>2026-04-25T09:09:58Z</time></trkpt><trkpt lat="59.0705942363" lon="30.0067906547"><ele>79.93</ele><time>2026-04-25T09:10:24Z</time></trkpt><trkpt lat="59.0706132632" lon="30.0068479031"><ele>79.45</ele><time>2026-04-25T09:10:40Z</time></trkpt><trkpt lat="59.0705229901" lon="30.0068767369"><ele>79.45</ele><time>2026-04-25T09:10:54Z</time></trkpt><trkpt lat="59.0704528335" lon="30.0069236755"><ele>79.45</ele><time>2026-04-25T09:11:28Z</time></trkpt><trkpt lat="59.0705205593" lon="30.0068691932"><ele>79.93</ele><time>2026-04-25T09:11:44Z</time></trkpt><trkpt lat="59.0705687553" lon="30.0068496633"><ele>80.41</ele><time>2026-04-25T09:12:02Z</time></trkpt><trkpt lat="59.0706395824" lon="30.0068339892"><ele>79.93</ele><time>2026-04-25T09:12:32Z</time></trkpt><trkpt lat="59.0707161929" lon="30.0067738909"><ele>80.41</ele><time>2026-04-25T09:12:59Z</time></trkpt><trkpt lat="59.0707121696" lon="30.0067908224"><ele>79.93</ele><time>2026-04-25T09:13:14Z</time></trkpt><trkpt lat="59.0706897061" lon="30.0067958515"><ele>80.41</ele><time>2026-04-25T09:13:27Z</time></trkpt><trkpt lat="59.0706613753" lon="30.0068508368"><ele>80.41</ele><time>2026-04-25T09:13:49Z</time></trkpt><trkpt lat="59.0706197172" lon="30.0068435445"><ele>80.89</ele><time>2026-04-25T09:14:13Z</time></trkpt><trkpt lat="59.0706436895" lon="30.0068374258"><ele>79.93</ele><time>2026-04-25T09:14:35Z</time></trkpt><trkpt lat="59.0706460364" lon="30.0068435445"><ele>81.37</ele><time>2026-04-25T09:14:56Z</time></trkpt><trkpt lat="59.0706295241" lon="30.0068571232"><ele>80.89</ele><time>2026-04-25T09:15:16Z</time></trkpt><trkpt lat="59.0706169512" lon="30.0068433769"><ele>81.37</ele><time>2026-04-25T09:15:32Z</time></trkpt><trkpt lat="59.0706892870" lon="30.0067992881"><ele>80.89</ele><time>2026-04-25T09:15:58Z</time></trkpt><trkpt lat="59.0706899576" lon="30.0067924988"><ele>80.89</ele><time>2026-04-25T09:16:23Z</time></trkpt><trkpt lat="59.0706397500" lon="30.0067820214"><ele>81.37</ele><time>2026-04-25T09:16:51Z</time></trkpt><trkpt lat="59.0706785582" lon="30.0067816861"><ele>80.89</ele><time>2026-04-25T09:17:17Z</time></trkpt><trkpt lat="59.0706924722" lon="30.0068130344"><ele>81.85</ele><time>2026-04-25T09:17:41Z</time></trkpt><trkpt lat="59.0707472060" lon="30.0067609828"><ele>81.37</ele><time>2026-04-25T09:17:52Z</time></trkpt><trkpt lat="59.0708198771" lon="30.0067403633"><ele>83.29</ele><time>2026-04-25T09:18:04Z</time></trkpt><trkpt lat="59.0709163528" lon="30.0066419598"><ele>81.37</ele><time>2026-04-25T09:18:16Z</time></trkpt><trkpt lat="59.0710143372" lon="30.0065371022"><ele>81.85</ele><time>2026-04-25T09:18:28Z</time></trkpt><trkpt lat="59.0710921213" lon="30.0065389462"><ele>81.37</ele><time>2026-04-25T09:18:40Z</time></trkpt><trkpt lat="59.0711326059" lon="30.0065321568"><ele>81.37</ele><time>2026-04-25T09:18:45Z</time></trkpt><trkpt lat="59.0712436661" lon="30.0065411255"><ele>81.37</ele><time>2026-04-25T09:18:58Z</time></trkpt><trkpt lat="59.0713442490" lon="30.0066338293"><ele>82.33</ele><time>2026-04-25T09:19:10Z</time></trkpt><trkpt lat="59.0714794490" lon="30.0065557938"><ele>82.33</ele><time>2026-04-25T09:19:26Z</time></trkpt><trkpt lat="59.0716431476" lon="30.0064650178"><ele>82.33</ele><time>2026-04-25T09:19:42Z</time></trkpt><trkpt lat="59.0717580635" lon="30.0064478349"><ele>82.81</ele><time>2026-04-25T09:19:56Z</time></trkpt><trkpt lat="59.0719324909" lon="30.0064304005"><ele>82.81</ele><time>2026-04-25T09:20:14Z</time></trkpt><trkpt lat="59.0720612369" lon="30.0062705576"><ele>82.81</ele><time>2026-04-25T09:20:32Z</time></trkpt><trkpt lat="59.0721681900" lon="30.0061920192"><ele>82.33</ele><time>2026-04-25T09:20:47Z</time></trkpt><trkpt lat="59.0722713713" lon="30.0061347708"><ele>82.33</ele><time>2026-04-25T09:21:00Z</time></trkpt><trkpt lat="59.0723788273" lon="30.0061429013"><ele>82.33</ele><time>2026-04-25T09:21:13Z</time></trkpt><trkpt lat="59.0724483971" lon="30.0060558133"><ele>81.85</ele><time>2026-04-25T09:21:30Z</time></trkpt><trkpt lat="59.0725285280" lon="30.0061260536"><ele>82.33</ele><time>2026-04-25T09:21:42Z</time></trkpt><trkpt lat="59.0726001933" lon="30.0060382951"><ele>81.85</ele><time>2026-04-25T09:21:55Z</time></trkpt><trkpt lat="59.0726689249" lon="30.0059452560"><ele>81.85</ele><time>2026-04-25T09:22:07Z</time></trkpt><trkpt lat="59.0727699269" lon="30.0059297495"><ele>81.85</ele><time>2026-04-25T09:22:19Z</time></trkpt><trkpt lat="59.0728586912" lon="30.0059023406"><ele>82.81</ele><time>2026-04-25T09:22:38Z</time></trkpt><trkpt lat="59.0729679912" lon="30.0058270711"><ele>81.85</ele><time>2026-04-25T09:22:54Z</time></trkpt><trkpt lat="59.0730409138" lon="30.0057636201"><ele>81.85</ele><time>2026-04-25T09:23:04Z</time></trkpt><trkpt lat="59.0731555782" lon="30.0057297572"><ele>82.33</ele><time>2026-04-25T09:23:17Z</time></trkpt><trkpt lat="59.0732461866" lon="30.0056912843"><ele>81.85</ele><time>2026-04-25T09:23:28Z</time></trkpt><trkpt lat="59.0733235516" lon="30.0056878477"><ele>81.85</ele><time>2026-04-25T09:23:41Z</time></trkpt><trkpt lat="59.0734425746" lon="30.0057046115"><ele>80.89</ele><time>2026-04-25T09:23:56Z</time></trkpt><trkpt lat="59.0734689776" lon="30.0057147536"><ele>83.29</ele><time>2026-04-25T09:23:59Z</time></trkpt><trkpt lat="59.0734916925" lon="30.0057176035"><ele>81.85</ele><time>2026-04-25T09:24:02Z</time></trkpt><trkpt lat="59.0735657886" lon="30.0056952238"><ele>81.37</ele><time>2026-04-25T09:24:16Z</time></trkpt><trkpt lat="59.0736669581" lon="30.0057088863"><ele>81.37</ele><time>2026-04-25T09:24:29Z</time></trkpt><trkpt lat="59.0737422276" lon="30.0057494547"><ele>81.37</ele><time>2026-04-25T09:24:42Z</time></trkpt><trkpt lat="59.0738247056" lon="30.0057298411"><ele>81.37</ele><time>2026-04-25T09:24:55Z</time></trkpt><trkpt lat="59.0739019867" lon="30.0057037733"><ele>81.37</ele><time>2026-04-25T09:25:12Z</time></trkpt><trkpt lat="59.0739284735" lon="30.0056129973"><ele>80.89</ele><time>2026-04-25T09:25:40Z</time></trkpt><trkpt lat="59.0739402082" lon="30.0057002530"><ele>79.93</ele><time>2026-04-25T09:26:00Z</time></trkpt><trkpt lat="59.0739245340" lon="30.0056145061"><ele>81.37</ele><time>2026-04-25T09:26:23Z</time></trkpt><trkpt lat="59.0739397891" lon="30.0057302602"><ele>80.89</ele><time>2026-04-25T09:26:41Z</time></trkpt><trkpt lat="59.0740690380" lon="30.0057064556"><ele>80.89</ele><time>2026-04-25T09:26:56Z</time></trkpt><trkpt lat="59.0741734765" lon="30.0056797173"><ele>80.89</ele><time>2026-04-25T09:27:11Z</time></trkpt><trkpt lat="59.0742686111" lon="30.0056399032"><ele>80.41</ele><time>2026-04-25T09:27:26Z</time></trkpt><trkpt lat="59.0743802581" lon="30.0056174397"><ele>79.93</ele><time>2026-04-25T09:27:39Z</time></trkpt><trkpt lat="59.0744767338" lon="30.0056115724"><ele>80.41</ele><time>2026-04-25T09:27:53Z</time></trkpt><trkpt lat="59.0745783225" lon="30.0055352971"><ele>79.93</ele><time>2026-04-25T09:28:09Z</time></trkpt><trkpt lat="59.0746608842" lon="30.0054319482"><ele>79.93</ele><time>2026-04-25T09:28:23Z</time></trkpt><trkpt lat="59.0747962520" lon="30.0052689202"><ele>79.93</ele><time>2026-04-25T09:28:40Z</time></trkpt><trkpt lat="59.0749230701" lon="30.0051955786"><ele>79.93</ele><time>2026-04-25T09:28:53Z</time></trkpt><trkpt lat="59.0749765467" lon="30.0051786471"><ele>80.41</ele><time>2026-04-25T09:29:08Z</time></trkpt><trkpt lat="59.0750843380" lon="30.0050895475"><ele>80.41</ele><time>2026-04-25T09:29:22Z</time></trkpt><trkpt lat="59.0751715936" lon="30.0051042158"><ele>80.41</ele><time>2026-04-25T09:29:34Z</time></trkpt><trkpt lat="59.0752939694" lon="30.0050944090"><ele>80.41</ele><time>2026-04-25T09:29:51Z</time></trkpt><trkpt lat="59.0753818117" lon="30.0050561037"><ele>79.93</ele><time>2026-04-25T09:30:16Z</time></trkpt><trkpt lat="59.0754829813" lon="30.0049507432"><ele>79.93</ele><time>2026-04-25T09:30:29Z</time></trkpt><trkpt lat="59.0755571611" lon="30.0048788264"><ele>79.45</ele><time>2026-04-25T09:30:40Z</time></trkpt><trkpt lat="59.0755965561" lon="30.0048504956"><ele>80.41</ele><time>2026-04-25T09:30:51Z</time></trkpt><trkpt lat="59.0756891761" lon="30.0047653355"><ele>80.41</ele><time>2026-04-25T09:31:05Z</time></trkpt><trkpt lat="59.0757832211" lon="30.0047855359"><ele>80.41</ele><time>2026-04-25T09:31:17Z</time></trkpt><trkpt lat="59.0758705605" lon="30.0048094243"><ele>80.41</ele><time>2026-04-25T09:31:28Z</time></trkpt><trkpt lat="59.0759616718" lon="30.0047131162"><ele>80.41</ele><time>2026-04-25T09:31:43Z</time></trkpt><trkpt lat="59.0760849696" lon="30.0047085900"><ele>80.41</ele><time>2026-04-25T09:31:58Z</time></trkpt><trkpt lat="59.0760744084" lon="30.0046390202"><ele>79.93</ele><time>2026-04-25T09:32:28Z</time></trkpt><trkpt lat="59.0761816967" lon="30.0046820194"><ele>79.93</ele><time>2026-04-25T09:32:46Z</time></trkpt><trkpt lat="59.0762787592" lon="30.0045534410"><ele>80.41</ele><time>2026-04-25T09:33:02Z</time></trkpt><trkpt lat="59.0763847902" lon="30.0045412872"><ele>80.89</ele><time>2026-04-25T09:33:16Z</time></trkpt><trkpt lat="59.0764300525" lon="30.0044546183"><ele>80.41</ele><time>2026-04-25T09:33:31Z</time></trkpt><trkpt lat="59.0764733870" lon="30.0044382736"><ele>80.41</ele><time>2026-04-25T09:33:47Z</time></trkpt><trkpt lat="59.0765885543" lon="30.0043779239"><ele>79.93</ele><time>2026-04-25T09:34:02Z</time></trkpt><trkpt lat="59.0766864549" lon="30.0043355953"><ele>80.41</ele><time>2026-04-25T09:34:16Z</time></trkpt><trkpt lat="59.0767909773" lon="30.0044117030"><ele>80.41</ele><time>2026-04-25T09:34:31Z</time></trkpt><trkpt lat="59.0769421868" lon="30.0044778362"><ele>79.93</ele><time>2026-04-25T09:34:47Z</time></trkpt><trkpt lat="59.0770273469" lon="30.0043547060"><ele>80.41</ele><time>2026-04-25T09:35:01Z</time></trkpt><trkpt lat="59.0771211404" lon="30.0042375270"><ele>80.41</ele><time>2026-04-25T09:35:16Z</time></trkpt><trkpt lat="59.0771695040" lon="30.0042035803"><ele>80.41</ele><time>2026-04-25T09:35:30Z</time></trkpt><trkpt lat="59.0771950688" lon="30.0041370280"><ele>80.41</ele><time>2026-04-25T09:35:55Z</time></trkpt><trkpt lat="59.0772006009" lon="30.0041067693"><ele>80.41</ele><time>2026-04-25T09:36:16Z</time></trkpt><trkpt lat="59.0773034468" lon="30.0041429792"><ele>79.93</ele><time>2026-04-25T09:36:50Z</time></trkpt><trkpt lat="59.0774153452" lon="30.0042094477"><ele>80.89</ele><time>2026-04-25T09:37:06Z</time></trkpt><trkpt lat="59.0775256511" lon="30.0040636025"><ele>80.89</ele><time>2026-04-25T09:37:22Z</time></trkpt><trkpt lat="59.0776109789" lon="30.0039792806"><ele>80.41</ele><time>2026-04-25T09:37:41Z</time></trkpt><trkpt lat="59.0777841490" lon="30.0039930269"><ele>79.93</ele><time>2026-04-25T09:37:59Z</time></trkpt><trkpt lat="59.0779118054" lon="30.0038802065"><ele>79.93</ele><time>2026-04-25T09:38:16Z</time></trkpt><trkpt lat="59.0779614262" lon="30.0038429070"><ele>79.93</ele><time>2026-04-25T09:38:32Z</time></trkpt><trkpt lat="59.0780988056" lon="30.0037950464"><ele>79.45</ele><time>2026-04-25T09:38:51Z</time></trkpt><trkpt lat="59.0782113746" lon="30.0037286617"><ele>79.45</ele><time>2026-04-25T09:39:07Z</time></trkpt><trkpt lat="59.0783851314" lon="30.0036426634"><ele>79.45</ele><time>2026-04-25T09:39:28Z</time></trkpt><trkpt lat="59.0785142966" lon="30.0036217924"><ele>79.93</ele><time>2026-04-25T09:39:47Z</time></trkpt><trkpt lat="59.0786582138" lon="30.0034868438"><ele>79.45</ele><time>2026-04-25T09:40:06Z</time></trkpt><trkpt lat="59.0788699407" lon="30.0034887716"><ele>78.97</ele><time>2026-04-25T09:40:25Z</time></trkpt><trkpt lat="59.0789947473" lon="30.0034256559"><ele>78.48</ele><time>2026-04-25T09:40:43Z</time></trkpt><trkpt lat="59.0791543387" lon="30.0032946467"><ele>78.48</ele><time>2026-04-25T09:41:05Z</time></trkpt><trkpt lat="59.0791184641" lon="30.0032543298"><ele>77.52</ele><time>2026-04-25T09:41:34Z</time></trkpt><trkpt lat="59.0791855194" lon="30.0033026095"><ele>77.52</ele><time>2026-04-25T09:42:00Z</time></trkpt><trkpt lat="59.0792275127" lon="30.0031895377"><ele>77.52</ele><time>2026-04-25T09:42:27Z</time></trkpt><trkpt lat="59.0792163648" lon="30.0030906312"><ele>77.52</ele><time>2026-04-25T09:42:50Z</time></trkpt><trkpt lat="59.0791887045" lon="30.0028363243"><ele>77.04</ele><time>2026-04-25T09:43:09Z</time></trkpt><trkpt lat="59.0791424364" lon="30.0026536826"><ele>77.52</ele><time>2026-04-25T09:43:36Z</time></trkpt><trkpt lat="59.0791020356" lon="30.0025596377"><ele>77.04</ele><time>2026-04-25T09:43:56Z</time></trkpt><trkpt lat="59.0791063104" lon="30.0023290515"><ele>77.52</ele><time>2026-04-25T09:44:17Z</time></trkpt><trkpt lat="59.0790711064" lon="30.0020549633"><ele>77.04</ele><time>2026-04-25T09:44:35Z</time></trkpt><trkpt lat="59.0791060589" lon="30.0016262289"><ele>77.52</ele><time>2026-04-25T09:44:57Z</time></trkpt><trkpt lat="59.0790537558" lon="30.0013835728"><ele>77.52</ele><time>2026-04-25T09:45:18Z</time></trkpt><trkpt lat="59.0789551847" lon="30.0011667330"><ele>78.00</ele><time>2026-04-25T09:45:37Z</time></trkpt><trkpt lat="59.0788530931" lon="30.0010759570"><ele>78.00</ele><time>2026-04-25T09:45:55Z</time></trkpt><trkpt lat="59.0787771530" lon="30.0010963250"><ele>78.00</ele><time>2026-04-25T09:46:21Z</time></trkpt><trkpt lat="59.0787772369" lon="30.0010356400"><ele>78.48</ele><time>2026-04-25T09:46:48Z</time></trkpt><trkpt lat="59.0787488222" lon="30.0009234902"><ele>78.48</ele><time>2026-04-25T09:47:05Z</time></trkpt><trkpt lat="59.0787495766" lon="30.0007110089"><ele>78.97</ele><time>2026-04-25T09:47:23Z</time></trkpt><trkpt lat="59.0787237603" lon="30.0004288740"><ele>79.45</ele><time>2026-04-25T09:47:42Z</time></trkpt><trkpt lat="59.0787916537" lon="30.0002165604"><ele>78.97</ele><time>2026-04-25T09:48:01Z</time></trkpt><trkpt lat="59.0787664242" lon="29.9999853875"><ele>79.45</ele><time>2026-04-25T09:48:22Z</time></trkpt><trkpt lat="59.0787881333" lon="29.9999368563"><ele>79.45</ele><time>2026-04-25T09:48:51Z</time></trkpt><trkpt lat="59.0787765663" lon="29.9998143129"><ele>79.45</ele><time>2026-04-25T09:49:25Z</time></trkpt><trkpt lat="59.0787111875" lon="29.9996462557"><ele>79.45</ele><time>2026-04-25T09:49:43Z</time></trkpt><trkpt lat="59.0787222516" lon="29.9997665361"><ele>79.93</ele><time>2026-04-25T09:50:13Z</time></trkpt><trkpt lat="59.0786054917" lon="29.9997956213"><ele>80.41</ele><time>2026-04-25T09:50:30Z</time></trkpt><trkpt lat="59.0785323177" lon="29.9998578988"><ele>80.89</ele><time>2026-04-25T09:50:49Z</time></trkpt><trkpt lat="59.0785184037" lon="30.0000371877"><ele>80.89</ele><time>2026-04-25T09:51:13Z</time></trkpt><trkpt lat="59.0785054117" lon="30.0003284588"><ele>80.41</ele><time>2026-04-25T09:51:33Z</time></trkpt><trkpt lat="59.0785774123" lon="30.0005478971"><ele>80.41</ele><time>2026-04-25T09:51:54Z</time></trkpt><trkpt lat="59.0785725508" lon="30.0008770544"><ele>80.41</ele><time>2026-04-25T09:52:14Z</time></trkpt><trkpt lat="59.0785580501" lon="30.0010581035"><ele>80.41</ele><time>2026-04-25T09:52:34Z</time></trkpt><trkpt lat="59.0785770770" lon="30.0011983328"><ele>79.93</ele><time>2026-04-25T09:52:54Z</time></trkpt><trkpt lat="59.0785505064" lon="30.0013305154"><ele>80.41</ele><time>2026-04-25T09:53:18Z</time></trkpt><trkpt lat="59.0786588844" lon="30.0014512986"><ele>80.41</ele><time>2026-04-25T09:53:39Z</time></trkpt><trkpt lat="59.0785914939" lon="30.0012649689"><ele>80.41</ele><time>2026-04-25T09:54:01Z</time></trkpt><trkpt lat="59.0785836149" lon="30.0013996661"><ele>80.89</ele><time>2026-04-25T09:54:21Z</time></trkpt><trkpt lat="59.0786491614" lon="30.0016025919"><ele>80.41</ele><time>2026-04-25T09:54:47Z</time></trkpt><trkpt lat="59.0787331481" lon="30.0018496066"><ele>80.89</ele><time>2026-04-25T09:55:05Z</time></trkpt><trkpt lat="59.0787889715" lon="30.0022319052"><ele>80.89</ele><time>2026-04-25T09:55:24Z</time></trkpt><trkpt lat="59.0788054001" lon="30.0025512557"><ele>80.89</ele><time>2026-04-25T09:55:42Z</time></trkpt><trkpt lat="59.0788624808" lon="30.0028189737"><ele>80.89</ele><time>2026-04-25T09:56:01Z</time></trkpt><trkpt lat="59.0789412707" lon="30.0030540023"><ele>80.89</ele><time>2026-04-25T09:56:19Z</time></trkpt><trkpt lat="59.0789169632" lon="30.0034745224"><ele>81.37</ele><time>2026-04-25T09:56:42Z</time></trkpt><trkpt lat="59.0788582899" lon="30.0035404880"><ele>80.89</ele><time>2026-04-25T09:57:08Z</time></trkpt><trkpt lat="59.0788422804" lon="30.0036590919"><ele>80.89</ele><time>2026-04-25T09:57:41Z</time></trkpt><trkpt lat="59.0788281150" lon="30.0036435015"><ele>80.89</ele><time>2026-04-25T09:58:10Z</time></trkpt><trkpt lat="59.0788581222" lon="30.0036462676"><ele>80.89</ele><time>2026-04-25T09:58:42Z</time></trkpt><trkpt lat="59.0788891353" lon="30.0036112312"><ele>80.41</ele><time>2026-04-25T09:59:03Z</time></trkpt><trkpt lat="59.0789125208" lon="30.0036082976"><ele>80.89</ele><time>2026-04-25T09:59:25Z</time></trkpt><trkpt lat="59.0787885524" lon="30.0036070403"><ele>80.89</ele><time>2026-04-25T09:59:44Z</time></trkpt><trkpt lat="59.0786700323" lon="30.0036148354"><ele>80.89</ele><time>2026-04-25T10:00:02Z</time></trkpt><trkpt lat="59.0785943437" lon="30.0033769570"><ele>80.89</ele><time>2026-04-25T10:00:28Z</time></trkpt><trkpt lat="59.0785376821" lon="30.0030636415"><ele>80.89</ele><time>2026-04-25T10:00:44Z</time></trkpt><trkpt lat="59.0785008855" lon="30.0029756315"><ele>81.37</ele><time>2026-04-25T10:00:58Z</time></trkpt><trkpt lat="59.0784740634" lon="30.0029131863"><ele>81.37</ele><time>2026-04-25T10:01:25Z</time></trkpt><trkpt lat="59.0784408711" lon="30.0028141122"><ele>80.89</ele><time>2026-04-25T10:01:39Z</time></trkpt><trkpt lat="59.0784806851" lon="30.0024611503"><ele>81.85</ele><time>2026-04-25T10:01:58Z</time></trkpt><trkpt lat="59.0784295555" lon="30.0021558814"><ele>81.37</ele><time>2026-04-25T10:02:19Z</time></trkpt><trkpt lat="59.0784074273" lon="30.0018603355"><ele>81.85</ele><time>2026-04-25T10:02:37Z</time></trkpt><trkpt lat="59.0783945192" lon="30.0015765242"><ele>81.85</ele><time>2026-04-25T10:02:54Z</time></trkpt><trkpt lat="59.0783109516" lon="30.0013174396"><ele>81.85</ele><time>2026-04-25T10:03:11Z</time></trkpt><trkpt lat="59.0783301461" lon="30.0008917227"><ele>81.85</ele><time>2026-04-25T10:03:34Z</time></trkpt><trkpt lat="59.0782770049" lon="30.0006876234"><ele>81.85</ele><time>2026-04-25T10:03:53Z</time></trkpt><trkpt lat="59.0781693812" lon="30.0004695263"><ele>81.85</ele><time>2026-04-25T10:04:11Z</time></trkpt><trkpt lat="59.0781672020" lon="30.0001249462"><ele>82.33</ele><time>2026-04-25T10:04:32Z</time></trkpt><trkpt lat="59.0780935250" lon="30.0002293848"><ele>81.85</ele><time>2026-04-25T10:04:56Z</time></trkpt><trkpt lat="59.0779497754" lon="30.0003698654"><ele>82.81</ele><time>2026-04-25T10:05:13Z</time></trkpt><trkpt lat="59.0778687224" lon="30.0004015490"><ele>81.85</ele><time>2026-04-25T10:05:30Z</time></trkpt><trkpt lat="59.0778905153" lon="30.0004161336"><ele>81.37</ele><time>2026-04-25T10:05:58Z</time></trkpt><trkpt lat="59.0778976399" lon="30.0004584622"><ele>81.37</ele><time>2026-04-25T10:06:29Z</time></trkpt><trkpt lat="59.0778875817" lon="30.0005757250"><ele>81.37</ele><time>2026-04-25T10:07:01Z</time></trkpt><trkpt lat="59.0779260546" lon="30.0008162018"><ele>81.37</ele><time>2026-04-25T10:07:21Z</time></trkpt><trkpt lat="59.0779660363" lon="30.0010157749"><ele>80.89</ele><time>2026-04-25T10:07:38Z</time></trkpt><trkpt lat="59.0779886674" lon="30.0013437588"><ele>81.37</ele><time>2026-04-25T10:07:57Z</time></trkpt><trkpt lat="59.0779278986" lon="30.0016485248"><ele>81.37</ele><time>2026-04-25T10:08:16Z</time></trkpt><trkpt lat="59.0779546369" lon="30.0018284004"><ele>80.89</ele><time>2026-04-25T10:08:32Z</time></trkpt><trkpt lat="59.0780633502" lon="30.0018662028"><ele>80.89</ele><time>2026-04-25T10:08:47Z</time></trkpt><trkpt lat="59.0781335905" lon="30.0020372774"><ele>80.89</ele><time>2026-04-25T10:09:06Z</time></trkpt><trkpt lat="59.0781699680" lon="30.0023738947"><ele>81.37</ele><time>2026-04-25T10:09:24Z</time></trkpt><trkpt lat="59.0781774279" lon="30.0026686024"><ele>80.89</ele><time>2026-04-25T10:09:42Z</time></trkpt><trkpt lat="59.0782504342" lon="30.0030027889"><ele>80.89</ele><time>2026-04-25T10:10:04Z</time></trkpt><trkpt lat="59.0782661922" lon="30.0033617858"><ele>81.37</ele><time>2026-04-25T10:10:27Z</time></trkpt><trkpt lat="59.0782790165" lon="30.0035116542"><ele>81.85</ele><time>2026-04-25T10:10:47Z</time></trkpt><trkpt lat="59.0783122927" lon="30.0036433339"><ele>81.85</ele><time>2026-04-25T10:11:03Z</time></trkpt><trkpt lat="59.0781076904" lon="30.0037563220"><ele>81.85</ele><time>2026-04-25T10:11:22Z</time></trkpt><trkpt lat="59.0780338459" lon="30.0037171785"><ele>82.33</ele><time>2026-04-25T10:11:40Z</time></trkpt><trkpt lat="59.0780051798" lon="30.0035915338"><ele>82.33</ele><time>2026-04-25T10:12:00Z</time></trkpt><trkpt lat="59.0779570676" lon="30.0034377258"><ele>82.33</ele><time>2026-04-25T10:12:18Z</time></trkpt><trkpt lat="59.0779307485" lon="30.0033173617"><ele>82.33</ele><time>2026-04-25T10:12:41Z</time></trkpt><trkpt lat="59.0779183432" lon="30.0032291003"><ele>82.33</ele><time>2026-04-25T10:12:50Z</time></trkpt><trkpt lat="59.0778800379" lon="30.0030856859"><ele>82.81</ele><time>2026-04-25T10:13:03Z</time></trkpt><trkpt lat="59.0778731648" lon="30.0029264297"><ele>82.33</ele><time>2026-04-25T10:13:15Z</time></trkpt><trkpt lat="59.0778512880" lon="30.0026948377"><ele>82.81</ele><time>2026-04-25T10:13:32Z</time></trkpt><trkpt lat="59.0778053552" lon="30.0024998747"><ele>82.81</ele><time>2026-04-25T10:13:47Z</time></trkpt><trkpt lat="59.0777752642" lon="30.0022999663"><ele>83.29</ele><time>2026-04-25T10:13:59Z</time></trkpt><trkpt lat="59.0777558181" lon="30.0020920113"><ele>82.81</ele><time>2026-04-25T10:14:12Z</time></trkpt><trkpt lat="59.0776823927" lon="30.0019644387"><ele>82.81</ele><time>2026-04-25T10:14:27Z</time></trkpt><trkpt lat="59.0776678082" lon="30.0017957948"><ele>82.81</ele><time>2026-04-25T10:14:40Z</time></trkpt><trkpt lat="59.0776905231" lon="30.0015653763"><ele>83.29</ele><time>2026-04-25T10:14:54Z</time></trkpt><trkpt lat="59.0776878409" lon="30.0014635362"><ele>83.29</ele><time>2026-04-25T10:15:06Z</time></trkpt><trkpt lat="59.0776073746" lon="30.0012835767"><ele>83.29</ele><time>2026-04-25T10:15:18Z</time></trkpt><trkpt lat="59.0775879286" lon="30.0010703411"><ele>83.29</ele><time>2026-04-25T10:15:31Z</time></trkpt><trkpt lat="59.0775652137" lon="30.0009021163"><ele>83.29</ele><time>2026-04-25T10:15:44Z</time></trkpt><trkpt lat="59.0775645431" lon="30.0007403456"><ele>83.77</ele><time>2026-04-25T10:15:58Z</time></trkpt><trkpt lat="59.0774797183" lon="30.0006447919"><ele>83.29</ele><time>2026-04-25T10:16:10Z</time></trkpt><trkpt lat="59.0774505492" lon="30.0006143656"><ele>83.77</ele><time>2026-04-25T10:16:26Z</time></trkpt><trkpt lat="59.0774420835" lon="30.0006203167"><ele>83.29</ele><time>2026-04-25T10:16:36Z</time></trkpt><trkpt lat="59.0773493797" lon="30.0006261002"><ele>83.29</ele><time>2026-04-25T10:16:47Z</time></trkpt><trkpt lat="59.0772703383" lon="30.0006684288"><ele>83.77</ele><time>2026-04-25T10:17:00Z</time></trkpt><trkpt lat="59.0771986730" lon="30.0007614680"><ele>84.73</ele><time>2026-04-25T10:17:14Z</time></trkpt><trkpt lat="59.0772331227" lon="30.0008363184"><ele>83.29</ele><time>2026-04-25T10:17:42Z</time></trkpt><trkpt lat="59.0772176161" lon="30.0009074807"><ele>83.77</ele><time>2026-04-25T10:18:00Z</time></trkpt><trkpt lat="59.0772052947" lon="30.0008799043"><ele>83.77</ele><time>2026-04-25T10:18:26Z</time></trkpt><trkpt lat="59.0771968290" lon="30.0008605421"><ele>83.77</ele><time>2026-04-25T10:18:51Z</time></trkpt><trkpt lat="59.0771932248" lon="30.0009249989"><ele>83.77</ele><time>2026-04-25T10:19:11Z</time></trkpt><trkpt lat="59.0772536583" lon="30.0010961574"><ele>84.25</ele><time>2026-04-25T10:19:23Z</time></trkpt><trkpt lat="59.0772860963" lon="30.0011556689"><ele>83.77</ele><time>2026-04-25T10:19:39Z</time></trkpt><trkpt lat="59.0773056261" lon="30.0012051221"><ele>83.77</ele><time>2026-04-25T10:19:51Z</time></trkpt><trkpt lat="59.0773675684" lon="30.0013740174"><ele>84.25</ele><time>2026-04-25T10:20:03Z</time></trkpt><trkpt lat="59.0773930494" lon="30.0017034262"><ele>84.25</ele><time>2026-04-25T10:20:19Z</time></trkpt><trkpt lat="59.0773627907" lon="30.0019259658"><ele>84.25</ele><time>2026-04-25T10:20:33Z</time></trkpt><trkpt lat="59.0774440113" lon="30.0021337532"><ele>83.77</ele><time>2026-04-25T10:20:48Z</time></trkpt><trkpt lat="59.0774588473" lon="30.0023769960"><ele>84.25</ele><time>2026-04-25T10:21:04Z</time></trkpt><trkpt lat="59.0775204543" lon="30.0025502499"><ele>84.25</ele><time>2026-04-25T10:21:21Z</time></trkpt><trkpt lat="59.0775723383" lon="30.0028077420"><ele>84.25</ele><time>2026-04-25T10:21:36Z</time></trkpt><trkpt lat="59.0776107274" lon="30.0029804092"><ele>84.25</ele><time>2026-04-25T10:21:50Z</time></trkpt><trkpt lat="59.0776709933" lon="30.0032131746"><ele>84.25</ele><time>2026-04-25T10:22:06Z</time></trkpt><trkpt lat="59.0776725020" lon="30.0033189543"><ele>84.25</ele><time>2026-04-25T10:22:18Z</time></trkpt><trkpt lat="59.0776557382" lon="30.0032494683"><ele>84.73</ele><time>2026-04-25T10:22:32Z</time></trkpt><trkpt lat="59.0776418243" lon="30.0032247417"><ele>84.73</ele><time>2026-04-25T10:22:56Z</time></trkpt><trkpt lat="59.0776598454" lon="30.0031700917"><ele>84.73</ele><time>2026-04-25T10:23:21Z</time></trkpt><trkpt lat="59.0776140802" lon="30.0034518074"><ele>84.73</ele><time>2026-04-25T10:23:32Z</time></trkpt><trkpt lat="59.0776331909" lon="30.0036526378"><ele>84.73</ele><time>2026-04-25T10:23:43Z</time></trkpt><trkpt lat="59.0777066164" lon="30.0037999917"><ele>84.73</ele><time>2026-04-25T10:23:56Z</time></trkpt><trkpt lat="59.0777035151" lon="30.0039502792"><ele>84.73</ele><time>2026-04-25T10:24:10Z</time></trkpt><trkpt lat="59.0776429977" lon="30.0038999040"><ele>84.73</ele><time>2026-04-25T10:24:25Z</time></trkpt><trkpt lat="59.0775469411" lon="30.0039022509"><ele>84.73</ele><time>2026-04-25T10:24:39Z</time></trkpt><trkpt lat="59.0774580091" lon="30.0040148199"><ele>84.73</ele><time>2026-04-25T10:24:52Z</time></trkpt><trkpt lat="59.0774225537" lon="30.0039599184"><ele>85.21</ele><time>2026-04-25T10:25:06Z</time></trkpt><trkpt lat="59.0774409939" lon="30.0039624330"><ele>85.21</ele><time>2026-04-25T10:25:32Z</time></trkpt><trkpt lat="59.0774591826" lon="30.0038574915"><ele>85.69</ele><time>2026-04-25T10:25:52Z</time></trkpt><trkpt lat="59.0773966536" lon="30.0036362931"><ele>85.21</ele><time>2026-04-25T10:26:06Z</time></trkpt><trkpt lat="59.0773042850" lon="30.0036139973"><ele>84.73</ele><time>2026-04-25T10:26:19Z</time></trkpt><trkpt lat="59.0772963222" lon="30.0035736803"><ele>85.21</ele><time>2026-04-25T10:26:27Z</time></trkpt><trkpt lat="59.0772998426" lon="30.0033487100"><ele>85.21</ele><time>2026-04-25T10:26:42Z</time></trkpt><trkpt lat="59.0772588551" lon="30.0033414178"><ele>85.21</ele><time>2026-04-25T10:26:54Z</time></trkpt><trkpt lat="59.0772259980" lon="30.0033496320"><ele>86.18</ele><time>2026-04-25T10:27:15Z</time></trkpt><trkpt lat="59.0772377327" lon="30.0031177048"><ele>85.21</ele><time>2026-04-25T10:27:27Z</time></trkpt><trkpt lat="59.0771799814" lon="30.0029157847"><ele>85.21</ele><time>2026-04-25T10:27:42Z</time></trkpt><trkpt lat="59.0770938993" lon="30.0028071553"><ele>85.21</ele><time>2026-04-25T10:27:55Z</time></trkpt><trkpt lat="59.0770752914" lon="30.0027307961"><ele>85.21</ele><time>2026-04-25T10:28:05Z</time></trkpt><trkpt lat="59.0769970044" lon="30.0025905669"><ele>85.21</ele><time>2026-04-25T10:28:19Z</time></trkpt><trkpt lat="59.0770271793" lon="30.0024546124"><ele>84.73</ele><time>2026-04-25T10:28:31Z</time></trkpt><trkpt lat="59.0770581085" lon="30.0022680312"><ele>85.21</ele><time>2026-04-25T10:28:43Z</time></trkpt><trkpt lat="59.0770851821" lon="30.0020973757"><ele>85.21</ele><time>2026-04-25T10:28:56Z</time></trkpt><trkpt lat="59.0770812426" lon="30.0019189250"><ele>85.21</ele><time>2026-04-25T10:29:08Z</time></trkpt><trkpt lat="59.0770729445" lon="30.0017092936"><ele>85.21</ele><time>2026-04-25T10:29:22Z</time></trkpt><trkpt lat="59.0770684183" lon="30.0016959663"><ele>85.21</ele><time>2026-04-25T10:29:23Z</time></trkpt><trkpt lat="59.0770489722" lon="30.0014936272"><ele>85.21</ele><time>2026-04-25T10:29:37Z</time></trkpt><trkpt lat="59.0769729484" lon="30.0013813935"><ele>84.73</ele><time>2026-04-25T10:29:49Z</time></trkpt><trkpt lat="59.0768906381" lon="30.0012244005"><ele>85.21</ele><time>2026-04-25T10:30:04Z</time></trkpt><trkpt lat="59.0768326353" lon="30.0010209717"><ele>84.73</ele><time>2026-04-25T10:30:18Z</time></trkpt><trkpt lat="59.0767750517" lon="30.0009472109"><ele>85.21</ele><time>2026-04-25T10:30:31Z</time></trkpt><trkpt lat="59.0767068230" lon="30.0009212270"><ele>85.21</ele><time>2026-04-25T10:30:41Z</time></trkpt><trkpt lat="59.0766972676" lon="30.0009291898"><ele>85.21</ele><time>2026-04-25T10:30:42Z</time></trkpt><trkpt lat="59.0766158793" lon="30.0009503961"><ele>84.73</ele><time>2026-04-25T10:30:53Z</time></trkpt><trkpt lat="59.0765955113" lon="30.0009623822"><ele>84.73</ele><time>2026-04-25T10:30:56Z</time></trkpt><trkpt lat="59.0765221696" lon="30.0009639747"><ele>84.73</ele><time>2026-04-25T10:31:07Z</time></trkpt><trkpt lat="59.0765042324" lon="30.0010812376"><ele>84.73</ele><time>2026-04-25T10:31:19Z</time></trkpt><trkpt lat="59.0765403584" lon="30.0012633763"><ele>85.21</ele><time>2026-04-25T10:31:42Z</time></trkpt><trkpt lat="59.0765988640" lon="30.0015492830"><ele>85.21</ele><time>2026-04-25T10:32:00Z</time></trkpt><trkpt lat="59.0766035579" lon="30.0014548190"><ele>85.21</ele><time>2026-04-25T10:32:18Z</time></trkpt><trkpt lat="59.0766683500" lon="30.0016486924"><ele>85.21</ele><time>2026-04-25T10:32:34Z</time></trkpt><trkpt lat="59.0766824316" lon="30.0018619280"><ele>85.21</ele><time>2026-04-25T10:32:48Z</time></trkpt><trkpt lat="59.0767053142" lon="30.0019890815"><ele>85.21</ele><time>2026-04-25T10:32:59Z</time></trkpt><trkpt lat="59.0767703578" lon="30.0022139680"><ele>85.21</ele><time>2026-04-25T10:33:15Z</time></trkpt><trkpt lat="59.0767882112" lon="30.0024084281"><ele>85.21</ele><time>2026-04-25T10:33:29Z</time></trkpt><trkpt lat="59.0768097527" lon="30.0024898164"><ele>85.21</ele><time>2026-04-25T10:33:42Z</time></trkpt><trkpt lat="59.0768343955" lon="30.0026516709"><ele>85.21</ele><time>2026-04-25T10:33:56Z</time></trkpt><trkpt lat="59.0768145304" lon="30.0027586240"><ele>84.73</ele><time>2026-04-25T10:34:07Z</time></trkpt><trkpt lat="59.0768177155" lon="30.0029316265"><ele>85.21</ele><time>2026-04-25T10:34:20Z</time></trkpt><trkpt lat="59.0768615529" lon="30.0030076504"><ele>85.21</ele><time>2026-04-25T10:34:31Z</time></trkpt><trkpt lat="59.0768913925" lon="30.0031335466"><ele>85.69</ele><time>2026-04-25T10:34:43Z</time></trkpt><trkpt lat="59.0768621396" lon="30.0032658968"><ele>85.21</ele><time>2026-04-25T10:34:54Z</time></trkpt><trkpt lat="59.0768286120" lon="30.0034072157"><ele>85.69</ele><time>2026-04-25T10:35:06Z</time></trkpt><trkpt lat="59.0768726170" lon="30.0035108160"><ele>85.69</ele><time>2026-04-25T10:35:16Z</time></trkpt><trkpt lat="59.0769443661" lon="30.0036272407"><ele>85.69</ele><time>2026-04-25T10:35:28Z</time></trkpt><trkpt lat="59.0770013630" lon="30.0037686434"><ele>85.69</ele><time>2026-04-25T10:35:41Z</time></trkpt><trkpt lat="59.0769829229" lon="30.0038851518"><ele>86.18</ele><time>2026-04-25T10:35:54Z</time></trkpt><trkpt lat="59.0769991837" lon="30.0040199328"><ele>85.69</ele><time>2026-04-25T10:36:06Z</time></trkpt><trkpt lat="59.0770172048" lon="30.0040421449"><ele>85.69</ele><time>2026-04-25T10:36:09Z</time></trkpt><trkpt lat="59.0770616289" lon="30.0041806977"><ele>85.69</ele><time>2026-04-25T10:36:21Z</time></trkpt><trkpt lat="59.0770426858" lon="30.0041976292"><ele>85.69</ele><time>2026-04-25T10:36:37Z</time></trkpt><trkpt lat="59.0770141035" lon="30.0042334199"><ele>85.69</ele><time>2026-04-25T10:36:50Z</time></trkpt><trkpt lat="59.0769757144" lon="30.0043245312"><ele>86.18</ele><time>2026-04-25T10:37:01Z</time></trkpt><trkpt lat="59.0769156162" lon="30.0044423807"><ele>85.69</ele><time>2026-04-25T10:37:14Z</time></trkpt><trkpt lat="59.0768999420" lon="30.0044389442"><ele>86.18</ele><time>2026-04-25T10:37:17Z</time></trkpt><trkpt lat="59.0768141951" lon="30.0044697896"><ele>85.69</ele><time>2026-04-25T10:37:29Z</time></trkpt><trkpt lat="59.0768328030" lon="30.0044545345"><ele>86.18</ele><time>2026-04-25T10:37:50Z</time></trkpt><trkpt lat="59.0768234152" lon="30.0045499206"><ele>85.69</ele><time>2026-04-25T10:38:09Z</time></trkpt><trkpt lat="59.0768038016" lon="30.0045680255"><ele>86.18</ele><time>2026-04-25T10:38:33Z</time></trkpt><trkpt lat="59.0768160392" lon="30.0045466516"><ele>86.18</ele><time>2026-04-25T10:38:47Z</time></trkpt><trkpt lat="59.0768274385" lon="30.0045243558"><ele>86.18</ele><time>2026-04-25T10:39:06Z</time></trkpt><trkpt lat="59.0768364910" lon="30.0045411196"><ele>86.18</ele><time>2026-04-25T10:39:27Z</time></trkpt><trkpt lat="59.0768363234" lon="30.0045444723"><ele>86.18</ele><time>2026-04-25T10:39:42Z</time></trkpt><trkpt lat="59.0768198948" lon="30.0045308098"><ele>85.69</ele><time>2026-04-25T10:39:59Z</time></trkpt><trkpt lat="59.0768157039" lon="30.0045111962"><ele>86.18</ele><time>2026-04-25T10:40:22Z</time></trkpt><trkpt lat="59.0767836850" lon="30.0045344140"><ele>86.18</ele><time>2026-04-25T10:40:42Z</time></trkpt><trkpt lat="59.0767947491" lon="30.0045551173"><ele>86.18</ele><time>2026-04-25T10:40:59Z</time></trkpt><trkpt lat="59.0767982695" lon="30.0045246910"><ele>86.18</ele><time>2026-04-25T10:41:19Z</time></trkpt><trkpt lat="59.0768073220" lon="30.0045253616"><ele>86.18</ele><time>2026-04-25T10:41:35Z</time></trkpt><trkpt lat="59.0768028796" lon="30.0045610685"><ele>86.18</ele><time>2026-04-25T10:41:51Z</time></trkpt><trkpt lat="59.0768051427" lon="30.0045389403"><ele>86.18</ele><time>2026-04-25T10:42:09Z</time></trkpt><trkpt lat="59.0767866187" lon="30.0045407005"><ele>86.18</ele><time>2026-04-25T10:42:28Z</time></trkpt><trkpt lat="59.0768103395" lon="30.0045588892"><ele>86.18</ele><time>2026-04-25T10:42:51Z</time></trkpt><trkpt lat="59.0768128540" lon="30.0045330729"><ele>86.18</ele><time>2026-04-25T10:43:07Z</time></trkpt><trkpt lat="59.0768414363" lon="30.0045339949"><ele>85.69</ele><time>2026-04-25T10:43:29Z</time></trkpt><trkpt lat="59.0768661629" lon="30.0044865534"><ele>85.69</ele><time>2026-04-25T10:43:54Z</time></trkpt><trkpt lat="59.0768294502" lon="30.0044543669"><ele>85.69</ele><time>2026-04-25T10:44:21Z</time></trkpt><trkpt lat="59.0768452920" lon="30.0044947676"><ele>85.69</ele><time>2026-04-25T10:44:48Z</time></trkpt><trkpt lat="59.0768448729" lon="30.0045101065"><ele>85.21</ele><time>2026-04-25T10:45:20Z</time></trkpt><trkpt lat="59.0768271033" lon="30.0044967793"><ele>85.69</ele><time>2026-04-25T10:45:45Z</time></trkpt><trkpt lat="59.0768430289" lon="30.0045127049"><ele>85.69</ele><time>2026-04-25T10:46:13Z</time></trkpt><trkpt lat="59.0768338088" lon="30.0045386050"><ele>86.18</ele><time>2026-04-25T10:46:40Z</time></trkpt><trkpt lat="59.0768162906" lon="30.0045016408"><ele>86.18</ele><time>2026-04-25T10:46:53Z</time></trkpt><trkpt lat="59.0768143628" lon="30.0044060033"><ele>85.21</ele><time>2026-04-25T10:47:07Z</time></trkpt><trkpt lat="59.0767761413" lon="30.0042884890"><ele>85.69</ele><time>2026-04-25T10:47:19Z</time></trkpt><trkpt lat="59.0767380036" lon="30.0041968748"><ele>85.69</ele><time>2026-04-25T10:47:26Z</time></trkpt><trkpt lat="59.0767234191" lon="30.0040270574"><ele>86.18</ele><time>2026-04-25T10:47:39Z</time></trkpt><trkpt lat="59.0767135285" lon="30.0040043425"><ele>86.66</ele><time>2026-04-25T10:47:41Z</time></trkpt><trkpt lat="59.0767057333" lon="30.0039154105"><ele>86.18</ele><time>2026-04-25T10:47:46Z</time></trkpt><trkpt lat="59.0766166337" lon="30.0037521310"><ele>86.18</ele><time>2026-04-25T10:47:59Z</time></trkpt><trkpt lat="59.0765391849" lon="30.0035363808"><ele>85.69</ele><time>2026-04-25T10:48:14Z</time></trkpt><trkpt lat="59.0764707886" lon="30.0035172701"><ele>85.69</ele><time>2026-04-25T10:48:24Z</time></trkpt><trkpt lat="59.0764317289" lon="30.0034213811"><ele>86.18</ele><time>2026-04-25T10:48:35Z</time></trkpt><trkpt lat="59.0764458943" lon="30.0033071358"><ele>86.18</ele><time>2026-04-25T10:48:47Z</time></trkpt><trkpt lat="59.0764914081" lon="30.0031727739"><ele>85.69</ele><time>2026-04-25T10:49:00Z</time></trkpt><trkpt lat="59.0764945094" lon="30.0030365679"><ele>85.69</ele><time>2026-04-25T10:49:11Z</time></trkpt><trkpt lat="59.0764788352" lon="30.0029871147"><ele>85.69</ele><time>2026-04-25T10:49:14Z</time></trkpt><trkpt lat="59.0764462296" lon="30.0029327162"><ele>86.18</ele><time>2026-04-25T10:49:19Z</time></trkpt><trkpt lat="59.0764724649" lon="30.0027941633"><ele>85.69</ele><time>2026-04-25T10:49:31Z</time></trkpt><trkpt lat="59.0764166415" lon="30.0026567839"><ele>85.69</ele><time>2026-04-25T10:49:44Z</time></trkpt><trkpt lat="59.0763713792" lon="30.0024806801"><ele>85.69</ele><time>2026-04-25T10:49:58Z</time></trkpt><trkpt lat="59.0763605665" lon="30.0023741461"><ele>85.69</ele><time>2026-04-25T10:50:09Z</time></trkpt><trkpt lat="59.0763417073" lon="30.0023681112"><ele>85.69</ele><time>2026-04-25T10:50:12Z</time></trkpt><trkpt lat="59.0763060004" lon="30.0022058375"><ele>85.21</ele><time>2026-04-25T10:50:24Z</time></trkpt><trkpt lat="59.0762949362" lon="30.0021656044"><ele>85.21</ele><time>2026-04-25T10:50:29Z</time></trkpt><trkpt lat="59.0762635879" lon="30.0021608267"><ele>85.21</ele><time>2026-04-25T10:50:33Z</time></trkpt><trkpt lat="59.0761738177" lon="30.0020804442"><ele>85.21</ele><time>2026-04-25T10:50:46Z</time></trkpt><trkpt lat="59.0761222690" lon="30.0020437315"><ele>85.69</ele><time>2026-04-25T10:50:59Z</time></trkpt><trkpt lat="59.0761089418" lon="30.0019284803"><ele>85.69</ele><time>2026-04-25T10:51:10Z</time></trkpt><trkpt lat="59.0760877356" lon="30.0018490199"><ele>85.21</ele><time>2026-04-25T10:51:21Z</time></trkpt><trkpt lat="59.0760747436" lon="30.0017234590"><ele>84.73</ele><time>2026-04-25T10:51:33Z</time></trkpt><trkpt lat="59.0760330018" lon="30.0015766080"><ele>85.21</ele><time>2026-04-25T10:51:46Z</time></trkpt><trkpt lat="59.0760143939" lon="30.0015119836"><ele>85.21</ele><time>2026-04-25T10:51:53Z</time></trkpt><trkpt lat="59.0759842191" lon="30.0014020968"><ele>85.21</ele><time>2026-04-25T10:52:04Z</time></trkpt><trkpt lat="59.0760017373" lon="30.0013421662"><ele>85.21</ele><time>2026-04-25T10:52:15Z</time></trkpt><trkpt lat="59.0759873204" lon="30.0012759492"><ele>84.73</ele><time>2026-04-25T10:52:28Z</time></trkpt><trkpt lat="59.0759737417" lon="30.0012523122"><ele>85.21</ele><time>2026-04-25T10:52:35Z</time></trkpt><trkpt lat="59.0759390406" lon="30.0011171959"><ele>85.21</ele><time>2026-04-25T10:52:47Z</time></trkpt><trkpt lat="59.0758442413" lon="30.0012183655"><ele>85.21</ele><time>2026-04-25T10:53:00Z</time></trkpt><trkpt lat="59.0757920220" lon="30.0012446847"><ele>85.69</ele><time>2026-04-25T10:53:10Z</time></trkpt><trkpt lat="59.0758132283" lon="30.0011698343"><ele>85.69</ele><time>2026-04-25T10:53:31Z</time></trkpt><trkpt lat="59.0757376235" lon="30.0011255778"><ele>85.21</ele><time>2026-04-25T10:53:41Z</time></trkpt><trkpt lat="59.0756585822" lon="30.0012079719"><ele>85.21</ele><time>2026-04-25T10:53:48Z</time></trkpt><trkpt lat="59.0756790340" lon="30.0011815690"><ele>85.21</ele><time>2026-04-25T10:53:51Z</time></trkpt><trkpt lat="59.0756971389" lon="30.0011518132"><ele>85.21</ele><time>2026-04-25T10:54:01Z</time></trkpt><trkpt lat="59.0757336840" lon="30.0012033619"><ele>85.21</ele><time>2026-04-25T10:54:16Z</time></trkpt><trkpt lat="59.0757757612" lon="30.0012802240"><ele>84.73</ele><time>2026-04-25T10:54:31Z</time></trkpt><trkpt lat="59.0757879149" lon="30.0012606103"><ele>85.21</ele><time>2026-04-25T10:54:52Z</time></trkpt><trkpt lat="59.0757653676" lon="30.0013539847"><ele>84.73</ele><time>2026-04-25T10:55:16Z</time></trkpt><trkpt lat="59.0757078677" lon="30.0013904460"><ele>84.73</ele><time>2026-04-25T10:55:26Z</time></trkpt><trkpt lat="59.0757018328" lon="30.0014139153"><ele>85.21</ele><time>2026-04-25T10:55:37Z</time></trkpt><trkpt lat="59.0756804589" lon="30.0014777016"><ele>84.25</ele><time>2026-04-25T10:55:54Z</time></trkpt><trkpt lat="59.0756558161" lon="30.0015281606"><ele>85.21</ele><time>2026-04-25T10:56:13Z</time></trkpt><trkpt lat="59.0756559838" lon="30.0016322639"><ele>85.69</ele><time>2026-04-25T10:56:26Z</time></trkpt><trkpt lat="59.0756463446" lon="30.0016817171"><ele>85.21</ele><time>2026-04-25T10:56:40Z</time></trkpt><trkpt lat="59.0756779443" lon="30.0016488601"><ele>85.21</ele><time>2026-04-25T10:56:55Z</time></trkpt><trkpt lat="59.0756897628" lon="30.0018303283"><ele>85.21</ele><time>2026-04-25T10:57:11Z</time></trkpt><trkpt lat="59.0756976418" lon="30.0020049233"><ele>85.21</ele><time>2026-04-25T10:57:23Z</time></trkpt><trkpt lat="59.0757287387" lon="30.0022045802"><ele>85.21</ele><time>2026-04-25T10:57:36Z</time></trkpt><trkpt lat="59.0757973865" lon="30.0023557059"><ele>85.21</ele><time>2026-04-25T10:57:49Z</time></trkpt><trkpt lat="59.0758225322" lon="30.0024824403"><ele>85.21</ele><time>2026-04-25T10:57:59Z</time></trkpt><trkpt lat="59.0758813731" lon="30.0026033074"><ele>85.21</ele><time>2026-04-25T10:58:10Z</time></trkpt><trkpt lat="59.0759573970" lon="30.0027253479"><ele>85.21</ele><time>2026-04-25T10:58:24Z</time></trkpt><trkpt lat="59.0760001447" lon="30.0029157009"><ele>85.21</ele><time>2026-04-25T10:58:39Z</time></trkpt><trkpt lat="59.0760296490" lon="30.0030706823"><ele>85.21</ele><time>2026-04-25T10:58:56Z</time></trkpt><trkpt lat="59.0760376118" lon="30.0032326207"><ele>85.21</ele><time>2026-04-25T10:59:11Z</time></trkpt><trkpt lat="59.0760777611" lon="30.0032990891"><ele>84.73</ele><time>2026-04-25T10:59:23Z</time></trkpt><trkpt lat="59.0760669485" lon="30.0034379773"><ele>85.21</ele><time>2026-04-25T10:59:33Z</time></trkpt><trkpt lat="59.0761009790" lon="30.0035797153"><ele>85.21</ele><time>2026-04-25T10:59:44Z</time></trkpt><trkpt lat="59.0761427209" lon="30.0035943836"><ele>84.73</ele><time>2026-04-25T10:59:57Z</time></trkpt><trkpt lat="59.0762107819" lon="30.0036984030"><ele>84.73</ele><time>2026-04-25T11:00:08Z</time></trkpt><trkpt lat="59.0762306470" lon="30.0039114710"><ele>84.73</ele><time>2026-04-25T11:00:22Z</time></trkpt><trkpt lat="59.0762599837" lon="30.0040651951"><ele>84.73</ele><time>2026-04-25T11:00:34Z</time></trkpt><trkpt lat="59.0762575530" lon="30.0041653588"><ele>85.21</ele><time>2026-04-25T11:00:47Z</time></trkpt><trkpt lat="59.0762588941" lon="30.0043037441"><ele>84.73</ele><time>2026-04-25T11:00:57Z</time></trkpt><trkpt lat="59.0762620792" lon="30.0044448953"><ele>86.66</ele><time>2026-04-25T11:01:07Z</time></trkpt><trkpt lat="59.0762900747" lon="30.0044844579"><ele>84.73</ele><time>2026-04-25T11:01:12Z</time></trkpt><trkpt lat="59.0762509312" lon="30.0045168120"><ele>84.73</ele><time>2026-04-25T11:01:29Z</time></trkpt><trkpt lat="59.0761998855" lon="30.0046327338"><ele>84.73</ele><time>2026-04-25T11:01:41Z</time></trkpt><trkpt lat="59.0761500131" lon="30.0046588853"><ele>84.73</ele><time>2026-04-25T11:01:51Z</time></trkpt><trkpt lat="59.0760578122" lon="30.0047313049"><ele>84.25</ele><time>2026-04-25T11:02:04Z</time></trkpt><trkpt lat="59.0760205127" lon="30.0047676824"><ele>84.25</ele><time>2026-04-25T11:02:12Z</time></trkpt><trkpt lat="59.0759659465" lon="30.0048359949"><ele>84.25</ele><time>2026-04-25T11:02:23Z</time></trkpt><trkpt lat="59.0759609174" lon="30.0048038084"><ele>84.25</ele><time>2026-04-25T11:02:46Z</time></trkpt><trkpt lat="59.0759686287" lon="30.0047778245"><ele>84.73</ele><time>2026-04-25T11:03:03Z</time></trkpt><trkpt lat="59.0759962890" lon="30.0047313049"><ele>85.69</ele><time>2026-04-25T11:03:19Z</time></trkpt><trkpt lat="59.0759426448" lon="30.0046306383"><ele>84.73</ele><time>2026-04-25T11:03:31Z</time></trkpt><trkpt lat="59.0759233665" lon="30.0045257807"><ele>85.21</ele><time>2026-04-25T11:03:44Z</time></trkpt><trkpt lat="59.0759151522" lon="30.0045215059"><ele>84.25</ele><time>2026-04-25T11:04:03Z</time></trkpt><trkpt lat="59.0759002324" lon="30.0045369286"><ele>85.21</ele><time>2026-04-25T11:04:38Z</time></trkpt><trkpt lat="59.0759028308" lon="30.0045237690"><ele>85.21</ele><time>2026-04-25T11:04:51Z</time></trkpt><trkpt lat="59.0758796129" lon="30.0044510979"><ele>85.21</ele><time>2026-04-25T11:05:11Z</time></trkpt><trkpt lat="59.0758423135" lon="30.0042655226"><ele>84.73</ele><time>2026-04-25T11:05:24Z</time></trkpt><trkpt lat="59.0757530462" lon="30.0041233655"><ele>85.21</ele><time>2026-04-25T11:05:38Z</time></trkpt><trkpt lat="59.0757106338" lon="30.0040694699"><ele>85.21</ele><time>2026-04-25T11:05:44Z</time></trkpt><trkpt lat="59.0756492782" lon="30.0039724074"><ele>85.21</ele><time>2026-04-25T11:05:55Z</time></trkpt><trkpt lat="59.0755827259" lon="30.0038924441"><ele>85.21</ele><time>2026-04-25T11:06:06Z</time></trkpt><trkpt lat="59.0755279083" lon="30.0036606845"><ele>85.21</ele><time>2026-04-25T11:06:20Z</time></trkpt><trkpt lat="59.0755232144" lon="30.0036559068"><ele>85.21</ele><time>2026-04-25T11:06:32Z</time></trkpt><trkpt lat="59.0755179338" lon="30.0036755204"><ele>85.21</ele><time>2026-04-25T11:06:45Z</time></trkpt><trkpt lat="59.0755131561" lon="30.0036774483"><ele>85.21</ele><time>2026-04-25T11:06:48Z</time></trkpt><trkpt lat="59.0755238850" lon="30.0036559906"><ele>84.73</ele><time>2026-04-25T11:06:59Z</time></trkpt><trkpt lat="59.0754859988" lon="30.0035550725"><ele>85.21</ele><time>2026-04-25T11:07:10Z</time></trkpt><trkpt lat="59.0754591767" lon="30.0034247339"><ele>85.21</ele><time>2026-04-25T11:07:21Z</time></trkpt><trkpt lat="59.0754233859" lon="30.0033563375"><ele>85.21</ele><time>2026-04-25T11:07:33Z</time></trkpt><trkpt lat="59.0754275769" lon="30.0032722671"><ele>85.21</ele><time>2026-04-25T11:07:53Z</time></trkpt><trkpt lat="59.0754070412" lon="30.0032068882"><ele>85.21</ele><time>2026-04-25T11:07:58Z</time></trkpt><trkpt lat="59.0753679816" lon="30.0031368155"><ele>85.21</ele><time>2026-04-25T11:08:11Z</time></trkpt><trkpt lat="59.0753891878" lon="30.0030208938"><ele>85.21</ele><time>2026-04-25T11:08:23Z</time></trkpt><trkpt lat="59.0754364617" lon="30.0028505735"><ele>85.21</ele><time>2026-04-25T11:08:37Z</time></trkpt><trkpt lat="59.0753959771" lon="30.0026577897"><ele>85.21</ele><time>2026-04-25T11:08:49Z</time></trkpt><trkpt lat="59.0753251500" lon="30.0025660917"><ele>85.21</ele><time>2026-04-25T11:09:00Z</time></trkpt><trkpt lat="59.0753096435" lon="30.0024443865"><ele>85.21</ele><time>2026-04-25T11:09:10Z</time></trkpt><trkpt lat="59.0752801392" lon="30.0023302250"><ele>85.21</ele><time>2026-04-25T11:09:21Z</time></trkpt><trkpt lat="59.0752119105" lon="30.0021909177"><ele>85.21</ele><time>2026-04-25T11:09:34Z</time></trkpt><trkpt lat="59.0751644690" lon="30.0021008123"><ele>85.21</ele><time>2026-04-25T11:09:44Z</time></trkpt><trkpt lat="59.0751223080" lon="30.0020295661"><ele>84.73</ele><time>2026-04-25T11:09:55Z</time></trkpt><trkpt lat="59.0751178656" lon="30.0020146463"><ele>85.69</ele><time>2026-04-25T11:10:07Z</time></trkpt><trkpt lat="59.0751281753" lon="30.0018773507"><ele>85.21</ele><time>2026-04-25T11:10:16Z</time></trkpt><trkpt lat="59.0751177818" lon="30.0017655361"><ele>85.21</ele><time>2026-04-25T11:10:27Z</time></trkpt><trkpt lat="59.0750669874" lon="30.0017278176"><ele>85.69</ele><time>2026-04-25T11:10:39Z</time></trkpt><trkpt lat="59.0750099905" lon="30.0017318409"><ele>85.21</ele><time>2026-04-25T11:10:54Z</time></trkpt><trkpt lat="59.0749797318" lon="30.0017113890"><ele>85.21</ele><time>2026-04-25T11:10:59Z</time></trkpt><trkpt lat="59.0748777241" lon="30.0018133968"><ele>85.21</ele><time>2026-04-25T11:11:13Z</time></trkpt><trkpt lat="59.0748145245" lon="30.0019221939"><ele>85.69</ele><time>2026-04-25T11:11:25Z</time></trkpt><trkpt lat="59.0748143569" lon="30.0019851420"><ele>85.69</ele><time>2026-04-25T11:11:42Z</time></trkpt><trkpt lat="59.0748282708" lon="30.0020454079"><ele>85.69</ele><time>2026-04-25T11:11:54Z</time></trkpt><trkpt lat="59.0748134349" lon="30.0021777581"><ele>85.21</ele><time>2026-04-25T11:12:05Z</time></trkpt><trkpt lat="59.0747751296" lon="30.0023233518"><ele>85.69</ele><time>2026-04-25T11:12:17Z</time></trkpt><trkpt lat="59.0747825056" lon="30.0024100207"><ele>85.69</ele><time>2026-04-25T11:12:22Z</time></trkpt><trkpt lat="59.0747741237" lon="30.0026709493"><ele>85.21</ele><time>2026-04-25T11:12:37Z</time></trkpt><trkpt lat="59.0748173743" lon="30.0028019585"><ele>85.69</ele><time>2026-04-25T11:12:51Z</time></trkpt><trkpt lat="59.0748187155" lon="30.0029753800"><ele>85.69</ele><time>2026-04-25T11:13:02Z</time></trkpt><trkpt lat="59.0748970024" lon="30.0029404275"><ele>85.21</ele><time>2026-04-25T11:13:13Z</time></trkpt><trkpt lat="59.0749613754" lon="30.0030615460"><ele>85.69</ele><time>2026-04-25T11:13:25Z</time></trkpt><trkpt lat="59.0749638900" lon="30.0031217281"><ele>85.69</ele><time>2026-04-25T11:13:28Z</time></trkpt><trkpt lat="59.0750211384" lon="30.0032517314"><ele>85.21</ele><time>2026-04-25T11:13:39Z</time></trkpt><trkpt lat="59.0750740282" lon="30.0034303498"><ele>85.21</ele><time>2026-04-25T11:13:52Z</time></trkpt><trkpt lat="59.0751216374" lon="30.0036203675"><ele>85.21</ele><time>2026-04-25T11:14:05Z</time></trkpt><trkpt lat="59.0751544945" lon="30.0037932862"><ele>85.21</ele><time>2026-04-25T11:14:18Z</time></trkpt><trkpt lat="59.0751596075" lon="30.0038061943"><ele>85.21</ele><time>2026-04-25T11:14:19Z</time></trkpt><trkpt lat="59.0752115753" lon="30.0038600899"><ele>84.73</ele><time>2026-04-25T11:14:25Z</time></trkpt><trkpt lat="59.0752554126" lon="30.0039569009"><ele>85.21</ele><time>2026-04-25T11:14:37Z</time></trkpt><trkpt lat="59.0752201248" lon="30.0040796958"><ele>85.21</ele><time>2026-04-25T11:14:50Z</time></trkpt><trkpt lat="59.0752409957" lon="30.0042081065"><ele>84.73</ele><time>2026-04-25T11:14:59Z</time></trkpt><trkpt lat="59.0752528142" lon="30.0044504274"><ele>85.21</ele><time>2026-04-25T11:15:14Z</time></trkpt><trkpt lat="59.0752807260" lon="30.0046235975"><ele>85.21</ele><time>2026-04-25T11:15:26Z</time></trkpt><trkpt lat="59.0753101464" lon="30.0047884695"><ele>85.69</ele><time>2026-04-25T11:15:38Z</time></trkpt><trkpt lat="59.0753505472" lon="30.0048981048"><ele>85.21</ele><time>2026-04-25T11:15:50Z</time></trkpt><trkpt lat="59.0753107332" lon="30.0049325544"><ele>85.69</ele><time>2026-04-25T11:16:05Z</time></trkpt><trkpt lat="59.0752501320" lon="30.0049812533"><ele>85.21</ele><time>2026-04-25T11:16:17Z</time></trkpt><trkpt lat="59.0751700848" lon="30.0049676746"><ele>85.21</ele><time>2026-04-25T11:16:27Z</time></trkpt><trkpt lat="59.0750625450" lon="30.0051206443"><ele>85.69</ele><time>2026-04-25T11:16:44Z</time></trkpt><trkpt lat="59.0750506427" lon="30.0050790701"><ele>85.69</ele><time>2026-04-25T11:16:56Z</time></trkpt><trkpt lat="59.0750518162" lon="30.0050766394"><ele>85.21</ele><time>2026-04-25T11:17:24Z</time></trkpt><trkpt lat="59.0750535764" lon="30.0051119272"><ele>84.73</ele><time>2026-04-25T11:17:55Z</time></trkpt><trkpt lat="59.0750210546" lon="30.0050543435"><ele>85.21</ele><time>2026-04-25T11:18:10Z</time></trkpt><trkpt lat="59.0750182886" lon="30.0049463846"><ele>84.73</ele><time>2026-04-25T11:18:30Z</time></trkpt><trkpt lat="59.0750018600" lon="30.0049248431"><ele>85.69</ele><time>2026-04-25T11:18:33Z</time></trkpt><trkpt lat="59.0749223996" lon="30.0047560316"><ele>85.21</ele><time>2026-04-25T11:18:47Z</time></trkpt><trkpt lat="59.0749033727" lon="30.0045764912"><ele>85.21</ele><time>2026-04-25T11:18:59Z</time></trkpt><trkpt lat="59.0748999361" lon="30.0044205878"><ele>85.21</ele><time>2026-04-25T11:19:13Z</time></trkpt><trkpt lat="59.0748954099" lon="30.0043780915"><ele>85.21</ele><time>2026-04-25T11:19:16Z</time></trkpt><trkpt lat="59.0748239961" lon="30.0042991340"><ele>85.21</ele><time>2026-04-25T11:19:29Z</time></trkpt><trkpt lat="59.0747453738" lon="30.0042348448"><ele>85.21</ele><time>2026-04-25T11:19:41Z</time></trkpt><trkpt lat="59.0747189708" lon="30.0041035004"><ele>85.69</ele><time>2026-04-25T11:19:53Z</time></trkpt><trkpt lat="59.0746806655" lon="30.0040485989"><ele>85.69</ele><time>2026-04-25T11:20:04Z</time></trkpt><trkpt lat="59.0746857785" lon="30.0039224513"><ele>85.69</ele><time>2026-04-25T11:20:18Z</time></trkpt><trkpt lat="59.0746303741" lon="30.0038294122"><ele>85.69</ele><time>2026-04-25T11:20:29Z</time></trkpt><trkpt lat="59.0746047255" lon="30.0037217047"><ele>85.69</ele><time>2026-04-25T11:20:39Z</time></trkpt><trkpt lat="59.0745868720" lon="30.0036015920"><ele>85.69</ele><time>2026-04-25T11:20:48Z</time></trkpt><trkpt lat="59.0745470580" lon="30.0034660567"><ele>85.69</ele><time>2026-04-25T11:21:00Z</time></trkpt><trkpt lat="59.0745281987" lon="30.0033485424"><ele>85.21</ele><time>2026-04-25T11:21:09Z</time></trkpt><trkpt lat="59.0744866244" lon="30.0032353867"><ele>85.69</ele><time>2026-04-25T11:21:19Z</time></trkpt><trkpt lat="59.0744113550" lon="30.0031725224"><ele>85.21</ele><time>2026-04-25T11:21:32Z</time></trkpt><trkpt lat="59.0743405279" lon="30.0031117536"><ele>85.21</ele><time>2026-04-25T11:21:44Z</time></trkpt><trkpt lat="59.0743192378" lon="30.0030310359"><ele>85.21</ele><time>2026-04-25T11:21:54Z</time></trkpt><trkpt lat="59.0742621571" lon="30.0029204786"><ele>85.21</ele><time>2026-04-25T11:22:06Z</time></trkpt><trkpt lat="59.0741710458" lon="30.0028365757"><ele>85.21</ele><time>2026-04-25T11:22:20Z</time></trkpt><trkpt lat="59.0741245262" lon="30.0028022937"><ele>85.21</ele><time>2026-04-25T11:22:39Z</time></trkpt><trkpt lat="59.0741123725" lon="30.0027940795"><ele>85.21</ele><time>2026-04-25T11:22:41Z</time></trkpt><trkpt lat="59.0740520228" lon="30.0026069116"><ele>85.69</ele><time>2026-04-25T11:22:55Z</time></trkpt><trkpt lat="59.0740522742" lon="30.0025921594"><ele>84.73</ele><time>2026-04-25T11:23:09Z</time></trkpt><trkpt lat="59.0740519390" lon="30.0026261900"><ele>85.21</ele><time>2026-04-25T11:23:34Z</time></trkpt><trkpt lat="59.0740031563" lon="30.0027191453"><ele>85.69</ele><time>2026-04-25T11:23:45Z</time></trkpt><trkpt lat="59.0739884879" lon="30.0027346518"><ele>85.69</ele><time>2026-04-25T11:23:47Z</time></trkpt><trkpt lat="59.0739064291" lon="30.0027697720"><ele>85.69</ele><time>2026-04-25T11:23:58Z</time></trkpt><trkpt lat="59.0738845523" lon="30.0028188899"><ele>85.69</ele><time>2026-04-25T11:24:07Z</time></trkpt><trkpt lat="59.0738187544" lon="30.0029124320"><ele>86.18</ele><time>2026-04-25T11:24:19Z</time></trkpt><trkpt lat="59.0738256276" lon="30.0029847678"><ele>86.18</ele><time>2026-04-25T11:24:36Z</time></trkpt><trkpt lat="59.0738269687" lon="30.0030693412"><ele>86.18</ele><time>2026-04-25T11:24:47Z</time></trkpt><trkpt lat="59.0738031641" lon="30.0031524058"><ele>85.69</ele><time>2026-04-25T11:24:57Z</time></trkpt><trkpt lat="59.0738630109" lon="30.0032434333"><ele>85.69</ele><time>2026-04-25T11:25:08Z</time></trkpt><trkpt lat="59.0738982148" lon="30.0033327006"><ele>85.69</ele><time>2026-04-25T11:25:18Z</time></trkpt><trkpt lat="59.0739061777" lon="30.0034725107"><ele>85.69</ele><time>2026-04-25T11:25:29Z</time></trkpt><trkpt lat="59.0739253722" lon="30.0035896059"><ele>85.69</ele><time>2026-04-25T11:25:40Z</time></trkpt><trkpt lat="59.0739884041" lon="30.0036908593"><ele>85.21</ele><time>2026-04-25T11:25:52Z</time></trkpt><trkpt lat="59.0740329120" lon="30.0038943719"><ele>81.37</ele><time>2026-04-25T11:26:05Z</time></trkpt><trkpt lat="59.0740366839" lon="30.0039086211"><ele>89.06</ele><time>2026-04-25T11:26:06Z</time></trkpt><trkpt lat="59.0740416292" lon="30.0039258879"><ele>89.06</ele><time>2026-04-25T11:26:07Z</time></trkpt><trkpt lat="59.0740951896" lon="30.0040457491"><ele>85.21</ele><time>2026-04-25T11:26:18Z</time></trkpt><trkpt lat="59.0740948543" lon="30.0040653627"><ele>85.21</ele><time>2026-04-25T11:26:19Z</time></trkpt><trkpt lat="59.0740940999" lon="30.0040810369"><ele>85.21</ele><time>2026-04-25T11:26:20Z</time></trkpt><trkpt lat="59.0741920844" lon="30.0042491779"><ele>85.21</ele><time>2026-04-25T11:26:35Z</time></trkpt><trkpt lat="59.0742951818" lon="30.0042875670"><ele>84.73</ele><time>2026-04-25T11:26:48Z</time></trkpt><trkpt lat="59.0743354149" lon="30.0044812728"><ele>84.73</ele><time>2026-04-25T11:27:03Z</time></trkpt><trkpt lat="59.0743786655" lon="30.0046066660"><ele>85.21</ele><time>2026-04-25T11:27:16Z</time></trkpt><trkpt lat="59.0744247660" lon="30.0047589652"><ele>84.73</ele><time>2026-04-25T11:27:30Z</time></trkpt><trkpt lat="59.0744385961" lon="30.0049501564"><ele>84.73</ele><time>2026-04-25T11:27:42Z</time></trkpt><trkpt lat="59.0744608920" lon="30.0050175469"><ele>84.73</ele><time>2026-04-25T11:27:53Z</time></trkpt><trkpt lat="59.0744524263" lon="30.0050215703"><ele>85.69</ele><time>2026-04-25T11:28:16Z</time></trkpt><trkpt lat="59.0744691063" lon="30.0050146971"><ele>84.73</ele><time>2026-04-25T11:28:37Z</time></trkpt><trkpt lat="59.0744613111" lon="30.0049697701"><ele>84.73</ele><time>2026-04-25T11:29:02Z</time></trkpt><trkpt lat="59.0744230896" lon="30.0050930679"><ele>84.73</ele><time>2026-04-25T11:29:17Z</time></trkpt><trkpt lat="59.0743492451" lon="30.0052494742"><ele>84.73</ele><time>2026-04-25T11:29:33Z</time></trkpt><trkpt lat="59.0743026417" lon="30.0053132605"><ele>85.21</ele><time>2026-04-25T11:29:44Z</time></trkpt><trkpt lat="59.0742701199" lon="30.0054052100"><ele>85.21</ele><time>2026-04-25T11:29:54Z</time></trkpt><trkpt lat="59.0742363408" lon="30.0055017695"><ele>85.21</ele><time>2026-04-25T11:30:06Z</time></trkpt><trkpt lat="59.0742412023" lon="30.0054149330"><ele>84.73</ele><time>2026-04-25T11:30:18Z</time></trkpt><trkpt lat="59.0742301382" lon="30.0054417551"><ele>84.73</ele><time>2026-04-25T11:30:36Z</time></trkpt><trkpt lat="59.0742359217" lon="30.0054422580"><ele>85.21</ele><time>2026-04-25T11:30:57Z</time></trkpt><trkpt lat="59.0742328204" lon="30.0054213870"><ele>85.21</ele><time>2026-04-25T11:31:15Z</time></trkpt><trkpt lat="59.0742469020" lon="30.0054106582"><ele>84.25</ele><time>2026-04-25T11:31:35Z</time></trkpt><trkpt lat="59.0742568765" lon="30.0054487959"><ele>84.25</ele><time>2026-04-25T11:31:50Z</time></trkpt><trkpt lat="59.0742477402" lon="30.0054292660"><ele>84.73</ele><time>2026-04-25T11:32:10Z</time></trkpt><trkpt lat="59.0742360894" lon="30.0054328702"><ele>85.21</ele><time>2026-04-25T11:32:22Z</time></trkpt><trkpt lat="59.0742563736" lon="30.0054373965"><ele>84.73</ele><time>2026-04-25T11:32:34Z</time></trkpt><trkpt lat="59.0742489975" lon="30.0054555852"><ele>84.25</ele><time>2026-04-25T11:32:57Z</time></trkpt><trkpt lat="59.0742500871" lon="30.0054522324"><ele>84.73</ele><time>2026-04-25T11:33:13Z</time></trkpt><trkpt lat="59.0742419567" lon="30.0053513981"><ele>84.73</ele><time>2026-04-25T11:33:37Z</time></trkpt><trkpt lat="59.0742356703" lon="30.0053516496"><ele>84.73</ele><time>2026-04-25T11:33:58Z</time></trkpt><trkpt lat="59.0742281266" lon="30.0053721853"><ele>85.21</ele><time>2026-04-25T11:34:25Z</time></trkpt><trkpt lat="59.0742342453" lon="30.0053557567"><ele>84.73</ele><time>2026-04-25T11:34:49Z</time></trkpt><trkpt lat="59.0742266178" lon="30.0053560082"><ele>85.21</ele><time>2026-04-25T11:35:19Z</time></trkpt><trkpt lat="59.0742365085" lon="30.0053684134"><ele>84.73</ele><time>2026-04-25T11:35:39Z</time></trkpt><trkpt lat="59.0742357541" lon="30.0053910445"><ele>84.25</ele><time>2026-04-25T11:35:56Z</time></trkpt><trkpt lat="59.0742358379" lon="30.0053341314"><ele>85.69</ele><time>2026-04-25T11:36:02Z</time></trkpt><trkpt lat="59.0741793439" lon="30.0052364822"><ele>85.21</ele><time>2026-04-25T11:36:16Z</time></trkpt><trkpt lat="59.0741070919" lon="30.0051030423"><ele>85.21</ele><time>2026-04-25T11:36:27Z</time></trkpt><trkpt lat="59.0740521066" lon="30.0050072372"><ele>85.21</ele><time>2026-04-25T11:36:39Z</time></trkpt><trkpt lat="59.0739926789" lon="30.0048442930"><ele>85.21</ele><time>2026-04-25T11:36:51Z</time></trkpt><trkpt lat="59.0739269648" lon="30.0047436263"><ele>85.21</ele><time>2026-04-25T11:37:03Z</time></trkpt><trkpt lat="59.0739128832" lon="30.0047468953"><ele>85.21</ele><time>2026-04-25T11:37:05Z</time></trkpt><trkpt lat="59.0738096181" lon="30.0046376791"><ele>85.21</ele><time>2026-04-25T11:37:18Z</time></trkpt><trkpt lat="59.0737715643" lon="30.0045091007"><ele>85.21</ele><time>2026-04-25T11:37:31Z</time></trkpt><trkpt lat="59.0737292357" lon="30.0043438096"><ele>85.69</ele><time>2026-04-25T11:37:45Z</time></trkpt><trkpt lat="59.0737476759" lon="30.0043206755"><ele>86.18</ele><time>2026-04-25T11:37:49Z</time></trkpt><trkpt lat="59.0737112984" lon="30.0040696375"><ele>86.18</ele><time>2026-04-25T11:38:03Z</time></trkpt><trkpt lat="59.0736558102" lon="30.0040038396"><ele>86.18</ele><time>2026-04-25T11:38:11Z</time></trkpt><trkpt lat="59.0736435726" lon="30.0039521232"><ele>86.18</ele><time>2026-04-25T11:38:14Z</time></trkpt><trkpt lat="59.0736197680" lon="30.0038805418"><ele>86.18</ele><time>2026-04-25T11:38:20Z</time></trkpt><trkpt lat="59.0735540539" lon="30.0037829764"><ele>86.18</ele><time>2026-04-25T11:38:32Z</time></trkpt><trkpt lat="59.0735025890" lon="30.0036145840"><ele>85.69</ele><time>2026-04-25T11:38:46Z</time></trkpt><trkpt lat="59.0734436642" lon="30.0034645479"><ele>85.21</ele><time>2026-04-25T11:38:57Z</time></trkpt><trkpt lat="59.0734178480" lon="30.0034901127"><ele>85.21</ele><time>2026-04-25T11:39:01Z</time></trkpt><trkpt lat="59.0733143315" lon="30.0036348682"><ele>86.18</ele><time>2026-04-25T11:39:15Z</time></trkpt><trkpt lat="59.0732746851" lon="30.0037477724"><ele>86.66</ele><time>2026-04-25T11:39:29Z</time></trkpt><trkpt lat="59.0732672252" lon="30.0036663841"><ele>86.18</ele><time>2026-04-25T11:39:48Z</time></trkpt><trkpt lat="59.0732536465" lon="30.0036077946"><ele>86.18</ele><time>2026-04-25T11:39:51Z</time></trkpt><trkpt lat="59.0732596815" lon="30.0034683198"><ele>86.18</ele><time>2026-04-25T11:39:59Z</time></trkpt><trkpt lat="59.0731999185" lon="30.0032463670"><ele>86.66</ele><time>2026-04-25T11:40:12Z</time></trkpt><trkpt lat="59.0732071269" lon="30.0032161921"><ele>86.66</ele><time>2026-04-25T11:40:15Z</time></trkpt><trkpt lat="59.0732074622" lon="30.0031507295"><ele>86.66</ele><time>2026-04-25T11:40:19Z</time></trkpt><trkpt lat="59.0731817298" lon="30.0030537508"><ele>86.66</ele><time>2026-04-25T11:40:25Z</time></trkpt><trkpt lat="59.0731176920" lon="30.0028716121"><ele>86.66</ele><time>2026-04-25T11:40:36Z</time></trkpt><trkpt lat="59.0731024370" lon="30.0028166268"><ele>86.66</ele><time>2026-04-25T11:40:40Z</time></trkpt><trkpt lat="59.0730544087" lon="30.0027041417"><ele>86.66</ele><time>2026-04-25T11:40:52Z</time></trkpt><trkpt lat="59.0730005130" lon="30.0027398486"><ele>86.66</ele><time>2026-04-25T11:41:07Z</time></trkpt><trkpt lat="59.0729057137" lon="30.0029141922"><ele>85.69</ele><time>2026-04-25T11:41:21Z</time></trkpt><trkpt lat="59.0729294345" lon="30.0029723626"><ele>87.14</ele><time>2026-04-25T11:41:36Z</time></trkpt><trkpt lat="59.0729459468" lon="30.0029990170"><ele>87.62</ele><time>2026-04-25T11:41:40Z</time></trkpt><trkpt lat="59.0729621239" lon="30.0030566007"><ele>87.14</ele><time>2026-04-25T11:41:44Z</time></trkpt><trkpt lat="59.0729826596" lon="30.0031104963"><ele>87.14</ele><time>2026-04-25T11:41:48Z</time></trkpt><trkpt lat="59.0730477031" lon="30.0032845046"><ele>87.14</ele><time>2026-04-25T11:42:02Z</time></trkpt><trkpt lat="59.0730541572" lon="30.0033156853"><ele>87.14</ele><time>2026-04-25T11:42:04Z</time></trkpt><trkpt lat="59.0731101483" lon="30.0035245623"><ele>87.14</ele><time>2026-04-25T11:42:19Z</time></trkpt><trkpt lat="59.0731206257" lon="30.0035385601"><ele>86.66</ele><time>2026-04-25T11:42:31Z</time></trkpt><trkpt lat="59.0731655527" lon="30.0036762748"><ele>86.66</ele><time>2026-04-25T11:42:44Z</time></trkpt><trkpt lat="59.0732377209" lon="30.0038335193"><ele>86.18</ele><time>2026-04-25T11:42:55Z</time></trkpt><trkpt lat="59.0732838213" lon="30.0039532129"><ele>86.66</ele><time>2026-04-25T11:43:08Z</time></trkpt><trkpt lat="59.0733511280" lon="30.0041092839"><ele>86.66</ele><time>2026-04-25T11:43:22Z</time></trkpt><trkpt lat="59.0733686462" lon="30.0042598229"><ele>86.18</ele><time>2026-04-25T11:43:33Z</time></trkpt><trkpt lat="59.0734283254" lon="30.0043275487"><ele>86.18</ele><time>2026-04-25T11:43:44Z</time></trkpt><trkpt lat="59.0734347794" lon="30.0043430552"><ele>85.69</ele><time>2026-04-25T11:43:52Z</time></trkpt><trkpt lat="59.0734391380" lon="30.0043500122"><ele>85.21</ele><time>2026-04-25T11:44:05Z</time></trkpt><trkpt lat="59.0734328516" lon="30.0043383613"><ele>85.21</ele><time>2026-04-25T11:44:35Z</time></trkpt><trkpt lat="59.0734600089" lon="30.0043602381"><ele>85.69</ele><time>2026-04-25T11:44:55Z</time></trkpt><trkpt lat="59.0734755993" lon="30.0044812728"><ele>85.69</ele><time>2026-04-25T11:45:07Z</time></trkpt><trkpt lat="59.0735430736" lon="30.0046334881"><ele>86.18</ele><time>2026-04-25T11:45:21Z</time></trkpt><trkpt lat="59.0735704824" lon="30.0046655070"><ele>85.69</ele><time>2026-04-25T11:45:35Z</time></trkpt><trkpt lat="59.0736204386" lon="30.0047333166"><ele>85.69</ele><time>2026-04-25T11:45:44Z</time></trkpt><trkpt lat="59.0737050958" lon="30.0047945045"><ele>85.69</ele><time>2026-04-25T11:45:56Z</time></trkpt><trkpt lat="59.0736979712" lon="30.0049106777"><ele>85.69</ele><time>2026-04-25T11:46:04Z</time></trkpt><trkpt lat="59.0737369470" lon="30.0051813293"><ele>85.21</ele><time>2026-04-25T11:46:21Z</time></trkpt><trkpt lat="59.0738006495" lon="30.0053115003"><ele>85.69</ele><time>2026-04-25T11:46:33Z</time></trkpt><trkpt lat="59.0738205984" lon="30.0053410884"><ele>85.69</ele><time>2026-04-25T11:46:36Z</time></trkpt><trkpt lat="59.0738894977" lon="30.0054893643"><ele>85.69</ele><time>2026-04-25T11:46:49Z</time></trkpt><trkpt lat="59.0739142243" lon="30.0055844989"><ele>86.18</ele><time>2026-04-25T11:47:00Z</time></trkpt><trkpt lat="59.0738705546" lon="30.0056299288"><ele>85.69</ele><time>2026-04-25T11:47:09Z</time></trkpt><trkpt lat="59.0737905912" lon="30.0056980737"><ele>85.21</ele><time>2026-04-25T11:47:20Z</time></trkpt><trkpt lat="59.0737159923" lon="30.0057772826"><ele>85.69</ele><time>2026-04-25T11:47:33Z</time></trkpt><trkpt lat="59.0736631863" lon="30.0058227964"><ele>85.21</ele><time>2026-04-25T11:47:46Z</time></trkpt><trkpt lat="59.0736337658" lon="30.0057523884"><ele>85.69</ele><time>2026-04-25T11:48:09Z</time></trkpt><trkpt lat="59.0736294910" lon="30.0057407375"><ele>86.18</ele><time>2026-04-25T11:48:10Z</time></trkpt><trkpt lat="59.0735824686" lon="30.0055895280"><ele>86.18</ele><time>2026-04-25T11:48:24Z</time></trkpt><trkpt lat="59.0735320095" lon="30.0054356363"><ele>86.18</ele><time>2026-04-25T11:48:37Z</time></trkpt><trkpt lat="59.0734518785" lon="30.0052851811"><ele>86.18</ele><time>2026-04-25T11:48:52Z</time></trkpt><trkpt lat="59.0733897686" lon="30.0051420182"><ele>86.18</ele><time>2026-04-25T11:49:04Z</time></trkpt><trkpt lat="59.0733219590" lon="30.0051163696"><ele>86.66</ele><time>2026-04-25T11:49:16Z</time></trkpt><trkpt lat="59.0732573345" lon="30.0051232427"><ele>86.18</ele><time>2026-04-25T11:49:28Z</time></trkpt><trkpt lat="59.0732328594" lon="30.0050819200"><ele>86.18</ele><time>2026-04-25T11:49:36Z</time></trkpt><trkpt lat="59.0731918719" lon="30.0050701015"><ele>86.18</ele><time>2026-04-25T11:49:40Z</time></trkpt><trkpt lat="59.0730922949" lon="30.0049565267"><ele>86.66</ele><time>2026-04-25T11:49:53Z</time></trkpt><trkpt lat="59.0730198752" lon="30.0047797523"><ele>86.66</ele><time>2026-04-25T11:50:07Z</time></trkpt><trkpt lat="59.0730218869" lon="30.0047340710"><ele>86.66</ele><time>2026-04-25T11:50:11Z</time></trkpt><trkpt lat="59.0730373934" lon="30.0045505073"><ele>86.66</ele><time>2026-04-25T11:50:23Z</time></trkpt><trkpt lat="59.0730138402" lon="30.0043944363"><ele>86.66</ele><time>2026-04-25T11:50:33Z</time></trkpt><trkpt lat="59.0729822405" lon="30.0042023230"><ele>86.66</ele><time>2026-04-25T11:50:45Z</time></trkpt><trkpt lat="59.0729697514" lon="30.0041341782"><ele>86.66</ele><time>2026-04-25T11:50:49Z</time></trkpt><trkpt lat="59.0729380678" lon="30.0039073639"><ele>86.66</ele><time>2026-04-25T11:51:03Z</time></trkpt><trkpt lat="59.0729117487" lon="30.0038335193"><ele>86.66</ele><time>2026-04-25T11:51:18Z</time></trkpt><trkpt lat="59.0729210526" lon="30.0039404724"><ele>86.66</ele><time>2026-04-25T11:51:36Z</time></trkpt><trkpt lat="59.0728767123" lon="30.0040501915"><ele>86.66</ele><time>2026-04-25T11:51:53Z</time></trkpt><trkpt lat="59.0728197992" lon="30.0041016564"><ele>86.66</ele><time>2026-04-25T11:52:03Z</time></trkpt><trkpt lat="59.0728157759" lon="30.0041040033"><ele>86.66</ele><time>2026-04-25T11:52:04Z</time></trkpt><trkpt lat="59.0727373213" lon="30.0041498523"><ele>87.14</ele><time>2026-04-25T11:52:15Z</time></trkpt><trkpt lat="59.0727238264" lon="30.0042292289"><ele>87.14</ele><time>2026-04-25T11:52:26Z</time></trkpt><trkpt lat="59.0727224015" lon="30.0042404607"><ele>87.14</ele><time>2026-04-25T11:52:39Z</time></trkpt><trkpt lat="59.0726956632" lon="30.0042822864"><ele>86.18</ele><time>2026-04-25T11:53:00Z</time></trkpt><trkpt lat="59.0727016144" lon="30.0042933505"><ele>86.18</ele><time>2026-04-25T11:53:02Z</time></trkpt><trkpt lat="59.0727913007" lon="30.0044331606"><ele>86.66</ele><time>2026-04-25T11:53:15Z</time></trkpt><trkpt lat="59.0728221461" lon="30.0046014693"><ele>87.14</ele><time>2026-04-25T11:53:28Z</time></trkpt><trkpt lat="59.0728497226" lon="30.0047331490"><ele>86.66</ele><time>2026-04-25T11:53:38Z</time></trkpt><trkpt lat="59.0728458669" lon="30.0049419422"><ele>86.66</ele><time>2026-04-25T11:53:50Z</time></trkpt><trkpt lat="59.0729048755" lon="30.0050467160"><ele>86.66</ele><time>2026-04-25T11:54:01Z</time></trkpt><trkpt lat="59.0729599446" lon="30.0051733665"><ele>86.66</ele><time>2026-04-25T11:54:12Z</time></trkpt><trkpt lat="59.0730144270" lon="30.0051951595"><ele>86.66</ele><time>2026-04-25T11:54:19Z</time></trkpt><trkpt lat="59.0730968211" lon="30.0052532461"><ele>86.18</ele><time>2026-04-25T11:54:28Z</time></trkpt><trkpt lat="59.0730937198" lon="30.0053334609"><ele>86.66</ele><time>2026-04-25T11:54:38Z</time></trkpt><trkpt lat="59.0731066279" lon="30.0055315252"><ele>86.66</ele><time>2026-04-25T11:54:49Z</time></trkpt><trkpt lat="59.0731215477" lon="30.0056016818"><ele>86.66</ele><time>2026-04-25T11:54:55Z</time></trkpt><trkpt lat="59.0731641278" lon="30.0057655480"><ele>86.66</ele><time>2026-04-25T11:55:06Z</time></trkpt><trkpt lat="59.0731501300" lon="30.0056895241"><ele>86.66</ele><time>2026-04-25T11:55:19Z</time></trkpt><trkpt lat="59.0731483698" lon="30.0056906976"><ele>86.18</ele><time>2026-04-25T11:55:31Z</time></trkpt><trkpt lat="59.0731454361" lon="30.0056846626"><ele>85.69</ele><time>2026-04-25T11:55:54Z</time></trkpt><trkpt lat="59.0731513873" lon="30.0056849141"><ele>85.21</ele><time>2026-04-25T11:56:17Z</time></trkpt><trkpt lat="59.0731616132" lon="30.0056877639"><ele>85.69</ele><time>2026-04-25T11:56:45Z</time></trkpt><trkpt lat="59.0731576737" lon="30.0056582596"><ele>85.69</ele><time>2026-04-25T11:57:15Z</time></trkpt><trkpt lat="59.0731764492" lon="30.0056827348"><ele>85.69</ele><time>2026-04-25T11:57:39Z</time></trkpt><trkpt lat="59.0731698275" lon="30.0056745205"><ele>86.18</ele><time>2026-04-25T11:58:00Z</time></trkpt><trkpt lat="59.0731717553" lon="30.0056667253"><ele>86.18</ele><time>2026-04-25T11:58:27Z</time></trkpt><trkpt lat="59.0731519740" lon="30.0056684855"><ele>86.18</ele><time>2026-04-25T11:58:48Z</time></trkpt><trkpt lat="59.0731457714" lon="30.0057078805"><ele>86.18</ele><time>2026-04-25T11:59:12Z</time></trkpt><trkpt lat="59.0731510520" lon="30.0057185255"><ele>86.18</ele><time>2026-04-25T11:59:29Z</time></trkpt><trkpt lat="59.0731471963" lon="30.0057242252"><ele>86.66</ele><time>2026-04-25T11:59:59Z</time></trkpt><trkpt lat="59.0731550753" lon="30.0057099760"><ele>86.18</ele><time>2026-04-25T12:00:22Z</time></trkpt><trkpt lat="59.0731659718" lon="30.0056904461"><ele>85.69</ele><time>2026-04-25T12:00:42Z</time></trkpt><trkpt lat="59.0731430892" lon="30.0057395641"><ele>86.18</ele><time>2026-04-25T12:01:03Z</time></trkpt><trkpt lat="59.0731367189" lon="30.0057360437"><ele>86.18</ele><time>2026-04-25T12:01:25Z</time></trkpt><trkpt lat="59.0731311031" lon="30.0057467725"><ele>86.18</ele><time>2026-04-25T12:01:46Z</time></trkpt><trkpt lat="59.0731220506" lon="30.0057709124"><ele>86.18</ele><time>2026-04-25T12:02:16Z</time></trkpt><trkpt lat="59.0731355455" lon="30.0057357922"><ele>85.69</ele><time>2026-04-25T12:02:45Z</time></trkpt><trkpt lat="59.0731249005" lon="30.0057660509"><ele>86.18</ele><time>2026-04-25T12:03:18Z</time></trkpt><trkpt lat="59.0731239785" lon="30.0057295058"><ele>86.66</ele><time>2026-04-25T12:03:38Z</time></trkpt><trkpt lat="59.0731625352" lon="30.0057206210"><ele>86.66</ele><time>2026-04-25T12:04:04Z</time></trkpt><trkpt lat="59.0731638763" lon="30.0057020131"><ele>86.18</ele><time>2026-04-25T12:04:29Z</time></trkpt><trkpt lat="59.0731555782" lon="30.0056896918"><ele>86.18</ele><time>2026-04-25T12:05:09Z</time></trkpt><trkpt lat="59.0731592663" lon="30.0056825671"><ele>85.69</ele><time>2026-04-25T12:05:54Z</time></trkpt><trkpt lat="59.0731610265" lon="30.0056958944"><ele>86.18</ele><time>2026-04-25T12:06:32Z</time></trkpt><trkpt lat="59.0731501300" lon="30.0057169329"><ele>86.18</ele><time>2026-04-25T12:06:54Z</time></trkpt><trkpt lat="59.0731493756" lon="30.0057054497"><ele>86.18</ele><time>2026-04-25T12:07:21Z</time></trkpt><trkpt lat="59.0731539018" lon="30.0057044439"><ele>86.18</ele><time>2026-04-25T12:07:42Z</time></trkpt><trkpt lat="59.0731586795" lon="30.0057030190"><ele>86.18</ele><time>2026-04-25T12:08:19Z</time></trkpt><trkpt lat="59.0731448494" lon="30.0057093054"><ele>85.69</ele><time>2026-04-25T12:08:38Z</time></trkpt><trkpt lat="59.0731404070" lon="30.0057062879"><ele>85.69</ele><time>2026-04-25T12:08:59Z</time></trkpt><trkpt lat="59.0731456038" lon="30.0056897756"><ele>86.18</ele><time>2026-04-25T12:09:24Z</time></trkpt><trkpt lat="59.0731386468" lon="30.0056787953"><ele>86.18</ele><time>2026-04-25T12:09:49Z</time></trkpt><trkpt lat="59.0731342882" lon="30.0056741014"><ele>85.69</ele><time>2026-04-25T12:10:17Z</time></trkpt><trkpt lat="59.0731563326" lon="30.0056917034"><ele>86.18</ele><time>2026-04-25T12:10:47Z</time></trkpt><trkpt lat="59.0731452685" lon="30.0057073776"><ele>86.18</ele><time>2026-04-25T12:11:07Z</time></trkpt><trkpt lat="59.0731367189" lon="30.0057198666"><ele>86.18</ele><time>2026-04-25T12:11:23Z</time></trkpt><trkpt lat="59.0731443465" lon="30.0056661386"><ele>86.66</ele><time>2026-04-25T12:11:52Z</time></trkpt><trkpt lat="59.0731211286" lon="30.0057576690"><ele>86.66</ele><time>2026-04-25T12:12:17Z</time></trkpt><trkpt lat="59.0730616171" lon="30.0059220381"><ele>87.14</ele><time>2026-04-25T12:12:30Z</time></trkpt><trkpt lat="59.0730431769" lon="30.0059445854"><ele>87.14</ele><time>2026-04-25T12:12:33Z</time></trkpt><trkpt lat="59.0730159357" lon="30.0059596729"><ele>87.14</ele><time>2026-04-25T12:12:36Z</time></trkpt><trkpt lat="59.0729789715" lon="30.0059182663"><ele>86.66</ele><time>2026-04-25T12:12:40Z</time></trkpt><trkpt lat="59.0728804003" lon="30.0059494469"><ele>87.62</ele><time>2026-04-25T12:12:53Z</time></trkpt><trkpt lat="59.0728423465" lon="30.0058813859"><ele>87.14</ele><time>2026-04-25T12:13:12Z</time></trkpt><trkpt lat="59.0727529954" lon="30.0057317689"><ele>87.14</ele><time>2026-04-25T12:13:27Z</time></trkpt><trkpt lat="59.0726938192" lon="30.0056156795"><ele>87.14</ele><time>2026-04-25T12:13:39Z</time></trkpt><trkpt lat="59.0726852696" lon="30.0054695830"><ele>87.62</ele><time>2026-04-25T12:13:50Z</time></trkpt><trkpt lat="59.0726131853" lon="30.0052618794"><ele>87.14</ele><time>2026-04-25T12:14:04Z</time></trkpt><trkpt lat="59.0726396721" lon="30.0052114204"><ele>87.14</ele><time>2026-04-25T12:14:08Z</time></trkpt><trkpt lat="59.0725986008" lon="30.0050601270"><ele>87.14</ele><time>2026-04-25T12:14:20Z</time></trkpt><trkpt lat="59.0725556016" lon="30.0049214065"><ele>87.14</ele><time>2026-04-25T12:14:31Z</time></trkpt><trkpt lat="59.0725022089" lon="30.0048207399"><ele>87.62</ele><time>2026-04-25T12:14:40Z</time></trkpt><trkpt lat="59.0724375006" lon="30.0045632478"><ele>87.62</ele><time>2026-04-25T12:14:54Z</time></trkpt><trkpt lat="59.0723874606" lon="30.0044432189"><ele>87.62</ele><time>2026-04-25T12:15:05Z</time></trkpt><trkpt lat="59.0723442100" lon="30.0042816997"><ele>87.62</ele><time>2026-04-25T12:15:18Z</time></trkpt><trkpt lat="59.0723182261" lon="30.0040374510"><ele>87.62</ele><time>2026-04-25T12:15:33Z</time></trkpt><trkpt lat="59.0722580440" lon="30.0038908515"><ele>87.62</ele><time>2026-04-25T12:15:45Z</time></trkpt><trkpt lat="59.0721887257" lon="30.0037242193"><ele>87.62</ele><time>2026-04-25T12:15:56Z</time></trkpt><trkpt lat="59.0721332375" lon="30.0036386400"><ele>87.62</ele><time>2026-04-25T12:16:07Z</time></trkpt><trkpt lat="59.0720837004" lon="30.0036308449"><ele>88.10</ele><time>2026-04-25T12:16:19Z</time></trkpt><trkpt lat="59.0720509272" lon="30.0038177613"><ele>88.10</ele><time>2026-04-25T12:16:34Z</time></trkpt><trkpt lat="59.0719655156" lon="30.0039546378"><ele>87.62</ele><time>2026-04-25T12:16:46Z</time></trkpt><trkpt lat="59.0719294734" lon="30.0039983075"><ele>88.10</ele><time>2026-04-25T12:16:53Z</time></trkpt><trkpt lat="59.0719182417" lon="30.0040582381"><ele>88.58</ele><time>2026-04-25T12:17:04Z</time></trkpt><trkpt lat="59.0718751587" lon="30.0040579867"><ele>87.62</ele><time>2026-04-25T12:17:21Z</time></trkpt><trkpt lat="59.0718598198" lon="30.0041781832"><ele>88.58</ele><time>2026-04-25T12:17:41Z</time></trkpt><trkpt lat="59.0718703810" lon="30.0042731501"><ele>88.10</ele><time>2026-04-25T12:17:59Z</time></trkpt><trkpt lat="59.0718827862" lon="30.0044021476"><ele>88.10</ele><time>2026-04-25T12:18:12Z</time></trkpt><trkpt lat="59.0719828662" lon="30.0045074243"><ele>88.10</ele><time>2026-04-25T12:18:27Z</time></trkpt><trkpt lat="59.0720797610" lon="30.0046809297"><ele>88.10</ele><time>2026-04-25T12:18:42Z</time></trkpt><trkpt lat="59.0720871370" lon="30.0047297124"><ele>88.10</ele><time>2026-04-25T12:18:45Z</time></trkpt><trkpt lat="59.0721519291" lon="30.0049913116"><ele>87.14</ele><time>2026-04-25T12:18:59Z</time></trkpt><trkpt lat="59.0721862111" lon="30.0051635597"><ele>88.58</ele><time>2026-04-25T12:19:11Z</time></trkpt><trkpt lat="59.0722357482" lon="30.0051926449"><ele>87.62</ele><time>2026-04-25T12:19:22Z</time></trkpt><trkpt lat="59.0723300446" lon="30.0053432677"><ele>87.62</ele><time>2026-04-25T12:19:35Z</time></trkpt><trkpt lat="59.0723519213" lon="30.0054182019"><ele>88.10</ele><time>2026-04-25T12:19:40Z</time></trkpt><trkpt lat="59.0723771509" lon="30.0054865144"><ele>87.62</ele><time>2026-04-25T12:19:45Z</time></trkpt><trkpt lat="59.0724222455" lon="30.0056274142"><ele>87.62</ele><time>2026-04-25T12:19:57Z</time></trkpt><trkpt lat="59.0724663343" lon="30.0057082158"><ele>87.14</ele><time>2026-04-25T12:20:06Z</time></trkpt><trkpt lat="59.0724708606" lon="30.0057162624"><ele>87.14</ele><time>2026-04-25T12:20:07Z</time></trkpt><trkpt lat="59.0725172963" lon="30.0058198627"><ele>87.14</ele><time>2026-04-25T12:20:18Z</time></trkpt><trkpt lat="59.0725280251" lon="30.0059206970"><ele>87.62</ele><time>2026-04-25T12:20:27Z</time></trkpt><trkpt lat="59.0725612175" lon="30.0059587508"><ele>87.62</ele><time>2026-04-25T12:20:32Z</time></trkpt><trkpt lat="59.0725701023" lon="30.0061084516"><ele>87.62</ele><time>2026-04-25T12:20:45Z</time></trkpt><trkpt lat="59.0725195594" lon="30.0061454158"><ele>87.14</ele><time>2026-04-25T12:20:54Z</time></trkpt><trkpt lat="59.0724722855" lon="30.0062510278"><ele>87.62</ele><time>2026-04-25T12:21:06Z</time></trkpt><trkpt lat="59.0724201500" lon="30.0063386187"><ele>87.62</ele><time>2026-04-25T12:21:15Z</time></trkpt><trkpt lat="59.0724045597" lon="30.0063271355"><ele>87.14</ele><time>2026-04-25T12:21:17Z</time></trkpt><trkpt lat="59.0723383427" lon="30.0062353536"><ele>87.62</ele><time>2026-04-25T12:21:30Z</time></trkpt><trkpt lat="59.0722786635" lon="30.0062913448"><ele>87.62</ele><time>2026-04-25T12:21:41Z</time></trkpt><trkpt lat="59.0722150449" lon="30.0062853936"><ele>87.62</ele><time>2026-04-25T12:21:58Z</time></trkpt><trkpt lat="59.0721624903" lon="30.0061763451"><ele>87.62</ele><time>2026-04-25T12:22:15Z</time></trkpt><trkpt lat="59.0721363388" lon="30.0060094614"><ele>87.62</ele><time>2026-04-25T12:22:28Z</time></trkpt><trkpt lat="59.0720419586" lon="30.0059955474"><ele>87.62</ele><time>2026-04-25T12:22:40Z</time></trkpt><trkpt lat="59.0720148850" lon="30.0058352016"><ele>88.10</ele><time>2026-04-25T12:22:56Z</time></trkpt><trkpt lat="59.0719473269" lon="30.0057305116"><ele>87.62</ele><time>2026-04-25T12:23:11Z</time></trkpt><trkpt lat="59.0718740690" lon="30.0056103151"><ele>88.10</ele><time>2026-04-25T12:23:25Z</time></trkpt><trkpt lat="59.0718492586" lon="30.0055601075"><ele>88.10</ele><time>2026-04-25T12:23:29Z</time></trkpt><trkpt lat="59.0717548784" lon="30.0053860154"><ele>88.10</ele><time>2026-04-25T12:23:43Z</time></trkpt><trkpt lat="59.0717263799" lon="30.0053730235"><ele>88.10</ele><time>2026-04-25T12:23:55Z</time></trkpt><trkpt lat="59.0717139747" lon="30.0053335447"><ele>88.58</ele><time>2026-04-25T12:23:57Z</time></trkpt><trkpt lat="59.0716699697" lon="30.0051053055"><ele>88.10</ele><time>2026-04-25T12:24:13Z</time></trkpt><trkpt lat="59.0716755856" lon="30.0049773976"><ele>88.10</ele><time>2026-04-25T12:24:28Z</time></trkpt><trkpt lat="59.0717236139" lon="30.0047932472"><ele>88.10</ele><time>2026-04-25T12:24:42Z</time></trkpt><trkpt lat="59.0717435628" lon="30.0045731384"><ele>87.62</ele><time>2026-04-25T12:24:58Z</time></trkpt><trkpt lat="59.0717243683" lon="30.0042721443"><ele>87.62</ele><time>2026-04-25T12:25:11Z</time></trkpt><trkpt lat="59.0717128012" lon="30.0040954538"><ele>87.62</ele><time>2026-04-25T12:25:22Z</time></trkpt><trkpt lat="59.0716469195" lon="30.0039657019"><ele>87.14</ele><time>2026-04-25T12:25:38Z</time></trkpt><trkpt lat="59.0716011543" lon="30.0037228782"><ele>87.62</ele><time>2026-04-25T12:25:51Z</time></trkpt><trkpt lat="59.0715464205" lon="30.0036180206"><ele>87.14</ele><time>2026-04-25T12:26:04Z</time></trkpt><trkpt lat="59.0715351887" lon="30.0036326051"><ele>87.14</ele><time>2026-04-25T12:26:07Z</time></trkpt><trkpt lat="59.0714334324" lon="30.0037265662"><ele>86.66</ele><time>2026-04-25T12:26:21Z</time></trkpt><trkpt lat="59.0713378787" lon="30.0038294122"><ele>86.66</ele><time>2026-04-25T12:26:35Z</time></trkpt><trkpt lat="59.0712909400" lon="30.0038985629"><ele>87.14</ele><time>2026-04-25T12:26:52Z</time></trkpt><trkpt lat="59.0712473541" lon="30.0040725712"><ele>86.66</ele><time>2026-04-25T12:27:20Z</time></trkpt><trkpt lat="59.0713087097" lon="30.0041764230"><ele>86.66</ele><time>2026-04-25T12:27:26Z</time></trkpt><trkpt lat="59.0713551454" lon="30.0043922570"><ele>86.66</ele><time>2026-04-25T12:27:40Z</time></trkpt><trkpt lat="59.0714027546" lon="30.0046577957"><ele>86.66</ele><time>2026-04-25T12:27:57Z</time></trkpt><trkpt lat="59.0714249667" lon="30.0047678500"><ele>87.14</ele><time>2026-04-25T12:28:03Z</time></trkpt><trkpt lat="59.0714832209" lon="30.0049722847"><ele>87.14</ele><time>2026-04-25T12:28:17Z</time></trkpt><trkpt lat="59.0715002362" lon="30.0051488914"><ele>87.14</ele><time>2026-04-25T12:28:31Z</time></trkpt><trkpt lat="59.0715300757" lon="30.0053448603"><ele>86.66</ele><time>2026-04-25T12:28:43Z</time></trkpt><trkpt lat="59.0715832170" lon="30.0055161025"><ele>87.14</ele><time>2026-04-25T12:28:56Z</time></trkpt><trkpt lat="59.0716189239" lon="30.0058023445"><ele>87.14</ele><time>2026-04-25T12:29:10Z</time></trkpt><trkpt lat="59.0716434829" lon="30.0060378760"><ele>87.14</ele><time>2026-04-25T12:29:22Z</time></trkpt><trkpt lat="59.0716791060" lon="30.0062005688"><ele>86.66</ele><time>2026-04-25T12:29:36Z</time></trkpt><trkpt lat="59.0716361906" lon="30.0064037461"><ele>86.66</ele><time>2026-04-25T12:29:51Z</time></trkpt><trkpt lat="59.0715663694" lon="30.0064342562"><ele>87.14</ele><time>2026-04-25T12:30:03Z</time></trkpt><trkpt lat="59.0715237893" lon="30.0065042451"><ele>86.66</ele><time>2026-04-25T12:30:09Z</time></trkpt><trkpt lat="59.0714273136" lon="30.0065222662"><ele>86.18</ele><time>2026-04-25T12:30:24Z</time></trkpt><trkpt lat="59.0713632759" lon="30.0063236151"><ele>87.14</ele><time>2026-04-25T12:30:41Z</time></trkpt><trkpt lat="59.0713144932" lon="30.0061012432"><ele>87.14</ele><time>2026-04-25T12:30:55Z</time></trkpt><trkpt lat="59.0713035967" lon="30.0060922746"><ele>87.62</ele><time>2026-04-25T12:31:09Z</time></trkpt><trkpt lat="59.0712892637" lon="30.0059967209"><ele>87.62</ele><time>2026-04-25T12:31:28Z</time></trkpt><trkpt lat="59.0712972265" lon="30.0059268158"><ele>87.62</ele><time>2026-04-25T12:31:32Z</time></trkpt><trkpt lat="59.0712479409" lon="30.0056980737"><ele>88.10</ele><time>2026-04-25T12:31:45Z</time></trkpt><trkpt lat="59.0712356195" lon="30.0054960698"><ele>87.62</ele><time>2026-04-25T12:31:55Z</time></trkpt><trkpt lat="59.0712166764" lon="30.0054092333"><ele>88.10</ele><time>2026-04-25T12:32:06Z</time></trkpt><trkpt lat="59.0712311771" lon="30.0052158628"><ele>87.62</ele><time>2026-04-25T12:32:15Z</time></trkpt><trkpt lat="59.0712127369" lon="30.0051169563"><ele>87.14</ele><time>2026-04-25T12:32:20Z</time></trkpt><trkpt lat="59.0711999126" lon="30.0049525034"><ele>87.14</ele><time>2026-04-25T12:32:30Z</time></trkpt><trkpt lat="59.0711673908" lon="30.0047101825"><ele>87.62</ele><time>2026-04-25T12:32:44Z</time></trkpt><trkpt lat="59.0711569134" lon="30.0046194065"><ele>87.14</ele><time>2026-04-25T12:32:53Z</time></trkpt><trkpt lat="59.0711396467" lon="30.0046041515"><ele>87.14</ele><time>2026-04-25T12:32:55Z</time></trkpt><trkpt lat="59.0711158421" lon="30.0045601465"><ele>87.62</ele><time>2026-04-25T12:32:59Z</time></trkpt><trkpt lat="59.0710554086" lon="30.0043037441"><ele>87.14</ele><time>2026-04-25T12:33:14Z</time></trkpt><trkpt lat="59.0710282512" lon="30.0041022431"><ele>87.14</ele><time>2026-04-25T12:33:27Z</time></trkpt><trkpt lat="59.0710024349" lon="30.0040454976"><ele>87.14</ele><time>2026-04-25T12:33:43Z</time></trkpt><trkpt lat="59.0709990822" lon="30.0038889237"><ele>87.14</ele><time>2026-04-25T12:34:02Z</time></trkpt><trkpt lat="59.0709569212" lon="30.0037010852"><ele>87.14</ele><time>2026-04-25T12:34:15Z</time></trkpt><trkpt lat="59.0708998404" lon="30.0037349481"><ele>87.14</ele><time>2026-04-25T12:34:34Z</time></trkpt><trkpt lat="59.0708342101" lon="30.0037413184"><ele>87.14</ele><time>2026-04-25T12:34:47Z</time></trkpt><trkpt lat="59.0707656462" lon="30.0037670508"><ele>87.14</ele><time>2026-04-25T12:35:00Z</time></trkpt><trkpt lat="59.0707321186" lon="30.0037682243"><ele>87.14</ele><time>2026-04-25T12:35:05Z</time></trkpt><trkpt lat="59.0706745349" lon="30.0037607644"><ele>86.66</ele><time>2026-04-25T12:35:21Z</time></trkpt><trkpt lat="59.0706840903" lon="30.0040378701"><ele>86.66</ele><time>2026-04-25T12:35:35Z</time></trkpt><trkpt lat="59.0706864372" lon="30.0041094515"><ele>87.14</ele><time>2026-04-25T12:35:53Z</time></trkpt><trkpt lat="59.0706928913" lon="30.0043521076"><ele>87.14</ele><time>2026-04-25T12:36:07Z</time></trkpt><trkpt lat="59.0706610400" lon="30.0046732184"><ele>86.66</ele><time>2026-04-25T12:36:25Z</time></trkpt><trkpt lat="59.0707124211" lon="30.0049361587"><ele>86.66</ele><time>2026-04-25T12:36:42Z</time></trkpt><trkpt lat="59.0708168596" lon="30.0052049663"><ele>87.14</ele><time>2026-04-25T12:36:59Z</time></trkpt><trkpt lat="59.0709136706" lon="30.0053675752"><ele>87.14</ele><time>2026-04-25T12:37:14Z</time></trkpt><trkpt lat="59.0709915385" lon="30.0055094808"><ele>86.66</ele><time>2026-04-25T12:37:28Z</time></trkpt><trkpt lat="59.0709761158" lon="30.0056689046"><ele>86.66</ele><time>2026-04-25T12:37:38Z</time></trkpt><trkpt lat="59.0709689911" lon="30.0057258178"><ele>87.14</ele><time>2026-04-25T12:37:42Z</time></trkpt><trkpt lat="59.0709685721" lon="30.0057699904"><ele>86.66</ele><time>2026-04-25T12:37:44Z</time></trkpt><trkpt lat="59.0710017644" lon="30.0059902668"><ele>86.66</ele><time>2026-04-25T12:37:57Z</time></trkpt><trkpt lat="59.0709962323" lon="30.0060159992"><ele>86.66</ele><time>2026-04-25T12:37:59Z</time></trkpt><trkpt lat="59.0709907841" lon="30.0060755946"><ele>86.66</ele><time>2026-04-25T12:38:02Z</time></trkpt><trkpt lat="59.0710613597" lon="30.0062895007"><ele>86.66</ele><time>2026-04-25T12:38:16Z</time></trkpt><trkpt lat="59.0710654669" lon="30.0063345116"><ele>86.66</ele><time>2026-04-25T12:38:23Z</time></trkpt><trkpt lat="59.0710950550" lon="30.0064928457"><ele>86.18</ele><time>2026-04-25T12:38:34Z</time></trkpt><trkpt lat="59.0710132476" lon="30.0065202545"><ele>86.18</ele><time>2026-04-25T12:38:46Z</time></trkpt><trkpt lat="59.0710008424" lon="30.0064907502"><ele>86.18</ele><time>2026-04-25T12:39:05Z</time></trkpt><trkpt lat="59.0710015129" lon="30.0065100286"><ele>85.69</ele><time>2026-04-25T12:39:06Z</time></trkpt><trkpt lat="59.0709963161" lon="30.0065526087"><ele>85.69</ele><time>2026-04-25T12:39:08Z</time></trkpt><trkpt lat="59.0709113237" lon="30.0066447258"><ele>85.21</ele><time>2026-04-25T12:39:20Z</time></trkpt><trkpt lat="59.0708588529" lon="30.0066710450"><ele>85.21</ele><time>2026-04-25T12:39:29Z</time></trkpt><trkpt lat="59.0708205476" lon="30.0066329911"><ele>84.73</ele><time>2026-04-25T12:39:43Z</time></trkpt><trkpt lat="59.0708031133" lon="30.0065858010"><ele>86.18</ele><time>2026-04-25T12:39:52Z</time></trkpt><trkpt lat="59.0707569290" lon="30.0063987169"><ele>86.18</ele><time>2026-04-25T12:40:04Z</time></trkpt><trkpt lat="59.0707555879" lon="30.0063537899"><ele>86.18</ele><time>2026-04-25T12:40:09Z</time></trkpt><trkpt lat="59.0707246587" lon="30.0061708968"><ele>86.66</ele><time>2026-04-25T12:40:21Z</time></trkpt><trkpt lat="59.0707275085" lon="30.0061620120"><ele>86.66</ele><time>2026-04-25T12:40:22Z</time></trkpt><trkpt lat="59.0707368962" lon="30.0061297417"><ele>86.66</ele><time>2026-04-25T12:40:24Z</time></trkpt><trkpt lat="59.0707459487" lon="30.0060657039"><ele>86.18</ele><time>2026-04-25T12:40:29Z</time></trkpt><trkpt lat="59.0707327891" lon="30.0060550589"><ele>86.66</ele><time>2026-04-25T12:40:31Z</time></trkpt><trkpt lat="59.0707114153" lon="30.0059580803"><ele>86.18</ele><time>2026-04-25T12:40:38Z</time></trkpt><trkpt lat="59.0707160253" lon="30.0059177633"><ele>87.62</ele><time>2026-04-25T12:40:41Z</time></trkpt><trkpt lat="59.0707165282" lon="30.0058687292"><ele>86.66</ele><time>2026-04-25T12:40:44Z</time></trkpt><trkpt lat="59.0706867725" lon="30.0057333615"><ele>86.18</ele><time>2026-04-25T12:40:54Z</time></trkpt><trkpt lat="59.0706410073" lon="30.0055373926"><ele>86.18</ele><time>2026-04-25T12:41:08Z</time></trkpt><trkpt lat="59.0706386603" lon="30.0053408369"><ele>86.18</ele><time>2026-04-25T12:41:22Z</time></trkpt><trkpt lat="59.0706456173" lon="30.0051909685"><ele>86.66</ele><time>2026-04-25T12:41:33Z</time></trkpt><trkpt lat="59.0706359781" lon="30.0050188880"><ele>86.66</ele><time>2026-04-25T12:41:45Z</time></trkpt><trkpt lat="59.0706086531" lon="30.0048645772"><ele>86.66</ele><time>2026-04-25T12:41:59Z</time></trkpt><trkpt lat="59.0705350600" lon="30.0047976058"><ele>85.69</ele><time>2026-04-25T12:42:09Z</time></trkpt><trkpt lat="59.0704526659" lon="30.0046355836"><ele>86.66</ele><time>2026-04-25T12:42:23Z</time></trkpt><trkpt lat="59.0704375785" lon="30.0044904090"><ele>86.18</ele><time>2026-04-25T12:42:34Z</time></trkpt><trkpt lat="59.0703985188" lon="30.0042807776"><ele>85.21</ele><time>2026-04-25T12:42:47Z</time></trkpt><trkpt lat="59.0703707747" lon="30.0041271374"><ele>85.69</ele><time>2026-04-25T12:42:59Z</time></trkpt><trkpt lat="59.0703539271" lon="30.0040698890"><ele>86.18</ele><time>2026-04-25T12:43:03Z</time></trkpt><trkpt lat="59.0702980198" lon="30.0039405562"><ele>85.69</ele><time>2026-04-25T12:43:14Z</time></trkpt><trkpt lat="59.0702421963" lon="30.0039708149"><ele>85.69</ele><time>2026-04-25T12:43:27Z</time></trkpt><trkpt lat="59.0701477323" lon="30.0040263869"><ele>85.21</ele><time>2026-04-25T12:43:44Z</time></trkpt><trkpt lat="59.0700879693" lon="30.0040548854"><ele>85.69</ele><time>2026-04-25T12:43:57Z</time></trkpt><trkpt lat="59.0700888075" lon="30.0041355193"><ele>85.69</ele><time>2026-04-25T12:44:13Z</time></trkpt><trkpt lat="59.0700986143" lon="30.0042614993"><ele>85.69</ele><time>2026-04-25T12:44:51Z</time></trkpt><trkpt lat="59.0701629035" lon="30.0040293206"><ele>85.69</ele><time>2026-04-25T12:45:14Z</time></trkpt><trkpt lat="59.0702380054" lon="30.0040118862"><ele>84.73</ele><time>2026-04-25T12:45:35Z</time></trkpt><trkpt lat="59.0701287892" lon="30.0040235370"><ele>84.73</ele><time>2026-04-25T12:46:00Z</time></trkpt><trkpt lat="59.0700907353" lon="30.0040820427"><ele>85.21</ele><time>2026-04-25T12:46:31Z</time></trkpt><trkpt lat="59.0701213293" lon="30.0041004829"><ele>85.21</ele><time>2026-04-25T12:46:58Z</time></trkpt><trkpt lat="59.0701133665" lon="30.0040211063"><ele>84.73</ele><time>2026-04-25T12:47:19Z</time></trkpt><trkpt lat="59.0700730495" lon="30.0040189270"><ele>85.69</ele><time>2026-04-25T12:47:41Z</time></trkpt><trkpt lat="59.0701391827" lon="30.0039284863"><ele>86.18</ele><time>2026-04-25T12:48:04Z</time></trkpt><trkpt lat="59.0701156296" lon="30.0038968027"><ele>85.21</ele><time>2026-04-25T12:48:18Z</time></trkpt><trkpt lat="59.0701422840" lon="30.0038746744"><ele>85.21</ele><time>2026-04-25T12:48:43Z</time></trkpt><trkpt lat="59.0702721197" lon="30.0039209425"><ele>85.69</ele><time>2026-04-25T12:49:07Z</time></trkpt><trkpt lat="59.0703997761" lon="30.0039021671"><ele>85.21</ele><time>2026-04-25T12:49:35Z</time></trkpt><trkpt lat="59.0702659171" lon="30.0040716492"><ele>86.18</ele><time>2026-04-25T12:50:03Z</time></trkpt><trkpt lat="59.0703556035" lon="30.0039244629"><ele>86.18</ele><time>2026-04-25T12:50:41Z</time></trkpt><trkpt lat="59.0703417733" lon="30.0039096270"><ele>87.14</ele><time>2026-04-25T12:51:11Z</time></trkpt><trkpt lat="59.0704100020" lon="30.0038578268"><ele>87.14</ele><time>2026-04-25T12:51:46Z</time></trkpt><trkpt lat="59.0703349002" lon="30.0039797835"><ele>88.10</ele><time>2026-04-25T12:52:11Z</time></trkpt><trkpt lat="59.0701712854" lon="30.0041517802"><ele>88.10</ele><time>2026-04-25T12:52:29Z</time></trkpt><trkpt lat="59.0701915696" lon="30.0043899100"><ele>88.58</ele><time>2026-04-25T12:52:43Z</time></trkpt><trkpt lat="59.0702088363" lon="30.0046712905"><ele>88.10</ele><time>2026-04-25T12:52:59Z</time></trkpt><trkpt lat="59.0702150390" lon="30.0049467199"><ele>88.10</ele><time>2026-04-25T12:53:15Z</time></trkpt><trkpt lat="59.0702483151" lon="30.0050416868"><ele>87.62</ele><time>2026-04-25T12:53:30Z</time></trkpt><trkpt lat="59.0702888835" lon="30.0051996857"><ele>88.58</ele><time>2026-04-25T12:53:44Z</time></trkpt><trkpt lat="59.0702877101" lon="30.0052162819"><ele>88.10</ele><time>2026-04-25T12:53:46Z</time></trkpt><trkpt lat="59.0703132749" lon="30.0054114126"><ele>88.58</ele><time>2026-04-25T12:53:59Z</time></trkpt><trkpt lat="59.0703444555" lon="30.0056227203"><ele>88.10</ele><time>2026-04-25T12:54:13Z</time></trkpt><trkpt lat="59.0703299548" lon="30.0059434120"><ele>88.10</ele><time>2026-04-25T12:54:27Z</time></trkpt><trkpt lat="59.0703454614" lon="30.0060327630"><ele>87.62</ele><time>2026-04-25T12:54:40Z</time></trkpt><trkpt lat="59.0703595430" lon="30.0062277261"><ele>87.62</ele><time>2026-04-25T12:54:55Z</time></trkpt><trkpt lat="59.0704198088" lon="30.0065430533"><ele>87.14</ele><time>2026-04-25T12:55:10Z</time></trkpt><trkpt lat="59.0704432782" lon="30.0067308918"><ele>86.66</ele><time>2026-04-25T12:55:21Z</time></trkpt><trkpt lat="59.0704950783" lon="30.0069370028"><ele>86.66</ele><time>2026-04-25T12:55:34Z</time></trkpt><trkpt lat="59.0704999398" lon="30.0070609711"><ele>87.14</ele><time>2026-04-25T12:55:42Z</time></trkpt><trkpt lat="59.0705167037" lon="30.0072721951"><ele>86.66</ele><time>2026-04-25T12:55:56Z</time></trkpt><trkpt lat="59.0705236606" lon="30.0074493885"><ele>86.66</ele><time>2026-04-25T12:56:08Z</time></trkpt><trkpt lat="59.0705567691" lon="30.0076298509"><ele>86.66</ele><time>2026-04-25T12:56:21Z</time></trkpt><trkpt lat="59.0705737006" lon="30.0077641290"><ele>86.66</ele><time>2026-04-25T12:56:28Z</time></trkpt><trkpt lat="59.0705916379" lon="30.0079159252"><ele>86.66</ele><time>2026-04-25T12:56:37Z</time></trkpt><trkpt lat="59.0706539154" lon="30.0081757642"><ele>86.18</ele><time>2026-04-25T12:56:53Z</time></trkpt><trkpt lat="59.0707018599" lon="30.0083950348"><ele>85.69</ele><time>2026-04-25T12:57:06Z</time></trkpt><trkpt lat="59.0706941485" lon="30.0086315721"><ele>86.18</ele><time>2026-04-25T12:57:22Z</time></trkpt><trkpt lat="59.0707236528" lon="30.0087947678"><ele>86.18</ele><time>2026-04-25T12:57:33Z</time></trkpt><trkpt lat="59.0707535762" lon="30.0089277048"><ele>85.69</ele><time>2026-04-25T12:57:42Z</time></trkpt><trkpt lat="59.0707943961" lon="30.0091323070"><ele>85.69</ele><time>2026-04-25T12:57:51Z</time></trkpt><trkpt lat="59.0708384849" lon="30.0093568582"><ele>85.69</ele><time>2026-04-25T12:58:03Z</time></trkpt><trkpt lat="59.0708555002" lon="30.0094223209"><ele>85.69</ele><time>2026-04-25T12:58:09Z</time></trkpt><trkpt lat="59.0708627086" lon="30.0094972551"><ele>85.69</ele><time>2026-04-25T12:58:13Z</time></trkpt><trkpt lat="59.0708719287" lon="30.0097106583"><ele>85.69</ele><time>2026-04-25T12:58:25Z</time></trkpt><trkpt lat="59.0708739404" lon="30.0099339522"><ele>85.69</ele><time>2026-04-25T12:58:38Z</time></trkpt><trkpt lat="59.0708591044" lon="30.0100214593"><ele>85.69</ele><time>2026-04-25T12:58:43Z</time></trkpt><trkpt lat="59.0708478726" lon="30.0101853255"><ele>85.69</ele><time>2026-04-25T12:58:52Z</time></trkpt><trkpt lat="59.0708908718" lon="30.0103858206"><ele>84.73</ele><time>2026-04-25T12:59:05Z</time></trkpt><trkpt lat="59.0709687397" lon="30.0105983019"><ele>85.21</ele><time>2026-04-25T12:59:18Z</time></trkpt><trkpt lat="59.0709919576" lon="30.0107744057"><ele>85.69</ele><time>2026-04-25T12:59:30Z</time></trkpt><trkpt lat="59.0709946398" lon="30.0109039061"><ele>85.21</ele><time>2026-04-25T12:59:40Z</time></trkpt><trkpt lat="59.0709572565" lon="30.0110837817"><ele>85.21</ele><time>2026-04-25T12:59:53Z</time></trkpt><trkpt lat="59.0710006747" lon="30.0111784134"><ele>85.21</ele><time>2026-04-25T13:00:03Z</time></trkpt><trkpt lat="59.0710103977" lon="30.0113121886"><ele>85.69</ele><time>2026-04-25T13:00:16Z</time></trkpt><trkpt lat="59.0710923728" lon="30.0114527531"><ele>85.21</ele><time>2026-04-25T13:00:31Z</time></trkpt><trkpt lat="59.0711468551" lon="30.0116260909"><ele>85.69</ele><time>2026-04-25T13:00:45Z</time></trkpt><trkpt lat="59.0711355396" lon="30.0118613709"><ele>85.69</ele><time>2026-04-25T13:00:58Z</time></trkpt><trkpt lat="59.0711728390" lon="30.0121088047"><ele>85.21</ele><time>2026-04-25T13:01:11Z</time></trkpt><trkpt lat="59.0711935423" lon="30.0122796278"><ele>85.21</ele><time>2026-04-25T13:01:23Z</time></trkpt><trkpt lat="59.0712041873" lon="30.0124660414"><ele>85.69</ele><time>2026-04-25T13:01:36Z</time></trkpt><trkpt lat="59.0712102223" lon="30.0126651116"><ele>85.69</ele><time>2026-04-25T13:01:49Z</time></trkpt><trkpt lat="59.0711664688" lon="30.0128079392"><ele>84.73</ele><time>2026-04-25T13:02:00Z</time></trkpt><trkpt lat="59.0711346176" lon="30.0130855478"><ele>84.73</ele><time>2026-04-25T13:02:16Z</time></trkpt><trkpt lat="59.0711883456" lon="30.0133402739"><ele>84.25</ele><time>2026-04-25T13:02:32Z</time></trkpt><trkpt lat="59.0712451749" lon="30.0135841873"><ele>84.73</ele><time>2026-04-25T13:02:49Z</time></trkpt><trkpt lat="59.0712918621" lon="30.0137954112"><ele>84.73</ele><time>2026-04-25T13:03:03Z</time></trkpt><trkpt lat="59.0713290777" lon="30.0138514861"><ele>84.25</ele><time>2026-04-25T13:03:17Z</time></trkpt><trkpt lat="59.0712954663" lon="30.0140233152"><ele>84.25</ele><time>2026-04-25T13:03:29Z</time></trkpt><trkpt lat="59.0712885931" lon="30.0140799768"><ele>84.25</ele><time>2026-04-25T13:03:41Z</time></trkpt><trkpt lat="59.0713128168" lon="30.0141776260"><ele>84.25</ele><time>2026-04-25T13:04:06Z</time></trkpt><trkpt lat="59.0712704882" lon="30.0140461978"><ele>83.77</ele><time>2026-04-25T13:04:31Z</time></trkpt><trkpt lat="59.0712520480" lon="30.0140575971"><ele>83.77</ele><time>2026-04-25T13:05:00Z</time></trkpt><trkpt lat="59.0712628607" lon="30.0139400829"><ele>83.77</ele><time>2026-04-25T13:05:33Z</time></trkpt><trkpt lat="59.0712613519" lon="30.0139857642"><ele>84.25</ele><time>2026-04-25T13:06:05Z</time></trkpt><trkpt lat="59.0712914430" lon="30.0140466169"><ele>84.25</ele><time>2026-04-25T13:06:35Z</time></trkpt><trkpt lat="59.0712556522" lon="30.0140105747"><ele>84.25</ele><time>2026-04-25T13:07:06Z</time></trkpt><trkpt lat="59.0712797083" lon="30.0140560884"><ele>84.73</ele><time>2026-04-25T13:07:37Z</time></trkpt><trkpt lat="59.0712486114" lon="30.0140872691"><ele>85.21</ele><time>2026-04-25T13:08:03Z</time></trkpt><trkpt lat="59.0712410677" lon="30.0140508916"><ele>85.21</ele><time>2026-04-25T13:08:33Z</time></trkpt><trkpt lat="59.0712336078" lon="30.0140799768"><ele>85.21</ele><time>2026-04-25T13:08:54Z</time></trkpt><trkpt lat="59.0713163372" lon="30.0140974950"><ele>85.21</ele><time>2026-04-25T13:09:20Z</time></trkpt><trkpt lat="59.0712635312" lon="30.0140777137"><ele>85.21</ele><time>2026-04-25T13:09:51Z</time></trkpt><trkpt lat="59.0712536406" lon="30.0140581001"><ele>85.69</ele><time>2026-04-25T13:10:18Z</time></trkpt><trkpt lat="59.0712823067" lon="30.0140349660"><ele>85.69</ele><time>2026-04-25T13:10:47Z</time></trkpt><trkpt lat="59.0713026747" lon="30.0140194595"><ele>85.69</ele><time>2026-04-25T13:11:21Z</time></trkpt><trkpt lat="59.0711864177" lon="30.0141219702"><ele>85.69</ele><time>2026-04-25T13:11:45Z</time></trkpt><trkpt lat="59.0712086298" lon="30.0142226368"><ele>86.66</ele><time>2026-04-25T13:12:16Z</time></trkpt><trkpt lat="59.0711674746" lon="30.0140831620"><ele>85.69</ele><time>2026-04-25T13:12:48Z</time></trkpt><trkpt lat="59.0712027624" lon="30.0139932241"><ele>85.69</ele><time>2026-04-25T13:13:24Z</time></trkpt><trkpt lat="59.0711936262" lon="30.0139594451"><ele>85.69</ele><time>2026-04-25T13:13:52Z</time></trkpt><trkpt lat="59.0711999964" lon="30.0140355527"><ele>85.69</ele><time>2026-04-25T13:14:16Z</time></trkpt><trkpt lat="59.0711831488" lon="30.0141140912"><ele>86.18</ele><time>2026-04-25T13:14:53Z</time></trkpt><trkpt lat="59.0712295845" lon="30.0140627101"><ele>86.66</ele><time>2026-04-25T13:15:33Z</time></trkpt><trkpt lat="59.0712341107" lon="30.0140055455"><ele>86.66</ele><time>2026-04-25T13:16:11Z</time></trkpt><trkpt lat="59.0712139942" lon="30.0140921306"><ele>86.18</ele><time>2026-04-25T13:17:01Z</time></trkpt><trkpt lat="59.0712120663" lon="30.0141453557"><ele>86.66</ele><time>2026-04-25T13:17:35Z</time></trkpt><trkpt lat="59.0712389722" lon="30.0140897837"><ele>87.14</ele><time>2026-04-25T13:18:12Z</time></trkpt><trkpt lat="59.0711931232" lon="30.0141311064"><ele>87.14</ele><time>2026-04-25T13:18:51Z</time></trkpt><trkpt lat="59.0712305903" lon="30.0140758697"><ele>87.14</ele><time>2026-04-25T13:19:28Z</time></trkpt><trkpt lat="59.0712253097" lon="30.0140194595"><ele>87.62</ele><time>2026-04-25T13:20:05Z</time></trkpt><trkpt lat="59.0712250583" lon="30.0141114928"><ele>87.14</ele><time>2026-04-25T13:20:39Z</time></trkpt><trkpt lat="59.0712059475" lon="30.0141058769"><ele>87.62</ele><time>2026-04-25T13:21:14Z</time></trkpt><trkpt lat="59.0711719170" lon="30.0141257420"><ele>87.14</ele><time>2026-04-25T13:21:42Z</time></trkpt><trkpt lat="59.0711213741" lon="30.0140914600"><ele>87.62</ele><time>2026-04-25T13:22:11Z</time></trkpt><trkpt lat="59.0711817238" lon="30.0141125824"><ele>87.62</ele><time>2026-04-25T13:22:42Z</time></trkpt><trkpt lat="59.0711435862" lon="30.0140745286"><ele>88.10</ele><time>2026-04-25T13:23:11Z</time></trkpt><trkpt lat="59.0711488668" lon="30.0141198747"><ele>88.58</ele><time>2026-04-25T13:23:36Z</time></trkpt><trkpt lat="59.0711589251" lon="30.0141738541"><ele>89.06</ele><time>2026-04-25T13:24:04Z</time></trkpt><trkpt lat="59.0711681452" lon="30.0141730160"><ele>89.06</ele><time>2026-04-25T13:24:36Z</time></trkpt><trkpt lat="59.0712085459" lon="30.0141924620"><ele>89.54</ele><time>2026-04-25T13:25:14Z</time></trkpt><trkpt lat="59.0712196101" lon="30.0141376443"><ele>89.54</ele><time>2026-04-25T13:25:38Z</time></trkpt><trkpt lat="59.0712036006" lon="30.0141496304"><ele>89.54</ele><time>2026-04-25T13:26:11Z</time></trkpt><trkpt lat="59.0711994097" lon="30.0141204614"><ele>89.54</ele><time>2026-04-25T13:26:34Z</time></trkpt><trkpt lat="59.0712137427" lon="30.0141202938"><ele>89.54</ele><time>2026-04-25T13:27:03Z</time></trkpt><trkpt lat="59.0711898543" lon="30.0140957348"><ele>90.02</ele><time>2026-04-25T13:27:32Z</time></trkpt><trkpt lat="59.0712146647" lon="30.0140819885"><ele>90.02</ele><time>2026-04-25T13:28:05Z</time></trkpt><trkpt lat="59.0712036844" lon="30.0141101517"><ele>90.02</ele><time>2026-04-25T13:28:39Z</time></trkpt><trkpt lat="59.0711787064" lon="30.0141481217"><ele>90.50</ele><time>2026-04-25T13:29:17Z</time></trkpt><trkpt lat="59.0712315124" lon="30.0141213834"><ele>90.98</ele><time>2026-04-25T13:29:56Z</time></trkpt><trkpt lat="59.0712481085" lon="30.0141763687"><ele>90.98</ele><time>2026-04-25T13:30:36Z</time></trkpt><trkpt lat="59.0712599270" lon="30.0140723493"><ele>90.98</ele><time>2026-04-25T13:31:15Z</time></trkpt><trkpt lat="59.0711557399" lon="30.0141801406"><ele>91.46</ele><time>2026-04-25T13:31:55Z</time></trkpt><trkpt lat="59.0712375473" lon="30.0141454395"><ele>91.94</ele><time>2026-04-25T13:32:29Z</time></trkpt><trkpt lat="59.0711617749" lon="30.0141180307"><ele>92.42</ele><time>2026-04-25T13:33:07Z</time></trkpt><trkpt lat="59.0712798759" lon="30.0141296815"><ele>92.42</ele><time>2026-04-25T13:33:24Z</time></trkpt><trkpt lat="59.0712836478" lon="30.0140935555"><ele>92.90</ele><time>2026-04-25T13:33:38Z</time></trkpt><trkpt lat="59.0713181812" lon="30.0140357204"><ele>91.94</ele><time>2026-04-25T13:33:57Z</time></trkpt><trkpt lat="59.0712730866" lon="30.0140657276"><ele>91.94</ele><time>2026-04-25T13:34:27Z</time></trkpt><trkpt lat="59.0712638665" lon="30.0140630454"><ele>92.42</ele><time>2026-04-25T13:34:59Z</time></trkpt><trkpt lat="59.0712308418" lon="30.0139408372"><ele>91.46</ele><time>2026-04-25T13:35:33Z</time></trkpt><trkpt lat="59.0712087974" lon="30.0140555855"><ele>91.94</ele><time>2026-04-25T13:35:57Z</time></trkpt><trkpt lat="59.0712189395" lon="30.0140068866"><ele>92.42</ele><time>2026-04-25T13:36:23Z</time></trkpt><trkpt lat="59.0712227952" lon="30.0140074734"><ele>92.42</ele><time>2026-04-25T13:36:48Z</time></trkpt><trkpt lat="59.0712934546" lon="30.0139803998"><ele>92.90</ele><time>2026-04-25T13:37:14Z</time></trkpt><trkpt lat="59.0712665487" lon="30.0139911287"><ele>92.42</ele><time>2026-04-25T13:37:41Z</time></trkpt><trkpt lat="59.0713083744" lon="30.0140706729"><ele>92.42</ele><time>2026-04-25T13:38:07Z</time></trkpt><trkpt lat="59.0713358670" lon="30.0140970759"><ele>91.94</ele><time>2026-04-25T13:38:36Z</time></trkpt><trkpt lat="59.0713809617" lon="30.0140241534"><ele>91.94</ele><time>2026-04-25T13:39:07Z</time></trkpt><trkpt lat="59.0712453425" lon="30.0139903743"><ele>92.42</ele><time>2026-04-25T13:39:34Z</time></trkpt><trkpt lat="59.0712642856" lon="30.0140057132"><ele>92.90</ele><time>2026-04-25T13:39:57Z</time></trkpt><trkpt lat="59.0712749306" lon="30.0139983371"><ele>92.42</ele><time>2026-04-25T13:40:30Z</time></trkpt><trkpt lat="59.0712429117" lon="30.0141219702"><ele>91.94</ele><time>2026-04-25T13:40:56Z</time></trkpt><trkpt lat="59.0712565742" lon="30.0141786318"><ele>92.42</ele><time>2026-04-25T13:41:30Z</time></trkpt><trkpt lat="59.0712250583" lon="30.0140769593"><ele>91.94</ele><time>2026-04-25T13:42:04Z</time></trkpt><trkpt lat="59.0712579153" lon="30.0140249077"><ele>91.94</ele><time>2026-04-25T13:42:28Z</time></trkpt><trkpt lat="59.0713193547" lon="30.0141241495"><ele>92.42</ele><time>2026-04-25T13:42:45Z</time></trkpt><trkpt lat="59.0712705720" lon="30.0141707528"><ele>91.94</ele><time>2026-04-25T13:42:57Z</time></trkpt><trkpt lat="59.0712564066" lon="30.0143518858"><ele>91.94</ele><time>2026-04-25T13:43:10Z</time></trkpt><trkpt lat="59.0712889284" lon="30.0144598447"><ele>91.94</ele><time>2026-04-25T13:43:21Z</time></trkpt><trkpt lat="59.0713541396" lon="30.0146316737"><ele>91.94</ele><time>2026-04-25T13:43:35Z</time></trkpt><trkpt lat="59.0714421496" lon="30.0147818774"><ele>91.94</ele><time>2026-04-25T13:43:50Z</time></trkpt><trkpt lat="59.0714962129" lon="30.0149650220"><ele>92.42</ele><time>2026-04-25T13:44:01Z</time></trkpt><trkpt lat="59.0715184249" lon="30.0151340850"><ele>92.42</ele><time>2026-04-25T13:44:13Z</time></trkpt><trkpt lat="59.0715663694" lon="30.0153623242"><ele>92.42</ele><time>2026-04-25T13:44:26Z</time></trkpt><trkpt lat="59.0715874918" lon="30.0155625679"><ele>92.42</ele><time>2026-04-25T13:44:38Z</time></trkpt><trkpt lat="59.0715926047" lon="30.0158151984"><ele>92.42</ele><time>2026-04-25T13:44:53Z</time></trkpt><trkpt lat="59.0716223605" lon="30.0159688387"><ele>91.94</ele><time>2026-04-25T13:45:01Z</time></trkpt><trkpt lat="59.0716604982" lon="30.0161948986"><ele>91.94</ele><time>2026-04-25T13:45:13Z</time></trkpt><trkpt lat="59.0716675390" lon="30.0163059589"><ele>91.94</ele><time>2026-04-25T13:45:19Z</time></trkpt><trkpt lat="59.0716792736" lon="30.0164337829"><ele>91.94</ele><time>2026-04-25T13:45:28Z</time></trkpt><trkpt lat="59.0717075206" lon="30.0166872516"><ele>91.94</ele><time>2026-04-25T13:45:40Z</time></trkpt><trkpt lat="59.0717148967" lon="30.0167835597"><ele>91.94</ele><time>2026-04-25T13:45:44Z</time></trkpt><trkpt lat="59.0717515256" lon="30.0170195941"><ele>91.94</ele><time>2026-04-25T13:45:57Z</time></trkpt><trkpt lat="59.0717617515" lon="30.0171718933"><ele>91.94</ele><time>2026-04-25T13:46:06Z</time></trkpt><trkpt lat="59.0717940219" lon="30.0173184089"><ele>91.46</ele><time>2026-04-25T13:46:19Z</time></trkpt><trkpt lat="59.0717916749" lon="30.0173764117"><ele>91.46</ele><time>2026-04-25T13:46:22Z</time></trkpt><trkpt lat="59.0718192514" lon="30.0175701175"><ele>90.98</ele><time>2026-04-25T13:46:32Z</time></trkpt><trkpt lat="59.0718499292" lon="30.0177934114"><ele>90.98</ele><time>2026-04-25T13:46:44Z</time></trkpt><trkpt lat="59.0718852170" lon="30.0180773903"><ele>90.50</ele><time>2026-04-25T13:46:59Z</time></trkpt><trkpt lat="59.0718898270" lon="30.0181426853"><ele>90.02</ele><time>2026-04-25T13:47:03Z</time></trkpt><trkpt lat="59.0719198342" lon="30.0183367264"><ele>90.02</ele><time>2026-04-25T13:47:16Z</time></trkpt><trkpt lat="59.0719285514" lon="30.0185110699"><ele>90.02</ele><time>2026-04-25T13:47:27Z</time></trkpt><trkpt lat="59.0719816927" lon="30.0188054424"><ele>90.02</ele><time>2026-04-25T13:47:42Z</time></trkpt><trkpt lat="59.0720031504" lon="30.0190781057"><ele>89.54</ele><time>2026-04-25T13:47:57Z</time></trkpt><trkpt lat="59.0719707124" lon="30.0191912614"><ele>89.54</ele><time>2026-04-25T13:48:09Z</time></trkpt><trkpt lat="59.0719844587" lon="30.0194314029"><ele>88.58</ele><time>2026-04-25T13:48:23Z</time></trkpt><trkpt lat="59.0720236860" lon="30.0196155533"><ele>89.06</ele><time>2026-04-25T13:48:39Z</time></trkpt><trkpt lat="59.0720294695" lon="30.0197506696"><ele>89.06</ele><time>2026-04-25T13:48:54Z</time></trkpt><trkpt lat="59.0720635001" lon="30.0199116021"><ele>89.06</ele><time>2026-04-25T13:49:11Z</time></trkpt><trkpt lat="59.0721002966" lon="30.0200754683"><ele>88.58</ele><time>2026-04-25T13:49:26Z</time></trkpt><trkpt lat="59.0721078403" lon="30.0202656537"><ele>88.58</ele><time>2026-04-25T13:49:38Z</time></trkpt><trkpt lat="59.0721202455" lon="30.0204824936"><ele>88.58</ele><time>2026-04-25T13:49:53Z</time></trkpt><trkpt lat="59.0721342433" lon="30.0206235610"><ele>88.58</ele><time>2026-04-25T13:50:11Z</time></trkpt><trkpt lat="59.0720758215" lon="30.0207200367"><ele>88.10</ele><time>2026-04-25T13:50:27Z</time></trkpt><trkpt lat="59.0720846225" lon="30.0207844097"><ele>88.58</ele><time>2026-04-25T13:50:40Z</time></trkpt><trkpt lat="59.0720449761" lon="30.0209178496"><ele>88.58</ele><time>2026-04-25T13:50:53Z</time></trkpt><trkpt lat="59.0721130371" lon="30.0210390519"><ele>88.58</ele><time>2026-04-25T13:51:08Z</time></trkpt><trkpt lat="59.0721903183" lon="30.0211525429"><ele>88.58</ele><time>2026-04-25T13:51:22Z</time></trkpt><trkpt lat="59.0722582117" lon="30.0213473383"><ele>88.10</ele><time>2026-04-25T13:51:36Z</time></trkpt><trkpt lat="59.0723056532" lon="30.0215559639"><ele>88.58</ele><time>2026-04-25T13:51:49Z</time></trkpt><trkpt lat="59.0723311342" lon="30.0217095204"><ele>88.58</ele><time>2026-04-25T13:52:01Z</time></trkpt><trkpt lat="59.0723412763" lon="30.0216839556"><ele>88.58</ele><time>2026-04-25T13:52:16Z</time></trkpt><trkpt lat="59.0723857004" lon="30.0218220055"><ele>88.10</ele><time>2026-04-25T13:52:30Z</time></trkpt><trkpt lat="59.0724670887" lon="30.0218391884"><ele>88.58</ele><time>2026-04-25T13:52:42Z</time></trkpt><trkpt lat="59.0724802483" lon="30.0220142864"><ele>88.58</ele><time>2026-04-25T13:52:52Z</time></trkpt><trkpt lat="59.0724930726" lon="30.0221495703"><ele>88.58</ele><time>2026-04-25T13:53:01Z</time></trkpt><trkpt lat="59.0725598764" lon="30.0223054737"><ele>88.58</ele><time>2026-04-25T13:53:14Z</time></trkpt><trkpt lat="59.0725701023" lon="30.0223089941"><ele>88.58</ele><time>2026-04-25T13:53:15Z</time></trkpt><trkpt lat="59.0725934040" lon="30.0224068109"><ele>88.58</ele><time>2026-04-25T13:53:22Z</time></trkpt><trkpt lat="59.0725858603" lon="30.0225968286"><ele>88.58</ele><time>2026-04-25T13:53:31Z</time></trkpt><trkpt lat="59.0725715272" lon="30.0226728525"><ele>88.58</ele><time>2026-04-25T13:53:35Z</time></trkpt><trkpt lat="59.0725727007" lon="30.0227286760"><ele>88.58</ele><time>2026-04-25T13:53:38Z</time></trkpt><trkpt lat="59.0725764725" lon="30.0227813981"><ele>88.10</ele><time>2026-04-25T13:53:42Z</time></trkpt><trkpt lat="59.0725879557" lon="30.0229571667"><ele>88.58</ele><time>2026-04-25T13:53:51Z</time></trkpt><trkpt lat="59.0725664143" lon="30.0231596734"><ele>88.58</ele><time>2026-04-25T13:54:03Z</time></trkpt><trkpt lat="59.0725974273" lon="30.0234195124"><ele>88.58</ele><time>2026-04-25T13:54:16Z</time></trkpt><trkpt lat="59.0726257581" lon="30.0235256273"><ele>88.58</ele><time>2026-04-25T13:54:28Z</time></trkpt><trkpt lat="59.0726294462" lon="30.0236220192"><ele>88.58</ele><time>2026-04-25T13:54:40Z</time></trkpt><trkpt lat="59.0726291947" lon="30.0236655213"><ele>88.58</ele><time>2026-04-25T13:54:42Z</time></trkpt><trkpt lat="59.0726493113" lon="30.0239620730"><ele>88.58</ele><time>2026-04-25T13:54:57Z</time></trkpt><trkpt lat="59.0726714395" lon="30.0243135262"><ele>88.10</ele><time>2026-04-25T13:55:15Z</time></trkpt><trkpt lat="59.0726933163" lon="30.0245483033"><ele>88.10</ele><time>2026-04-25T13:55:29Z</time></trkpt><trkpt lat="59.0727303643" lon="30.0248150993"><ele>88.58</ele><time>2026-04-25T13:55:41Z</time></trkpt><trkpt lat="59.0727502294" lon="30.0250153430"><ele>88.10</ele><time>2026-04-25T13:55:52Z</time></trkpt><trkpt lat="59.0727907978" lon="30.0253145769"><ele>88.10</ele><time>2026-04-25T13:56:06Z</time></trkpt><trkpt lat="59.0728184581" lon="30.0254934467"><ele>88.10</ele><time>2026-04-25T13:56:19Z</time></trkpt><trkpt lat="59.0728501417" lon="30.0257618353"><ele>88.10</ele><time>2026-04-25T13:56:30Z</time></trkpt><trkpt lat="59.0728878602" lon="30.0259678625"><ele>88.10</ele><time>2026-04-25T13:56:43Z</time></trkpt><trkpt lat="59.0729248244" lon="30.0262326468"><ele>88.58</ele><time>2026-04-25T13:56:57Z</time></trkpt><trkpt lat="59.0729429293" lon="30.0264447927"><ele>88.58</ele><time>2026-04-25T13:57:09Z</time></trkpt><trkpt lat="59.0729528200" lon="30.0266072340"><ele>88.10</ele><time>2026-04-25T13:57:20Z</time></trkpt><trkpt lat="59.0729830787" lon="30.0268261693"><ele>87.62</ele><time>2026-04-25T13:57:34Z</time></trkpt><trkpt lat="59.0730078891" lon="30.0270180311"><ele>87.62</ele><time>2026-04-25T13:57:44Z</time></trkpt><trkpt lat="59.0730285086" lon="30.0271411613"><ele>88.10</ele><time>2026-04-25T13:57:51Z</time></trkpt><trkpt lat="59.0730509721" lon="30.0272586755"><ele>88.10</ele><time>2026-04-25T13:57:56Z</time></trkpt><trkpt lat="59.0730998386" lon="30.0274845678"><ele>88.10</ele><time>2026-04-25T13:58:08Z</time></trkpt><trkpt lat="59.0731038619" lon="30.0276083685"><ele>88.10</ele><time>2026-04-25T13:58:20Z</time></trkpt><trkpt lat="59.0730716754" lon="30.0275921915"><ele>88.10</ele><time>2026-04-25T13:58:35Z</time></trkpt><trkpt lat="59.0730454400" lon="30.0276229531"><ele>88.10</ele><time>2026-04-25T13:58:38Z</time></trkpt><trkpt lat="59.0729443543" lon="30.0276473444"><ele>88.58</ele><time>2026-04-25T13:58:49Z</time></trkpt><trkpt lat="59.0729368944" lon="30.0276527926"><ele>88.10</ele><time>2026-04-25T13:58:50Z</time></trkpt><trkpt lat="59.0728244931" lon="30.0277024973"><ele>88.10</ele><time>2026-04-25T13:59:02Z</time></trkpt><trkpt lat="59.0726638958" lon="30.0277487654"><ele>87.14</ele><time>2026-04-25T13:59:19Z</time></trkpt><trkpt lat="59.0725368261" lon="30.0278314948"><ele>87.62</ele><time>2026-04-25T13:59:32Z</time></trkpt><trkpt lat="59.0724077448" lon="30.0279079378"><ele>87.14</ele><time>2026-04-25T13:59:44Z</time></trkpt><trkpt lat="59.0722986963" lon="30.0280109514"><ele>87.14</ele><time>2026-04-25T13:59:57Z</time></trkpt><trkpt lat="59.0721788350" lon="30.0281146355"><ele>87.62</ele><time>2026-04-25T14:00:11Z</time></trkpt><trkpt lat="59.0720982850" lon="30.0281516835"><ele>87.14</ele><time>2026-04-25T14:00:21Z</time></trkpt><trkpt lat="59.0719844587" lon="30.0281882286"><ele>87.14</ele><time>2026-04-25T14:00:35Z</time></trkpt><trkpt lat="59.0719570499" lon="30.0281864684"><ele>87.14</ele><time>2026-04-25T14:00:38Z</time></trkpt><trkpt lat="59.0718293935" lon="30.0281532761"><ele>87.14</ele><time>2026-04-25T14:00:52Z</time></trkpt><trkpt lat="59.0716706403" lon="30.0281839538"><ele>86.66</ele><time>2026-04-25T14:01:07Z</time></trkpt><trkpt lat="59.0715266392" lon="30.0282150507"><ele>87.14</ele><time>2026-04-25T14:01:21Z</time></trkpt><trkpt lat="59.0713970549" lon="30.0282427948"><ele>87.14</ele><time>2026-04-25T14:01:36Z</time></trkpt><trkpt lat="59.0713552292" lon="30.0282611512"><ele>87.62</ele><time>2026-04-25T14:01:42Z</time></trkpt><trkpt lat="59.0711951349" lon="30.0282909069"><ele>87.14</ele><time>2026-04-25T14:01:55Z</time></trkpt><trkpt lat="59.0710773692" lon="30.0283802580"><ele>87.14</ele><time>2026-04-25T14:02:08Z</time></trkpt><trkpt lat="59.0709454380" lon="30.0284970179"><ele>87.14</ele><time>2026-04-25T14:02:22Z</time></trkpt><trkpt lat="59.0708958171" lon="30.0285092555"><ele>87.14</ele><time>2026-04-25T14:02:27Z</time></trkpt><trkpt lat="59.0707560070" lon="30.0285019632"><ele>87.14</ele><time>2026-04-25T14:02:40Z</time></trkpt><trkpt lat="59.0706033725" lon="30.0285615586"><ele>87.62</ele><time>2026-04-25T14:02:55Z</time></trkpt><trkpt lat="59.0704821702" lon="30.0285852794"><ele>87.62</ele><time>2026-04-25T14:03:09Z</time></trkpt><trkpt lat="59.0703436173" lon="30.0285954215"><ele>87.62</ele><time>2026-04-25T14:03:22Z</time></trkpt><trkpt lat="59.0701590478" lon="30.0286396779"><ele>87.62</ele><time>2026-04-25T14:03:36Z</time></trkpt><trkpt lat="59.0700086765" lon="30.0286798272"><ele>87.14</ele><time>2026-04-25T14:03:49Z</time></trkpt><trkpt lat="59.0698582213" lon="30.0286571961"><ele>87.62</ele><time>2026-04-25T14:04:04Z</time></trkpt><trkpt lat="59.0698132943" lon="30.0287146959"><ele>87.62</ele><time>2026-04-25T14:04:20Z</time></trkpt><trkpt lat="59.0697140526" lon="30.0288872793"><ele>87.14</ele><time>2026-04-25T14:04:44Z</time></trkpt><trkpt lat="59.0696695447" lon="30.0288834237"><ele>87.14</ele><time>2026-04-25T14:04:51Z</time></trkpt><trkpt lat="59.0695532877" lon="30.0288541708"><ele>87.14</ele><time>2026-04-25T14:05:05Z</time></trkpt><trkpt lat="59.0695186704" lon="30.0288661569"><ele>87.14</ele><time>2026-04-25T14:05:08Z</time></trkpt><trkpt lat="59.0693180915" lon="30.0289538316"><ele>87.14</ele><time>2026-04-25T14:05:24Z</time></trkpt><trkpt lat="59.0693064407" lon="30.0289618783"><ele>87.14</ele><time>2026-04-25T14:05:25Z</time></trkpt><trkpt lat="59.0691381320" lon="30.0290185399"><ele>87.14</ele><time>2026-04-25T14:05:41Z</time></trkpt><trkpt lat="59.0690099727" lon="30.0290720165"><ele>86.66</ele><time>2026-04-25T14:05:54Z</time></trkpt><trkpt lat="59.0688824002" lon="30.0291340426"><ele>86.66</ele><time>2026-04-25T14:06:08Z</time></trkpt><trkpt lat="59.0687489603" lon="30.0291891117"><ele>86.66</ele><time>2026-04-25T14:06:23Z</time></trkpt><trkpt lat="59.0686223097" lon="30.0292091444"><ele>86.66</ele><time>2026-04-25T14:06:39Z</time></trkpt><trkpt lat="59.0684846789" lon="30.0291933864"><ele>87.14</ele><time>2026-04-25T14:06:55Z</time></trkpt><trkpt lat="59.0683721937" lon="30.0292707514"><ele>86.66</ele><time>2026-04-25T14:07:09Z</time></trkpt><trkpt lat="59.0682124346" lon="30.0293093082"><ele>86.66</ele><time>2026-04-25T14:07:21Z</time></trkpt><trkpt lat="59.0680830181" lon="30.0293416623"><ele>87.14</ele><time>2026-04-25T14:07:38Z</time></trkpt><trkpt lat="59.0679364186" lon="30.0293850806"><ele>86.66</ele><time>2026-04-25T14:07:54Z</time></trkpt><trkpt lat="59.0678196587" lon="30.0294010900"><ele>86.18</ele><time>2026-04-25T14:08:03Z</time></trkpt><trkpt lat="59.0677393600" lon="30.0294080470"><ele>86.66</ele><time>2026-04-25T14:08:15Z</time></trkpt><trkpt lat="59.0676248632" lon="30.0294810534"><ele>86.66</ele><time>2026-04-25T14:08:28Z</time></trkpt><trkpt lat="59.0674604103" lon="30.0295424089"><ele>85.69</ele><time>2026-04-25T14:08:44Z</time></trkpt><trkpt lat="59.0673336759" lon="30.0295724161"><ele>87.14</ele><time>2026-04-25T14:08:57Z</time></trkpt><trkpt lat="59.0672256332" lon="30.0296292454"><ele>86.66</ele><time>2026-04-25T14:09:09Z</time></trkpt><trkpt lat="59.0671220329" lon="30.0296569057"><ele>86.18</ele><time>2026-04-25T14:09:21Z</time></trkpt><trkpt lat="59.0670059435" lon="30.0297315884"><ele>85.69</ele><time>2026-04-25T14:09:33Z</time></trkpt><trkpt lat="59.0668564942" lon="30.0298056845"><ele>86.18</ele><time>2026-04-25T14:09:47Z</time></trkpt><trkpt lat="59.0667614434" lon="30.0298685487"><ele>86.18</ele><time>2026-04-25T14:09:58Z</time></trkpt><trkpt lat="59.0666875150" lon="30.0298879948"><ele>86.18</ele><time>2026-04-25T14:10:10Z</time></trkpt><trkpt lat="59.0665942244" lon="30.0299071893"><ele>86.18</ele><time>2026-04-25T14:10:20Z</time></trkpt><trkpt lat="59.0665164404" lon="30.0299338438"><ele>86.18</ele><time>2026-04-25T14:10:33Z</time></trkpt><trkpt lat="59.0664122533" lon="30.0299465004"><ele>85.69</ele><time>2026-04-25T14:10:44Z</time></trkpt><trkpt lat="59.0663138498" lon="30.0299256295"><ele>85.69</ele><time>2026-04-25T14:10:57Z</time></trkpt><trkpt lat="59.0662848484" lon="30.0299698021"><ele>86.18</ele><time>2026-04-25T14:11:05Z</time></trkpt><trkpt lat="59.0662439447" lon="30.0299777649"><ele>85.69</ele><time>2026-04-25T14:11:09Z</time></trkpt><trkpt lat="59.0661220718" lon="30.0300353486"><ele>85.21</ele><time>2026-04-25T14:11:22Z</time></trkpt><trkpt lat="59.0660238359" lon="30.0300404616"><ele>85.69</ele><time>2026-04-25T14:11:36Z</time></trkpt><trkpt lat="59.0659322217" lon="30.0300314929"><ele>85.69</ele><time>2026-04-25T14:11:49Z</time></trkpt><trkpt lat="59.0658550244" lon="30.0301065110"><ele>85.69</ele><time>2026-04-25T14:12:02Z</time></trkpt><trkpt lat="59.0658258554" lon="30.0301401224"><ele>85.69</ele><time>2026-04-25T14:12:05Z</time></trkpt><trkpt lat="59.0657448862" lon="30.0301694591"><ele>86.18</ele><time>2026-04-25T14:12:17Z</time></trkpt><trkpt lat="59.0656488296" lon="30.0301822834"><ele>86.18</ele><time>2026-04-25T14:12:34Z</time></trkpt><trkpt lat="59.0655083489" lon="30.0302215107"><ele>86.18</ele><time>2026-04-25T14:12:46Z</time></trkpt><trkpt lat="59.0654536150" lon="30.0302748196"><ele>86.18</ele><time>2026-04-25T14:12:50Z</time></trkpt><trkpt lat="59.0653283056" lon="30.0303101912"><ele>86.18</ele><time>2026-04-25T14:13:04Z</time></trkpt><trkpt lat="59.0652331710" lon="30.0303480774"><ele>86.66</ele><time>2026-04-25T14:13:17Z</time></trkpt><trkpt lat="59.0651248768" lon="30.0303820241"><ele>86.66</ele><time>2026-04-25T14:13:33Z</time></trkpt><trkpt lat="59.0649931133" lon="30.0304313097"><ele>86.18</ele><time>2026-04-25T14:13:45Z</time></trkpt><trkpt lat="59.0649929456" lon="30.0303136278"><ele>86.66</ele><time>2026-04-25T14:13:58Z</time></trkpt><trkpt lat="59.0650093742" lon="30.0300946087"><ele>86.18</ele><time>2026-04-25T14:14:13Z</time></trkpt><trkpt lat="59.0650322568" lon="30.0299547147"><ele>86.18</ele><time>2026-04-25T14:14:24Z</time></trkpt><trkpt lat="59.0651335102" lon="30.0297966320"><ele>86.18</ele><time>2026-04-25T14:14:42Z</time></trkpt><trkpt lat="59.0652144793" lon="30.0297485199"><ele>86.18</ele><time>2026-04-25T14:15:00Z</time></trkpt><trkpt lat="59.0652261302" lon="30.0298932754"><ele>86.66</ele><time>2026-04-25T14:15:13Z</time></trkpt><trkpt lat="59.0651983023" lon="30.0300119631"><ele>86.66</ele><time>2026-04-25T14:15:27Z</time></trkpt><trkpt lat="59.0651816223" lon="30.0301626697"><ele>86.66</ele><time>2026-04-25T14:15:55Z</time></trkpt><trkpt lat="59.0651442390" lon="30.0302033219"><ele>86.18</ele><time>2026-04-25T14:16:11Z</time></trkpt><trkpt lat="59.0651208535" lon="30.0301409606"><ele>86.18</ele><time>2026-04-25T14:16:31Z</time></trkpt><trkpt lat="59.0650741663" lon="30.0302132964"><ele>86.18</ele><time>2026-04-25T14:16:45Z</time></trkpt><trkpt lat="59.0649731643" lon="30.0303904060"><ele>86.18</ele><time>2026-04-25T14:16:58Z</time></trkpt><trkpt lat="59.0649220347" lon="30.0305061601"><ele>86.66</ele><time>2026-04-25T14:17:13Z</time></trkpt><trkpt lat="59.0648397245" lon="30.0304828584"><ele>86.18</ele><time>2026-04-25T14:17:24Z</time></trkpt><trkpt lat="59.0646953043" lon="30.0304919947"><ele>86.18</ele><time>2026-04-25T14:17:38Z</time></trkpt><trkpt lat="59.0645717550" lon="30.0305603910"><ele>85.69</ele><time>2026-04-25T14:17:49Z</time></trkpt><trkpt lat="59.0644264966" lon="30.0305999536"><ele>85.69</ele><time>2026-04-25T14:18:02Z</time></trkpt><trkpt lat="59.0643882751" lon="30.0306314696"><ele>85.69</ele><time>2026-04-25T14:18:12Z</time></trkpt><trkpt lat="59.0642999299" lon="30.0307022966"><ele>85.21</ele><time>2026-04-25T14:18:24Z</time></trkpt><trkpt lat="59.0641451161" lon="30.0307948329"><ele>85.69</ele><time>2026-04-25T14:18:38Z</time></trkpt><trkpt lat="59.0640570223" lon="30.0307903066"><ele>85.21</ele><time>2026-04-25T14:18:50Z</time></trkpt><trkpt lat="59.0640255902" lon="30.0308730360"><ele>85.21</ele><time>2026-04-25T14:19:02Z</time></trkpt><trkpt lat="59.0639491472" lon="30.0310273468"><ele>85.21</ele><time>2026-04-25T14:19:14Z</time></trkpt><trkpt lat="59.0638272744" lon="30.0311317854"><ele>85.21</ele><time>2026-04-25T14:19:26Z</time></trkpt><trkpt lat="59.0637816768" lon="30.0312654767"><ele>85.21</ele><time>2026-04-25T14:19:39Z</time></trkpt><trkpt lat="59.0637320559" lon="30.0313378964"><ele>85.21</ele><time>2026-04-25T14:19:51Z</time></trkpt><trkpt lat="59.0636995342" lon="30.0313896965"><ele>85.21</ele><time>2026-04-25T14:20:09Z</time></trkpt><trkpt lat="59.0636409447" lon="30.0313806441"><ele>84.73</ele><time>2026-04-25T14:20:27Z</time></trkpt><trkpt lat="59.0635841154" lon="30.0312569272"><ele>84.73</ele><time>2026-04-25T14:20:42Z</time></trkpt><trkpt lat="59.0635435469" lon="30.0310991798"><ele>84.73</ele><time>2026-04-25T14:20:56Z</time></trkpt><trkpt lat="59.0634691995" lon="30.0311123393"><ele>85.21</ele><time>2026-04-25T14:21:03Z</time></trkpt><trkpt lat="59.0633555409" lon="30.0310096610"><ele>85.21</ele><time>2026-04-25T14:21:13Z</time></trkpt><trkpt lat="59.0633182414" lon="30.0310403388"><ele>85.21</ele><time>2026-04-25T14:21:17Z</time></trkpt><trkpt lat="59.0632878151" lon="30.0311021972"><ele>85.21</ele><time>2026-04-25T14:21:33Z</time></trkpt><trkpt lat="59.0633058362" lon="30.0310892891"><ele>85.21</ele><time>2026-04-25T14:21:50Z</time></trkpt><trkpt lat="59.0633041598" lon="30.0310797337"><ele>84.73</ele><time>2026-04-25T14:22:11Z</time></trkpt><trkpt lat="59.0633251984" lon="30.0310819969"><ele>85.21</ele><time>2026-04-25T14:22:33Z</time></trkpt><trkpt lat="59.0633143019" lon="30.0310487207"><ele>84.73</ele><time>2026-04-25T14:22:48Z</time></trkpt><trkpt lat="59.0632905811" lon="30.0311026163"><ele>85.21</ele><time>2026-04-25T14:23:13Z</time></trkpt><trkpt lat="59.0632910002" lon="30.0311615411"><ele>84.25</ele><time>2026-04-25T14:23:34Z</time></trkpt><trkpt lat="59.0633046627" lon="30.0311386585"><ele>84.25</ele><time>2026-04-25T14:24:08Z</time></trkpt><trkpt lat="59.0633106139" lon="30.0311703421"><ele>84.73</ele><time>2026-04-25T14:24:46Z</time></trkpt><trkpt lat="59.0633055009" lon="30.0311888661"><ele>84.25</ele><time>2026-04-25T14:25:21Z</time></trkpt><trkpt lat="59.0632896591" lon="30.0311490521"><ele>84.73</ele><time>2026-04-25T14:25:56Z</time></trkpt><trkpt lat="59.0632684529" lon="30.0311059691"><ele>84.73</ele><time>2026-04-25T14:26:32Z</time></trkpt><trkpt lat="59.0632209275" lon="30.0310773030"><ele>85.21</ele><time>2026-04-25T14:27:07Z</time></trkpt><trkpt lat="59.0632469114" lon="30.0310639758"><ele>85.21</ele><time>2026-04-25T14:27:40Z</time></trkpt><trkpt lat="59.0633097757" lon="30.0311272591"><ele>85.69</ele><time>2026-04-25T14:28:13Z</time></trkpt><trkpt lat="59.0632879827" lon="30.0311375689"><ele>85.69</ele><time>2026-04-25T14:28:44Z</time></trkpt><trkpt lat="59.0633150563" lon="30.0311265886"><ele>85.69</ele><time>2026-04-25T14:29:13Z</time></trkpt><trkpt lat="59.0633676108" lon="30.0311525725"><ele>85.69</ele><time>2026-04-25T14:29:43Z</time></trkpt><trkpt lat="59.0633803513" lon="30.0312015228"><ele>85.69</ele><time>2026-04-25T14:30:09Z</time></trkpt><trkpt lat="59.0634018928" lon="30.0312112458"><ele>86.18</ele><time>2026-04-25T14:30:43Z</time></trkpt><trkpt lat="59.0633765794" lon="30.0311877765"><ele>86.18</ele><time>2026-04-25T14:31:15Z</time></trkpt><trkpt lat="59.0633863863" lon="30.0311851781"><ele>86.18</ele><time>2026-04-25T14:31:48Z</time></trkpt><trkpt lat="59.0633847937" lon="30.0311816577"><ele>86.66</ele><time>2026-04-25T14:32:19Z</time></trkpt><trkpt lat="59.0634037368" lon="30.0311530754"><ele>86.66</ele><time>2026-04-25T14:32:48Z</time></trkpt><trkpt lat="59.0634438861" lon="30.0312335417"><ele>86.66</ele><time>2026-04-25T14:33:24Z</time></trkpt><trkpt lat="59.0634502564" lon="30.0312824920"><ele>87.14</ele><time>2026-04-25T14:33:54Z</time></trkpt><trkpt lat="59.0633637551" lon="30.0311857648"><ele>87.14</ele><time>2026-04-25T14:34:26Z</time></trkpt><trkpt lat="59.0633405373" lon="30.0311611220"><ele>87.62</ele><time>2026-04-25T14:34:58Z</time></trkpt><trkpt lat="59.0633700415" lon="30.0311508961"><ele>87.14</ele><time>2026-04-25T14:35:33Z</time></trkpt><trkpt lat="59.0634596441" lon="30.0311836693"><ele>87.62</ele><time>2026-04-25T14:36:06Z</time></trkpt><trkpt lat="59.0634574648" lon="30.0312114134"><ele>87.62</ele><time>2026-04-25T14:36:47Z</time></trkpt><trkpt lat="59.0633902419" lon="30.0311327074"><ele>87.62</ele><time>2026-04-25T14:37:29Z</time></trkpt><trkpt lat="59.0633740649" lon="30.0311322883"><ele>87.62</ele><time>2026-04-25T14:38:01Z</time></trkpt><trkpt lat="59.0633570496" lon="30.0311587751"><ele>87.62</ele><time>2026-04-25T14:38:37Z</time></trkpt><trkpt lat="59.0633712988" lon="30.0311493874"><ele>88.10</ele><time>2026-04-25T14:39:14Z</time></trkpt><trkpt lat="59.0632167365" lon="30.0310611259"><ele>88.10</ele><time>2026-04-25T14:39:26Z</time></trkpt><trkpt lat="59.0631795209" lon="30.0310286880"><ele>88.10</ele><time>2026-04-25T14:39:39Z</time></trkpt><trkpt lat="59.0631886572" lon="30.0309984293"><ele>88.10</ele><time>2026-04-25T14:40:03Z</time></trkpt><trkpt lat="59.0631768387" lon="30.0310192164"><ele>88.58</ele><time>2026-04-25T14:40:19Z</time></trkpt><trkpt lat="59.0632139705" lon="30.0310337171"><ele>88.58</ele><time>2026-04-25T14:40:38Z</time></trkpt><trkpt lat="59.0632775053" lon="30.0310714357"><ele>88.58</ele><time>2026-04-25T14:41:04Z</time></trkpt><trkpt lat="59.0633110330" lon="30.0311136805"><ele>88.10</ele><time>2026-04-25T14:41:38Z</time></trkpt></trkseg><trkseg><trkpt lat="59.0631993022" lon="30.0311874412"><ele>88.10</ele><time>2026-04-25T14:42:24Z</time></trkpt><trkpt lat="59.0631957818" lon="30.0311812386"><ele>88.10</ele><time>2026-04-25T14:42:25Z</time></trkpt></trkseg><trkseg><trkpt lat="59.0631691273" lon="30.0311221462"><ele>88.10</ele><time>2026-04-25T14:42:48Z</time></trkpt></trkseg></trk></gpx>